<?xml version="1.0" encoding="UTF-8" standalone="no" ?>
<gpx xmlns="http://www.topografix.com/GPX/1/1" xmlns:xsi="http://www.w3.org/2001/XMLSchema-instance" xsi:schemaLocation="http://www.topografix.com/GPX/1/1 http://www.topografix.com/GPX/1/1/gpx.xsd" version="1.1" creator="VisuGPX - https://www.visugpx.com">
  <metadata>
    <name>21 exploration benivey olon </name>
  </metadata>
  <trk>
    <name><![CDATA[21 exploration benivey olon _1]]></name>
    <trkseg>
      <trkpt lat="44.30806" lon="5.18407">
        <ele>473</ele>
        <time>2022-07-17T08:14:31Z</time>
      </trkpt>
      <trkpt lat="44.30806" lon="5.18406">
        <ele>473</ele>
        <time>2022-07-17T08:14:32Z</time>
      </trkpt>
      <trkpt lat="44.30806" lon="5.18406">
        <ele>473.1</ele>
        <time>2022-07-17T08:14:33Z</time>
      </trkpt>
      <trkpt lat="44.30806" lon="5.18405">
        <ele>473.1</ele>
        <time>2022-07-17T08:14:34Z</time>
      </trkpt>
      <trkpt lat="44.30805" lon="5.18404">
        <ele>473.1</ele>
        <time>2022-07-17T08:14:35Z</time>
      </trkpt>
      <trkpt lat="44.30805" lon="5.18404">
        <ele>473.1</ele>
        <time>2022-07-17T08:14:36Z</time>
      </trkpt>
      <trkpt lat="44.30805" lon="5.18403">
        <ele>473.1</ele>
        <time>2022-07-17T08:14:37Z</time>
      </trkpt>
      <trkpt lat="44.30805" lon="5.18402">
        <ele>473.1</ele>
        <time>2022-07-17T08:14:38Z</time>
      </trkpt>
      <trkpt lat="44.30804" lon="5.18401">
        <ele>473.1</ele>
        <time>2022-07-17T08:14:39Z</time>
      </trkpt>
      <trkpt lat="44.30804" lon="5.18401">
        <ele>473.2</ele>
        <time>2022-07-17T08:14:40Z</time>
      </trkpt>
      <trkpt lat="44.30803" lon="5.184">
        <ele>473.2</ele>
        <time>2022-07-17T08:14:41Z</time>
      </trkpt>
      <trkpt lat="44.30802" lon="5.18399">
        <ele>473.2</ele>
        <time>2022-07-17T08:14:54Z</time>
      </trkpt>
      <trkpt lat="44.30802" lon="5.18398">
        <ele>473.2</ele>
        <time>2022-07-17T08:14:55Z</time>
      </trkpt>
      <trkpt lat="44.30801" lon="5.18397">
        <ele>473.3</ele>
        <time>2022-07-17T08:14:56Z</time>
      </trkpt>
      <trkpt lat="44.30801" lon="5.18397">
        <ele>473.3</ele>
        <time>2022-07-17T08:14:57Z</time>
      </trkpt>
      <trkpt lat="44.308" lon="5.18396">
        <ele>473.3</ele>
        <time>2022-07-17T08:14:58Z</time>
      </trkpt>
      <trkpt lat="44.30799" lon="5.18395">
        <ele>473.3</ele>
        <time>2022-07-17T08:14:59Z</time>
      </trkpt>
      <trkpt lat="44.30799" lon="5.18394">
        <ele>473.4</ele>
        <time>2022-07-17T08:15:00Z</time>
      </trkpt>
      <trkpt lat="44.30798" lon="5.18393">
        <ele>473.4</ele>
        <time>2022-07-17T08:15:01Z</time>
      </trkpt>
      <trkpt lat="44.30797" lon="5.18393">
        <ele>473.4</ele>
        <time>2022-07-17T08:15:02Z</time>
      </trkpt>
      <trkpt lat="44.30797" lon="5.18392">
        <ele>473.4</ele>
        <time>2022-07-17T08:15:03Z</time>
      </trkpt>
      <trkpt lat="44.30796" lon="5.18391">
        <ele>473.4</ele>
        <time>2022-07-17T08:16:39Z</time>
      </trkpt>
      <trkpt lat="44.30795" lon="5.1839">
        <ele>473.5</ele>
        <time>2022-07-17T08:16:40Z</time>
      </trkpt>
      <trkpt lat="44.30795" lon="5.18389">
        <ele>473.5</ele>
        <time>2022-07-17T08:16:41Z</time>
      </trkpt>
      <trkpt lat="44.30792" lon="5.1839">
        <ele>473.6</ele>
        <time>2022-07-17T08:16:42Z</time>
      </trkpt>
      <trkpt lat="44.30791" lon="5.18391">
        <ele>473.6</ele>
        <time>2022-07-17T08:16:43Z</time>
      </trkpt>
      <trkpt lat="44.30791" lon="5.18395">
        <ele>473.7</ele>
        <time>2022-07-17T08:16:44Z</time>
      </trkpt>
      <trkpt lat="44.30791" lon="5.184">
        <ele>473.8</ele>
        <time>2022-07-17T08:16:45Z</time>
      </trkpt>
      <trkpt lat="44.30793" lon="5.18403">
        <ele>473.8</ele>
        <time>2022-07-17T08:16:46Z</time>
      </trkpt>
      <trkpt lat="44.30796" lon="5.18405">
        <ele>473.9</ele>
        <time>2022-07-17T08:16:47Z</time>
      </trkpt>
      <trkpt lat="44.30799" lon="5.18407">
        <ele>474</ele>
        <time>2022-07-17T08:16:48Z</time>
      </trkpt>
      <trkpt lat="44.308" lon="5.18407">
        <ele>474</ele>
        <time>2022-07-17T08:16:49Z</time>
      </trkpt>
      <trkpt lat="44.30803" lon="5.18409">
        <ele>474.1</ele>
        <time>2022-07-17T08:16:50Z</time>
      </trkpt>
      <trkpt lat="44.30804" lon="5.1841">
        <ele>474.2</ele>
        <time>2022-07-17T08:16:51Z</time>
      </trkpt>
      <trkpt lat="44.30807" lon="5.18413">
        <ele>474.2</ele>
        <time>2022-07-17T08:16:52Z</time>
      </trkpt>
      <trkpt lat="44.30808" lon="5.18414">
        <ele>474.3</ele>
        <time>2022-07-17T08:16:53Z</time>
      </trkpt>
      <trkpt lat="44.30811" lon="5.18417">
        <ele>474.4</ele>
        <time>2022-07-17T08:16:54Z</time>
      </trkpt>
      <trkpt lat="44.30812" lon="5.18417">
        <ele>474.4</ele>
        <time>2022-07-17T08:16:55Z</time>
      </trkpt>
      <trkpt lat="44.30815" lon="5.1842">
        <ele>474.5</ele>
        <time>2022-07-17T08:16:56Z</time>
      </trkpt>
      <trkpt lat="44.30816" lon="5.18421">
        <ele>474.5</ele>
        <time>2022-07-17T08:16:57Z</time>
      </trkpt>
      <trkpt lat="44.30819" lon="5.18423">
        <ele>474.6</ele>
        <time>2022-07-17T08:16:58Z</time>
      </trkpt>
      <trkpt lat="44.3082" lon="5.18424">
        <ele>474.6</ele>
        <time>2022-07-17T08:16:59Z</time>
      </trkpt>
      <trkpt lat="44.30823" lon="5.18426">
        <ele>474.7</ele>
        <time>2022-07-17T08:17:00Z</time>
      </trkpt>
      <trkpt lat="44.30824" lon="5.18426">
        <ele>474.7</ele>
        <time>2022-07-17T08:17:01Z</time>
      </trkpt>
      <trkpt lat="44.30827" lon="5.18428">
        <ele>474.8</ele>
        <time>2022-07-17T08:17:02Z</time>
      </trkpt>
      <trkpt lat="44.30828" lon="5.18428">
        <ele>474.8</ele>
        <time>2022-07-17T08:17:03Z</time>
      </trkpt>
      <trkpt lat="44.30831" lon="5.1843">
        <ele>474.9</ele>
        <time>2022-07-17T08:17:04Z</time>
      </trkpt>
      <trkpt lat="44.30832" lon="5.1843">
        <ele>474.9</ele>
        <time>2022-07-17T08:17:05Z</time>
      </trkpt>
      <trkpt lat="44.30835" lon="5.18432">
        <ele>475</ele>
        <time>2022-07-17T08:17:06Z</time>
      </trkpt>
      <trkpt lat="44.30836" lon="5.18432">
        <ele>475</ele>
        <time>2022-07-17T08:17:07Z</time>
      </trkpt>
      <trkpt lat="44.30839" lon="5.18433">
        <ele>475</ele>
        <time>2022-07-17T08:17:08Z</time>
      </trkpt>
      <trkpt lat="44.3084" lon="5.18433">
        <ele>475</ele>
        <time>2022-07-17T08:17:09Z</time>
      </trkpt>
      <trkpt lat="44.30843" lon="5.18435">
        <ele>475.1</ele>
        <time>2022-07-17T08:17:10Z</time>
      </trkpt>
      <trkpt lat="44.30844" lon="5.18435">
        <ele>475.1</ele>
        <time>2022-07-17T08:17:11Z</time>
      </trkpt>
      <trkpt lat="44.30847" lon="5.18437">
        <ele>475.2</ele>
        <time>2022-07-17T08:17:12Z</time>
      </trkpt>
      <trkpt lat="44.30848" lon="5.18437">
        <ele>475.2</ele>
        <time>2022-07-17T08:17:13Z</time>
      </trkpt>
      <trkpt lat="44.30851" lon="5.18439">
        <ele>475.2</ele>
        <time>2022-07-17T08:17:14Z</time>
      </trkpt>
      <trkpt lat="44.30853" lon="5.18439">
        <ele>475.2</ele>
        <time>2022-07-17T08:17:15Z</time>
      </trkpt>
      <trkpt lat="44.30856" lon="5.18441">
        <ele>475.3</ele>
        <time>2022-07-17T08:17:16Z</time>
      </trkpt>
      <trkpt lat="44.30857" lon="5.18442">
        <ele>475.3</ele>
        <time>2022-07-17T08:17:17Z</time>
      </trkpt>
      <trkpt lat="44.30861" lon="5.18443">
        <ele>475.3</ele>
        <time>2022-07-17T08:17:18Z</time>
      </trkpt>
      <trkpt lat="44.30862" lon="5.18444">
        <ele>475.4</ele>
        <time>2022-07-17T08:17:19Z</time>
      </trkpt>
      <trkpt lat="44.30865" lon="5.18445">
        <ele>475.4</ele>
        <time>2022-07-17T08:17:20Z</time>
      </trkpt>
      <trkpt lat="44.30866" lon="5.18445">
        <ele>475.4</ele>
        <time>2022-07-17T08:17:21Z</time>
      </trkpt>
      <trkpt lat="44.30869" lon="5.18447">
        <ele>475.4</ele>
        <time>2022-07-17T08:17:22Z</time>
      </trkpt>
      <trkpt lat="44.3087" lon="5.18447">
        <ele>475.5</ele>
        <time>2022-07-17T08:17:23Z</time>
      </trkpt>
      <trkpt lat="44.30872" lon="5.18449">
        <ele>475.5</ele>
        <time>2022-07-17T08:17:24Z</time>
      </trkpt>
      <trkpt lat="44.30873" lon="5.1845">
        <ele>475.5</ele>
        <time>2022-07-17T08:17:25Z</time>
      </trkpt>
      <trkpt lat="44.30877" lon="5.18452">
        <ele>475.5</ele>
        <time>2022-07-17T08:17:26Z</time>
      </trkpt>
      <trkpt lat="44.30878" lon="5.18452">
        <ele>475.5</ele>
        <time>2022-07-17T08:17:27Z</time>
      </trkpt>
      <trkpt lat="44.30881" lon="5.18453">
        <ele>475.6</ele>
        <time>2022-07-17T08:17:28Z</time>
      </trkpt>
      <trkpt lat="44.30883" lon="5.18454">
        <ele>475.6</ele>
        <time>2022-07-17T08:17:29Z</time>
      </trkpt>
      <trkpt lat="44.30887" lon="5.18456">
        <ele>475.6</ele>
        <time>2022-07-17T08:17:30Z</time>
      </trkpt>
      <trkpt lat="44.30888" lon="5.18457">
        <ele>475.7</ele>
        <time>2022-07-17T08:17:31Z</time>
      </trkpt>
      <trkpt lat="44.30892" lon="5.18459">
        <ele>475.7</ele>
        <time>2022-07-17T08:17:32Z</time>
      </trkpt>
      <trkpt lat="44.30893" lon="5.1846">
        <ele>475.7</ele>
        <time>2022-07-17T08:17:33Z</time>
      </trkpt>
      <trkpt lat="44.30896" lon="5.18463">
        <ele>475.8</ele>
        <time>2022-07-17T08:17:34Z</time>
      </trkpt>
      <trkpt lat="44.30897" lon="5.18464">
        <ele>475.8</ele>
        <time>2022-07-17T08:17:35Z</time>
      </trkpt>
      <trkpt lat="44.30899" lon="5.18466">
        <ele>475.8</ele>
        <time>2022-07-17T08:17:36Z</time>
      </trkpt>
      <trkpt lat="44.30901" lon="5.18469">
        <ele>475.8</ele>
        <time>2022-07-17T08:17:37Z</time>
      </trkpt>
      <trkpt lat="44.30904" lon="5.18471">
        <ele>475.9</ele>
        <time>2022-07-17T08:17:38Z</time>
      </trkpt>
      <trkpt lat="44.30906" lon="5.18473">
        <ele>475.9</ele>
        <time>2022-07-17T08:17:39Z</time>
      </trkpt>
      <trkpt lat="44.3091" lon="5.18476">
        <ele>475.9</ele>
        <time>2022-07-17T08:17:40Z</time>
      </trkpt>
      <trkpt lat="44.30911" lon="5.18477">
        <ele>475.9</ele>
        <time>2022-07-17T08:17:41Z</time>
      </trkpt>
      <trkpt lat="44.30913" lon="5.18479">
        <ele>476</ele>
        <time>2022-07-17T08:17:42Z</time>
      </trkpt>
      <trkpt lat="44.30916" lon="5.18482">
        <ele>476</ele>
        <time>2022-07-17T08:17:43Z</time>
      </trkpt>
      <trkpt lat="44.30918" lon="5.18483">
        <ele>476</ele>
        <time>2022-07-17T08:17:44Z</time>
      </trkpt>
      <trkpt lat="44.30921" lon="5.18485">
        <ele>476</ele>
        <time>2022-07-17T08:17:45Z</time>
      </trkpt>
      <trkpt lat="44.30922" lon="5.18486">
        <ele>476</ele>
        <time>2022-07-17T08:17:46Z</time>
      </trkpt>
      <trkpt lat="44.30925" lon="5.18489">
        <ele>476</ele>
        <time>2022-07-17T08:17:47Z</time>
      </trkpt>
      <trkpt lat="44.30926" lon="5.1849">
        <ele>476</ele>
        <time>2022-07-17T08:17:48Z</time>
      </trkpt>
      <trkpt lat="44.3093" lon="5.18493">
        <ele>476</ele>
        <time>2022-07-17T08:17:49Z</time>
      </trkpt>
      <trkpt lat="44.30931" lon="5.18494">
        <ele>476</ele>
        <time>2022-07-17T08:17:50Z</time>
      </trkpt>
      <trkpt lat="44.30933" lon="5.18496">
        <ele>475.9</ele>
        <time>2022-07-17T08:17:51Z</time>
      </trkpt>
      <trkpt lat="44.30936" lon="5.18499">
        <ele>475.9</ele>
        <time>2022-07-17T08:17:52Z</time>
      </trkpt>
      <trkpt lat="44.30939" lon="5.18501">
        <ele>475.9</ele>
        <time>2022-07-17T08:17:53Z</time>
      </trkpt>
      <trkpt lat="44.30942" lon="5.18503">
        <ele>475.8</ele>
        <time>2022-07-17T08:17:54Z</time>
      </trkpt>
      <trkpt lat="44.30945" lon="5.18506">
        <ele>475.8</ele>
        <time>2022-07-17T08:17:55Z</time>
      </trkpt>
      <trkpt lat="44.30948" lon="5.18508">
        <ele>475.8</ele>
        <time>2022-07-17T08:17:56Z</time>
      </trkpt>
      <trkpt lat="44.30951" lon="5.18511">
        <ele>475.7</ele>
        <time>2022-07-17T08:17:57Z</time>
      </trkpt>
      <trkpt lat="44.30954" lon="5.18513">
        <ele>475.7</ele>
        <time>2022-07-17T08:17:58Z</time>
      </trkpt>
      <trkpt lat="44.30957" lon="5.18515">
        <ele>475.6</ele>
        <time>2022-07-17T08:17:59Z</time>
      </trkpt>
      <trkpt lat="44.30961" lon="5.18518">
        <ele>475.6</ele>
        <time>2022-07-17T08:18:00Z</time>
      </trkpt>
      <trkpt lat="44.30965" lon="5.1852">
        <ele>475.5</ele>
        <time>2022-07-17T08:18:01Z</time>
      </trkpt>
      <trkpt lat="44.30968" lon="5.18522">
        <ele>475.5</ele>
        <time>2022-07-17T08:18:02Z</time>
      </trkpt>
      <trkpt lat="44.30972" lon="5.18524">
        <ele>475.5</ele>
        <time>2022-07-17T08:18:03Z</time>
      </trkpt>
      <trkpt lat="44.30976" lon="5.18526">
        <ele>475.5</ele>
        <time>2022-07-17T08:18:04Z</time>
      </trkpt>
      <trkpt lat="44.3098" lon="5.18528">
        <ele>475.4</ele>
        <time>2022-07-17T08:18:05Z</time>
      </trkpt>
      <trkpt lat="44.30985" lon="5.1853">
        <ele>475.4</ele>
        <time>2022-07-17T08:18:06Z</time>
      </trkpt>
      <trkpt lat="44.30989" lon="5.18531">
        <ele>475.4</ele>
        <time>2022-07-17T08:18:07Z</time>
      </trkpt>
      <trkpt lat="44.30993" lon="5.18531">
        <ele>475.4</ele>
        <time>2022-07-17T08:18:08Z</time>
      </trkpt>
      <trkpt lat="44.30998" lon="5.18532">
        <ele>475.4</ele>
        <time>2022-07-17T08:18:09Z</time>
      </trkpt>
      <trkpt lat="44.31003" lon="5.18532">
        <ele>475.4</ele>
        <time>2022-07-17T08:18:10Z</time>
      </trkpt>
      <trkpt lat="44.31007" lon="5.18532">
        <ele>475.3</ele>
        <time>2022-07-17T08:18:11Z</time>
      </trkpt>
      <trkpt lat="44.31012" lon="5.18532">
        <ele>475.3</ele>
        <time>2022-07-17T08:18:12Z</time>
      </trkpt>
      <trkpt lat="44.31016" lon="5.18531">
        <ele>475.3</ele>
        <time>2022-07-17T08:18:13Z</time>
      </trkpt>
      <trkpt lat="44.31021" lon="5.1853">
        <ele>475.2</ele>
        <time>2022-07-17T08:18:14Z</time>
      </trkpt>
      <trkpt lat="44.31025" lon="5.18529">
        <ele>475.2</ele>
        <time>2022-07-17T08:18:15Z</time>
      </trkpt>
      <trkpt lat="44.31029" lon="5.18528">
        <ele>475.2</ele>
        <time>2022-07-17T08:18:16Z</time>
      </trkpt>
      <trkpt lat="44.31034" lon="5.18526">
        <ele>475.1</ele>
        <time>2022-07-17T08:18:17Z</time>
      </trkpt>
      <trkpt lat="44.31038" lon="5.18524">
        <ele>475</ele>
        <time>2022-07-17T08:18:18Z</time>
      </trkpt>
      <trkpt lat="44.31043" lon="5.18523">
        <ele>474.9</ele>
        <time>2022-07-17T08:18:19Z</time>
      </trkpt>
      <trkpt lat="44.31047" lon="5.18522">
        <ele>474.9</ele>
        <time>2022-07-17T08:18:20Z</time>
      </trkpt>
      <trkpt lat="44.31052" lon="5.18519">
        <ele>474.8</ele>
        <time>2022-07-17T08:18:21Z</time>
      </trkpt>
      <trkpt lat="44.31057" lon="5.18517">
        <ele>474.8</ele>
        <time>2022-07-17T08:18:22Z</time>
      </trkpt>
      <trkpt lat="44.31061" lon="5.18514">
        <ele>474.8</ele>
        <time>2022-07-17T08:18:23Z</time>
      </trkpt>
      <trkpt lat="44.31066" lon="5.18513">
        <ele>474.8</ele>
        <time>2022-07-17T08:18:24Z</time>
      </trkpt>
      <trkpt lat="44.3107" lon="5.18513">
        <ele>474.9</ele>
        <time>2022-07-17T08:18:25Z</time>
      </trkpt>
      <trkpt lat="44.31074" lon="5.18514">
        <ele>474.9</ele>
        <time>2022-07-17T08:18:26Z</time>
      </trkpt>
      <trkpt lat="44.31078" lon="5.18518">
        <ele>475</ele>
        <time>2022-07-17T08:18:27Z</time>
      </trkpt>
      <trkpt lat="44.3108" lon="5.18523">
        <ele>475</ele>
        <time>2022-07-17T08:18:28Z</time>
      </trkpt>
      <trkpt lat="44.31083" lon="5.18529">
        <ele>475.1</ele>
        <time>2022-07-17T08:18:29Z</time>
      </trkpt>
      <trkpt lat="44.31085" lon="5.18533">
        <ele>475.2</ele>
        <time>2022-07-17T08:18:30Z</time>
      </trkpt>
      <trkpt lat="44.31086" lon="5.18537">
        <ele>475.3</ele>
        <time>2022-07-17T08:18:31Z</time>
      </trkpt>
      <trkpt lat="44.31088" lon="5.18541">
        <ele>475.4</ele>
        <time>2022-07-17T08:18:32Z</time>
      </trkpt>
      <trkpt lat="44.31089" lon="5.18545">
        <ele>475.4</ele>
        <time>2022-07-17T08:18:33Z</time>
      </trkpt>
      <trkpt lat="44.31091" lon="5.18549">
        <ele>475.5</ele>
        <time>2022-07-17T08:18:34Z</time>
      </trkpt>
      <trkpt lat="44.31092" lon="5.18554">
        <ele>475.6</ele>
        <time>2022-07-17T08:18:35Z</time>
      </trkpt>
      <trkpt lat="44.31093" lon="5.18558">
        <ele>475.6</ele>
        <time>2022-07-17T08:18:36Z</time>
      </trkpt>
      <trkpt lat="44.31094" lon="5.18562">
        <ele>475.7</ele>
        <time>2022-07-17T08:18:37Z</time>
      </trkpt>
      <trkpt lat="44.31095" lon="5.18567">
        <ele>475.8</ele>
        <time>2022-07-17T08:18:38Z</time>
      </trkpt>
      <trkpt lat="44.31096" lon="5.18571">
        <ele>475.8</ele>
        <time>2022-07-17T08:18:39Z</time>
      </trkpt>
      <trkpt lat="44.31097" lon="5.18576">
        <ele>475.9</ele>
        <time>2022-07-17T08:18:40Z</time>
      </trkpt>
      <trkpt lat="44.31098" lon="5.18579">
        <ele>475.9</ele>
        <time>2022-07-17T08:18:41Z</time>
      </trkpt>
      <trkpt lat="44.311" lon="5.18585">
        <ele>476</ele>
        <time>2022-07-17T08:18:42Z</time>
      </trkpt>
      <trkpt lat="44.31101" lon="5.18587">
        <ele>476</ele>
        <time>2022-07-17T08:18:43Z</time>
      </trkpt>
      <trkpt lat="44.31102" lon="5.18591">
        <ele>476.1</ele>
        <time>2022-07-17T08:18:44Z</time>
      </trkpt>
      <trkpt lat="44.31103" lon="5.18595">
        <ele>476.1</ele>
        <time>2022-07-17T08:18:45Z</time>
      </trkpt>
      <trkpt lat="44.31105" lon="5.186">
        <ele>476.1</ele>
        <time>2022-07-17T08:18:46Z</time>
      </trkpt>
      <trkpt lat="44.31106" lon="5.18604">
        <ele>476.2</ele>
        <time>2022-07-17T08:18:47Z</time>
      </trkpt>
      <trkpt lat="44.31108" lon="5.18609">
        <ele>476.2</ele>
        <time>2022-07-17T08:18:48Z</time>
      </trkpt>
      <trkpt lat="44.3111" lon="5.18613">
        <ele>476.3</ele>
        <time>2022-07-17T08:18:49Z</time>
      </trkpt>
      <trkpt lat="44.31112" lon="5.18618">
        <ele>476.3</ele>
        <time>2022-07-17T08:18:50Z</time>
      </trkpt>
      <trkpt lat="44.31114" lon="5.18622">
        <ele>476.4</ele>
        <time>2022-07-17T08:18:51Z</time>
      </trkpt>
      <trkpt lat="44.31117" lon="5.18627">
        <ele>476.4</ele>
        <time>2022-07-17T08:18:52Z</time>
      </trkpt>
      <trkpt lat="44.31119" lon="5.18631">
        <ele>476.5</ele>
        <time>2022-07-17T08:18:53Z</time>
      </trkpt>
      <trkpt lat="44.31121" lon="5.18636">
        <ele>476.5</ele>
        <time>2022-07-17T08:18:54Z</time>
      </trkpt>
      <trkpt lat="44.31123" lon="5.1864">
        <ele>476.6</ele>
        <time>2022-07-17T08:18:55Z</time>
      </trkpt>
      <trkpt lat="44.31125" lon="5.18644">
        <ele>476.7</ele>
        <time>2022-07-17T08:18:56Z</time>
      </trkpt>
      <trkpt lat="44.31128" lon="5.18648">
        <ele>476.7</ele>
        <time>2022-07-17T08:18:57Z</time>
      </trkpt>
      <trkpt lat="44.3113" lon="5.18651">
        <ele>476.8</ele>
        <time>2022-07-17T08:18:58Z</time>
      </trkpt>
      <trkpt lat="44.31132" lon="5.18655">
        <ele>476.8</ele>
        <time>2022-07-17T08:18:59Z</time>
      </trkpt>
      <trkpt lat="44.31135" lon="5.18658">
        <ele>476.9</ele>
        <time>2022-07-17T08:19:00Z</time>
      </trkpt>
      <trkpt lat="44.31138" lon="5.18661">
        <ele>477</ele>
        <time>2022-07-17T08:19:01Z</time>
      </trkpt>
      <trkpt lat="44.3114" lon="5.18664">
        <ele>477</ele>
        <time>2022-07-17T08:19:02Z</time>
      </trkpt>
      <trkpt lat="44.31143" lon="5.18667">
        <ele>477</ele>
        <time>2022-07-17T08:19:03Z</time>
      </trkpt>
      <trkpt lat="44.31147" lon="5.1867">
        <ele>477.1</ele>
        <time>2022-07-17T08:19:04Z</time>
      </trkpt>
      <trkpt lat="44.3115" lon="5.18673">
        <ele>477.1</ele>
        <time>2022-07-17T08:19:05Z</time>
      </trkpt>
      <trkpt lat="44.31153" lon="5.18676">
        <ele>477.1</ele>
        <time>2022-07-17T08:19:06Z</time>
      </trkpt>
      <trkpt lat="44.31156" lon="5.1868">
        <ele>477.1</ele>
        <time>2022-07-17T08:19:07Z</time>
      </trkpt>
      <trkpt lat="44.31159" lon="5.18683">
        <ele>477.1</ele>
        <time>2022-07-17T08:19:08Z</time>
      </trkpt>
      <trkpt lat="44.31162" lon="5.18687">
        <ele>477.1</ele>
        <time>2022-07-17T08:19:09Z</time>
      </trkpt>
      <trkpt lat="44.31164" lon="5.1869">
        <ele>477.1</ele>
        <time>2022-07-17T08:19:10Z</time>
      </trkpt>
      <trkpt lat="44.31167" lon="5.18694">
        <ele>477.1</ele>
        <time>2022-07-17T08:19:11Z</time>
      </trkpt>
      <trkpt lat="44.3117" lon="5.18697">
        <ele>477.1</ele>
        <time>2022-07-17T08:19:12Z</time>
      </trkpt>
      <trkpt lat="44.31173" lon="5.187">
        <ele>477</ele>
        <time>2022-07-17T08:19:13Z</time>
      </trkpt>
      <trkpt lat="44.31176" lon="5.18704">
        <ele>477</ele>
        <time>2022-07-17T08:19:14Z</time>
      </trkpt>
      <trkpt lat="44.31179" lon="5.18707">
        <ele>476.9</ele>
        <time>2022-07-17T08:19:15Z</time>
      </trkpt>
      <trkpt lat="44.31183" lon="5.1871">
        <ele>476.8</ele>
        <time>2022-07-17T08:19:16Z</time>
      </trkpt>
      <trkpt lat="44.31186" lon="5.18713">
        <ele>476.7</ele>
        <time>2022-07-17T08:19:17Z</time>
      </trkpt>
      <trkpt lat="44.31189" lon="5.18716">
        <ele>476.6</ele>
        <time>2022-07-17T08:19:18Z</time>
      </trkpt>
      <trkpt lat="44.31192" lon="5.18719">
        <ele>476.5</ele>
        <time>2022-07-17T08:19:19Z</time>
      </trkpt>
      <trkpt lat="44.31196" lon="5.18722">
        <ele>476.4</ele>
        <time>2022-07-17T08:19:20Z</time>
      </trkpt>
      <trkpt lat="44.31199" lon="5.18726">
        <ele>476.3</ele>
        <time>2022-07-17T08:19:21Z</time>
      </trkpt>
      <trkpt lat="44.31202" lon="5.1873">
        <ele>476.2</ele>
        <time>2022-07-17T08:19:22Z</time>
      </trkpt>
      <trkpt lat="44.31205" lon="5.18735">
        <ele>476.1</ele>
        <time>2022-07-17T08:19:23Z</time>
      </trkpt>
      <trkpt lat="44.31205" lon="5.18742">
        <ele>475.9</ele>
        <time>2022-07-17T08:19:24Z</time>
      </trkpt>
      <trkpt lat="44.31205" lon="5.18749">
        <ele>475.7</ele>
        <time>2022-07-17T08:19:25Z</time>
      </trkpt>
      <trkpt lat="44.31205" lon="5.18755">
        <ele>475.6</ele>
        <time>2022-07-17T08:19:26Z</time>
      </trkpt>
      <trkpt lat="44.31203" lon="5.18761">
        <ele>475.4</ele>
        <time>2022-07-17T08:19:27Z</time>
      </trkpt>
      <trkpt lat="44.31202" lon="5.18768">
        <ele>475.3</ele>
        <time>2022-07-17T08:19:28Z</time>
      </trkpt>
      <trkpt lat="44.31201" lon="5.18774">
        <ele>475.2</ele>
        <time>2022-07-17T08:19:29Z</time>
      </trkpt>
      <trkpt lat="44.312" lon="5.18781">
        <ele>475.2</ele>
        <time>2022-07-17T08:19:30Z</time>
      </trkpt>
      <trkpt lat="44.31201" lon="5.18789">
        <ele>475.2</ele>
        <time>2022-07-17T08:19:31Z</time>
      </trkpt>
      <trkpt lat="44.31202" lon="5.18796">
        <ele>475.2</ele>
        <time>2022-07-17T08:19:32Z</time>
      </trkpt>
      <trkpt lat="44.31204" lon="5.18804">
        <ele>475.2</ele>
        <time>2022-07-17T08:19:33Z</time>
      </trkpt>
      <trkpt lat="44.31206" lon="5.1881">
        <ele>475.3</ele>
        <time>2022-07-17T08:19:34Z</time>
      </trkpt>
      <trkpt lat="44.31207" lon="5.18814">
        <ele>475.4</ele>
        <time>2022-07-17T08:19:35Z</time>
      </trkpt>
      <trkpt lat="44.31207" lon="5.18815">
        <ele>475.4</ele>
        <time>2022-07-17T08:19:36Z</time>
      </trkpt>
      <trkpt lat="44.3121" lon="5.18819">
        <ele>475.5</ele>
        <time>2022-07-17T08:19:37Z</time>
      </trkpt>
      <trkpt lat="44.31213" lon="5.18822">
        <ele>475.6</ele>
        <time>2022-07-17T08:19:38Z</time>
      </trkpt>
      <trkpt lat="44.31216" lon="5.18826">
        <ele>475.7</ele>
        <time>2022-07-17T08:19:39Z</time>
      </trkpt>
      <trkpt lat="44.31219" lon="5.18829">
        <ele>475.9</ele>
        <time>2022-07-17T08:19:40Z</time>
      </trkpt>
      <trkpt lat="44.31221" lon="5.18832">
        <ele>475.9</ele>
        <time>2022-07-17T08:19:41Z</time>
      </trkpt>
      <trkpt lat="44.31221" lon="5.18833">
        <ele>476</ele>
        <time>2022-07-17T08:19:42Z</time>
      </trkpt>
      <trkpt lat="44.31222" lon="5.18834">
        <ele>476</ele>
        <time>2022-07-17T08:19:43Z</time>
      </trkpt>
      <trkpt lat="44.31223" lon="5.18835">
        <ele>476.1</ele>
        <time>2022-07-17T08:19:44Z</time>
      </trkpt>
      <trkpt lat="44.31225" lon="5.18836">
        <ele>476.1</ele>
        <time>2022-07-17T08:19:45Z</time>
      </trkpt>
      <trkpt lat="44.31228" lon="5.18837">
        <ele>476.3</ele>
        <time>2022-07-17T08:19:46Z</time>
      </trkpt>
      <trkpt lat="44.31229" lon="5.18838">
        <ele>476.3</ele>
        <time>2022-07-17T08:19:47Z</time>
      </trkpt>
      <trkpt lat="44.31232" lon="5.18839">
        <ele>476.4</ele>
        <time>2022-07-17T08:19:48Z</time>
      </trkpt>
      <trkpt lat="44.31233" lon="5.18839">
        <ele>476.5</ele>
        <time>2022-07-17T08:19:49Z</time>
      </trkpt>
      <trkpt lat="44.31236" lon="5.1884">
        <ele>476.5</ele>
        <time>2022-07-17T08:19:50Z</time>
      </trkpt>
      <trkpt lat="44.3124" lon="5.1884">
        <ele>476.6</ele>
        <time>2022-07-17T08:19:51Z</time>
      </trkpt>
      <trkpt lat="44.31241" lon="5.18841">
        <ele>476.7</ele>
        <time>2022-07-17T08:19:52Z</time>
      </trkpt>
      <trkpt lat="44.31244" lon="5.18842">
        <ele>476.8</ele>
        <time>2022-07-17T08:19:53Z</time>
      </trkpt>
      <trkpt lat="44.31245" lon="5.18843">
        <ele>476.8</ele>
        <time>2022-07-17T08:19:54Z</time>
      </trkpt>
      <trkpt lat="44.31248" lon="5.18845">
        <ele>476.9</ele>
        <time>2022-07-17T08:19:55Z</time>
      </trkpt>
      <trkpt lat="44.31249" lon="5.18845">
        <ele>476.9</ele>
        <time>2022-07-17T08:19:56Z</time>
      </trkpt>
      <trkpt lat="44.31252" lon="5.18847">
        <ele>477</ele>
        <time>2022-07-17T08:19:57Z</time>
      </trkpt>
      <trkpt lat="44.31253" lon="5.18847">
        <ele>477.1</ele>
        <time>2022-07-17T08:19:58Z</time>
      </trkpt>
      <trkpt lat="44.31256" lon="5.18848">
        <ele>477.2</ele>
        <time>2022-07-17T08:19:59Z</time>
      </trkpt>
      <trkpt lat="44.31257" lon="5.18848">
        <ele>477.2</ele>
        <time>2022-07-17T08:20:00Z</time>
      </trkpt>
      <trkpt lat="44.3126" lon="5.18848">
        <ele>478.8</ele>
        <time>2022-07-17T08:20:01Z</time>
      </trkpt>
      <trkpt lat="44.31261" lon="5.18848">
        <ele>478.9</ele>
        <time>2022-07-17T08:20:02Z</time>
      </trkpt>
      <trkpt lat="44.31263" lon="5.18848">
        <ele>479.2</ele>
        <time>2022-07-17T08:20:03Z</time>
      </trkpt>
      <trkpt lat="44.31264" lon="5.18848">
        <ele>479.4</ele>
        <time>2022-07-17T08:20:04Z</time>
      </trkpt>
      <trkpt lat="44.31265" lon="5.18848">
        <ele>479.6</ele>
        <time>2022-07-17T08:20:05Z</time>
      </trkpt>
      <trkpt lat="44.31267" lon="5.18849">
        <ele>479.8</ele>
        <time>2022-07-17T08:20:06Z</time>
      </trkpt>
      <trkpt lat="44.31268" lon="5.1885">
        <ele>480.1</ele>
        <time>2022-07-17T08:20:07Z</time>
      </trkpt>
      <trkpt lat="44.31269" lon="5.18852">
        <ele>480.3</ele>
        <time>2022-07-17T08:20:08Z</time>
      </trkpt>
      <trkpt lat="44.31269" lon="5.18854">
        <ele>480.6</ele>
        <time>2022-07-17T08:20:09Z</time>
      </trkpt>
      <trkpt lat="44.31269" lon="5.18855">
        <ele>480.8</ele>
        <time>2022-07-17T08:20:10Z</time>
      </trkpt>
      <trkpt lat="44.31268" lon="5.18856">
        <ele>481</ele>
        <time>2022-07-17T08:20:11Z</time>
      </trkpt>
      <trkpt lat="44.31267" lon="5.18857">
        <ele>481.1</ele>
        <time>2022-07-17T08:20:12Z</time>
      </trkpt>
      <trkpt lat="44.31266" lon="5.18857">
        <ele>481.3</ele>
        <time>2022-07-17T08:20:13Z</time>
      </trkpt>
      <trkpt lat="44.31266" lon="5.18857">
        <ele>481.4</ele>
        <time>2022-07-17T08:20:14Z</time>
      </trkpt>
      <trkpt lat="44.31265" lon="5.18857">
        <ele>481.5</ele>
        <time>2022-07-17T08:20:15Z</time>
      </trkpt>
      <trkpt lat="44.31265" lon="5.18856">
        <ele>481.6</ele>
        <time>2022-07-17T08:20:16Z</time>
      </trkpt>
      <trkpt lat="44.31265" lon="5.18856">
        <ele>481.6</ele>
        <time>2022-07-17T08:20:17Z</time>
      </trkpt>
      <trkpt lat="44.31266" lon="5.18854">
        <ele>481.8</ele>
        <time>2022-07-17T08:20:18Z</time>
      </trkpt>
      <trkpt lat="44.31266" lon="5.18853">
        <ele>481.9</ele>
        <time>2022-07-17T08:20:19Z</time>
      </trkpt>
      <trkpt lat="44.31266" lon="5.18853">
        <ele>482</ele>
        <time>2022-07-17T08:20:20Z</time>
      </trkpt>
      <trkpt lat="44.31266" lon="5.18852">
        <ele>482.1</ele>
        <time>2022-07-17T08:20:21Z</time>
      </trkpt>
      <trkpt lat="44.31265" lon="5.18852">
        <ele>482.1</ele>
        <time>2022-07-17T08:20:22Z</time>
      </trkpt>
      <trkpt lat="44.31265" lon="5.18852">
        <ele>482.2</ele>
        <time>2022-07-17T08:20:23Z</time>
      </trkpt>
      <trkpt lat="44.31264" lon="5.18851">
        <ele>482.2</ele>
        <time>2022-07-17T08:20:24Z</time>
      </trkpt>
      <trkpt lat="44.31264" lon="5.18851">
        <ele>482.3</ele>
        <time>2022-07-17T08:20:25Z</time>
      </trkpt>
      <trkpt lat="44.31263" lon="5.18851">
        <ele>482.3</ele>
        <time>2022-07-17T08:20:26Z</time>
      </trkpt>
      <trkpt lat="44.31263" lon="5.1885">
        <ele>482.4</ele>
        <time>2022-07-17T08:20:27Z</time>
      </trkpt>
      <trkpt lat="44.31261" lon="5.1885">
        <ele>482.5</ele>
        <time>2022-07-17T08:20:28Z</time>
      </trkpt>
      <trkpt lat="44.31259" lon="5.1885">
        <ele>482.6</ele>
        <time>2022-07-17T08:20:29Z</time>
      </trkpt>
      <trkpt lat="44.31257" lon="5.18851">
        <ele>482.7</ele>
        <time>2022-07-17T08:20:30Z</time>
      </trkpt>
      <trkpt lat="44.31257" lon="5.18851">
        <ele>482.8</ele>
        <time>2022-07-17T08:20:31Z</time>
      </trkpt>
      <trkpt lat="44.31256" lon="5.18852">
        <ele>482.8</ele>
        <time>2022-07-17T08:20:32Z</time>
      </trkpt>
      <trkpt lat="44.31254" lon="5.18853">
        <ele>482.9</ele>
        <time>2022-07-17T08:20:33Z</time>
      </trkpt>
      <trkpt lat="44.31253" lon="5.18853">
        <ele>483</ele>
        <time>2022-07-17T08:20:34Z</time>
      </trkpt>
      <trkpt lat="44.31251" lon="5.18854">
        <ele>483.1</ele>
        <time>2022-07-17T08:20:35Z</time>
      </trkpt>
      <trkpt lat="44.3125" lon="5.18854">
        <ele>483.1</ele>
        <time>2022-07-17T08:20:36Z</time>
      </trkpt>
      <trkpt lat="44.31248" lon="5.18855">
        <ele>483.2</ele>
        <time>2022-07-17T08:20:37Z</time>
      </trkpt>
      <trkpt lat="44.31247" lon="5.18856">
        <ele>483.3</ele>
        <time>2022-07-17T08:20:38Z</time>
      </trkpt>
      <trkpt lat="44.31246" lon="5.18856">
        <ele>483.3</ele>
        <time>2022-07-17T08:20:39Z</time>
      </trkpt>
      <trkpt lat="44.31245" lon="5.18857">
        <ele>483.4</ele>
        <time>2022-07-17T08:20:40Z</time>
      </trkpt>
      <trkpt lat="44.31243" lon="5.18858">
        <ele>483.5</ele>
        <time>2022-07-17T08:20:41Z</time>
      </trkpt>
      <trkpt lat="44.31241" lon="5.18859">
        <ele>483.6</ele>
        <time>2022-07-17T08:20:42Z</time>
      </trkpt>
      <trkpt lat="44.31241" lon="5.1886">
        <ele>483.7</ele>
        <time>2022-07-17T08:20:43Z</time>
      </trkpt>
      <trkpt lat="44.3124" lon="5.18861">
        <ele>483.7</ele>
        <time>2022-07-17T08:20:44Z</time>
      </trkpt>
      <trkpt lat="44.31239" lon="5.18861">
        <ele>483.8</ele>
        <time>2022-07-17T08:20:45Z</time>
      </trkpt>
      <trkpt lat="44.31238" lon="5.18861">
        <ele>483.8</ele>
        <time>2022-07-17T08:20:46Z</time>
      </trkpt>
      <trkpt lat="44.31236" lon="5.1886">
        <ele>483.9</ele>
        <time>2022-07-17T08:20:47Z</time>
      </trkpt>
      <trkpt lat="44.31235" lon="5.1886">
        <ele>483.9</ele>
        <time>2022-07-17T08:20:48Z</time>
      </trkpt>
      <trkpt lat="44.31234" lon="5.18859">
        <ele>484</ele>
        <time>2022-07-17T08:20:49Z</time>
      </trkpt>
      <trkpt lat="44.31233" lon="5.18859">
        <ele>484</ele>
        <time>2022-07-17T08:20:50Z</time>
      </trkpt>
      <trkpt lat="44.31231" lon="5.18858">
        <ele>484.1</ele>
        <time>2022-07-17T08:20:51Z</time>
      </trkpt>
      <trkpt lat="44.3123" lon="5.18858">
        <ele>484.1</ele>
        <time>2022-07-17T08:20:52Z</time>
      </trkpt>
      <trkpt lat="44.31229" lon="5.18857">
        <ele>484.2</ele>
        <time>2022-07-17T08:20:53Z</time>
      </trkpt>
      <trkpt lat="44.31227" lon="5.18857">
        <ele>484.3</ele>
        <time>2022-07-17T08:20:54Z</time>
      </trkpt>
      <trkpt lat="44.31226" lon="5.18857">
        <ele>484.3</ele>
        <time>2022-07-17T08:20:55Z</time>
      </trkpt>
      <trkpt lat="44.31222" lon="5.18857">
        <ele>484.4</ele>
        <time>2022-07-17T08:20:56Z</time>
      </trkpt>
      <trkpt lat="44.31221" lon="5.18857">
        <ele>484.5</ele>
        <time>2022-07-17T08:20:57Z</time>
      </trkpt>
      <trkpt lat="44.31218" lon="5.18857">
        <ele>484.6</ele>
        <time>2022-07-17T08:20:58Z</time>
      </trkpt>
      <trkpt lat="44.31217" lon="5.18858">
        <ele>484.6</ele>
        <time>2022-07-17T08:20:59Z</time>
      </trkpt>
      <trkpt lat="44.31215" lon="5.1886">
        <ele>484.7</ele>
        <time>2022-07-17T08:21:00Z</time>
      </trkpt>
      <trkpt lat="44.31214" lon="5.1886">
        <ele>484.7</ele>
        <time>2022-07-17T08:21:01Z</time>
      </trkpt>
      <trkpt lat="44.3121" lon="5.18863">
        <ele>484.8</ele>
        <time>2022-07-17T08:21:02Z</time>
      </trkpt>
      <trkpt lat="44.31209" lon="5.18863">
        <ele>484.9</ele>
        <time>2022-07-17T08:21:03Z</time>
      </trkpt>
      <trkpt lat="44.31206" lon="5.18865">
        <ele>485</ele>
        <time>2022-07-17T08:21:04Z</time>
      </trkpt>
      <trkpt lat="44.31205" lon="5.18866">
        <ele>485.1</ele>
        <time>2022-07-17T08:21:05Z</time>
      </trkpt>
      <trkpt lat="44.31204" lon="5.18867">
        <ele>485.2</ele>
        <time>2022-07-17T08:21:06Z</time>
      </trkpt>
      <trkpt lat="44.31202" lon="5.18868">
        <ele>485.3</ele>
        <time>2022-07-17T08:21:07Z</time>
      </trkpt>
      <trkpt lat="44.31201" lon="5.18869">
        <ele>485.4</ele>
        <time>2022-07-17T08:21:08Z</time>
      </trkpt>
      <trkpt lat="44.31199" lon="5.1887">
        <ele>485.6</ele>
        <time>2022-07-17T08:21:09Z</time>
      </trkpt>
      <trkpt lat="44.31198" lon="5.18871">
        <ele>485.7</ele>
        <time>2022-07-17T08:21:10Z</time>
      </trkpt>
      <trkpt lat="44.31197" lon="5.18872">
        <ele>485.9</ele>
        <time>2022-07-17T08:21:11Z</time>
      </trkpt>
      <trkpt lat="44.31196" lon="5.18872">
        <ele>486.1</ele>
        <time>2022-07-17T08:21:12Z</time>
      </trkpt>
      <trkpt lat="44.31194" lon="5.18871">
        <ele>486.3</ele>
        <time>2022-07-17T08:21:13Z</time>
      </trkpt>
      <trkpt lat="44.31193" lon="5.18871">
        <ele>486.5</ele>
        <time>2022-07-17T08:21:14Z</time>
      </trkpt>
      <trkpt lat="44.31192" lon="5.18871">
        <ele>486.6</ele>
        <time>2022-07-17T08:21:15Z</time>
      </trkpt>
      <trkpt lat="44.31191" lon="5.1887">
        <ele>486.7</ele>
        <time>2022-07-17T08:21:16Z</time>
      </trkpt>
      <trkpt lat="44.3119" lon="5.1887">
        <ele>487</ele>
        <time>2022-07-17T08:21:17Z</time>
      </trkpt>
      <trkpt lat="44.31188" lon="5.18869">
        <ele>487.3</ele>
        <time>2022-07-17T08:21:18Z</time>
      </trkpt>
      <trkpt lat="44.31187" lon="5.1887">
        <ele>487.5</ele>
        <time>2022-07-17T08:21:19Z</time>
      </trkpt>
      <trkpt lat="44.31187" lon="5.18871">
        <ele>487.6</ele>
        <time>2022-07-17T08:21:20Z</time>
      </trkpt>
      <trkpt lat="44.31186" lon="5.18872">
        <ele>487.9</ele>
        <time>2022-07-17T08:21:21Z</time>
      </trkpt>
      <trkpt lat="44.31184" lon="5.18872">
        <ele>488.3</ele>
        <time>2022-07-17T08:21:22Z</time>
      </trkpt>
      <trkpt lat="44.31183" lon="5.18873">
        <ele>488.5</ele>
        <time>2022-07-17T08:21:23Z</time>
      </trkpt>
      <trkpt lat="44.31182" lon="5.18873">
        <ele>488.7</ele>
        <time>2022-07-17T08:21:24Z</time>
      </trkpt>
      <trkpt lat="44.3118" lon="5.18874">
        <ele>489.1</ele>
        <time>2022-07-17T08:21:25Z</time>
      </trkpt>
      <trkpt lat="44.31179" lon="5.18875">
        <ele>489.3</ele>
        <time>2022-07-17T08:21:26Z</time>
      </trkpt>
      <trkpt lat="44.31179" lon="5.18875">
        <ele>489.5</ele>
        <time>2022-07-17T08:21:27Z</time>
      </trkpt>
      <trkpt lat="44.31177" lon="5.18877">
        <ele>489.8</ele>
        <time>2022-07-17T08:21:28Z</time>
      </trkpt>
      <trkpt lat="44.31176" lon="5.18879">
        <ele>490.1</ele>
        <time>2022-07-17T08:21:29Z</time>
      </trkpt>
      <trkpt lat="44.31175" lon="5.18881">
        <ele>490.4</ele>
        <time>2022-07-17T08:21:30Z</time>
      </trkpt>
      <trkpt lat="44.31174" lon="5.18883">
        <ele>490.7</ele>
        <time>2022-07-17T08:21:31Z</time>
      </trkpt>
      <trkpt lat="44.31173" lon="5.18886">
        <ele>491</ele>
        <time>2022-07-17T08:21:32Z</time>
      </trkpt>
      <trkpt lat="44.31173" lon="5.18887">
        <ele>491.2</ele>
        <time>2022-07-17T08:21:33Z</time>
      </trkpt>
      <trkpt lat="44.31173" lon="5.18888">
        <ele>491.3</ele>
        <time>2022-07-17T08:21:34Z</time>
      </trkpt>
      <trkpt lat="44.31172" lon="5.18891">
        <ele>491.6</ele>
        <time>2022-07-17T08:21:35Z</time>
      </trkpt>
      <trkpt lat="44.31172" lon="5.18892">
        <ele>491.7</ele>
        <time>2022-07-17T08:21:36Z</time>
      </trkpt>
      <trkpt lat="44.31172" lon="5.18893">
        <ele>491.9</ele>
        <time>2022-07-17T08:21:37Z</time>
      </trkpt>
      <trkpt lat="44.31172" lon="5.18895">
        <ele>492.1</ele>
        <time>2022-07-17T08:21:38Z</time>
      </trkpt>
      <trkpt lat="44.31172" lon="5.18897">
        <ele>492.4</ele>
        <time>2022-07-17T08:21:39Z</time>
      </trkpt>
      <trkpt lat="44.31172" lon="5.18899">
        <ele>492.7</ele>
        <time>2022-07-17T08:21:40Z</time>
      </trkpt>
      <trkpt lat="44.31172" lon="5.18901">
        <ele>492.9</ele>
        <time>2022-07-17T08:21:41Z</time>
      </trkpt>
      <trkpt lat="44.31172" lon="5.18903">
        <ele>493</ele>
        <time>2022-07-17T08:21:42Z</time>
      </trkpt>
      <trkpt lat="44.31171" lon="5.18904">
        <ele>493.2</ele>
        <time>2022-07-17T08:21:43Z</time>
      </trkpt>
      <trkpt lat="44.31171" lon="5.18906">
        <ele>493.4</ele>
        <time>2022-07-17T08:21:44Z</time>
      </trkpt>
      <trkpt lat="44.31171" lon="5.18909">
        <ele>493.6</ele>
        <time>2022-07-17T08:21:45Z</time>
      </trkpt>
      <trkpt lat="44.31171" lon="5.1891">
        <ele>493.8</ele>
        <time>2022-07-17T08:21:46Z</time>
      </trkpt>
      <trkpt lat="44.31171" lon="5.18911">
        <ele>493.9</ele>
        <time>2022-07-17T08:21:47Z</time>
      </trkpt>
      <trkpt lat="44.3117" lon="5.18913">
        <ele>494</ele>
        <time>2022-07-17T08:21:48Z</time>
      </trkpt>
      <trkpt lat="44.3117" lon="5.18914">
        <ele>494.1</ele>
        <time>2022-07-17T08:21:49Z</time>
      </trkpt>
      <trkpt lat="44.31169" lon="5.18914">
        <ele>494.2</ele>
        <time>2022-07-17T08:21:50Z</time>
      </trkpt>
      <trkpt lat="44.31169" lon="5.18914">
        <ele>494.3</ele>
        <time>2022-07-17T08:21:51Z</time>
      </trkpt>
      <trkpt lat="44.31168" lon="5.18913">
        <ele>494.4</ele>
        <time>2022-07-17T08:21:52Z</time>
      </trkpt>
      <trkpt lat="44.31168" lon="5.18912">
        <ele>494.5</ele>
        <time>2022-07-17T08:21:53Z</time>
      </trkpt>
      <trkpt lat="44.31168" lon="5.1891">
        <ele>494.7</ele>
        <time>2022-07-17T08:21:54Z</time>
      </trkpt>
      <trkpt lat="44.31168" lon="5.18909">
        <ele>494.9</ele>
        <time>2022-07-17T08:21:55Z</time>
      </trkpt>
      <trkpt lat="44.31168" lon="5.18908">
        <ele>495</ele>
        <time>2022-07-17T08:21:56Z</time>
      </trkpt>
      <trkpt lat="44.31167" lon="5.18907">
        <ele>495.1</ele>
        <time>2022-07-17T08:21:57Z</time>
      </trkpt>
      <trkpt lat="44.31166" lon="5.18906">
        <ele>495.3</ele>
        <time>2022-07-17T08:21:58Z</time>
      </trkpt>
      <trkpt lat="44.31166" lon="5.18905">
        <ele>495.5</ele>
        <time>2022-07-17T08:21:59Z</time>
      </trkpt>
      <trkpt lat="44.31165" lon="5.18904">
        <ele>495.7</ele>
        <time>2022-07-17T08:22:00Z</time>
      </trkpt>
      <trkpt lat="44.31165" lon="5.18902">
        <ele>495.9</ele>
        <time>2022-07-17T08:22:01Z</time>
      </trkpt>
      <trkpt lat="44.31164" lon="5.18901">
        <ele>496</ele>
        <time>2022-07-17T08:22:02Z</time>
      </trkpt>
      <trkpt lat="44.31164" lon="5.189">
        <ele>496.2</ele>
        <time>2022-07-17T08:22:03Z</time>
      </trkpt>
      <trkpt lat="44.31163" lon="5.18899">
        <ele>496.5</ele>
        <time>2022-07-17T08:22:04Z</time>
      </trkpt>
      <trkpt lat="44.31162" lon="5.18898">
        <ele>496.7</ele>
        <time>2022-07-17T08:22:05Z</time>
      </trkpt>
      <trkpt lat="44.31162" lon="5.18897">
        <ele>496.9</ele>
        <time>2022-07-17T08:22:06Z</time>
      </trkpt>
      <trkpt lat="44.31161" lon="5.18895">
        <ele>497</ele>
        <time>2022-07-17T08:22:07Z</time>
      </trkpt>
      <trkpt lat="44.31161" lon="5.18894">
        <ele>497.2</ele>
        <time>2022-07-17T08:22:08Z</time>
      </trkpt>
      <trkpt lat="44.31161" lon="5.18893">
        <ele>497.4</ele>
        <time>2022-07-17T08:22:09Z</time>
      </trkpt>
      <trkpt lat="44.3116" lon="5.18892">
        <ele>497.5</ele>
        <time>2022-07-17T08:22:10Z</time>
      </trkpt>
      <trkpt lat="44.3116" lon="5.18891">
        <ele>497.7</ele>
        <time>2022-07-17T08:22:11Z</time>
      </trkpt>
      <trkpt lat="44.31159" lon="5.18889">
        <ele>497.8</ele>
        <time>2022-07-17T08:22:12Z</time>
      </trkpt>
      <trkpt lat="44.31158" lon="5.18888">
        <ele>498</ele>
        <time>2022-07-17T08:22:13Z</time>
      </trkpt>
      <trkpt lat="44.31157" lon="5.18886">
        <ele>498.1</ele>
        <time>2022-07-17T08:22:14Z</time>
      </trkpt>
      <trkpt lat="44.31156" lon="5.18885">
        <ele>498.2</ele>
        <time>2022-07-17T08:22:15Z</time>
      </trkpt>
      <trkpt lat="44.31156" lon="5.18883">
        <ele>498.3</ele>
        <time>2022-07-17T08:22:16Z</time>
      </trkpt>
      <trkpt lat="44.31154" lon="5.18882">
        <ele>498.3</ele>
        <time>2022-07-17T08:22:17Z</time>
      </trkpt>
      <trkpt lat="44.31153" lon="5.18881">
        <ele>498.4</ele>
        <time>2022-07-17T08:22:18Z</time>
      </trkpt>
      <trkpt lat="44.31152" lon="5.1888">
        <ele>498.4</ele>
        <time>2022-07-17T08:22:19Z</time>
      </trkpt>
      <trkpt lat="44.31152" lon="5.18879">
        <ele>498.4</ele>
        <time>2022-07-17T08:22:20Z</time>
      </trkpt>
      <trkpt lat="44.31151" lon="5.18877">
        <ele>498.4</ele>
        <time>2022-07-17T08:22:21Z</time>
      </trkpt>
      <trkpt lat="44.31151" lon="5.18876">
        <ele>498.4</ele>
        <time>2022-07-17T08:22:22Z</time>
      </trkpt>
      <trkpt lat="44.31151" lon="5.18875">
        <ele>498.4</ele>
        <time>2022-07-17T08:22:23Z</time>
      </trkpt>
      <trkpt lat="44.31151" lon="5.18874">
        <ele>498.5</ele>
        <time>2022-07-17T08:22:24Z</time>
      </trkpt>
      <trkpt lat="44.31151" lon="5.18873">
        <ele>498.5</ele>
        <time>2022-07-17T08:22:25Z</time>
      </trkpt>
      <trkpt lat="44.31151" lon="5.18872">
        <ele>498.5</ele>
        <time>2022-07-17T08:22:26Z</time>
      </trkpt>
      <trkpt lat="44.31151" lon="5.18871">
        <ele>498.5</ele>
        <time>2022-07-17T08:22:27Z</time>
      </trkpt>
      <trkpt lat="44.31151" lon="5.1887">
        <ele>498.6</ele>
        <time>2022-07-17T08:22:28Z</time>
      </trkpt>
      <trkpt lat="44.3115" lon="5.18869">
        <ele>498.6</ele>
        <time>2022-07-17T08:22:29Z</time>
      </trkpt>
      <trkpt lat="44.31149" lon="5.18867">
        <ele>498.7</ele>
        <time>2022-07-17T08:22:30Z</time>
      </trkpt>
      <trkpt lat="44.31148" lon="5.18866">
        <ele>498.9</ele>
        <time>2022-07-17T08:22:31Z</time>
      </trkpt>
      <trkpt lat="44.31147" lon="5.18864">
        <ele>499</ele>
        <time>2022-07-17T08:22:32Z</time>
      </trkpt>
      <trkpt lat="44.31146" lon="5.18863">
        <ele>499.2</ele>
        <time>2022-07-17T08:22:33Z</time>
      </trkpt>
      <trkpt lat="44.31145" lon="5.18861">
        <ele>499.4</ele>
        <time>2022-07-17T08:22:34Z</time>
      </trkpt>
      <trkpt lat="44.31144" lon="5.1886">
        <ele>499.6</ele>
        <time>2022-07-17T08:22:35Z</time>
      </trkpt>
      <trkpt lat="44.31143" lon="5.18858">
        <ele>499.8</ele>
        <time>2022-07-17T08:22:36Z</time>
      </trkpt>
      <trkpt lat="44.31142" lon="5.18857">
        <ele>500.1</ele>
        <time>2022-07-17T08:22:37Z</time>
      </trkpt>
      <trkpt lat="44.31141" lon="5.18856">
        <ele>500.2</ele>
        <time>2022-07-17T08:22:38Z</time>
      </trkpt>
      <trkpt lat="44.31141" lon="5.18855">
        <ele>500.4</ele>
        <time>2022-07-17T08:22:39Z</time>
      </trkpt>
      <trkpt lat="44.3114" lon="5.18853">
        <ele>500.6</ele>
        <time>2022-07-17T08:22:40Z</time>
      </trkpt>
      <trkpt lat="44.3114" lon="5.18852">
        <ele>500.8</ele>
        <time>2022-07-17T08:22:41Z</time>
      </trkpt>
      <trkpt lat="44.31139" lon="5.1885">
        <ele>501</ele>
        <time>2022-07-17T08:22:42Z</time>
      </trkpt>
      <trkpt lat="44.31138" lon="5.18849">
        <ele>501.2</ele>
        <time>2022-07-17T08:22:43Z</time>
      </trkpt>
      <trkpt lat="44.31136" lon="5.18848">
        <ele>501.6</ele>
        <time>2022-07-17T08:22:44Z</time>
      </trkpt>
      <trkpt lat="44.31136" lon="5.18848">
        <ele>501.8</ele>
        <time>2022-07-17T08:22:45Z</time>
      </trkpt>
      <trkpt lat="44.31135" lon="5.18847">
        <ele>501.9</ele>
        <time>2022-07-17T08:22:46Z</time>
      </trkpt>
      <trkpt lat="44.31133" lon="5.18847">
        <ele>502.3</ele>
        <time>2022-07-17T08:22:47Z</time>
      </trkpt>
      <trkpt lat="44.31132" lon="5.18847">
        <ele>502.5</ele>
        <time>2022-07-17T08:22:48Z</time>
      </trkpt>
      <trkpt lat="44.31131" lon="5.18847">
        <ele>502.6</ele>
        <time>2022-07-17T08:22:49Z</time>
      </trkpt>
      <trkpt lat="44.3113" lon="5.18847">
        <ele>502.7</ele>
        <time>2022-07-17T08:22:50Z</time>
      </trkpt>
      <trkpt lat="44.3113" lon="5.18847">
        <ele>502.8</ele>
        <time>2022-07-17T08:22:51Z</time>
      </trkpt>
      <trkpt lat="44.31129" lon="5.18846">
        <ele>503</ele>
        <time>2022-07-17T08:22:52Z</time>
      </trkpt>
      <trkpt lat="44.31127" lon="5.18846">
        <ele>503.2</ele>
        <time>2022-07-17T08:22:53Z</time>
      </trkpt>
      <trkpt lat="44.31125" lon="5.18845">
        <ele>503.5</ele>
        <time>2022-07-17T08:22:54Z</time>
      </trkpt>
      <trkpt lat="44.31124" lon="5.18845">
        <ele>503.6</ele>
        <time>2022-07-17T08:22:55Z</time>
      </trkpt>
      <trkpt lat="44.31122" lon="5.18844">
        <ele>503.8</ele>
        <time>2022-07-17T08:22:56Z</time>
      </trkpt>
      <trkpt lat="44.31121" lon="5.18844">
        <ele>503.9</ele>
        <time>2022-07-17T08:22:57Z</time>
      </trkpt>
      <trkpt lat="44.3112" lon="5.18843">
        <ele>504</ele>
        <time>2022-07-17T08:22:58Z</time>
      </trkpt>
      <trkpt lat="44.31119" lon="5.18842">
        <ele>504.1</ele>
        <time>2022-07-17T08:22:59Z</time>
      </trkpt>
      <trkpt lat="44.31117" lon="5.18842">
        <ele>504.2</ele>
        <time>2022-07-17T08:23:00Z</time>
      </trkpt>
      <trkpt lat="44.31117" lon="5.18841">
        <ele>504.3</ele>
        <time>2022-07-17T08:23:01Z</time>
      </trkpt>
      <trkpt lat="44.31116" lon="5.18841">
        <ele>504.4</ele>
        <time>2022-07-17T08:23:02Z</time>
      </trkpt>
      <trkpt lat="44.31115" lon="5.1884">
        <ele>504.5</ele>
        <time>2022-07-17T08:23:03Z</time>
      </trkpt>
      <trkpt lat="44.31114" lon="5.1884">
        <ele>504.5</ele>
        <time>2022-07-17T08:23:04Z</time>
      </trkpt>
      <trkpt lat="44.31114" lon="5.18839">
        <ele>504.6</ele>
        <time>2022-07-17T08:23:05Z</time>
      </trkpt>
      <trkpt lat="44.31113" lon="5.18837">
        <ele>504.7</ele>
        <time>2022-07-17T08:23:06Z</time>
      </trkpt>
      <trkpt lat="44.31112" lon="5.18837">
        <ele>504.8</ele>
        <time>2022-07-17T08:23:07Z</time>
      </trkpt>
      <trkpt lat="44.31112" lon="5.18836">
        <ele>504.9</ele>
        <time>2022-07-17T08:23:08Z</time>
      </trkpt>
      <trkpt lat="44.31111" lon="5.18836">
        <ele>504.9</ele>
        <time>2022-07-17T08:23:09Z</time>
      </trkpt>
      <trkpt lat="44.3111" lon="5.18835">
        <ele>505.1</ele>
        <time>2022-07-17T08:23:10Z</time>
      </trkpt>
      <trkpt lat="44.31108" lon="5.18835">
        <ele>505.2</ele>
        <time>2022-07-17T08:23:11Z</time>
      </trkpt>
      <trkpt lat="44.31106" lon="5.18834">
        <ele>505.4</ele>
        <time>2022-07-17T08:23:12Z</time>
      </trkpt>
      <trkpt lat="44.31105" lon="5.18834">
        <ele>505.5</ele>
        <time>2022-07-17T08:23:13Z</time>
      </trkpt>
      <trkpt lat="44.31104" lon="5.18834">
        <ele>505.6</ele>
        <time>2022-07-17T08:23:14Z</time>
      </trkpt>
      <trkpt lat="44.31103" lon="5.18833">
        <ele>505.7</ele>
        <time>2022-07-17T08:23:15Z</time>
      </trkpt>
      <trkpt lat="44.31103" lon="5.18833">
        <ele>505.8</ele>
        <time>2022-07-17T08:23:16Z</time>
      </trkpt>
      <trkpt lat="44.31102" lon="5.18832">
        <ele>505.8</ele>
        <time>2022-07-17T08:23:17Z</time>
      </trkpt>
      <trkpt lat="44.31102" lon="5.18831">
        <ele>505.9</ele>
        <time>2022-07-17T08:23:18Z</time>
      </trkpt>
      <trkpt lat="44.31101" lon="5.1883">
        <ele>506</ele>
        <time>2022-07-17T08:23:19Z</time>
      </trkpt>
      <trkpt lat="44.31101" lon="5.1883">
        <ele>506</ele>
        <time>2022-07-17T08:23:20Z</time>
      </trkpt>
      <trkpt lat="44.311" lon="5.18831">
        <ele>506.1</ele>
        <time>2022-07-17T08:23:21Z</time>
      </trkpt>
      <trkpt lat="44.31099" lon="5.18831">
        <ele>506.1</ele>
        <time>2022-07-17T08:23:22Z</time>
      </trkpt>
      <trkpt lat="44.31097" lon="5.18831">
        <ele>506.2</ele>
        <time>2022-07-17T08:23:23Z</time>
      </trkpt>
      <trkpt lat="44.31096" lon="5.18831">
        <ele>506.3</ele>
        <time>2022-07-17T08:23:24Z</time>
      </trkpt>
      <trkpt lat="44.31095" lon="5.18831">
        <ele>506.3</ele>
        <time>2022-07-17T08:23:25Z</time>
      </trkpt>
      <trkpt lat="44.31094" lon="5.18831">
        <ele>506.4</ele>
        <time>2022-07-17T08:23:26Z</time>
      </trkpt>
      <trkpt lat="44.31093" lon="5.1883">
        <ele>506.4</ele>
        <time>2022-07-17T08:23:27Z</time>
      </trkpt>
      <trkpt lat="44.31093" lon="5.1883">
        <ele>506.4</ele>
        <time>2022-07-17T08:23:28Z</time>
      </trkpt>
      <trkpt lat="44.31092" lon="5.1883">
        <ele>506.5</ele>
        <time>2022-07-17T08:23:29Z</time>
      </trkpt>
      <trkpt lat="44.3109" lon="5.1883">
        <ele>506.5</ele>
        <time>2022-07-17T08:23:30Z</time>
      </trkpt>
      <trkpt lat="44.31089" lon="5.1883">
        <ele>506.5</ele>
        <time>2022-07-17T08:23:31Z</time>
      </trkpt>
      <trkpt lat="44.31087" lon="5.18831">
        <ele>506.6</ele>
        <time>2022-07-17T08:23:32Z</time>
      </trkpt>
      <trkpt lat="44.31086" lon="5.18831">
        <ele>506.6</ele>
        <time>2022-07-17T08:23:33Z</time>
      </trkpt>
      <trkpt lat="44.31085" lon="5.1883">
        <ele>506.6</ele>
        <time>2022-07-17T08:23:34Z</time>
      </trkpt>
      <trkpt lat="44.31084" lon="5.1883">
        <ele>506.6</ele>
        <time>2022-07-17T08:23:35Z</time>
      </trkpt>
      <trkpt lat="44.31084" lon="5.1883">
        <ele>506.7</ele>
        <time>2022-07-17T08:23:36Z</time>
      </trkpt>
      <trkpt lat="44.31083" lon="5.1883">
        <ele>506.7</ele>
        <time>2022-07-17T08:23:37Z</time>
      </trkpt>
      <trkpt lat="44.31082" lon="5.1883">
        <ele>506.7</ele>
        <time>2022-07-17T08:23:38Z</time>
      </trkpt>
      <trkpt lat="44.3108" lon="5.18829">
        <ele>506.7</ele>
        <time>2022-07-17T08:23:39Z</time>
      </trkpt>
      <trkpt lat="44.31079" lon="5.18829">
        <ele>506.8</ele>
        <time>2022-07-17T08:23:40Z</time>
      </trkpt>
      <trkpt lat="44.31077" lon="5.18828">
        <ele>506.8</ele>
        <time>2022-07-17T08:23:41Z</time>
      </trkpt>
      <trkpt lat="44.31076" lon="5.18828">
        <ele>506.9</ele>
        <time>2022-07-17T08:23:42Z</time>
      </trkpt>
      <trkpt lat="44.31074" lon="5.18827">
        <ele>507</ele>
        <time>2022-07-17T08:23:43Z</time>
      </trkpt>
      <trkpt lat="44.31072" lon="5.18828">
        <ele>507.1</ele>
        <time>2022-07-17T08:23:44Z</time>
      </trkpt>
      <trkpt lat="44.31071" lon="5.18828">
        <ele>507.1</ele>
        <time>2022-07-17T08:23:45Z</time>
      </trkpt>
      <trkpt lat="44.31071" lon="5.18829">
        <ele>507.2</ele>
        <time>2022-07-17T08:23:46Z</time>
      </trkpt>
      <trkpt lat="44.31069" lon="5.18829">
        <ele>507.3</ele>
        <time>2022-07-17T08:23:47Z</time>
      </trkpt>
      <trkpt lat="44.31067" lon="5.18828">
        <ele>507.4</ele>
        <time>2022-07-17T08:23:48Z</time>
      </trkpt>
      <trkpt lat="44.31066" lon="5.18828">
        <ele>507.5</ele>
        <time>2022-07-17T08:23:49Z</time>
      </trkpt>
      <trkpt lat="44.31066" lon="5.18828">
        <ele>507.6</ele>
        <time>2022-07-17T08:23:50Z</time>
      </trkpt>
      <trkpt lat="44.31065" lon="5.18827">
        <ele>507.7</ele>
        <time>2022-07-17T08:23:51Z</time>
      </trkpt>
      <trkpt lat="44.31064" lon="5.18827">
        <ele>507.8</ele>
        <time>2022-07-17T08:23:52Z</time>
      </trkpt>
      <trkpt lat="44.31063" lon="5.18826">
        <ele>508</ele>
        <time>2022-07-17T08:23:53Z</time>
      </trkpt>
      <trkpt lat="44.31062" lon="5.18826">
        <ele>508.1</ele>
        <time>2022-07-17T08:23:54Z</time>
      </trkpt>
      <trkpt lat="44.31061" lon="5.18826">
        <ele>508.2</ele>
        <time>2022-07-17T08:23:55Z</time>
      </trkpt>
      <trkpt lat="44.3106" lon="5.18825">
        <ele>508.4</ele>
        <time>2022-07-17T08:23:56Z</time>
      </trkpt>
      <trkpt lat="44.31058" lon="5.18824">
        <ele>508.6</ele>
        <time>2022-07-17T08:23:57Z</time>
      </trkpt>
      <trkpt lat="44.31057" lon="5.18824">
        <ele>508.7</ele>
        <time>2022-07-17T08:23:58Z</time>
      </trkpt>
      <trkpt lat="44.31056" lon="5.18823">
        <ele>508.8</ele>
        <time>2022-07-17T08:23:59Z</time>
      </trkpt>
      <trkpt lat="44.31054" lon="5.18822">
        <ele>509.1</ele>
        <time>2022-07-17T08:24:00Z</time>
      </trkpt>
      <trkpt lat="44.31053" lon="5.18822">
        <ele>509.2</ele>
        <time>2022-07-17T08:24:01Z</time>
      </trkpt>
      <trkpt lat="44.31053" lon="5.18821">
        <ele>509.3</ele>
        <time>2022-07-17T08:24:02Z</time>
      </trkpt>
      <trkpt lat="44.31051" lon="5.18821">
        <ele>509.5</ele>
        <time>2022-07-17T08:24:03Z</time>
      </trkpt>
      <trkpt lat="44.31049" lon="5.1882">
        <ele>509.8</ele>
        <time>2022-07-17T08:24:04Z</time>
      </trkpt>
      <trkpt lat="44.31047" lon="5.18819">
        <ele>510</ele>
        <time>2022-07-17T08:24:05Z</time>
      </trkpt>
      <trkpt lat="44.31046" lon="5.18819">
        <ele>510.2</ele>
        <time>2022-07-17T08:24:06Z</time>
      </trkpt>
      <trkpt lat="44.31044" lon="5.18818">
        <ele>510.5</ele>
        <time>2022-07-17T08:24:07Z</time>
      </trkpt>
      <trkpt lat="44.31042" lon="5.18818">
        <ele>510.8</ele>
        <time>2022-07-17T08:24:08Z</time>
      </trkpt>
      <trkpt lat="44.3104" lon="5.18818">
        <ele>511.1</ele>
        <time>2022-07-17T08:24:09Z</time>
      </trkpt>
      <trkpt lat="44.3104" lon="5.18818">
        <ele>511.2</ele>
        <time>2022-07-17T08:24:10Z</time>
      </trkpt>
      <trkpt lat="44.31039" lon="5.18818">
        <ele>511.3</ele>
        <time>2022-07-17T08:24:11Z</time>
      </trkpt>
      <trkpt lat="44.31037" lon="5.18818">
        <ele>511.6</ele>
        <time>2022-07-17T08:24:12Z</time>
      </trkpt>
      <trkpt lat="44.31036" lon="5.18818">
        <ele>511.7</ele>
        <time>2022-07-17T08:24:13Z</time>
      </trkpt>
      <trkpt lat="44.31035" lon="5.18818">
        <ele>511.8</ele>
        <time>2022-07-17T08:24:14Z</time>
      </trkpt>
      <trkpt lat="44.31034" lon="5.18818">
        <ele>511.9</ele>
        <time>2022-07-17T08:24:15Z</time>
      </trkpt>
      <trkpt lat="44.31032" lon="5.18817">
        <ele>512.1</ele>
        <time>2022-07-17T08:24:16Z</time>
      </trkpt>
      <trkpt lat="44.31031" lon="5.18817">
        <ele>512.2</ele>
        <time>2022-07-17T08:24:17Z</time>
      </trkpt>
      <trkpt lat="44.31029" lon="5.18817">
        <ele>512.3</ele>
        <time>2022-07-17T08:24:18Z</time>
      </trkpt>
      <trkpt lat="44.31028" lon="5.18817">
        <ele>512.4</ele>
        <time>2022-07-17T08:24:19Z</time>
      </trkpt>
      <trkpt lat="44.31026" lon="5.18817">
        <ele>512.5</ele>
        <time>2022-07-17T08:24:20Z</time>
      </trkpt>
      <trkpt lat="44.31025" lon="5.18817">
        <ele>512.6</ele>
        <time>2022-07-17T08:24:21Z</time>
      </trkpt>
      <trkpt lat="44.31023" lon="5.18816">
        <ele>512.6</ele>
        <time>2022-07-17T08:24:22Z</time>
      </trkpt>
      <trkpt lat="44.31023" lon="5.18816">
        <ele>512.7</ele>
        <time>2022-07-17T08:24:23Z</time>
      </trkpt>
      <trkpt lat="44.31022" lon="5.18815">
        <ele>512.7</ele>
        <time>2022-07-17T08:24:24Z</time>
      </trkpt>
      <trkpt lat="44.31021" lon="5.18814">
        <ele>512.8</ele>
        <time>2022-07-17T08:24:25Z</time>
      </trkpt>
      <trkpt lat="44.3102" lon="5.18814">
        <ele>512.9</ele>
        <time>2022-07-17T08:24:26Z</time>
      </trkpt>
      <trkpt lat="44.31018" lon="5.18814">
        <ele>513</ele>
        <time>2022-07-17T08:24:27Z</time>
      </trkpt>
      <trkpt lat="44.31017" lon="5.18814">
        <ele>513.2</ele>
        <time>2022-07-17T08:24:28Z</time>
      </trkpt>
      <trkpt lat="44.31015" lon="5.18813">
        <ele>513.4</ele>
        <time>2022-07-17T08:24:29Z</time>
      </trkpt>
      <trkpt lat="44.31014" lon="5.18813">
        <ele>513.7</ele>
        <time>2022-07-17T08:24:30Z</time>
      </trkpt>
      <trkpt lat="44.31012" lon="5.18813">
        <ele>513.9</ele>
        <time>2022-07-17T08:24:31Z</time>
      </trkpt>
      <trkpt lat="44.3101" lon="5.18813">
        <ele>514.2</ele>
        <time>2022-07-17T08:24:32Z</time>
      </trkpt>
      <trkpt lat="44.31009" lon="5.18814">
        <ele>514.5</ele>
        <time>2022-07-17T08:24:33Z</time>
      </trkpt>
      <trkpt lat="44.31007" lon="5.18814">
        <ele>514.7</ele>
        <time>2022-07-17T08:24:34Z</time>
      </trkpt>
      <trkpt lat="44.31006" lon="5.18814">
        <ele>514.9</ele>
        <time>2022-07-17T08:24:35Z</time>
      </trkpt>
      <trkpt lat="44.31005" lon="5.18814">
        <ele>515.1</ele>
        <time>2022-07-17T08:24:36Z</time>
      </trkpt>
      <trkpt lat="44.31004" lon="5.18814">
        <ele>515.2</ele>
        <time>2022-07-17T08:24:37Z</time>
      </trkpt>
      <trkpt lat="44.31003" lon="5.18814">
        <ele>515.4</ele>
        <time>2022-07-17T08:24:38Z</time>
      </trkpt>
      <trkpt lat="44.31002" lon="5.18814">
        <ele>515.5</ele>
        <time>2022-07-17T08:24:39Z</time>
      </trkpt>
      <trkpt lat="44.31001" lon="5.18813">
        <ele>515.6</ele>
        <time>2022-07-17T08:24:40Z</time>
      </trkpt>
      <trkpt lat="44.30999" lon="5.18814">
        <ele>515.8</ele>
        <time>2022-07-17T08:24:41Z</time>
      </trkpt>
      <trkpt lat="44.30998" lon="5.18814">
        <ele>515.9</ele>
        <time>2022-07-17T08:24:42Z</time>
      </trkpt>
      <trkpt lat="44.30997" lon="5.18814">
        <ele>515.9</ele>
        <time>2022-07-17T08:24:43Z</time>
      </trkpt>
      <trkpt lat="44.30995" lon="5.18815">
        <ele>516</ele>
        <time>2022-07-17T08:24:44Z</time>
      </trkpt>
      <trkpt lat="44.30994" lon="5.18815">
        <ele>516</ele>
        <time>2022-07-17T08:24:45Z</time>
      </trkpt>
      <trkpt lat="44.30993" lon="5.18815">
        <ele>516.1</ele>
        <time>2022-07-17T08:24:46Z</time>
      </trkpt>
      <trkpt lat="44.30991" lon="5.18814">
        <ele>516.1</ele>
        <time>2022-07-17T08:24:47Z</time>
      </trkpt>
      <trkpt lat="44.30989" lon="5.18815">
        <ele>516.1</ele>
        <time>2022-07-17T08:24:48Z</time>
      </trkpt>
      <trkpt lat="44.30988" lon="5.18814">
        <ele>516.1</ele>
        <time>2022-07-17T08:24:49Z</time>
      </trkpt>
      <trkpt lat="44.30986" lon="5.18814">
        <ele>516.2</ele>
        <time>2022-07-17T08:24:50Z</time>
      </trkpt>
      <trkpt lat="44.30984" lon="5.18814">
        <ele>516.2</ele>
        <time>2022-07-17T08:24:51Z</time>
      </trkpt>
      <trkpt lat="44.30983" lon="5.18814">
        <ele>516.2</ele>
        <time>2022-07-17T08:24:52Z</time>
      </trkpt>
      <trkpt lat="44.3098" lon="5.18814">
        <ele>516.4</ele>
        <time>2022-07-17T08:24:53Z</time>
      </trkpt>
      <trkpt lat="44.30979" lon="5.18814">
        <ele>516.4</ele>
        <time>2022-07-17T08:24:54Z</time>
      </trkpt>
      <trkpt lat="44.30977" lon="5.18814">
        <ele>516.6</ele>
        <time>2022-07-17T08:24:55Z</time>
      </trkpt>
      <trkpt lat="44.30976" lon="5.18813">
        <ele>516.7</ele>
        <time>2022-07-17T08:24:56Z</time>
      </trkpt>
      <trkpt lat="44.30974" lon="5.18813">
        <ele>516.8</ele>
        <time>2022-07-17T08:24:57Z</time>
      </trkpt>
      <trkpt lat="44.30973" lon="5.18812">
        <ele>516.9</ele>
        <time>2022-07-17T08:24:58Z</time>
      </trkpt>
      <trkpt lat="44.30971" lon="5.18812">
        <ele>517.1</ele>
        <time>2022-07-17T08:24:59Z</time>
      </trkpt>
      <trkpt lat="44.3097" lon="5.18812">
        <ele>517.2</ele>
        <time>2022-07-17T08:25:00Z</time>
      </trkpt>
      <trkpt lat="44.30968" lon="5.18813">
        <ele>517.3</ele>
        <time>2022-07-17T08:25:01Z</time>
      </trkpt>
      <trkpt lat="44.30967" lon="5.18813">
        <ele>517.4</ele>
        <time>2022-07-17T08:25:02Z</time>
      </trkpt>
      <trkpt lat="44.30966" lon="5.18814">
        <ele>517.4</ele>
        <time>2022-07-17T08:25:03Z</time>
      </trkpt>
      <trkpt lat="44.30965" lon="5.18814">
        <ele>517.5</ele>
        <time>2022-07-17T08:25:04Z</time>
      </trkpt>
      <trkpt lat="44.30963" lon="5.18814">
        <ele>517.6</ele>
        <time>2022-07-17T08:25:05Z</time>
      </trkpt>
      <trkpt lat="44.3096" lon="5.18814">
        <ele>517.6</ele>
        <time>2022-07-17T08:25:06Z</time>
      </trkpt>
      <trkpt lat="44.30959" lon="5.18814">
        <ele>517.7</ele>
        <time>2022-07-17T08:25:07Z</time>
      </trkpt>
      <trkpt lat="44.30957" lon="5.18814">
        <ele>517.7</ele>
        <time>2022-07-17T08:25:08Z</time>
      </trkpt>
      <trkpt lat="44.30956" lon="5.18814">
        <ele>517.7</ele>
        <time>2022-07-17T08:25:09Z</time>
      </trkpt>
      <trkpt lat="44.30954" lon="5.18813">
        <ele>517.7</ele>
        <time>2022-07-17T08:25:10Z</time>
      </trkpt>
      <trkpt lat="44.30953" lon="5.18813">
        <ele>517.7</ele>
        <time>2022-07-17T08:25:11Z</time>
      </trkpt>
      <trkpt lat="44.30953" lon="5.18813">
        <ele>517.8</ele>
        <time>2022-07-17T08:25:12Z</time>
      </trkpt>
      <trkpt lat="44.30951" lon="5.18815">
        <ele>517.8</ele>
        <time>2022-07-17T08:25:13Z</time>
      </trkpt>
      <trkpt lat="44.3095" lon="5.18815">
        <ele>517.8</ele>
        <time>2022-07-17T08:25:14Z</time>
      </trkpt>
      <trkpt lat="44.30949" lon="5.18816">
        <ele>517.9</ele>
        <time>2022-07-17T08:25:15Z</time>
      </trkpt>
      <trkpt lat="44.30947" lon="5.18817">
        <ele>517.9</ele>
        <time>2022-07-17T08:25:16Z</time>
      </trkpt>
      <trkpt lat="44.30946" lon="5.18817">
        <ele>518</ele>
        <time>2022-07-17T08:25:17Z</time>
      </trkpt>
      <trkpt lat="44.30944" lon="5.18818">
        <ele>518</ele>
        <time>2022-07-17T08:25:18Z</time>
      </trkpt>
      <trkpt lat="44.30943" lon="5.18818">
        <ele>518.1</ele>
        <time>2022-07-17T08:25:19Z</time>
      </trkpt>
      <trkpt lat="44.30942" lon="5.18818">
        <ele>518.1</ele>
        <time>2022-07-17T08:25:20Z</time>
      </trkpt>
      <trkpt lat="44.30939" lon="5.1882">
        <ele>518.3</ele>
        <time>2022-07-17T08:25:21Z</time>
      </trkpt>
      <trkpt lat="44.30938" lon="5.1882">
        <ele>518.3</ele>
        <time>2022-07-17T08:25:22Z</time>
      </trkpt>
      <trkpt lat="44.30936" lon="5.18821">
        <ele>518.5</ele>
        <time>2022-07-17T08:25:23Z</time>
      </trkpt>
      <trkpt lat="44.30935" lon="5.18821">
        <ele>518.6</ele>
        <time>2022-07-17T08:25:24Z</time>
      </trkpt>
      <trkpt lat="44.30931" lon="5.18821">
        <ele>518.9</ele>
        <time>2022-07-17T08:25:25Z</time>
      </trkpt>
      <trkpt lat="44.3093" lon="5.18821">
        <ele>519</ele>
        <time>2022-07-17T08:25:26Z</time>
      </trkpt>
      <trkpt lat="44.30928" lon="5.18821">
        <ele>519.2</ele>
        <time>2022-07-17T08:25:27Z</time>
      </trkpt>
      <trkpt lat="44.30926" lon="5.18821">
        <ele>519.4</ele>
        <time>2022-07-17T08:25:28Z</time>
      </trkpt>
      <trkpt lat="44.30923" lon="5.1882">
        <ele>519.7</ele>
        <time>2022-07-17T08:25:29Z</time>
      </trkpt>
      <trkpt lat="44.30922" lon="5.1882">
        <ele>519.8</ele>
        <time>2022-07-17T08:25:30Z</time>
      </trkpt>
      <trkpt lat="44.3092" lon="5.1882">
        <ele>520</ele>
        <time>2022-07-17T08:25:31Z</time>
      </trkpt>
      <trkpt lat="44.30919" lon="5.1882">
        <ele>520.1</ele>
        <time>2022-07-17T08:25:32Z</time>
      </trkpt>
      <trkpt lat="44.30918" lon="5.18819">
        <ele>520.3</ele>
        <time>2022-07-17T08:25:33Z</time>
      </trkpt>
      <trkpt lat="44.30916" lon="5.18819">
        <ele>520.5</ele>
        <time>2022-07-17T08:25:34Z</time>
      </trkpt>
      <trkpt lat="44.30913" lon="5.1882">
        <ele>520.8</ele>
        <time>2022-07-17T08:25:35Z</time>
      </trkpt>
      <trkpt lat="44.30913" lon="5.1882">
        <ele>520.8</ele>
        <time>2022-07-17T08:25:36Z</time>
      </trkpt>
      <trkpt lat="44.30912" lon="5.18821">
        <ele>520.9</ele>
        <time>2022-07-17T08:25:37Z</time>
      </trkpt>
      <trkpt lat="44.30911" lon="5.18821">
        <ele>521</ele>
        <time>2022-07-17T08:25:38Z</time>
      </trkpt>
      <trkpt lat="44.3091" lon="5.18821">
        <ele>521.1</ele>
        <time>2022-07-17T08:25:39Z</time>
      </trkpt>
      <trkpt lat="44.3091" lon="5.18822">
        <ele>521.2</ele>
        <time>2022-07-17T08:25:40Z</time>
      </trkpt>
      <trkpt lat="44.30909" lon="5.18822">
        <ele>521.3</ele>
        <time>2022-07-17T08:25:41Z</time>
      </trkpt>
      <trkpt lat="44.30908" lon="5.18823">
        <ele>521.4</ele>
        <time>2022-07-17T08:25:42Z</time>
      </trkpt>
      <trkpt lat="44.30907" lon="5.18824">
        <ele>521.5</ele>
        <time>2022-07-17T08:25:43Z</time>
      </trkpt>
      <trkpt lat="44.30907" lon="5.18824">
        <ele>521.5</ele>
        <time>2022-07-17T08:25:44Z</time>
      </trkpt>
      <trkpt lat="44.30906" lon="5.18825">
        <ele>521.6</ele>
        <time>2022-07-17T08:25:45Z</time>
      </trkpt>
      <trkpt lat="44.30906" lon="5.18826">
        <ele>521.7</ele>
        <time>2022-07-17T08:25:46Z</time>
      </trkpt>
      <trkpt lat="44.30905" lon="5.18827">
        <ele>521.7</ele>
        <time>2022-07-17T08:25:47Z</time>
      </trkpt>
      <trkpt lat="44.30905" lon="5.18827">
        <ele>521.8</ele>
        <time>2022-07-17T08:25:48Z</time>
      </trkpt>
      <trkpt lat="44.30904" lon="5.18828">
        <ele>521.8</ele>
        <time>2022-07-17T08:25:49Z</time>
      </trkpt>
      <trkpt lat="44.30904" lon="5.18829">
        <ele>521.9</ele>
        <time>2022-07-17T08:25:50Z</time>
      </trkpt>
      <trkpt lat="44.30903" lon="5.18829">
        <ele>521.9</ele>
        <time>2022-07-17T08:25:51Z</time>
      </trkpt>
      <trkpt lat="44.30903" lon="5.1883">
        <ele>522</ele>
        <time>2022-07-17T08:25:52Z</time>
      </trkpt>
      <trkpt lat="44.30902" lon="5.18831">
        <ele>522</ele>
        <time>2022-07-17T08:25:53Z</time>
      </trkpt>
      <trkpt lat="44.30902" lon="5.18832">
        <ele>522.1</ele>
        <time>2022-07-17T08:26:34Z</time>
      </trkpt>
      <trkpt lat="44.30901" lon="5.18832">
        <ele>522.1</ele>
        <time>2022-07-17T08:26:35Z</time>
      </trkpt>
      <trkpt lat="44.30902" lon="5.18834">
        <ele>522.2</ele>
        <time>2022-07-17T08:26:36Z</time>
      </trkpt>
      <trkpt lat="44.30903" lon="5.18835">
        <ele>522.3</ele>
        <time>2022-07-17T08:26:37Z</time>
      </trkpt>
      <trkpt lat="44.30906" lon="5.18838">
        <ele>522.4</ele>
        <time>2022-07-17T08:26:38Z</time>
      </trkpt>
      <trkpt lat="44.30907" lon="5.18839">
        <ele>522.5</ele>
        <time>2022-07-17T08:26:39Z</time>
      </trkpt>
      <trkpt lat="44.30908" lon="5.1884">
        <ele>522.6</ele>
        <time>2022-07-17T08:26:40Z</time>
      </trkpt>
      <trkpt lat="44.3091" lon="5.18841">
        <ele>522.7</ele>
        <time>2022-07-17T08:26:41Z</time>
      </trkpt>
      <trkpt lat="44.30911" lon="5.18842">
        <ele>522.8</ele>
        <time>2022-07-17T08:26:42Z</time>
      </trkpt>
      <trkpt lat="44.30912" lon="5.18842">
        <ele>523</ele>
        <time>2022-07-17T08:26:43Z</time>
      </trkpt>
      <trkpt lat="44.30914" lon="5.18843">
        <ele>523.1</ele>
        <time>2022-07-17T08:26:44Z</time>
      </trkpt>
      <trkpt lat="44.30915" lon="5.18843">
        <ele>523.2</ele>
        <time>2022-07-17T08:26:45Z</time>
      </trkpt>
      <trkpt lat="44.30917" lon="5.18844">
        <ele>523.4</ele>
        <time>2022-07-17T08:26:46Z</time>
      </trkpt>
      <trkpt lat="44.30919" lon="5.18845">
        <ele>523.6</ele>
        <time>2022-07-17T08:26:47Z</time>
      </trkpt>
      <trkpt lat="44.30922" lon="5.18846">
        <ele>523.9</ele>
        <time>2022-07-17T08:26:48Z</time>
      </trkpt>
      <trkpt lat="44.30923" lon="5.18847">
        <ele>524</ele>
        <time>2022-07-17T08:26:49Z</time>
      </trkpt>
      <trkpt lat="44.30924" lon="5.18848">
        <ele>524.2</ele>
        <time>2022-07-17T08:26:50Z</time>
      </trkpt>
      <trkpt lat="44.30925" lon="5.18849">
        <ele>524.4</ele>
        <time>2022-07-17T08:26:51Z</time>
      </trkpt>
      <trkpt lat="44.30927" lon="5.18849">
        <ele>524.5</ele>
        <time>2022-07-17T08:26:52Z</time>
      </trkpt>
      <trkpt lat="44.30928" lon="5.1885">
        <ele>524.7</ele>
        <time>2022-07-17T08:26:53Z</time>
      </trkpt>
      <trkpt lat="44.3093" lon="5.1885">
        <ele>524.9</ele>
        <time>2022-07-17T08:26:54Z</time>
      </trkpt>
      <trkpt lat="44.30931" lon="5.1885">
        <ele>525</ele>
        <time>2022-07-17T08:26:55Z</time>
      </trkpt>
      <trkpt lat="44.30932" lon="5.18851">
        <ele>525.2</ele>
        <time>2022-07-17T08:26:56Z</time>
      </trkpt>
      <trkpt lat="44.30933" lon="5.18851">
        <ele>525.3</ele>
        <time>2022-07-17T08:26:57Z</time>
      </trkpt>
      <trkpt lat="44.30934" lon="5.18851">
        <ele>525.4</ele>
        <time>2022-07-17T08:26:58Z</time>
      </trkpt>
      <trkpt lat="44.30936" lon="5.18852">
        <ele>525.6</ele>
        <time>2022-07-17T08:26:59Z</time>
      </trkpt>
      <trkpt lat="44.30937" lon="5.18852">
        <ele>525.7</ele>
        <time>2022-07-17T08:27:00Z</time>
      </trkpt>
      <trkpt lat="44.30938" lon="5.18852">
        <ele>525.8</ele>
        <time>2022-07-17T08:27:01Z</time>
      </trkpt>
      <trkpt lat="44.30939" lon="5.18853">
        <ele>525.9</ele>
        <time>2022-07-17T08:27:02Z</time>
      </trkpt>
      <trkpt lat="44.3094" lon="5.18853">
        <ele>525.9</ele>
        <time>2022-07-17T08:27:03Z</time>
      </trkpt>
      <trkpt lat="44.3094" lon="5.18854">
        <ele>526</ele>
        <time>2022-07-17T08:27:04Z</time>
      </trkpt>
      <trkpt lat="44.3094" lon="5.18855">
        <ele>526</ele>
        <time>2022-07-17T08:27:05Z</time>
      </trkpt>
      <trkpt lat="44.30941" lon="5.18856">
        <ele>526.1</ele>
        <time>2022-07-17T08:27:06Z</time>
      </trkpt>
      <trkpt lat="44.30942" lon="5.18857">
        <ele>526.2</ele>
        <time>2022-07-17T08:27:07Z</time>
      </trkpt>
      <trkpt lat="44.30943" lon="5.18857">
        <ele>526.3</ele>
        <time>2022-07-17T08:27:08Z</time>
      </trkpt>
      <trkpt lat="44.30943" lon="5.18857">
        <ele>526.4</ele>
        <time>2022-07-17T08:27:09Z</time>
      </trkpt>
      <trkpt lat="44.30944" lon="5.18858">
        <ele>526.5</ele>
        <time>2022-07-17T08:27:10Z</time>
      </trkpt>
      <trkpt lat="44.30945" lon="5.18858">
        <ele>526.6</ele>
        <time>2022-07-17T08:27:11Z</time>
      </trkpt>
      <trkpt lat="44.30947" lon="5.18858">
        <ele>526.7</ele>
        <time>2022-07-17T08:27:12Z</time>
      </trkpt>
      <trkpt lat="44.30948" lon="5.18858">
        <ele>526.8</ele>
        <time>2022-07-17T08:27:13Z</time>
      </trkpt>
      <trkpt lat="44.30949" lon="5.18858">
        <ele>526.9</ele>
        <time>2022-07-17T08:27:14Z</time>
      </trkpt>
      <trkpt lat="44.30951" lon="5.18859">
        <ele>527.1</ele>
        <time>2022-07-17T08:27:15Z</time>
      </trkpt>
      <trkpt lat="44.30952" lon="5.1886">
        <ele>527.3</ele>
        <time>2022-07-17T08:27:16Z</time>
      </trkpt>
      <trkpt lat="44.30954" lon="5.18861">
        <ele>527.4</ele>
        <time>2022-07-17T08:27:17Z</time>
      </trkpt>
      <trkpt lat="44.30955" lon="5.18862">
        <ele>527.6</ele>
        <time>2022-07-17T08:27:18Z</time>
      </trkpt>
      <trkpt lat="44.30956" lon="5.18863">
        <ele>527.7</ele>
        <time>2022-07-17T08:27:19Z</time>
      </trkpt>
      <trkpt lat="44.30957" lon="5.18864">
        <ele>527.8</ele>
        <time>2022-07-17T08:27:20Z</time>
      </trkpt>
      <trkpt lat="44.30957" lon="5.18865">
        <ele>527.9</ele>
        <time>2022-07-17T08:27:21Z</time>
      </trkpt>
      <trkpt lat="44.30958" lon="5.18867">
        <ele>528</ele>
        <time>2022-07-17T08:27:22Z</time>
      </trkpt>
      <trkpt lat="44.30958" lon="5.18868">
        <ele>528.1</ele>
        <time>2022-07-17T08:27:23Z</time>
      </trkpt>
      <trkpt lat="44.30958" lon="5.18869">
        <ele>528.1</ele>
        <time>2022-07-17T08:27:24Z</time>
      </trkpt>
      <trkpt lat="44.30958" lon="5.18869">
        <ele>528.2</ele>
        <time>2022-07-17T08:27:25Z</time>
      </trkpt>
      <trkpt lat="44.30958" lon="5.1887">
        <ele>528.3</ele>
        <time>2022-07-17T08:27:26Z</time>
      </trkpt>
      <trkpt lat="44.30957" lon="5.18871">
        <ele>528.4</ele>
        <time>2022-07-17T08:27:27Z</time>
      </trkpt>
      <trkpt lat="44.30957" lon="5.18872">
        <ele>528.4</ele>
        <time>2022-07-17T08:27:28Z</time>
      </trkpt>
      <trkpt lat="44.30957" lon="5.18874">
        <ele>528.6</ele>
        <time>2022-07-17T08:27:29Z</time>
      </trkpt>
      <trkpt lat="44.30956" lon="5.18876">
        <ele>528.8</ele>
        <time>2022-07-17T08:27:30Z</time>
      </trkpt>
      <trkpt lat="44.30955" lon="5.18877">
        <ele>528.9</ele>
        <time>2022-07-17T08:27:31Z</time>
      </trkpt>
      <trkpt lat="44.30954" lon="5.18878">
        <ele>529</ele>
        <time>2022-07-17T08:27:32Z</time>
      </trkpt>
      <trkpt lat="44.30954" lon="5.18878">
        <ele>529.1</ele>
        <time>2022-07-17T08:27:33Z</time>
      </trkpt>
      <trkpt lat="44.30953" lon="5.18879">
        <ele>529.2</ele>
        <time>2022-07-17T08:27:34Z</time>
      </trkpt>
      <trkpt lat="44.30953" lon="5.1888">
        <ele>529.3</ele>
        <time>2022-07-17T08:27:35Z</time>
      </trkpt>
      <trkpt lat="44.30952" lon="5.18881">
        <ele>529.5</ele>
        <time>2022-07-17T08:27:36Z</time>
      </trkpt>
      <trkpt lat="44.30951" lon="5.18882">
        <ele>529.6</ele>
        <time>2022-07-17T08:27:37Z</time>
      </trkpt>
      <trkpt lat="44.3095" lon="5.18882">
        <ele>529.7</ele>
        <time>2022-07-17T08:27:38Z</time>
      </trkpt>
      <trkpt lat="44.30949" lon="5.18882">
        <ele>529.9</ele>
        <time>2022-07-17T08:27:39Z</time>
      </trkpt>
      <trkpt lat="44.30948" lon="5.18883">
        <ele>530</ele>
        <time>2022-07-17T08:27:40Z</time>
      </trkpt>
      <trkpt lat="44.30948" lon="5.18883">
        <ele>530.1</ele>
        <time>2022-07-17T08:27:41Z</time>
      </trkpt>
      <trkpt lat="44.30947" lon="5.18883">
        <ele>530.2</ele>
        <time>2022-07-17T08:27:42Z</time>
      </trkpt>
      <trkpt lat="44.30947" lon="5.18884">
        <ele>530.3</ele>
        <time>2022-07-17T08:27:43Z</time>
      </trkpt>
      <trkpt lat="44.30946" lon="5.18884">
        <ele>530.4</ele>
        <time>2022-07-17T08:27:44Z</time>
      </trkpt>
      <trkpt lat="44.30945" lon="5.18885">
        <ele>530.6</ele>
        <time>2022-07-17T08:27:45Z</time>
      </trkpt>
      <trkpt lat="44.30944" lon="5.18886">
        <ele>530.7</ele>
        <time>2022-07-17T08:27:46Z</time>
      </trkpt>
      <trkpt lat="44.30943" lon="5.18887">
        <ele>531.1</ele>
        <time>2022-07-17T08:27:47Z</time>
      </trkpt>
      <trkpt lat="44.30942" lon="5.18888">
        <ele>531.2</ele>
        <time>2022-07-17T08:27:48Z</time>
      </trkpt>
      <trkpt lat="44.30941" lon="5.18889">
        <ele>531.3</ele>
        <time>2022-07-17T08:27:49Z</time>
      </trkpt>
      <trkpt lat="44.3094" lon="5.1889">
        <ele>531.5</ele>
        <time>2022-07-17T08:27:50Z</time>
      </trkpt>
      <trkpt lat="44.3094" lon="5.18891">
        <ele>531.7</ele>
        <time>2022-07-17T08:27:51Z</time>
      </trkpt>
      <trkpt lat="44.30939" lon="5.18892">
        <ele>531.9</ele>
        <time>2022-07-17T08:27:52Z</time>
      </trkpt>
      <trkpt lat="44.30938" lon="5.18893">
        <ele>532.1</ele>
        <time>2022-07-17T08:27:53Z</time>
      </trkpt>
      <trkpt lat="44.30937" lon="5.18895">
        <ele>532.3</ele>
        <time>2022-07-17T08:27:54Z</time>
      </trkpt>
      <trkpt lat="44.30936" lon="5.18896">
        <ele>532.5</ele>
        <time>2022-07-17T08:27:55Z</time>
      </trkpt>
      <trkpt lat="44.30935" lon="5.18898">
        <ele>532.7</ele>
        <time>2022-07-17T08:27:56Z</time>
      </trkpt>
      <trkpt lat="44.30934" lon="5.18899">
        <ele>532.8</ele>
        <time>2022-07-17T08:27:57Z</time>
      </trkpt>
      <trkpt lat="44.30934" lon="5.18901">
        <ele>533</ele>
        <time>2022-07-17T08:27:58Z</time>
      </trkpt>
      <trkpt lat="44.30933" lon="5.18902">
        <ele>533.1</ele>
        <time>2022-07-17T08:27:59Z</time>
      </trkpt>
      <trkpt lat="44.30932" lon="5.18902">
        <ele>533.3</ele>
        <time>2022-07-17T08:28:00Z</time>
      </trkpt>
      <trkpt lat="44.30931" lon="5.18902">
        <ele>533.4</ele>
        <time>2022-07-17T08:28:01Z</time>
      </trkpt>
      <trkpt lat="44.3093" lon="5.18901">
        <ele>533.5</ele>
        <time>2022-07-17T08:28:02Z</time>
      </trkpt>
      <trkpt lat="44.3093" lon="5.18901">
        <ele>533.6</ele>
        <time>2022-07-17T08:28:03Z</time>
      </trkpt>
      <trkpt lat="44.3093" lon="5.18899">
        <ele>533.7</ele>
        <time>2022-07-17T08:28:04Z</time>
      </trkpt>
      <trkpt lat="44.3093" lon="5.18897">
        <ele>533.9</ele>
        <time>2022-07-17T08:28:05Z</time>
      </trkpt>
      <trkpt lat="44.3093" lon="5.18896">
        <ele>534</ele>
        <time>2022-07-17T08:28:06Z</time>
      </trkpt>
      <trkpt lat="44.30929" lon="5.18893">
        <ele>534.3</ele>
        <time>2022-07-17T08:28:07Z</time>
      </trkpt>
      <trkpt lat="44.30929" lon="5.18892">
        <ele>534.4</ele>
        <time>2022-07-17T08:28:08Z</time>
      </trkpt>
      <trkpt lat="44.30929" lon="5.18891">
        <ele>534.5</ele>
        <time>2022-07-17T08:28:09Z</time>
      </trkpt>
      <trkpt lat="44.30929" lon="5.18889">
        <ele>534.7</ele>
        <time>2022-07-17T08:28:10Z</time>
      </trkpt>
      <trkpt lat="44.30928" lon="5.18889">
        <ele>534.8</ele>
        <time>2022-07-17T08:28:11Z</time>
      </trkpt>
      <trkpt lat="44.30928" lon="5.18888">
        <ele>534.8</ele>
        <time>2022-07-17T08:28:12Z</time>
      </trkpt>
      <trkpt lat="44.30928" lon="5.18887">
        <ele>534.9</ele>
        <time>2022-07-17T08:28:13Z</time>
      </trkpt>
      <trkpt lat="44.30928" lon="5.18886">
        <ele>535</ele>
        <time>2022-07-17T08:28:14Z</time>
      </trkpt>
      <trkpt lat="44.30927" lon="5.18885">
        <ele>535.1</ele>
        <time>2022-07-17T08:28:15Z</time>
      </trkpt>
      <trkpt lat="44.30926" lon="5.18883">
        <ele>535.3</ele>
        <time>2022-07-17T08:28:16Z</time>
      </trkpt>
      <trkpt lat="44.30925" lon="5.18882">
        <ele>535.4</ele>
        <time>2022-07-17T08:28:17Z</time>
      </trkpt>
      <trkpt lat="44.30924" lon="5.18881">
        <ele>535.6</ele>
        <time>2022-07-17T08:28:18Z</time>
      </trkpt>
      <trkpt lat="44.30922" lon="5.1888">
        <ele>535.8</ele>
        <time>2022-07-17T08:28:19Z</time>
      </trkpt>
      <trkpt lat="44.30921" lon="5.1888">
        <ele>535.9</ele>
        <time>2022-07-17T08:28:20Z</time>
      </trkpt>
      <trkpt lat="44.30919" lon="5.1888">
        <ele>536.1</ele>
        <time>2022-07-17T08:28:21Z</time>
      </trkpt>
      <trkpt lat="44.30918" lon="5.18881">
        <ele>536.2</ele>
        <time>2022-07-17T08:28:22Z</time>
      </trkpt>
      <trkpt lat="44.30918" lon="5.18881">
        <ele>536.2</ele>
        <time>2022-07-17T08:28:23Z</time>
      </trkpt>
      <trkpt lat="44.30917" lon="5.18881">
        <ele>536.2</ele>
        <time>2022-07-17T08:28:24Z</time>
      </trkpt>
      <trkpt lat="44.30917" lon="5.18881">
        <ele>536.2</ele>
        <time>2022-07-17T08:28:25Z</time>
      </trkpt>
      <trkpt lat="44.30917" lon="5.18881">
        <ele>536.3</ele>
        <time>2022-07-17T08:28:26Z</time>
      </trkpt>
      <trkpt lat="44.30916" lon="5.18881">
        <ele>536.3</ele>
        <time>2022-07-17T08:28:27Z</time>
      </trkpt>
      <trkpt lat="44.30916" lon="5.18881">
        <ele>536.3</ele>
        <time>2022-07-17T08:28:28Z</time>
      </trkpt>
      <trkpt lat="44.30916" lon="5.18881">
        <ele>536.4</ele>
        <time>2022-07-17T08:28:29Z</time>
      </trkpt>
      <trkpt lat="44.30915" lon="5.18881">
        <ele>536.4</ele>
        <time>2022-07-17T08:28:30Z</time>
      </trkpt>
      <trkpt lat="44.30915" lon="5.1888">
        <ele>536.4</ele>
        <time>2022-07-17T08:28:31Z</time>
      </trkpt>
      <trkpt lat="44.30915" lon="5.1888">
        <ele>536.4</ele>
        <time>2022-07-17T08:28:32Z</time>
      </trkpt>
      <trkpt lat="44.30914" lon="5.1888">
        <ele>536.5</ele>
        <time>2022-07-17T08:28:33Z</time>
      </trkpt>
      <trkpt lat="44.30914" lon="5.1888">
        <ele>536.5</ele>
        <time>2022-07-17T08:28:34Z</time>
      </trkpt>
      <trkpt lat="44.30913" lon="5.18881">
        <ele>536.6</ele>
        <time>2022-07-17T08:28:35Z</time>
      </trkpt>
      <trkpt lat="44.30911" lon="5.18881">
        <ele>536.7</ele>
        <time>2022-07-17T08:28:36Z</time>
      </trkpt>
      <trkpt lat="44.3091" lon="5.18881">
        <ele>536.8</ele>
        <time>2022-07-17T08:28:37Z</time>
      </trkpt>
      <trkpt lat="44.30908" lon="5.18881">
        <ele>536.9</ele>
        <time>2022-07-17T08:28:38Z</time>
      </trkpt>
      <trkpt lat="44.30906" lon="5.18881">
        <ele>537.1</ele>
        <time>2022-07-17T08:28:39Z</time>
      </trkpt>
      <trkpt lat="44.30905" lon="5.18882">
        <ele>537.1</ele>
        <time>2022-07-17T08:28:40Z</time>
      </trkpt>
      <trkpt lat="44.30905" lon="5.18882">
        <ele>537.2</ele>
        <time>2022-07-17T08:28:41Z</time>
      </trkpt>
      <trkpt lat="44.30904" lon="5.18882">
        <ele>537.3</ele>
        <time>2022-07-17T08:28:42Z</time>
      </trkpt>
      <trkpt lat="44.30903" lon="5.18883">
        <ele>537.4</ele>
        <time>2022-07-17T08:28:43Z</time>
      </trkpt>
      <trkpt lat="44.30903" lon="5.18883">
        <ele>537.4</ele>
        <time>2022-07-17T08:28:44Z</time>
      </trkpt>
      <trkpt lat="44.30902" lon="5.18884">
        <ele>537.4</ele>
        <time>2022-07-17T08:28:45Z</time>
      </trkpt>
      <trkpt lat="44.30901" lon="5.18887">
        <ele>537.6</ele>
        <time>2022-07-17T08:28:46Z</time>
      </trkpt>
      <trkpt lat="44.30901" lon="5.18888">
        <ele>537.7</ele>
        <time>2022-07-17T08:28:47Z</time>
      </trkpt>
      <trkpt lat="44.30901" lon="5.1889">
        <ele>537.8</ele>
        <time>2022-07-17T08:28:48Z</time>
      </trkpt>
      <trkpt lat="44.309" lon="5.18894">
        <ele>538.2</ele>
        <time>2022-07-17T08:28:49Z</time>
      </trkpt>
      <trkpt lat="44.309" lon="5.18895">
        <ele>538.3</ele>
        <time>2022-07-17T08:28:50Z</time>
      </trkpt>
      <trkpt lat="44.30899" lon="5.189">
        <ele>538.9</ele>
        <time>2022-07-17T08:28:51Z</time>
      </trkpt>
      <trkpt lat="44.30899" lon="5.18902">
        <ele>539.1</ele>
        <time>2022-07-17T08:28:52Z</time>
      </trkpt>
      <trkpt lat="44.30898" lon="5.18905">
        <ele>539.5</ele>
        <time>2022-07-17T08:28:53Z</time>
      </trkpt>
      <trkpt lat="44.30898" lon="5.18907">
        <ele>539.7</ele>
        <time>2022-07-17T08:28:54Z</time>
      </trkpt>
      <trkpt lat="44.30897" lon="5.18909">
        <ele>539.9</ele>
        <time>2022-07-17T08:28:55Z</time>
      </trkpt>
      <trkpt lat="44.30897" lon="5.18911">
        <ele>540.1</ele>
        <time>2022-07-17T08:28:56Z</time>
      </trkpt>
      <trkpt lat="44.30897" lon="5.18913">
        <ele>540.5</ele>
        <time>2022-07-17T08:28:57Z</time>
      </trkpt>
      <trkpt lat="44.30897" lon="5.18915">
        <ele>540.6</ele>
        <time>2022-07-17T08:28:58Z</time>
      </trkpt>
      <trkpt lat="44.30897" lon="5.18916">
        <ele>540.7</ele>
        <time>2022-07-17T08:28:59Z</time>
      </trkpt>
      <trkpt lat="44.30897" lon="5.18921">
        <ele>541.2</ele>
        <time>2022-07-17T08:29:00Z</time>
      </trkpt>
      <trkpt lat="44.30897" lon="5.18922">
        <ele>541.2</ele>
        <time>2022-07-17T08:29:01Z</time>
      </trkpt>
      <trkpt lat="44.30897" lon="5.18924">
        <ele>541.4</ele>
        <time>2022-07-17T08:29:02Z</time>
      </trkpt>
      <trkpt lat="44.30898" lon="5.18926">
        <ele>541.5</ele>
        <time>2022-07-17T08:29:03Z</time>
      </trkpt>
      <trkpt lat="44.30898" lon="5.18927">
        <ele>541.6</ele>
        <time>2022-07-17T08:29:04Z</time>
      </trkpt>
      <trkpt lat="44.30898" lon="5.18929">
        <ele>541.6</ele>
        <time>2022-07-17T08:29:05Z</time>
      </trkpt>
      <trkpt lat="44.30897" lon="5.1893">
        <ele>541.7</ele>
        <time>2022-07-17T08:29:06Z</time>
      </trkpt>
      <trkpt lat="44.30896" lon="5.18933">
        <ele>541.8</ele>
        <time>2022-07-17T08:29:07Z</time>
      </trkpt>
      <trkpt lat="44.30896" lon="5.18934">
        <ele>541.8</ele>
        <time>2022-07-17T08:29:08Z</time>
      </trkpt>
      <trkpt lat="44.30896" lon="5.18935">
        <ele>541.9</ele>
        <time>2022-07-17T08:29:09Z</time>
      </trkpt>
      <trkpt lat="44.30895" lon="5.18937">
        <ele>542</ele>
        <time>2022-07-17T08:29:10Z</time>
      </trkpt>
      <trkpt lat="44.30894" lon="5.18939">
        <ele>542.1</ele>
        <time>2022-07-17T08:29:11Z</time>
      </trkpt>
      <trkpt lat="44.30894" lon="5.18941">
        <ele>542.2</ele>
        <time>2022-07-17T08:29:12Z</time>
      </trkpt>
      <trkpt lat="44.30893" lon="5.18942">
        <ele>542.3</ele>
        <time>2022-07-17T08:29:13Z</time>
      </trkpt>
      <trkpt lat="44.30892" lon="5.18944">
        <ele>542.4</ele>
        <time>2022-07-17T08:29:14Z</time>
      </trkpt>
      <trkpt lat="44.30891" lon="5.18946">
        <ele>542.5</ele>
        <time>2022-07-17T08:29:15Z</time>
      </trkpt>
      <trkpt lat="44.30889" lon="5.18948">
        <ele>542.7</ele>
        <time>2022-07-17T08:29:16Z</time>
      </trkpt>
      <trkpt lat="44.30889" lon="5.18948">
        <ele>542.8</ele>
        <time>2022-07-17T08:29:17Z</time>
      </trkpt>
      <trkpt lat="44.30888" lon="5.18949">
        <ele>542.8</ele>
        <time>2022-07-17T08:29:18Z</time>
      </trkpt>
      <trkpt lat="44.30887" lon="5.1895">
        <ele>543</ele>
        <time>2022-07-17T08:29:19Z</time>
      </trkpt>
      <trkpt lat="44.30885" lon="5.18951">
        <ele>543.1</ele>
        <time>2022-07-17T08:29:20Z</time>
      </trkpt>
      <trkpt lat="44.30884" lon="5.18952">
        <ele>543.3</ele>
        <time>2022-07-17T08:29:21Z</time>
      </trkpt>
      <trkpt lat="44.30882" lon="5.18953">
        <ele>543.4</ele>
        <time>2022-07-17T08:29:22Z</time>
      </trkpt>
      <trkpt lat="44.30881" lon="5.18954">
        <ele>543.6</ele>
        <time>2022-07-17T08:29:23Z</time>
      </trkpt>
      <trkpt lat="44.30879" lon="5.18954">
        <ele>543.7</ele>
        <time>2022-07-17T08:29:24Z</time>
      </trkpt>
      <trkpt lat="44.30877" lon="5.18954">
        <ele>543.9</ele>
        <time>2022-07-17T08:29:25Z</time>
      </trkpt>
      <trkpt lat="44.30877" lon="5.18955">
        <ele>544</ele>
        <time>2022-07-17T08:29:26Z</time>
      </trkpt>
      <trkpt lat="44.30876" lon="5.18955">
        <ele>544</ele>
        <time>2022-07-17T08:29:27Z</time>
      </trkpt>
      <trkpt lat="44.30875" lon="5.18956">
        <ele>544.1</ele>
        <time>2022-07-17T08:29:28Z</time>
      </trkpt>
      <trkpt lat="44.30874" lon="5.18956">
        <ele>544.2</ele>
        <time>2022-07-17T08:29:29Z</time>
      </trkpt>
      <trkpt lat="44.30873" lon="5.18956">
        <ele>544.3</ele>
        <time>2022-07-17T08:29:30Z</time>
      </trkpt>
      <trkpt lat="44.3087" lon="5.18956">
        <ele>544.5</ele>
        <time>2022-07-17T08:29:31Z</time>
      </trkpt>
      <trkpt lat="44.3087" lon="5.18957">
        <ele>544.6</ele>
        <time>2022-07-17T08:29:32Z</time>
      </trkpt>
      <trkpt lat="44.30869" lon="5.18957">
        <ele>544.7</ele>
        <time>2022-07-17T08:29:33Z</time>
      </trkpt>
      <trkpt lat="44.30867" lon="5.18958">
        <ele>544.9</ele>
        <time>2022-07-17T08:29:34Z</time>
      </trkpt>
      <trkpt lat="44.30866" lon="5.1896">
        <ele>545</ele>
        <time>2022-07-17T08:29:35Z</time>
      </trkpt>
      <trkpt lat="44.30866" lon="5.18962">
        <ele>545.1</ele>
        <time>2022-07-17T08:29:36Z</time>
      </trkpt>
      <trkpt lat="44.30865" lon="5.18964">
        <ele>545.2</ele>
        <time>2022-07-17T08:29:37Z</time>
      </trkpt>
      <trkpt lat="44.30864" lon="5.18965">
        <ele>545.3</ele>
        <time>2022-07-17T08:29:38Z</time>
      </trkpt>
      <trkpt lat="44.30863" lon="5.18966">
        <ele>545.4</ele>
        <time>2022-07-17T08:29:39Z</time>
      </trkpt>
      <trkpt lat="44.30861" lon="5.18968">
        <ele>545.5</ele>
        <time>2022-07-17T08:29:40Z</time>
      </trkpt>
      <trkpt lat="44.3086" lon="5.18969">
        <ele>545.8</ele>
        <time>2022-07-17T08:29:41Z</time>
      </trkpt>
      <trkpt lat="44.3086" lon="5.1897">
        <ele>545.9</ele>
        <time>2022-07-17T08:29:42Z</time>
      </trkpt>
      <trkpt lat="44.30859" lon="5.18971">
        <ele>545.9</ele>
        <time>2022-07-17T08:29:43Z</time>
      </trkpt>
      <trkpt lat="44.30859" lon="5.18973">
        <ele>546</ele>
        <time>2022-07-17T08:29:44Z</time>
      </trkpt>
      <trkpt lat="44.30858" lon="5.18975">
        <ele>546.1</ele>
        <time>2022-07-17T08:29:45Z</time>
      </trkpt>
      <trkpt lat="44.30857" lon="5.18976">
        <ele>546.2</ele>
        <time>2022-07-17T08:29:46Z</time>
      </trkpt>
      <trkpt lat="44.30855" lon="5.18978">
        <ele>546.4</ele>
        <time>2022-07-17T08:29:47Z</time>
      </trkpt>
      <trkpt lat="44.30854" lon="5.18979">
        <ele>546.4</ele>
        <time>2022-07-17T08:29:48Z</time>
      </trkpt>
      <trkpt lat="44.30853" lon="5.1898">
        <ele>546.5</ele>
        <time>2022-07-17T08:29:49Z</time>
      </trkpt>
      <trkpt lat="44.30852" lon="5.18981">
        <ele>546.6</ele>
        <time>2022-07-17T08:29:50Z</time>
      </trkpt>
      <trkpt lat="44.30851" lon="5.18982">
        <ele>546.7</ele>
        <time>2022-07-17T08:29:51Z</time>
      </trkpt>
      <trkpt lat="44.30851" lon="5.18983">
        <ele>546.7</ele>
        <time>2022-07-17T08:29:52Z</time>
      </trkpt>
      <trkpt lat="44.3085" lon="5.18983">
        <ele>546.8</ele>
        <time>2022-07-17T08:29:53Z</time>
      </trkpt>
      <trkpt lat="44.30849" lon="5.18984">
        <ele>546.9</ele>
        <time>2022-07-17T08:29:54Z</time>
      </trkpt>
      <trkpt lat="44.30848" lon="5.18985">
        <ele>547</ele>
        <time>2022-07-17T08:29:55Z</time>
      </trkpt>
      <trkpt lat="44.30847" lon="5.18986">
        <ele>547</ele>
        <time>2022-07-17T08:29:56Z</time>
      </trkpt>
      <trkpt lat="44.30846" lon="5.18986">
        <ele>547.1</ele>
        <time>2022-07-17T08:29:57Z</time>
      </trkpt>
      <trkpt lat="44.30846" lon="5.18987">
        <ele>547.1</ele>
        <time>2022-07-17T08:29:58Z</time>
      </trkpt>
      <trkpt lat="44.30845" lon="5.18988">
        <ele>547.2</ele>
        <time>2022-07-17T08:29:59Z</time>
      </trkpt>
      <trkpt lat="44.30844" lon="5.18989">
        <ele>547.3</ele>
        <time>2022-07-17T08:30:00Z</time>
      </trkpt>
      <trkpt lat="44.30843" lon="5.1899">
        <ele>547.4</ele>
        <time>2022-07-17T08:30:01Z</time>
      </trkpt>
      <trkpt lat="44.30842" lon="5.1899">
        <ele>547.4</ele>
        <time>2022-07-17T08:30:02Z</time>
      </trkpt>
      <trkpt lat="44.3084" lon="5.18989">
        <ele>547.6</ele>
        <time>2022-07-17T08:30:03Z</time>
      </trkpt>
      <trkpt lat="44.30838" lon="5.18989">
        <ele>547.7</ele>
        <time>2022-07-17T08:30:04Z</time>
      </trkpt>
      <trkpt lat="44.30837" lon="5.18989">
        <ele>547.7</ele>
        <time>2022-07-17T08:30:05Z</time>
      </trkpt>
      <trkpt lat="44.30837" lon="5.18988">
        <ele>547.8</ele>
        <time>2022-07-17T08:30:06Z</time>
      </trkpt>
      <trkpt lat="44.30835" lon="5.18988">
        <ele>547.9</ele>
        <time>2022-07-17T08:30:07Z</time>
      </trkpt>
      <trkpt lat="44.30833" lon="5.18987">
        <ele>548</ele>
        <time>2022-07-17T08:30:08Z</time>
      </trkpt>
      <trkpt lat="44.30832" lon="5.18987">
        <ele>548.1</ele>
        <time>2022-07-17T08:30:09Z</time>
      </trkpt>
      <trkpt lat="44.3083" lon="5.18987">
        <ele>548.2</ele>
        <time>2022-07-17T08:30:10Z</time>
      </trkpt>
      <trkpt lat="44.30828" lon="5.18987">
        <ele>548.3</ele>
        <time>2022-07-17T08:30:11Z</time>
      </trkpt>
      <trkpt lat="44.30825" lon="5.18987">
        <ele>548.5</ele>
        <time>2022-07-17T08:30:12Z</time>
      </trkpt>
      <trkpt lat="44.30824" lon="5.18988">
        <ele>548.6</ele>
        <time>2022-07-17T08:30:13Z</time>
      </trkpt>
      <trkpt lat="44.30821" lon="5.18988">
        <ele>548.8</ele>
        <time>2022-07-17T08:30:14Z</time>
      </trkpt>
      <trkpt lat="44.3082" lon="5.18988">
        <ele>548.8</ele>
        <time>2022-07-17T08:30:15Z</time>
      </trkpt>
      <trkpt lat="44.30818" lon="5.18988">
        <ele>549</ele>
        <time>2022-07-17T08:30:16Z</time>
      </trkpt>
      <trkpt lat="44.30816" lon="5.18989">
        <ele>549</ele>
        <time>2022-07-17T08:30:17Z</time>
      </trkpt>
      <trkpt lat="44.30815" lon="5.18989">
        <ele>549.1</ele>
        <time>2022-07-17T08:30:18Z</time>
      </trkpt>
      <trkpt lat="44.30814" lon="5.1899">
        <ele>549.2</ele>
        <time>2022-07-17T08:30:19Z</time>
      </trkpt>
      <trkpt lat="44.30813" lon="5.18991">
        <ele>549.3</ele>
        <time>2022-07-17T08:30:20Z</time>
      </trkpt>
      <trkpt lat="44.3081" lon="5.18992">
        <ele>549.4</ele>
        <time>2022-07-17T08:30:21Z</time>
      </trkpt>
      <trkpt lat="44.30809" lon="5.18992">
        <ele>549.5</ele>
        <time>2022-07-17T08:30:22Z</time>
      </trkpt>
      <trkpt lat="44.30805" lon="5.18993">
        <ele>549.8</ele>
        <time>2022-07-17T08:30:23Z</time>
      </trkpt>
      <trkpt lat="44.30804" lon="5.18993">
        <ele>549.9</ele>
        <time>2022-07-17T08:30:24Z</time>
      </trkpt>
      <trkpt lat="44.30801" lon="5.18992">
        <ele>550.1</ele>
        <time>2022-07-17T08:30:25Z</time>
      </trkpt>
      <trkpt lat="44.308" lon="5.18992">
        <ele>550.2</ele>
        <time>2022-07-17T08:30:26Z</time>
      </trkpt>
      <trkpt lat="44.30799" lon="5.18991">
        <ele>550.2</ele>
        <time>2022-07-17T08:30:27Z</time>
      </trkpt>
      <trkpt lat="44.30798" lon="5.1899">
        <ele>550.3</ele>
        <time>2022-07-17T08:30:28Z</time>
      </trkpt>
      <trkpt lat="44.30797" lon="5.1899">
        <ele>550.4</ele>
        <time>2022-07-17T08:30:29Z</time>
      </trkpt>
      <trkpt lat="44.30797" lon="5.18989">
        <ele>550.5</ele>
        <time>2022-07-17T08:30:30Z</time>
      </trkpt>
      <trkpt lat="44.30797" lon="5.18989">
        <ele>550.5</ele>
        <time>2022-07-17T08:30:31Z</time>
      </trkpt>
      <trkpt lat="44.30796" lon="5.18987">
        <ele>550.7</ele>
        <time>2022-07-17T08:30:32Z</time>
      </trkpt>
      <trkpt lat="44.30795" lon="5.18985">
        <ele>550.8</ele>
        <time>2022-07-17T08:30:33Z</time>
      </trkpt>
      <trkpt lat="44.30794" lon="5.18983">
        <ele>550.9</ele>
        <time>2022-07-17T08:30:34Z</time>
      </trkpt>
      <trkpt lat="44.30794" lon="5.1898">
        <ele>551.1</ele>
        <time>2022-07-17T08:30:35Z</time>
      </trkpt>
      <trkpt lat="44.30794" lon="5.18979">
        <ele>551.2</ele>
        <time>2022-07-17T08:30:36Z</time>
      </trkpt>
      <trkpt lat="44.30793" lon="5.18978">
        <ele>551.3</ele>
        <time>2022-07-17T08:30:37Z</time>
      </trkpt>
      <trkpt lat="44.30793" lon="5.18976">
        <ele>551.4</ele>
        <time>2022-07-17T08:30:38Z</time>
      </trkpt>
      <trkpt lat="44.30792" lon="5.18975">
        <ele>551.6</ele>
        <time>2022-07-17T08:30:39Z</time>
      </trkpt>
      <trkpt lat="44.30789" lon="5.18973">
        <ele>551.9</ele>
        <time>2022-07-17T08:30:40Z</time>
      </trkpt>
      <trkpt lat="44.30789" lon="5.18973">
        <ele>552</ele>
        <time>2022-07-17T08:30:41Z</time>
      </trkpt>
      <trkpt lat="44.30787" lon="5.18972">
        <ele>552.2</ele>
        <time>2022-07-17T08:30:42Z</time>
      </trkpt>
      <trkpt lat="44.30785" lon="5.18971">
        <ele>552.4</ele>
        <time>2022-07-17T08:30:43Z</time>
      </trkpt>
      <trkpt lat="44.30782" lon="5.1897">
        <ele>552.7</ele>
        <time>2022-07-17T08:30:44Z</time>
      </trkpt>
      <trkpt lat="44.30781" lon="5.1897">
        <ele>552.8</ele>
        <time>2022-07-17T08:30:45Z</time>
      </trkpt>
      <trkpt lat="44.30778" lon="5.18969">
        <ele>553.1</ele>
        <time>2022-07-17T08:30:46Z</time>
      </trkpt>
      <trkpt lat="44.30777" lon="5.18969">
        <ele>553.2</ele>
        <time>2022-07-17T08:30:47Z</time>
      </trkpt>
      <trkpt lat="44.30775" lon="5.18969">
        <ele>553.4</ele>
        <time>2022-07-17T08:30:48Z</time>
      </trkpt>
      <trkpt lat="44.30774" lon="5.1897">
        <ele>553.6</ele>
        <time>2022-07-17T08:30:49Z</time>
      </trkpt>
      <trkpt lat="44.30772" lon="5.1897">
        <ele>553.7</ele>
        <time>2022-07-17T08:30:50Z</time>
      </trkpt>
      <trkpt lat="44.30771" lon="5.18971">
        <ele>553.9</ele>
        <time>2022-07-17T08:30:51Z</time>
      </trkpt>
      <trkpt lat="44.30769" lon="5.18972">
        <ele>554.1</ele>
        <time>2022-07-17T08:30:52Z</time>
      </trkpt>
      <trkpt lat="44.30768" lon="5.18973">
        <ele>554.2</ele>
        <time>2022-07-17T08:30:53Z</time>
      </trkpt>
      <trkpt lat="44.30766" lon="5.18975">
        <ele>554.4</ele>
        <time>2022-07-17T08:30:54Z</time>
      </trkpt>
      <trkpt lat="44.30765" lon="5.18976">
        <ele>554.6</ele>
        <time>2022-07-17T08:30:55Z</time>
      </trkpt>
      <trkpt lat="44.30764" lon="5.1898">
        <ele>554.9</ele>
        <time>2022-07-17T08:30:56Z</time>
      </trkpt>
      <trkpt lat="44.30763" lon="5.1898">
        <ele>555</ele>
        <time>2022-07-17T08:30:57Z</time>
      </trkpt>
      <trkpt lat="44.30762" lon="5.18982">
        <ele>555.1</ele>
        <time>2022-07-17T08:30:58Z</time>
      </trkpt>
      <trkpt lat="44.30761" lon="5.18984">
        <ele>555.3</ele>
        <time>2022-07-17T08:30:59Z</time>
      </trkpt>
      <trkpt lat="44.3076" lon="5.18985">
        <ele>555.4</ele>
        <time>2022-07-17T08:31:00Z</time>
      </trkpt>
      <trkpt lat="44.30759" lon="5.18987">
        <ele>555.5</ele>
        <time>2022-07-17T08:31:01Z</time>
      </trkpt>
      <trkpt lat="44.30759" lon="5.18989">
        <ele>555.7</ele>
        <time>2022-07-17T08:31:02Z</time>
      </trkpt>
      <trkpt lat="44.30758" lon="5.18991">
        <ele>555.8</ele>
        <time>2022-07-17T08:31:03Z</time>
      </trkpt>
      <trkpt lat="44.30757" lon="5.18992">
        <ele>556</ele>
        <time>2022-07-17T08:31:04Z</time>
      </trkpt>
      <trkpt lat="44.30756" lon="5.18994">
        <ele>556.2</ele>
        <time>2022-07-17T08:31:05Z</time>
      </trkpt>
      <trkpt lat="44.30754" lon="5.18996">
        <ele>556.3</ele>
        <time>2022-07-17T08:31:06Z</time>
      </trkpt>
      <trkpt lat="44.30753" lon="5.18997">
        <ele>556.5</ele>
        <time>2022-07-17T08:31:07Z</time>
      </trkpt>
      <trkpt lat="44.30751" lon="5.18998">
        <ele>556.7</ele>
        <time>2022-07-17T08:31:08Z</time>
      </trkpt>
      <trkpt lat="44.3075" lon="5.18999">
        <ele>556.8</ele>
        <time>2022-07-17T08:31:09Z</time>
      </trkpt>
      <trkpt lat="44.30749" lon="5.18999">
        <ele>557</ele>
        <time>2022-07-17T08:31:10Z</time>
      </trkpt>
      <trkpt lat="44.30747" lon="5.19">
        <ele>557.1</ele>
        <time>2022-07-17T08:31:11Z</time>
      </trkpt>
      <trkpt lat="44.30745" lon="5.19001">
        <ele>557.4</ele>
        <time>2022-07-17T08:31:12Z</time>
      </trkpt>
      <trkpt lat="44.30744" lon="5.19001">
        <ele>557.5</ele>
        <time>2022-07-17T08:31:13Z</time>
      </trkpt>
      <trkpt lat="44.30743" lon="5.19001">
        <ele>557.6</ele>
        <time>2022-07-17T08:31:14Z</time>
      </trkpt>
      <trkpt lat="44.3074" lon="5.19001">
        <ele>557.9</ele>
        <time>2022-07-17T08:31:15Z</time>
      </trkpt>
      <trkpt lat="44.30739" lon="5.19001">
        <ele>558</ele>
        <time>2022-07-17T08:31:16Z</time>
      </trkpt>
      <trkpt lat="44.30738" lon="5.19001">
        <ele>558.2</ele>
        <time>2022-07-17T08:31:17Z</time>
      </trkpt>
      <trkpt lat="44.30736" lon="5.19001">
        <ele>558.3</ele>
        <time>2022-07-17T08:31:18Z</time>
      </trkpt>
      <trkpt lat="44.30737" lon="5.19001">
        <ele>558.4</ele>
        <time>2022-07-17T08:31:19Z</time>
      </trkpt>
      <trkpt lat="44.30738" lon="5.19001">
        <ele>558.5</ele>
        <time>2022-07-17T08:31:20Z</time>
      </trkpt>
      <trkpt lat="44.30738" lon="5.19001">
        <ele>558.6</ele>
        <time>2022-07-17T08:31:21Z</time>
      </trkpt>
      <trkpt lat="44.30739" lon="5.19001">
        <ele>558.7</ele>
        <time>2022-07-17T08:31:22Z</time>
      </trkpt>
      <trkpt lat="44.3074" lon="5.19001">
        <ele>558.7</ele>
        <time>2022-07-17T08:31:23Z</time>
      </trkpt>
      <trkpt lat="44.3074" lon="5.19">
        <ele>558.8</ele>
        <time>2022-07-17T08:31:24Z</time>
      </trkpt>
      <trkpt lat="44.30741" lon="5.19">
        <ele>558.9</ele>
        <time>2022-07-17T08:31:25Z</time>
      </trkpt>
      <trkpt lat="44.30742" lon="5.19">
        <ele>559</ele>
        <time>2022-07-17T08:31:26Z</time>
      </trkpt>
      <trkpt lat="44.30742" lon="5.19">
        <ele>559</ele>
        <time>2022-07-17T08:31:27Z</time>
      </trkpt>
      <trkpt lat="44.30743" lon="5.19">
        <ele>559.1</ele>
        <time>2022-07-17T08:31:28Z</time>
      </trkpt>
      <trkpt lat="44.30744" lon="5.19">
        <ele>559.2</ele>
        <time>2022-07-17T08:32:41Z</time>
      </trkpt>
      <trkpt lat="44.30744" lon="5.19">
        <ele>559.3</ele>
        <time>2022-07-17T08:32:42Z</time>
      </trkpt>
      <trkpt lat="44.30746" lon="5.19003">
        <ele>559.4</ele>
        <time>2022-07-17T08:32:43Z</time>
      </trkpt>
      <trkpt lat="44.30746" lon="5.19004">
        <ele>559.5</ele>
        <time>2022-07-17T08:32:44Z</time>
      </trkpt>
      <trkpt lat="44.30747" lon="5.19006">
        <ele>559.6</ele>
        <time>2022-07-17T08:32:45Z</time>
      </trkpt>
      <trkpt lat="44.30748" lon="5.19008">
        <ele>559.8</ele>
        <time>2022-07-17T08:32:46Z</time>
      </trkpt>
      <trkpt lat="44.30749" lon="5.19009">
        <ele>559.9</ele>
        <time>2022-07-17T08:32:47Z</time>
      </trkpt>
      <trkpt lat="44.3075" lon="5.19011">
        <ele>560.1</ele>
        <time>2022-07-17T08:32:48Z</time>
      </trkpt>
      <trkpt lat="44.30752" lon="5.19013">
        <ele>560.3</ele>
        <time>2022-07-17T08:32:49Z</time>
      </trkpt>
      <trkpt lat="44.30753" lon="5.19013">
        <ele>560.4</ele>
        <time>2022-07-17T08:32:50Z</time>
      </trkpt>
      <trkpt lat="44.30753" lon="5.19013">
        <ele>560.4</ele>
        <time>2022-07-17T08:32:51Z</time>
      </trkpt>
      <trkpt lat="44.30755" lon="5.19013">
        <ele>560.6</ele>
        <time>2022-07-17T08:32:52Z</time>
      </trkpt>
      <trkpt lat="44.30756" lon="5.19012">
        <ele>560.8</ele>
        <time>2022-07-17T08:32:53Z</time>
      </trkpt>
      <trkpt lat="44.30758" lon="5.19012">
        <ele>560.9</ele>
        <time>2022-07-17T08:32:54Z</time>
      </trkpt>
      <trkpt lat="44.3076" lon="5.19011">
        <ele>561.1</ele>
        <time>2022-07-17T08:32:55Z</time>
      </trkpt>
      <trkpt lat="44.30761" lon="5.19011">
        <ele>561.3</ele>
        <time>2022-07-17T08:32:56Z</time>
      </trkpt>
      <trkpt lat="44.30762" lon="5.19011">
        <ele>561.4</ele>
        <time>2022-07-17T08:32:57Z</time>
      </trkpt>
      <trkpt lat="44.30764" lon="5.19012">
        <ele>561.6</ele>
        <time>2022-07-17T08:32:58Z</time>
      </trkpt>
      <trkpt lat="44.30765" lon="5.19012">
        <ele>561.7</ele>
        <time>2022-07-17T08:32:59Z</time>
      </trkpt>
      <trkpt lat="44.30767" lon="5.19013">
        <ele>561.9</ele>
        <time>2022-07-17T08:33:00Z</time>
      </trkpt>
      <trkpt lat="44.30768" lon="5.19013">
        <ele>562</ele>
        <time>2022-07-17T08:33:01Z</time>
      </trkpt>
      <trkpt lat="44.3077" lon="5.19015">
        <ele>562.3</ele>
        <time>2022-07-17T08:33:02Z</time>
      </trkpt>
      <trkpt lat="44.3077" lon="5.19016">
        <ele>562.3</ele>
        <time>2022-07-17T08:33:03Z</time>
      </trkpt>
      <trkpt lat="44.30771" lon="5.19016">
        <ele>562.4</ele>
        <time>2022-07-17T08:33:04Z</time>
      </trkpt>
      <trkpt lat="44.30772" lon="5.19018">
        <ele>562.6</ele>
        <time>2022-07-17T08:33:05Z</time>
      </trkpt>
      <trkpt lat="44.30773" lon="5.1902">
        <ele>562.7</ele>
        <time>2022-07-17T08:33:06Z</time>
      </trkpt>
      <trkpt lat="44.30774" lon="5.19022">
        <ele>562.9</ele>
        <time>2022-07-17T08:33:07Z</time>
      </trkpt>
      <trkpt lat="44.30775" lon="5.19023">
        <ele>562.9</ele>
        <time>2022-07-17T08:33:08Z</time>
      </trkpt>
      <trkpt lat="44.30776" lon="5.19023">
        <ele>563</ele>
        <time>2022-07-17T08:33:09Z</time>
      </trkpt>
      <trkpt lat="44.30777" lon="5.19024">
        <ele>563.1</ele>
        <time>2022-07-17T08:33:10Z</time>
      </trkpt>
      <trkpt lat="44.30779" lon="5.19025">
        <ele>563.3</ele>
        <time>2022-07-17T08:33:11Z</time>
      </trkpt>
      <trkpt lat="44.3078" lon="5.19026">
        <ele>563.4</ele>
        <time>2022-07-17T08:33:12Z</time>
      </trkpt>
      <trkpt lat="44.30781" lon="5.19027">
        <ele>563.5</ele>
        <time>2022-07-17T08:33:13Z</time>
      </trkpt>
      <trkpt lat="44.30782" lon="5.19028">
        <ele>563.6</ele>
        <time>2022-07-17T08:33:14Z</time>
      </trkpt>
      <trkpt lat="44.30784" lon="5.19029">
        <ele>563.7</ele>
        <time>2022-07-17T08:33:15Z</time>
      </trkpt>
      <trkpt lat="44.30785" lon="5.1903">
        <ele>563.9</ele>
        <time>2022-07-17T08:33:16Z</time>
      </trkpt>
      <trkpt lat="44.30786" lon="5.19031">
        <ele>564</ele>
        <time>2022-07-17T08:33:17Z</time>
      </trkpt>
      <trkpt lat="44.30788" lon="5.19032">
        <ele>564.2</ele>
        <time>2022-07-17T08:33:18Z</time>
      </trkpt>
      <trkpt lat="44.30789" lon="5.19033">
        <ele>564.3</ele>
        <time>2022-07-17T08:33:19Z</time>
      </trkpt>
      <trkpt lat="44.3079" lon="5.19034">
        <ele>564.4</ele>
        <time>2022-07-17T08:33:20Z</time>
      </trkpt>
      <trkpt lat="44.30791" lon="5.19035">
        <ele>564.6</ele>
        <time>2022-07-17T08:33:21Z</time>
      </trkpt>
      <trkpt lat="44.30793" lon="5.19036">
        <ele>564.7</ele>
        <time>2022-07-17T08:33:22Z</time>
      </trkpt>
      <trkpt lat="44.30794" lon="5.19036">
        <ele>564.9</ele>
        <time>2022-07-17T08:33:23Z</time>
      </trkpt>
      <trkpt lat="44.30796" lon="5.19037">
        <ele>565</ele>
        <time>2022-07-17T08:33:24Z</time>
      </trkpt>
      <trkpt lat="44.30797" lon="5.19038">
        <ele>565.1</ele>
        <time>2022-07-17T08:33:25Z</time>
      </trkpt>
      <trkpt lat="44.30798" lon="5.19039">
        <ele>565.2</ele>
        <time>2022-07-17T08:33:26Z</time>
      </trkpt>
      <trkpt lat="44.30799" lon="5.1904">
        <ele>565.3</ele>
        <time>2022-07-17T08:33:27Z</time>
      </trkpt>
      <trkpt lat="44.30801" lon="5.1904">
        <ele>565.4</ele>
        <time>2022-07-17T08:33:28Z</time>
      </trkpt>
      <trkpt lat="44.30802" lon="5.19042">
        <ele>565.5</ele>
        <time>2022-07-17T08:33:29Z</time>
      </trkpt>
      <trkpt lat="44.30803" lon="5.19043">
        <ele>565.7</ele>
        <time>2022-07-17T08:33:30Z</time>
      </trkpt>
      <trkpt lat="44.30804" lon="5.19044">
        <ele>565.8</ele>
        <time>2022-07-17T08:33:31Z</time>
      </trkpt>
      <trkpt lat="44.30805" lon="5.19045">
        <ele>565.9</ele>
        <time>2022-07-17T08:33:32Z</time>
      </trkpt>
      <trkpt lat="44.30806" lon="5.19047">
        <ele>566</ele>
        <time>2022-07-17T08:33:33Z</time>
      </trkpt>
      <trkpt lat="44.30807" lon="5.19048">
        <ele>566.1</ele>
        <time>2022-07-17T08:33:34Z</time>
      </trkpt>
      <trkpt lat="44.30808" lon="5.19049">
        <ele>566.2</ele>
        <time>2022-07-17T08:33:35Z</time>
      </trkpt>
      <trkpt lat="44.30809" lon="5.19051">
        <ele>566.4</ele>
        <time>2022-07-17T08:33:36Z</time>
      </trkpt>
      <trkpt lat="44.3081" lon="5.19052">
        <ele>566.6</ele>
        <time>2022-07-17T08:33:37Z</time>
      </trkpt>
      <trkpt lat="44.30812" lon="5.19054">
        <ele>566.8</ele>
        <time>2022-07-17T08:33:38Z</time>
      </trkpt>
      <trkpt lat="44.30813" lon="5.19055">
        <ele>567</ele>
        <time>2022-07-17T08:33:39Z</time>
      </trkpt>
      <trkpt lat="44.30814" lon="5.19057">
        <ele>567.1</ele>
        <time>2022-07-17T08:33:40Z</time>
      </trkpt>
      <trkpt lat="44.30815" lon="5.19059">
        <ele>567.3</ele>
        <time>2022-07-17T08:33:41Z</time>
      </trkpt>
      <trkpt lat="44.30815" lon="5.19061">
        <ele>567.5</ele>
        <time>2022-07-17T08:33:42Z</time>
      </trkpt>
      <trkpt lat="44.30816" lon="5.19062">
        <ele>567.7</ele>
        <time>2022-07-17T08:33:43Z</time>
      </trkpt>
      <trkpt lat="44.30817" lon="5.19064">
        <ele>567.9</ele>
        <time>2022-07-17T08:33:44Z</time>
      </trkpt>
      <trkpt lat="44.30818" lon="5.19066">
        <ele>568.2</ele>
        <time>2022-07-17T08:33:45Z</time>
      </trkpt>
      <trkpt lat="44.30819" lon="5.19068">
        <ele>568.4</ele>
        <time>2022-07-17T08:33:46Z</time>
      </trkpt>
      <trkpt lat="44.3082" lon="5.1907">
        <ele>568.7</ele>
        <time>2022-07-17T08:33:47Z</time>
      </trkpt>
      <trkpt lat="44.30821" lon="5.19072">
        <ele>568.9</ele>
        <time>2022-07-17T08:33:48Z</time>
      </trkpt>
      <trkpt lat="44.30822" lon="5.19074">
        <ele>569.2</ele>
        <time>2022-07-17T08:33:49Z</time>
      </trkpt>
      <trkpt lat="44.30823" lon="5.19075">
        <ele>569.3</ele>
        <time>2022-07-17T08:33:50Z</time>
      </trkpt>
      <trkpt lat="44.30824" lon="5.19076">
        <ele>569.5</ele>
        <time>2022-07-17T08:33:51Z</time>
      </trkpt>
      <trkpt lat="44.30824" lon="5.19077">
        <ele>569.6</ele>
        <time>2022-07-17T08:33:52Z</time>
      </trkpt>
      <trkpt lat="44.30825" lon="5.19078">
        <ele>569.8</ele>
        <time>2022-07-17T08:33:53Z</time>
      </trkpt>
      <trkpt lat="44.30826" lon="5.1908">
        <ele>570</ele>
        <time>2022-07-17T08:33:54Z</time>
      </trkpt>
      <trkpt lat="44.30826" lon="5.19081">
        <ele>570.1</ele>
        <time>2022-07-17T08:33:55Z</time>
      </trkpt>
      <trkpt lat="44.30827" lon="5.19083">
        <ele>570.3</ele>
        <time>2022-07-17T08:33:56Z</time>
      </trkpt>
      <trkpt lat="44.30827" lon="5.19084">
        <ele>570.5</ele>
        <time>2022-07-17T08:33:57Z</time>
      </trkpt>
      <trkpt lat="44.30828" lon="5.19086">
        <ele>570.7</ele>
        <time>2022-07-17T08:33:58Z</time>
      </trkpt>
      <trkpt lat="44.30829" lon="5.19089">
        <ele>571</ele>
        <time>2022-07-17T08:33:59Z</time>
      </trkpt>
      <trkpt lat="44.30829" lon="5.1909">
        <ele>571.1</ele>
        <time>2022-07-17T08:34:00Z</time>
      </trkpt>
      <trkpt lat="44.30829" lon="5.19091">
        <ele>571.3</ele>
        <time>2022-07-17T08:34:01Z</time>
      </trkpt>
      <trkpt lat="44.30829" lon="5.19093">
        <ele>571.6</ele>
        <time>2022-07-17T08:34:02Z</time>
      </trkpt>
      <trkpt lat="44.3083" lon="5.19095">
        <ele>571.7</ele>
        <time>2022-07-17T08:34:03Z</time>
      </trkpt>
      <trkpt lat="44.3083" lon="5.19096">
        <ele>571.9</ele>
        <time>2022-07-17T08:34:04Z</time>
      </trkpt>
      <trkpt lat="44.30831" lon="5.19098">
        <ele>572.2</ele>
        <time>2022-07-17T08:34:05Z</time>
      </trkpt>
      <trkpt lat="44.30831" lon="5.19099">
        <ele>572.3</ele>
        <time>2022-07-17T08:34:06Z</time>
      </trkpt>
      <trkpt lat="44.30831" lon="5.191">
        <ele>572.4</ele>
        <time>2022-07-17T08:34:07Z</time>
      </trkpt>
      <trkpt lat="44.30831" lon="5.19102">
        <ele>572.6</ele>
        <time>2022-07-17T08:34:08Z</time>
      </trkpt>
      <trkpt lat="44.30831" lon="5.19103">
        <ele>572.7</ele>
        <time>2022-07-17T08:34:09Z</time>
      </trkpt>
      <trkpt lat="44.30831" lon="5.19104">
        <ele>572.8</ele>
        <time>2022-07-17T08:34:10Z</time>
      </trkpt>
      <trkpt lat="44.30831" lon="5.19105">
        <ele>573</ele>
        <time>2022-07-17T08:34:11Z</time>
      </trkpt>
      <trkpt lat="44.30831" lon="5.19106">
        <ele>573.1</ele>
        <time>2022-07-17T08:34:12Z</time>
      </trkpt>
      <trkpt lat="44.30831" lon="5.19108">
        <ele>573.3</ele>
        <time>2022-07-17T08:34:13Z</time>
      </trkpt>
      <trkpt lat="44.30831" lon="5.1911">
        <ele>573.5</ele>
        <time>2022-07-17T08:34:14Z</time>
      </trkpt>
      <trkpt lat="44.3083" lon="5.19111">
        <ele>573.7</ele>
        <time>2022-07-17T08:34:15Z</time>
      </trkpt>
      <trkpt lat="44.3083" lon="5.19112">
        <ele>573.9</ele>
        <time>2022-07-17T08:34:16Z</time>
      </trkpt>
      <trkpt lat="44.3083" lon="5.19114">
        <ele>574.1</ele>
        <time>2022-07-17T08:34:17Z</time>
      </trkpt>
      <trkpt lat="44.30829" lon="5.19117">
        <ele>574.4</ele>
        <time>2022-07-17T08:34:18Z</time>
      </trkpt>
      <trkpt lat="44.30829" lon="5.19118">
        <ele>574.5</ele>
        <time>2022-07-17T08:34:19Z</time>
      </trkpt>
      <trkpt lat="44.30829" lon="5.19119">
        <ele>574.7</ele>
        <time>2022-07-17T08:34:20Z</time>
      </trkpt>
      <trkpt lat="44.30828" lon="5.1912">
        <ele>574.9</ele>
        <time>2022-07-17T08:34:21Z</time>
      </trkpt>
      <trkpt lat="44.30827" lon="5.19122">
        <ele>575.1</ele>
        <time>2022-07-17T08:34:22Z</time>
      </trkpt>
      <trkpt lat="44.30827" lon="5.19123">
        <ele>575.2</ele>
        <time>2022-07-17T08:34:23Z</time>
      </trkpt>
      <trkpt lat="44.30826" lon="5.19123">
        <ele>575.4</ele>
        <time>2022-07-17T08:34:24Z</time>
      </trkpt>
      <trkpt lat="44.30826" lon="5.19124">
        <ele>575.5</ele>
        <time>2022-07-17T08:34:25Z</time>
      </trkpt>
      <trkpt lat="44.30824" lon="5.19124">
        <ele>575.7</ele>
        <time>2022-07-17T08:34:26Z</time>
      </trkpt>
      <trkpt lat="44.30823" lon="5.19125">
        <ele>576.1</ele>
        <time>2022-07-17T08:34:27Z</time>
      </trkpt>
      <trkpt lat="44.30822" lon="5.19126">
        <ele>576.2</ele>
        <time>2022-07-17T08:34:28Z</time>
      </trkpt>
      <trkpt lat="44.30821" lon="5.19127">
        <ele>576.4</ele>
        <time>2022-07-17T08:34:29Z</time>
      </trkpt>
      <trkpt lat="44.3082" lon="5.19128">
        <ele>576.6</ele>
        <time>2022-07-17T08:34:30Z</time>
      </trkpt>
      <trkpt lat="44.30819" lon="5.19128">
        <ele>576.7</ele>
        <time>2022-07-17T08:34:31Z</time>
      </trkpt>
      <trkpt lat="44.30819" lon="5.19128">
        <ele>576.9</ele>
        <time>2022-07-17T08:34:32Z</time>
      </trkpt>
      <trkpt lat="44.30818" lon="5.19129">
        <ele>577</ele>
        <time>2022-07-17T08:34:33Z</time>
      </trkpt>
      <trkpt lat="44.30817" lon="5.1913">
        <ele>577.2</ele>
        <time>2022-07-17T08:34:34Z</time>
      </trkpt>
      <trkpt lat="44.30817" lon="5.19131">
        <ele>577.4</ele>
        <time>2022-07-17T08:34:35Z</time>
      </trkpt>
      <trkpt lat="44.30816" lon="5.19132">
        <ele>577.5</ele>
        <time>2022-07-17T08:34:36Z</time>
      </trkpt>
      <trkpt lat="44.30815" lon="5.19133">
        <ele>577.7</ele>
        <time>2022-07-17T08:34:37Z</time>
      </trkpt>
      <trkpt lat="44.30815" lon="5.19133">
        <ele>577.8</ele>
        <time>2022-07-17T08:34:38Z</time>
      </trkpt>
      <trkpt lat="44.30814" lon="5.19134">
        <ele>577.9</ele>
        <time>2022-07-17T08:34:39Z</time>
      </trkpt>
      <trkpt lat="44.30814" lon="5.19134">
        <ele>578</ele>
        <time>2022-07-17T08:34:40Z</time>
      </trkpt>
      <trkpt lat="44.30813" lon="5.19135">
        <ele>578.1</ele>
        <time>2022-07-17T08:34:41Z</time>
      </trkpt>
      <trkpt lat="44.30813" lon="5.19135">
        <ele>578.2</ele>
        <time>2022-07-17T08:34:42Z</time>
      </trkpt>
      <trkpt lat="44.30812" lon="5.19136">
        <ele>578.4</ele>
        <time>2022-07-17T08:34:43Z</time>
      </trkpt>
      <trkpt lat="44.3081" lon="5.19135">
        <ele>578.7</ele>
        <time>2022-07-17T08:34:44Z</time>
      </trkpt>
      <trkpt lat="44.30809" lon="5.19135">
        <ele>578.9</ele>
        <time>2022-07-17T08:34:45Z</time>
      </trkpt>
      <trkpt lat="44.30808" lon="5.19135">
        <ele>579</ele>
        <time>2022-07-17T08:34:46Z</time>
      </trkpt>
      <trkpt lat="44.30804" lon="5.19134">
        <ele>579.5</ele>
        <time>2022-07-17T08:34:47Z</time>
      </trkpt>
      <trkpt lat="44.30803" lon="5.19134">
        <ele>579.7</ele>
        <time>2022-07-17T08:34:48Z</time>
      </trkpt>
      <trkpt lat="44.30802" lon="5.19133">
        <ele>579.9</ele>
        <time>2022-07-17T08:34:49Z</time>
      </trkpt>
      <trkpt lat="44.30801" lon="5.19132">
        <ele>580</ele>
        <time>2022-07-17T08:34:50Z</time>
      </trkpt>
      <trkpt lat="44.30801" lon="5.1913">
        <ele>580.2</ele>
        <time>2022-07-17T08:34:51Z</time>
      </trkpt>
      <trkpt lat="44.30801" lon="5.19129">
        <ele>580.4</ele>
        <time>2022-07-17T08:34:52Z</time>
      </trkpt>
      <trkpt lat="44.30801" lon="5.19127">
        <ele>580.5</ele>
        <time>2022-07-17T08:34:53Z</time>
      </trkpt>
      <trkpt lat="44.30801" lon="5.19126">
        <ele>580.7</ele>
        <time>2022-07-17T08:34:54Z</time>
      </trkpt>
      <trkpt lat="44.30802" lon="5.19124">
        <ele>580.9</ele>
        <time>2022-07-17T08:34:55Z</time>
      </trkpt>
      <trkpt lat="44.30802" lon="5.19123">
        <ele>581</ele>
        <time>2022-07-17T08:34:56Z</time>
      </trkpt>
      <trkpt lat="44.308" lon="5.19122">
        <ele>581.2</ele>
        <time>2022-07-17T08:34:57Z</time>
      </trkpt>
      <trkpt lat="44.30797" lon="5.1912">
        <ele>581.6</ele>
        <time>2022-07-17T08:34:58Z</time>
      </trkpt>
      <trkpt lat="44.30796" lon="5.1912">
        <ele>581.7</ele>
        <time>2022-07-17T08:34:59Z</time>
      </trkpt>
      <trkpt lat="44.30795" lon="5.1912">
        <ele>581.9</ele>
        <time>2022-07-17T08:35:00Z</time>
      </trkpt>
      <trkpt lat="44.30794" lon="5.19119">
        <ele>582</ele>
        <time>2022-07-17T08:35:01Z</time>
      </trkpt>
      <trkpt lat="44.30793" lon="5.19119">
        <ele>582.1</ele>
        <time>2022-07-17T08:35:02Z</time>
      </trkpt>
      <trkpt lat="44.30791" lon="5.19118">
        <ele>582.4</ele>
        <time>2022-07-17T08:35:03Z</time>
      </trkpt>
      <trkpt lat="44.3079" lon="5.19118">
        <ele>582.5</ele>
        <time>2022-07-17T08:35:04Z</time>
      </trkpt>
      <trkpt lat="44.30789" lon="5.19118">
        <ele>582.5</ele>
        <time>2022-07-17T08:35:05Z</time>
      </trkpt>
      <trkpt lat="44.30788" lon="5.19117">
        <ele>582.6</ele>
        <time>2022-07-17T08:35:06Z</time>
      </trkpt>
      <trkpt lat="44.30787" lon="5.19117">
        <ele>582.7</ele>
        <time>2022-07-17T08:35:07Z</time>
      </trkpt>
      <trkpt lat="44.30787" lon="5.19117">
        <ele>582.8</ele>
        <time>2022-07-17T08:35:08Z</time>
      </trkpt>
      <trkpt lat="44.30786" lon="5.19116">
        <ele>582.8</ele>
        <time>2022-07-17T08:35:09Z</time>
      </trkpt>
      <trkpt lat="44.30786" lon="5.19116">
        <ele>582.9</ele>
        <time>2022-07-17T08:35:10Z</time>
      </trkpt>
      <trkpt lat="44.30786" lon="5.19115">
        <ele>582.9</ele>
        <time>2022-07-17T08:35:11Z</time>
      </trkpt>
      <trkpt lat="44.30785" lon="5.19114">
        <ele>583</ele>
        <time>2022-07-17T08:35:12Z</time>
      </trkpt>
      <trkpt lat="44.30785" lon="5.19114">
        <ele>583.1</ele>
        <time>2022-07-17T08:35:13Z</time>
      </trkpt>
      <trkpt lat="44.30784" lon="5.19113">
        <ele>583.2</ele>
        <time>2022-07-17T08:35:14Z</time>
      </trkpt>
      <trkpt lat="44.30782" lon="5.19113">
        <ele>583.3</ele>
        <time>2022-07-17T08:35:15Z</time>
      </trkpt>
      <trkpt lat="44.30781" lon="5.19113">
        <ele>583.4</ele>
        <time>2022-07-17T08:35:16Z</time>
      </trkpt>
      <trkpt lat="44.3078" lon="5.19112">
        <ele>583.5</ele>
        <time>2022-07-17T08:35:17Z</time>
      </trkpt>
      <trkpt lat="44.30779" lon="5.19112">
        <ele>583.6</ele>
        <time>2022-07-17T08:35:18Z</time>
      </trkpt>
      <trkpt lat="44.30776" lon="5.19112">
        <ele>584</ele>
        <time>2022-07-17T08:35:19Z</time>
      </trkpt>
      <trkpt lat="44.30775" lon="5.19112">
        <ele>584.2</ele>
        <time>2022-07-17T08:35:20Z</time>
      </trkpt>
      <trkpt lat="44.30772" lon="5.19111">
        <ele>584.6</ele>
        <time>2022-07-17T08:35:21Z</time>
      </trkpt>
      <trkpt lat="44.30771" lon="5.19111">
        <ele>584.7</ele>
        <time>2022-07-17T08:35:22Z</time>
      </trkpt>
      <trkpt lat="44.30768" lon="5.19111">
        <ele>585.2</ele>
        <time>2022-07-17T08:35:23Z</time>
      </trkpt>
      <trkpt lat="44.30767" lon="5.19111">
        <ele>585.3</ele>
        <time>2022-07-17T08:35:24Z</time>
      </trkpt>
      <trkpt lat="44.30765" lon="5.19111">
        <ele>585.6</ele>
        <time>2022-07-17T08:35:25Z</time>
      </trkpt>
      <trkpt lat="44.30763" lon="5.19112">
        <ele>585.8</ele>
        <time>2022-07-17T08:35:26Z</time>
      </trkpt>
      <trkpt lat="44.30761" lon="5.19113">
        <ele>586</ele>
        <time>2022-07-17T08:35:27Z</time>
      </trkpt>
      <trkpt lat="44.3076" lon="5.19113">
        <ele>586.1</ele>
        <time>2022-07-17T08:35:28Z</time>
      </trkpt>
      <trkpt lat="44.30757" lon="5.19115">
        <ele>586.4</ele>
        <time>2022-07-17T08:35:29Z</time>
      </trkpt>
      <trkpt lat="44.30756" lon="5.19116">
        <ele>586.5</ele>
        <time>2022-07-17T08:35:30Z</time>
      </trkpt>
      <trkpt lat="44.30755" lon="5.19117">
        <ele>586.5</ele>
        <time>2022-07-17T08:35:31Z</time>
      </trkpt>
      <trkpt lat="44.30754" lon="5.19118">
        <ele>586.6</ele>
        <time>2022-07-17T08:35:32Z</time>
      </trkpt>
      <trkpt lat="44.30754" lon="5.19119">
        <ele>586.6</ele>
        <time>2022-07-17T08:35:33Z</time>
      </trkpt>
      <trkpt lat="44.30753" lon="5.19121">
        <ele>586.7</ele>
        <time>2022-07-17T08:35:34Z</time>
      </trkpt>
      <trkpt lat="44.30752" lon="5.19123">
        <ele>586.7</ele>
        <time>2022-07-17T08:35:35Z</time>
      </trkpt>
      <trkpt lat="44.30752" lon="5.19125">
        <ele>586.7</ele>
        <time>2022-07-17T08:35:36Z</time>
      </trkpt>
      <trkpt lat="44.30752" lon="5.19127">
        <ele>586.7</ele>
        <time>2022-07-17T08:35:37Z</time>
      </trkpt>
      <trkpt lat="44.30753" lon="5.19129">
        <ele>586.7</ele>
        <time>2022-07-17T08:35:38Z</time>
      </trkpt>
      <trkpt lat="44.30754" lon="5.19131">
        <ele>586.7</ele>
        <time>2022-07-17T08:35:39Z</time>
      </trkpt>
      <trkpt lat="44.30756" lon="5.19133">
        <ele>586.7</ele>
        <time>2022-07-17T08:35:40Z</time>
      </trkpt>
      <trkpt lat="44.30757" lon="5.19134">
        <ele>586.7</ele>
        <time>2022-07-17T08:35:41Z</time>
      </trkpt>
      <trkpt lat="44.3076" lon="5.19136">
        <ele>586.6</ele>
        <time>2022-07-17T08:35:42Z</time>
      </trkpt>
      <trkpt lat="44.30761" lon="5.19136">
        <ele>586.6</ele>
        <time>2022-07-17T08:35:43Z</time>
      </trkpt>
      <trkpt lat="44.30764" lon="5.19139">
        <ele>586.6</ele>
        <time>2022-07-17T08:35:44Z</time>
      </trkpt>
      <trkpt lat="44.30765" lon="5.1914">
        <ele>586.7</ele>
        <time>2022-07-17T08:35:45Z</time>
      </trkpt>
      <trkpt lat="44.30767" lon="5.19143">
        <ele>586.7</ele>
        <time>2022-07-17T08:35:46Z</time>
      </trkpt>
      <trkpt lat="44.3077" lon="5.19146">
        <ele>586.7</ele>
        <time>2022-07-17T08:35:47Z</time>
      </trkpt>
      <trkpt lat="44.30773" lon="5.1915">
        <ele>586.8</ele>
        <time>2022-07-17T08:35:48Z</time>
      </trkpt>
      <trkpt lat="44.30775" lon="5.19153">
        <ele>586.8</ele>
        <time>2022-07-17T08:35:49Z</time>
      </trkpt>
      <trkpt lat="44.30778" lon="5.19157">
        <ele>586.8</ele>
        <time>2022-07-17T08:35:50Z</time>
      </trkpt>
      <trkpt lat="44.3078" lon="5.19161">
        <ele>586.9</ele>
        <time>2022-07-17T08:35:51Z</time>
      </trkpt>
      <trkpt lat="44.30782" lon="5.19165">
        <ele>587</ele>
        <time>2022-07-17T08:35:52Z</time>
      </trkpt>
      <trkpt lat="44.30785" lon="5.19169">
        <ele>587.1</ele>
        <time>2022-07-17T08:35:53Z</time>
      </trkpt>
      <trkpt lat="44.30787" lon="5.19173">
        <ele>587.3</ele>
        <time>2022-07-17T08:35:54Z</time>
      </trkpt>
      <trkpt lat="44.30789" lon="5.19176">
        <ele>587.4</ele>
        <time>2022-07-17T08:35:55Z</time>
      </trkpt>
      <trkpt lat="44.30791" lon="5.19179">
        <ele>587.5</ele>
        <time>2022-07-17T08:35:56Z</time>
      </trkpt>
      <trkpt lat="44.30793" lon="5.19182">
        <ele>587.6</ele>
        <time>2022-07-17T08:35:57Z</time>
      </trkpt>
      <trkpt lat="44.30796" lon="5.19185">
        <ele>587.7</ele>
        <time>2022-07-17T08:35:58Z</time>
      </trkpt>
      <trkpt lat="44.30796" lon="5.19186">
        <ele>587.8</ele>
        <time>2022-07-17T08:35:59Z</time>
      </trkpt>
      <trkpt lat="44.30799" lon="5.19189">
        <ele>588</ele>
        <time>2022-07-17T08:36:00Z</time>
      </trkpt>
      <trkpt lat="44.308" lon="5.1919">
        <ele>588.1</ele>
        <time>2022-07-17T08:36:01Z</time>
      </trkpt>
      <trkpt lat="44.30802" lon="5.19193">
        <ele>588.3</ele>
        <time>2022-07-17T08:36:02Z</time>
      </trkpt>
      <trkpt lat="44.30803" lon="5.19194">
        <ele>588.5</ele>
        <time>2022-07-17T08:36:03Z</time>
      </trkpt>
      <trkpt lat="44.30805" lon="5.19198">
        <ele>588.9</ele>
        <time>2022-07-17T08:36:04Z</time>
      </trkpt>
      <trkpt lat="44.30806" lon="5.192">
        <ele>589</ele>
        <time>2022-07-17T08:36:05Z</time>
      </trkpt>
      <trkpt lat="44.30807" lon="5.19203">
        <ele>589.5</ele>
        <time>2022-07-17T08:36:06Z</time>
      </trkpt>
      <trkpt lat="44.30808" lon="5.19204">
        <ele>589.6</ele>
        <time>2022-07-17T08:36:07Z</time>
      </trkpt>
      <trkpt lat="44.3081" lon="5.19207">
        <ele>590.1</ele>
        <time>2022-07-17T08:36:08Z</time>
      </trkpt>
      <trkpt lat="44.3081" lon="5.19208">
        <ele>590.2</ele>
        <time>2022-07-17T08:36:09Z</time>
      </trkpt>
      <trkpt lat="44.30812" lon="5.19212">
        <ele>590.8</ele>
        <time>2022-07-17T08:36:10Z</time>
      </trkpt>
      <trkpt lat="44.30813" lon="5.19213">
        <ele>591</ele>
        <time>2022-07-17T08:36:11Z</time>
      </trkpt>
      <trkpt lat="44.30815" lon="5.19216">
        <ele>591.6</ele>
        <time>2022-07-17T08:36:12Z</time>
      </trkpt>
      <trkpt lat="44.30816" lon="5.19218">
        <ele>591.8</ele>
        <time>2022-07-17T08:36:13Z</time>
      </trkpt>
      <trkpt lat="44.30818" lon="5.19221">
        <ele>592.3</ele>
        <time>2022-07-17T08:36:14Z</time>
      </trkpt>
      <trkpt lat="44.30819" lon="5.19222">
        <ele>592.5</ele>
        <time>2022-07-17T08:36:15Z</time>
      </trkpt>
      <trkpt lat="44.3082" lon="5.19223">
        <ele>592.8</ele>
        <time>2022-07-17T08:36:16Z</time>
      </trkpt>
      <trkpt lat="44.30821" lon="5.19224">
        <ele>593</ele>
        <time>2022-07-17T08:36:17Z</time>
      </trkpt>
      <trkpt lat="44.30822" lon="5.19225">
        <ele>593.3</ele>
        <time>2022-07-17T08:36:18Z</time>
      </trkpt>
      <trkpt lat="44.30824" lon="5.19225">
        <ele>593.5</ele>
        <time>2022-07-17T08:36:19Z</time>
      </trkpt>
      <trkpt lat="44.30826" lon="5.19225">
        <ele>593.8</ele>
        <time>2022-07-17T08:36:20Z</time>
      </trkpt>
      <trkpt lat="44.30827" lon="5.19226">
        <ele>594.1</ele>
        <time>2022-07-17T08:36:21Z</time>
      </trkpt>
      <trkpt lat="44.30828" lon="5.19227">
        <ele>594.3</ele>
        <time>2022-07-17T08:36:22Z</time>
      </trkpt>
      <trkpt lat="44.30829" lon="5.19228">
        <ele>594.5</ele>
        <time>2022-07-17T08:36:23Z</time>
      </trkpt>
      <trkpt lat="44.3083" lon="5.19228">
        <ele>594.6</ele>
        <time>2022-07-17T08:36:24Z</time>
      </trkpt>
      <trkpt lat="44.30831" lon="5.19229">
        <ele>594.9</ele>
        <time>2022-07-17T08:36:25Z</time>
      </trkpt>
      <trkpt lat="44.30832" lon="5.1923">
        <ele>595.2</ele>
        <time>2022-07-17T08:36:26Z</time>
      </trkpt>
      <trkpt lat="44.30833" lon="5.1923">
        <ele>595.4</ele>
        <time>2022-07-17T08:36:27Z</time>
      </trkpt>
      <trkpt lat="44.30834" lon="5.1923">
        <ele>595.5</ele>
        <time>2022-07-17T08:36:28Z</time>
      </trkpt>
      <trkpt lat="44.30835" lon="5.1923">
        <ele>595.7</ele>
        <time>2022-07-17T08:36:29Z</time>
      </trkpt>
      <trkpt lat="44.30836" lon="5.1923">
        <ele>596</ele>
        <time>2022-07-17T08:36:30Z</time>
      </trkpt>
      <trkpt lat="44.30838" lon="5.19231">
        <ele>596.3</ele>
        <time>2022-07-17T08:36:31Z</time>
      </trkpt>
      <trkpt lat="44.30839" lon="5.19231">
        <ele>596.5</ele>
        <time>2022-07-17T08:36:32Z</time>
      </trkpt>
      <trkpt lat="44.3084" lon="5.19232">
        <ele>596.7</ele>
        <time>2022-07-17T08:36:33Z</time>
      </trkpt>
      <trkpt lat="44.30841" lon="5.19233">
        <ele>596.9</ele>
        <time>2022-07-17T08:36:34Z</time>
      </trkpt>
      <trkpt lat="44.30841" lon="5.19234">
        <ele>597</ele>
        <time>2022-07-17T08:36:35Z</time>
      </trkpt>
      <trkpt lat="44.30842" lon="5.19235">
        <ele>597.1</ele>
        <time>2022-07-17T08:36:36Z</time>
      </trkpt>
      <trkpt lat="44.30842" lon="5.19235">
        <ele>597.2</ele>
        <time>2022-07-17T08:36:37Z</time>
      </trkpt>
      <trkpt lat="44.30842" lon="5.19235">
        <ele>597.2</ele>
        <time>2022-07-17T08:36:38Z</time>
      </trkpt>
      <trkpt lat="44.30843" lon="5.19236">
        <ele>597.4</ele>
        <time>2022-07-17T08:36:39Z</time>
      </trkpt>
      <trkpt lat="44.30843" lon="5.19237">
        <ele>597.5</ele>
        <time>2022-07-17T08:36:40Z</time>
      </trkpt>
      <trkpt lat="44.30844" lon="5.19239">
        <ele>597.8</ele>
        <time>2022-07-17T08:36:41Z</time>
      </trkpt>
      <trkpt lat="44.30844" lon="5.1924">
        <ele>597.9</ele>
        <time>2022-07-17T08:36:42Z</time>
      </trkpt>
      <trkpt lat="44.30844" lon="5.19241">
        <ele>598</ele>
        <time>2022-07-17T08:36:43Z</time>
      </trkpt>
      <trkpt lat="44.30844" lon="5.19242">
        <ele>598.2</ele>
        <time>2022-07-17T08:36:44Z</time>
      </trkpt>
      <trkpt lat="44.30844" lon="5.19243">
        <ele>598.4</ele>
        <time>2022-07-17T08:36:45Z</time>
      </trkpt>
      <trkpt lat="44.30844" lon="5.19245">
        <ele>598.6</ele>
        <time>2022-07-17T08:36:46Z</time>
      </trkpt>
      <trkpt lat="44.30844" lon="5.19247">
        <ele>598.8</ele>
        <time>2022-07-17T08:36:47Z</time>
      </trkpt>
      <trkpt lat="44.30844" lon="5.19248">
        <ele>599</ele>
        <time>2022-07-17T08:36:48Z</time>
      </trkpt>
      <trkpt lat="44.30844" lon="5.1925">
        <ele>599.2</ele>
        <time>2022-07-17T08:36:49Z</time>
      </trkpt>
      <trkpt lat="44.30845" lon="5.19251">
        <ele>599.4</ele>
        <time>2022-07-17T08:36:50Z</time>
      </trkpt>
      <trkpt lat="44.30845" lon="5.19254">
        <ele>599.9</ele>
        <time>2022-07-17T08:36:51Z</time>
      </trkpt>
      <trkpt lat="44.30846" lon="5.19255">
        <ele>600</ele>
        <time>2022-07-17T08:36:52Z</time>
      </trkpt>
      <trkpt lat="44.30846" lon="5.19256">
        <ele>600.2</ele>
        <time>2022-07-17T08:36:53Z</time>
      </trkpt>
      <trkpt lat="44.30847" lon="5.19258">
        <ele>600.6</ele>
        <time>2022-07-17T08:36:54Z</time>
      </trkpt>
      <trkpt lat="44.30848" lon="5.19259">
        <ele>600.8</ele>
        <time>2022-07-17T08:36:55Z</time>
      </trkpt>
      <trkpt lat="44.30848" lon="5.1926">
        <ele>601</ele>
        <time>2022-07-17T08:36:56Z</time>
      </trkpt>
      <trkpt lat="44.30849" lon="5.19261">
        <ele>601.2</ele>
        <time>2022-07-17T08:36:57Z</time>
      </trkpt>
      <trkpt lat="44.30849" lon="5.19263">
        <ele>601.4</ele>
        <time>2022-07-17T08:36:58Z</time>
      </trkpt>
      <trkpt lat="44.30849" lon="5.19264">
        <ele>601.7</ele>
        <time>2022-07-17T08:36:59Z</time>
      </trkpt>
      <trkpt lat="44.3085" lon="5.19266">
        <ele>601.9</ele>
        <time>2022-07-17T08:37:00Z</time>
      </trkpt>
      <trkpt lat="44.3085" lon="5.19267">
        <ele>602</ele>
        <time>2022-07-17T08:37:01Z</time>
      </trkpt>
      <trkpt lat="44.3085" lon="5.19268">
        <ele>602.2</ele>
        <time>2022-07-17T08:37:02Z</time>
      </trkpt>
      <trkpt lat="44.30851" lon="5.19271">
        <ele>602.6</ele>
        <time>2022-07-17T08:37:03Z</time>
      </trkpt>
      <trkpt lat="44.30852" lon="5.19272">
        <ele>602.8</ele>
        <time>2022-07-17T08:37:04Z</time>
      </trkpt>
      <trkpt lat="44.30852" lon="5.19274">
        <ele>603</ele>
        <time>2022-07-17T08:37:05Z</time>
      </trkpt>
      <trkpt lat="44.30853" lon="5.19276">
        <ele>603.2</ele>
        <time>2022-07-17T08:37:06Z</time>
      </trkpt>
      <trkpt lat="44.30853" lon="5.19277">
        <ele>603.3</ele>
        <time>2022-07-17T08:37:07Z</time>
      </trkpt>
      <trkpt lat="44.30854" lon="5.19278">
        <ele>603.5</ele>
        <time>2022-07-17T08:37:08Z</time>
      </trkpt>
      <trkpt lat="44.30854" lon="5.19279">
        <ele>603.7</ele>
        <time>2022-07-17T08:37:09Z</time>
      </trkpt>
      <trkpt lat="44.30855" lon="5.1928">
        <ele>603.7</ele>
        <time>2022-07-17T08:37:10Z</time>
      </trkpt>
      <trkpt lat="44.30855" lon="5.1928">
        <ele>603.7</ele>
        <time>2022-07-17T08:37:11Z</time>
      </trkpt>
      <trkpt lat="44.30855" lon="5.19281">
        <ele>603.8</ele>
        <time>2022-07-17T08:37:12Z</time>
      </trkpt>
      <trkpt lat="44.30855" lon="5.19281">
        <ele>603.8</ele>
        <time>2022-07-17T08:37:13Z</time>
      </trkpt>
      <trkpt lat="44.30855" lon="5.19282">
        <ele>603.9</ele>
        <time>2022-07-17T08:37:14Z</time>
      </trkpt>
      <trkpt lat="44.30856" lon="5.19282">
        <ele>603.9</ele>
        <time>2022-07-17T08:37:15Z</time>
      </trkpt>
      <trkpt lat="44.30856" lon="5.19283">
        <ele>604</ele>
        <time>2022-07-17T08:37:16Z</time>
      </trkpt>
      <trkpt lat="44.30856" lon="5.19283">
        <ele>604</ele>
        <time>2022-07-17T08:37:17Z</time>
      </trkpt>
      <trkpt lat="44.30856" lon="5.19283">
        <ele>604.1</ele>
        <time>2022-07-17T08:37:18Z</time>
      </trkpt>
      <trkpt lat="44.30856" lon="5.19284">
        <ele>604.1</ele>
        <time>2022-07-17T08:37:19Z</time>
      </trkpt>
      <trkpt lat="44.30857" lon="5.19288">
        <ele>604.5</ele>
        <time>2022-07-17T08:37:20Z</time>
      </trkpt>
      <trkpt lat="44.30858" lon="5.1929">
        <ele>604.8</ele>
        <time>2022-07-17T08:37:25Z</time>
      </trkpt>
      <trkpt lat="44.30858" lon="5.19293">
        <ele>605</ele>
        <time>2022-07-17T08:37:26Z</time>
      </trkpt>
      <trkpt lat="44.30859" lon="5.19295">
        <ele>605.3</ele>
        <time>2022-07-17T08:37:27Z</time>
      </trkpt>
      <trkpt lat="44.30859" lon="5.19297">
        <ele>605.4</ele>
        <time>2022-07-17T08:37:28Z</time>
      </trkpt>
      <trkpt lat="44.3086" lon="5.19298">
        <ele>605.6</ele>
        <time>2022-07-17T08:37:29Z</time>
      </trkpt>
      <trkpt lat="44.3086" lon="5.19299">
        <ele>605.7</ele>
        <time>2022-07-17T08:37:30Z</time>
      </trkpt>
      <trkpt lat="44.3086" lon="5.19301">
        <ele>605.9</ele>
        <time>2022-07-17T08:37:31Z</time>
      </trkpt>
      <trkpt lat="44.3086" lon="5.19303">
        <ele>606</ele>
        <time>2022-07-17T08:37:32Z</time>
      </trkpt>
      <trkpt lat="44.3086" lon="5.19304">
        <ele>606.2</ele>
        <time>2022-07-17T08:37:33Z</time>
      </trkpt>
      <trkpt lat="44.3086" lon="5.19305">
        <ele>606.3</ele>
        <time>2022-07-17T08:37:34Z</time>
      </trkpt>
      <trkpt lat="44.3086" lon="5.19307">
        <ele>606.4</ele>
        <time>2022-07-17T08:37:35Z</time>
      </trkpt>
      <trkpt lat="44.30861" lon="5.19308">
        <ele>606.5</ele>
        <time>2022-07-17T08:37:36Z</time>
      </trkpt>
      <trkpt lat="44.30861" lon="5.19309">
        <ele>606.7</ele>
        <time>2022-07-17T08:37:37Z</time>
      </trkpt>
      <trkpt lat="44.30862" lon="5.19312">
        <ele>606.9</ele>
        <time>2022-07-17T08:37:38Z</time>
      </trkpt>
      <trkpt lat="44.30863" lon="5.19314">
        <ele>607.2</ele>
        <time>2022-07-17T08:37:39Z</time>
      </trkpt>
      <trkpt lat="44.30863" lon="5.19316">
        <ele>607.4</ele>
        <time>2022-07-17T08:37:40Z</time>
      </trkpt>
      <trkpt lat="44.30864" lon="5.19317">
        <ele>607.6</ele>
        <time>2022-07-17T08:37:41Z</time>
      </trkpt>
      <trkpt lat="44.30864" lon="5.19318">
        <ele>607.7</ele>
        <time>2022-07-17T08:37:42Z</time>
      </trkpt>
      <trkpt lat="44.30865" lon="5.19319">
        <ele>607.8</ele>
        <time>2022-07-17T08:37:43Z</time>
      </trkpt>
      <trkpt lat="44.30864" lon="5.1932">
        <ele>607.9</ele>
        <time>2022-07-17T08:37:44Z</time>
      </trkpt>
      <trkpt lat="44.30864" lon="5.1932">
        <ele>607.9</ele>
        <time>2022-07-17T08:37:45Z</time>
      </trkpt>
      <trkpt lat="44.30864" lon="5.19321">
        <ele>608</ele>
        <time>2022-07-17T08:37:46Z</time>
      </trkpt>
      <trkpt lat="44.30863" lon="5.19321">
        <ele>608.2</ele>
        <time>2022-07-17T08:37:47Z</time>
      </trkpt>
      <trkpt lat="44.30862" lon="5.19321">
        <ele>608.3</ele>
        <time>2022-07-17T08:37:48Z</time>
      </trkpt>
      <trkpt lat="44.30862" lon="5.19323">
        <ele>608.4</ele>
        <time>2022-07-17T08:37:49Z</time>
      </trkpt>
      <trkpt lat="44.30863" lon="5.19325">
        <ele>608.7</ele>
        <time>2022-07-17T08:37:50Z</time>
      </trkpt>
      <trkpt lat="44.30863" lon="5.19326">
        <ele>608.8</ele>
        <time>2022-07-17T08:37:51Z</time>
      </trkpt>
      <trkpt lat="44.30864" lon="5.19327">
        <ele>608.9</ele>
        <time>2022-07-17T08:37:52Z</time>
      </trkpt>
      <trkpt lat="44.30864" lon="5.1933">
        <ele>609.2</ele>
        <time>2022-07-17T08:37:53Z</time>
      </trkpt>
      <trkpt lat="44.30865" lon="5.19332">
        <ele>609.4</ele>
        <time>2022-07-17T08:37:54Z</time>
      </trkpt>
      <trkpt lat="44.30866" lon="5.19333">
        <ele>609.6</ele>
        <time>2022-07-17T08:37:55Z</time>
      </trkpt>
      <trkpt lat="44.30867" lon="5.19334">
        <ele>609.7</ele>
        <time>2022-07-17T08:37:56Z</time>
      </trkpt>
      <trkpt lat="44.30868" lon="5.19334">
        <ele>609.9</ele>
        <time>2022-07-17T08:37:57Z</time>
      </trkpt>
      <trkpt lat="44.3087" lon="5.19336">
        <ele>610.3</ele>
        <time>2022-07-17T08:37:58Z</time>
      </trkpt>
      <trkpt lat="44.30871" lon="5.19337">
        <ele>610.5</ele>
        <time>2022-07-17T08:37:59Z</time>
      </trkpt>
      <trkpt lat="44.30872" lon="5.19338">
        <ele>610.6</ele>
        <time>2022-07-17T08:38:00Z</time>
      </trkpt>
      <trkpt lat="44.30873" lon="5.19339">
        <ele>610.8</ele>
        <time>2022-07-17T08:38:01Z</time>
      </trkpt>
      <trkpt lat="44.30874" lon="5.1934">
        <ele>610.9</ele>
        <time>2022-07-17T08:38:02Z</time>
      </trkpt>
      <trkpt lat="44.30875" lon="5.19341">
        <ele>611.1</ele>
        <time>2022-07-17T08:38:03Z</time>
      </trkpt>
      <trkpt lat="44.30876" lon="5.19342">
        <ele>611.2</ele>
        <time>2022-07-17T08:38:04Z</time>
      </trkpt>
      <trkpt lat="44.30877" lon="5.19344">
        <ele>611.4</ele>
        <time>2022-07-17T08:38:05Z</time>
      </trkpt>
      <trkpt lat="44.30878" lon="5.19345">
        <ele>611.5</ele>
        <time>2022-07-17T08:38:11Z</time>
      </trkpt>
      <trkpt lat="44.30878" lon="5.19346">
        <ele>611.7</ele>
        <time>2022-07-17T08:38:12Z</time>
      </trkpt>
      <trkpt lat="44.3088" lon="5.19349">
        <ele>612</ele>
        <time>2022-07-17T08:38:13Z</time>
      </trkpt>
      <trkpt lat="44.30881" lon="5.1935">
        <ele>612.1</ele>
        <time>2022-07-17T08:38:14Z</time>
      </trkpt>
      <trkpt lat="44.30882" lon="5.19351">
        <ele>612.2</ele>
        <time>2022-07-17T08:38:15Z</time>
      </trkpt>
      <trkpt lat="44.30882" lon="5.19353">
        <ele>612.4</ele>
        <time>2022-07-17T08:38:16Z</time>
      </trkpt>
      <trkpt lat="44.30883" lon="5.19354">
        <ele>612.5</ele>
        <time>2022-07-17T08:38:17Z</time>
      </trkpt>
      <trkpt lat="44.30884" lon="5.19355">
        <ele>612.7</ele>
        <time>2022-07-17T08:38:18Z</time>
      </trkpt>
      <trkpt lat="44.30885" lon="5.19356">
        <ele>612.8</ele>
        <time>2022-07-17T08:38:19Z</time>
      </trkpt>
      <trkpt lat="44.30885" lon="5.19358">
        <ele>613</ele>
        <time>2022-07-17T08:38:20Z</time>
      </trkpt>
      <trkpt lat="44.30886" lon="5.19359">
        <ele>613.1</ele>
        <time>2022-07-17T08:38:21Z</time>
      </trkpt>
      <trkpt lat="44.30887" lon="5.1936">
        <ele>613.3</ele>
        <time>2022-07-17T08:38:22Z</time>
      </trkpt>
      <trkpt lat="44.30888" lon="5.19361">
        <ele>613.5</ele>
        <time>2022-07-17T08:38:23Z</time>
      </trkpt>
      <trkpt lat="44.30889" lon="5.19363">
        <ele>613.7</ele>
        <time>2022-07-17T08:38:36Z</time>
      </trkpt>
      <trkpt lat="44.30889" lon="5.19364">
        <ele>613.9</ele>
        <time>2022-07-17T08:38:37Z</time>
      </trkpt>
      <trkpt lat="44.3089" lon="5.19365">
        <ele>614.1</ele>
        <time>2022-07-17T08:38:38Z</time>
      </trkpt>
      <trkpt lat="44.3089" lon="5.19365">
        <ele>614.1</ele>
        <time>2022-07-17T08:38:39Z</time>
      </trkpt>
      <trkpt lat="44.30892" lon="5.19368">
        <ele>614.6</ele>
        <time>2022-07-17T08:38:40Z</time>
      </trkpt>
      <trkpt lat="44.30895" lon="5.19372">
        <ele>615.2</ele>
        <time>2022-07-17T08:38:41Z</time>
      </trkpt>
      <trkpt lat="44.30896" lon="5.19373">
        <ele>615.4</ele>
        <time>2022-07-17T08:38:42Z</time>
      </trkpt>
      <trkpt lat="44.30897" lon="5.19377">
        <ele>615.8</ele>
        <time>2022-07-17T08:38:43Z</time>
      </trkpt>
      <trkpt lat="44.30898" lon="5.19378">
        <ele>616</ele>
        <time>2022-07-17T08:38:44Z</time>
      </trkpt>
      <trkpt lat="44.309" lon="5.19381">
        <ele>616.4</ele>
        <time>2022-07-17T08:38:45Z</time>
      </trkpt>
      <trkpt lat="44.309" lon="5.19382">
        <ele>616.5</ele>
        <time>2022-07-17T08:38:46Z</time>
      </trkpt>
      <trkpt lat="44.30902" lon="5.19385">
        <ele>616.9</ele>
        <time>2022-07-17T08:38:47Z</time>
      </trkpt>
      <trkpt lat="44.30902" lon="5.19386">
        <ele>617.1</ele>
        <time>2022-07-17T08:38:48Z</time>
      </trkpt>
      <trkpt lat="44.30905" lon="5.19389">
        <ele>617.5</ele>
        <time>2022-07-17T08:38:49Z</time>
      </trkpt>
      <trkpt lat="44.30906" lon="5.19391">
        <ele>617.6</ele>
        <time>2022-07-17T08:38:50Z</time>
      </trkpt>
      <trkpt lat="44.30907" lon="5.19392">
        <ele>617.8</ele>
        <time>2022-07-17T08:38:51Z</time>
      </trkpt>
      <trkpt lat="44.30908" lon="5.19394">
        <ele>618</ele>
        <time>2022-07-17T08:38:52Z</time>
      </trkpt>
      <trkpt lat="44.30909" lon="5.19396">
        <ele>618.2</ele>
        <time>2022-07-17T08:38:53Z</time>
      </trkpt>
      <trkpt lat="44.30909" lon="5.19397">
        <ele>618.3</ele>
        <time>2022-07-17T08:38:54Z</time>
      </trkpt>
      <trkpt lat="44.30909" lon="5.19398">
        <ele>618.4</ele>
        <time>2022-07-17T08:38:55Z</time>
      </trkpt>
      <trkpt lat="44.30909" lon="5.19398">
        <ele>618.5</ele>
        <time>2022-07-17T08:38:56Z</time>
      </trkpt>
      <trkpt lat="44.30909" lon="5.19398">
        <ele>618.5</ele>
        <time>2022-07-17T08:38:57Z</time>
      </trkpt>
      <trkpt lat="44.30911" lon="5.19401">
        <ele>618.7</ele>
        <time>2022-07-17T08:38:58Z</time>
      </trkpt>
      <trkpt lat="44.30911" lon="5.19402">
        <ele>618.8</ele>
        <time>2022-07-17T08:38:59Z</time>
      </trkpt>
      <trkpt lat="44.30913" lon="5.19404">
        <ele>619</ele>
        <time>2022-07-17T08:39:00Z</time>
      </trkpt>
      <trkpt lat="44.30913" lon="5.19405">
        <ele>619.1</ele>
        <time>2022-07-17T08:39:01Z</time>
      </trkpt>
      <trkpt lat="44.30914" lon="5.19406">
        <ele>619.2</ele>
        <time>2022-07-17T08:39:02Z</time>
      </trkpt>
      <trkpt lat="44.30917" lon="5.19408">
        <ele>619.5</ele>
        <time>2022-07-17T08:39:03Z</time>
      </trkpt>
      <trkpt lat="44.30918" lon="5.19408">
        <ele>619.5</ele>
        <time>2022-07-17T08:39:04Z</time>
      </trkpt>
      <trkpt lat="44.3092" lon="5.1941">
        <ele>619.8</ele>
        <time>2022-07-17T08:39:05Z</time>
      </trkpt>
      <trkpt lat="44.30921" lon="5.19411">
        <ele>619.8</ele>
        <time>2022-07-17T08:39:06Z</time>
      </trkpt>
      <trkpt lat="44.30924" lon="5.19413">
        <ele>620</ele>
        <time>2022-07-17T08:39:07Z</time>
      </trkpt>
      <trkpt lat="44.30924" lon="5.19414">
        <ele>620</ele>
        <time>2022-07-17T08:39:08Z</time>
      </trkpt>
      <trkpt lat="44.30926" lon="5.19415">
        <ele>620.1</ele>
        <time>2022-07-17T08:39:09Z</time>
      </trkpt>
      <trkpt lat="44.30927" lon="5.19416">
        <ele>620.2</ele>
        <time>2022-07-17T08:39:10Z</time>
      </trkpt>
      <trkpt lat="44.30929" lon="5.19418">
        <ele>620.3</ele>
        <time>2022-07-17T08:39:11Z</time>
      </trkpt>
      <trkpt lat="44.3093" lon="5.19419">
        <ele>620.3</ele>
        <time>2022-07-17T08:39:12Z</time>
      </trkpt>
      <trkpt lat="44.30931" lon="5.19419">
        <ele>620.4</ele>
        <time>2022-07-17T08:39:13Z</time>
      </trkpt>
      <trkpt lat="44.30932" lon="5.1942">
        <ele>620.4</ele>
        <time>2022-07-17T08:39:14Z</time>
      </trkpt>
      <trkpt lat="44.30933" lon="5.19421">
        <ele>620.5</ele>
        <time>2022-07-17T08:39:15Z</time>
      </trkpt>
      <trkpt lat="44.30936" lon="5.19423">
        <ele>620.6</ele>
        <time>2022-07-17T08:39:16Z</time>
      </trkpt>
      <trkpt lat="44.30937" lon="5.19423">
        <ele>620.7</ele>
        <time>2022-07-17T08:39:17Z</time>
      </trkpt>
      <trkpt lat="44.30938" lon="5.19424">
        <ele>620.8</ele>
        <time>2022-07-17T08:39:18Z</time>
      </trkpt>
      <trkpt lat="44.3094" lon="5.19424">
        <ele>620.9</ele>
        <time>2022-07-17T08:39:19Z</time>
      </trkpt>
      <trkpt lat="44.30942" lon="5.19425">
        <ele>621</ele>
        <time>2022-07-17T08:39:20Z</time>
      </trkpt>
      <trkpt lat="44.30943" lon="5.19425">
        <ele>621</ele>
        <time>2022-07-17T08:39:21Z</time>
      </trkpt>
      <trkpt lat="44.30944" lon="5.19426">
        <ele>621.1</ele>
        <time>2022-07-17T08:39:22Z</time>
      </trkpt>
      <trkpt lat="44.30945" lon="5.19427">
        <ele>621.2</ele>
        <time>2022-07-17T08:39:23Z</time>
      </trkpt>
      <trkpt lat="44.30946" lon="5.19428">
        <ele>621.2</ele>
        <time>2022-07-17T08:39:24Z</time>
      </trkpt>
      <trkpt lat="44.30947" lon="5.19429">
        <ele>621.3</ele>
        <time>2022-07-17T08:39:25Z</time>
      </trkpt>
      <trkpt lat="44.30948" lon="5.19429">
        <ele>621.4</ele>
        <time>2022-07-17T08:39:26Z</time>
      </trkpt>
      <trkpt lat="44.30949" lon="5.1943">
        <ele>621.5</ele>
        <time>2022-07-17T08:39:27Z</time>
      </trkpt>
      <trkpt lat="44.30951" lon="5.19431">
        <ele>621.6</ele>
        <time>2022-07-17T08:40:43Z</time>
      </trkpt>
      <trkpt lat="44.30952" lon="5.19432">
        <ele>621.6</ele>
        <time>2022-07-17T08:40:44Z</time>
      </trkpt>
      <trkpt lat="44.30953" lon="5.19433">
        <ele>621.7</ele>
        <time>2022-07-17T08:40:45Z</time>
      </trkpt>
      <trkpt lat="44.30954" lon="5.19434">
        <ele>621.9</ele>
        <time>2022-07-17T08:40:46Z</time>
      </trkpt>
      <trkpt lat="44.30955" lon="5.19436">
        <ele>621.9</ele>
        <time>2022-07-17T08:40:47Z</time>
      </trkpt>
      <trkpt lat="44.30956" lon="5.19436">
        <ele>622</ele>
        <time>2022-07-17T08:40:48Z</time>
      </trkpt>
      <trkpt lat="44.30957" lon="5.19437">
        <ele>622</ele>
        <time>2022-07-17T08:40:49Z</time>
      </trkpt>
      <trkpt lat="44.30958" lon="5.19438">
        <ele>622</ele>
        <time>2022-07-17T08:40:50Z</time>
      </trkpt>
      <trkpt lat="44.30959" lon="5.19439">
        <ele>622.1</ele>
        <time>2022-07-17T08:40:51Z</time>
      </trkpt>
      <trkpt lat="44.3096" lon="5.19439">
        <ele>622.2</ele>
        <time>2022-07-17T08:40:52Z</time>
      </trkpt>
      <trkpt lat="44.30961" lon="5.19439">
        <ele>622.2</ele>
        <time>2022-07-17T08:40:53Z</time>
      </trkpt>
      <trkpt lat="44.30961" lon="5.19439">
        <ele>622.3</ele>
        <time>2022-07-17T08:40:54Z</time>
      </trkpt>
      <trkpt lat="44.30964" lon="5.19441">
        <ele>622.4</ele>
        <time>2022-07-17T08:40:55Z</time>
      </trkpt>
      <trkpt lat="44.30965" lon="5.19441">
        <ele>622.5</ele>
        <time>2022-07-17T08:40:56Z</time>
      </trkpt>
      <trkpt lat="44.30968" lon="5.19443">
        <ele>622.6</ele>
        <time>2022-07-17T08:40:57Z</time>
      </trkpt>
      <trkpt lat="44.30969" lon="5.19444">
        <ele>622.7</ele>
        <time>2022-07-17T08:40:58Z</time>
      </trkpt>
      <trkpt lat="44.3097" lon="5.19444">
        <ele>622.8</ele>
        <time>2022-07-17T08:40:59Z</time>
      </trkpt>
      <trkpt lat="44.30972" lon="5.19445">
        <ele>622.9</ele>
        <time>2022-07-17T08:41:00Z</time>
      </trkpt>
      <trkpt lat="44.30975" lon="5.19447">
        <ele>623.1</ele>
        <time>2022-07-17T08:41:01Z</time>
      </trkpt>
      <trkpt lat="44.30975" lon="5.19447">
        <ele>623.2</ele>
        <time>2022-07-17T08:41:02Z</time>
      </trkpt>
      <trkpt lat="44.30979" lon="5.19449">
        <ele>623.5</ele>
        <time>2022-07-17T08:41:03Z</time>
      </trkpt>
      <trkpt lat="44.3098" lon="5.19449">
        <ele>623.6</ele>
        <time>2022-07-17T08:41:04Z</time>
      </trkpt>
      <trkpt lat="44.30982" lon="5.1945">
        <ele>623.8</ele>
        <time>2022-07-17T08:41:05Z</time>
      </trkpt>
      <trkpt lat="44.30983" lon="5.19451">
        <ele>623.9</ele>
        <time>2022-07-17T08:41:06Z</time>
      </trkpt>
      <trkpt lat="44.30985" lon="5.19452">
        <ele>624.1</ele>
        <time>2022-07-17T08:41:07Z</time>
      </trkpt>
      <trkpt lat="44.30986" lon="5.19453">
        <ele>624.2</ele>
        <time>2022-07-17T08:41:08Z</time>
      </trkpt>
      <trkpt lat="44.30987" lon="5.19453">
        <ele>624.2</ele>
        <time>2022-07-17T08:41:09Z</time>
      </trkpt>
      <trkpt lat="44.3099" lon="5.19455">
        <ele>624.5</ele>
        <time>2022-07-17T08:41:10Z</time>
      </trkpt>
      <trkpt lat="44.30991" lon="5.19455">
        <ele>624.6</ele>
        <time>2022-07-17T08:41:11Z</time>
      </trkpt>
      <trkpt lat="44.30992" lon="5.19456">
        <ele>624.8</ele>
        <time>2022-07-17T08:41:12Z</time>
      </trkpt>
      <trkpt lat="44.30994" lon="5.19457">
        <ele>624.9</ele>
        <time>2022-07-17T08:41:13Z</time>
      </trkpt>
      <trkpt lat="44.30997" lon="5.19459">
        <ele>625.1</ele>
        <time>2022-07-17T08:41:14Z</time>
      </trkpt>
      <trkpt lat="44.30998" lon="5.19459">
        <ele>625.2</ele>
        <time>2022-07-17T08:41:15Z</time>
      </trkpt>
      <trkpt lat="44.30999" lon="5.1946">
        <ele>625.3</ele>
        <time>2022-07-17T08:41:16Z</time>
      </trkpt>
      <trkpt lat="44.31001" lon="5.1946">
        <ele>625.4</ele>
        <time>2022-07-17T08:41:17Z</time>
      </trkpt>
      <trkpt lat="44.31004" lon="5.19462">
        <ele>625.6</ele>
        <time>2022-07-17T08:41:18Z</time>
      </trkpt>
      <trkpt lat="44.31005" lon="5.19462">
        <ele>625.6</ele>
        <time>2022-07-17T08:41:19Z</time>
      </trkpt>
      <trkpt lat="44.31007" lon="5.19463">
        <ele>625.8</ele>
        <time>2022-07-17T08:41:20Z</time>
      </trkpt>
      <trkpt lat="44.31008" lon="5.19463">
        <ele>625.9</ele>
        <time>2022-07-17T08:41:21Z</time>
      </trkpt>
      <trkpt lat="44.3101" lon="5.19464">
        <ele>625.9</ele>
        <time>2022-07-17T08:41:22Z</time>
      </trkpt>
      <trkpt lat="44.31011" lon="5.19464">
        <ele>626</ele>
        <time>2022-07-17T08:41:23Z</time>
      </trkpt>
      <trkpt lat="44.31013" lon="5.19464">
        <ele>626.1</ele>
        <time>2022-07-17T08:41:24Z</time>
      </trkpt>
      <trkpt lat="44.31014" lon="5.19464">
        <ele>626.2</ele>
        <time>2022-07-17T08:41:25Z</time>
      </trkpt>
      <trkpt lat="44.31015" lon="5.19464">
        <ele>626.2</ele>
        <time>2022-07-17T08:41:26Z</time>
      </trkpt>
      <trkpt lat="44.31016" lon="5.19464">
        <ele>626.3</ele>
        <time>2022-07-17T08:41:27Z</time>
      </trkpt>
      <trkpt lat="44.31017" lon="5.19464">
        <ele>626.4</ele>
        <time>2022-07-17T08:41:28Z</time>
      </trkpt>
      <trkpt lat="44.31019" lon="5.19464">
        <ele>626.5</ele>
        <time>2022-07-17T08:41:29Z</time>
      </trkpt>
      <trkpt lat="44.31021" lon="5.19465">
        <ele>626.6</ele>
        <time>2022-07-17T08:41:30Z</time>
      </trkpt>
      <trkpt lat="44.31022" lon="5.19465">
        <ele>626.7</ele>
        <time>2022-07-17T08:41:31Z</time>
      </trkpt>
      <trkpt lat="44.31024" lon="5.19466">
        <ele>626.7</ele>
        <time>2022-07-17T08:41:32Z</time>
      </trkpt>
      <trkpt lat="44.31025" lon="5.19466">
        <ele>626.8</ele>
        <time>2022-07-17T08:41:33Z</time>
      </trkpt>
      <trkpt lat="44.31027" lon="5.19467">
        <ele>626.9</ele>
        <time>2022-07-17T08:41:34Z</time>
      </trkpt>
      <trkpt lat="44.3103" lon="5.19467">
        <ele>627</ele>
        <time>2022-07-17T08:41:35Z</time>
      </trkpt>
      <trkpt lat="44.31031" lon="5.19468">
        <ele>627.1</ele>
        <time>2022-07-17T08:41:36Z</time>
      </trkpt>
      <trkpt lat="44.31032" lon="5.19468">
        <ele>627.1</ele>
        <time>2022-07-17T08:41:37Z</time>
      </trkpt>
      <trkpt lat="44.31034" lon="5.19469">
        <ele>627.2</ele>
        <time>2022-07-17T08:41:38Z</time>
      </trkpt>
      <trkpt lat="44.31036" lon="5.1947">
        <ele>627.3</ele>
        <time>2022-07-17T08:41:39Z</time>
      </trkpt>
      <trkpt lat="44.31037" lon="5.1947">
        <ele>627.4</ele>
        <time>2022-07-17T08:41:40Z</time>
      </trkpt>
      <trkpt lat="44.31038" lon="5.19471">
        <ele>627.5</ele>
        <time>2022-07-17T08:41:41Z</time>
      </trkpt>
      <trkpt lat="44.3104" lon="5.19472">
        <ele>627.6</ele>
        <time>2022-07-17T08:41:42Z</time>
      </trkpt>
      <trkpt lat="44.31042" lon="5.19475">
        <ele>627.8</ele>
        <time>2022-07-17T08:41:43Z</time>
      </trkpt>
      <trkpt lat="44.31043" lon="5.19476">
        <ele>627.8</ele>
        <time>2022-07-17T08:41:44Z</time>
      </trkpt>
      <trkpt lat="44.31044" lon="5.19478">
        <ele>628</ele>
        <time>2022-07-17T08:41:45Z</time>
      </trkpt>
      <trkpt lat="44.31045" lon="5.19479">
        <ele>628</ele>
        <time>2022-07-17T08:41:46Z</time>
      </trkpt>
      <trkpt lat="44.31045" lon="5.1948">
        <ele>628.1</ele>
        <time>2022-07-17T08:41:47Z</time>
      </trkpt>
      <trkpt lat="44.31046" lon="5.19482">
        <ele>628.2</ele>
        <time>2022-07-17T08:41:48Z</time>
      </trkpt>
      <trkpt lat="44.31047" lon="5.19484">
        <ele>628.3</ele>
        <time>2022-07-17T08:41:49Z</time>
      </trkpt>
      <trkpt lat="44.31048" lon="5.19485">
        <ele>628.3</ele>
        <time>2022-07-17T08:41:50Z</time>
      </trkpt>
      <trkpt lat="44.31049" lon="5.19487">
        <ele>628.4</ele>
        <time>2022-07-17T08:41:51Z</time>
      </trkpt>
      <trkpt lat="44.3105" lon="5.19489">
        <ele>628.5</ele>
        <time>2022-07-17T08:41:52Z</time>
      </trkpt>
      <trkpt lat="44.31053" lon="5.19491">
        <ele>628.6</ele>
        <time>2022-07-17T08:41:53Z</time>
      </trkpt>
      <trkpt lat="44.31054" lon="5.19491">
        <ele>628.6</ele>
        <time>2022-07-17T08:41:54Z</time>
      </trkpt>
      <trkpt lat="44.31056" lon="5.19491">
        <ele>628.6</ele>
        <time>2022-07-17T08:41:55Z</time>
      </trkpt>
      <trkpt lat="44.31057" lon="5.19491">
        <ele>628.7</ele>
        <time>2022-07-17T08:41:56Z</time>
      </trkpt>
      <trkpt lat="44.31059" lon="5.19491">
        <ele>628.7</ele>
        <time>2022-07-17T08:41:57Z</time>
      </trkpt>
      <trkpt lat="44.3106" lon="5.19491">
        <ele>628.8</ele>
        <time>2022-07-17T08:41:58Z</time>
      </trkpt>
      <trkpt lat="44.31062" lon="5.19492">
        <ele>628.9</ele>
        <time>2022-07-17T08:41:59Z</time>
      </trkpt>
      <trkpt lat="44.31064" lon="5.19493">
        <ele>628.9</ele>
        <time>2022-07-17T08:42:00Z</time>
      </trkpt>
      <trkpt lat="44.31066" lon="5.19494">
        <ele>629.1</ele>
        <time>2022-07-17T08:42:01Z</time>
      </trkpt>
      <trkpt lat="44.31067" lon="5.19494">
        <ele>629.1</ele>
        <time>2022-07-17T08:42:02Z</time>
      </trkpt>
      <trkpt lat="44.3107" lon="5.19494">
        <ele>629.2</ele>
        <time>2022-07-17T08:42:03Z</time>
      </trkpt>
      <trkpt lat="44.31071" lon="5.19494">
        <ele>629.3</ele>
        <time>2022-07-17T08:42:04Z</time>
      </trkpt>
      <trkpt lat="44.31075" lon="5.19493">
        <ele>629.4</ele>
        <time>2022-07-17T08:42:05Z</time>
      </trkpt>
      <trkpt lat="44.31077" lon="5.19492">
        <ele>629.5</ele>
        <time>2022-07-17T08:42:06Z</time>
      </trkpt>
      <trkpt lat="44.3108" lon="5.19491">
        <ele>629.6</ele>
        <time>2022-07-17T08:42:07Z</time>
      </trkpt>
      <trkpt lat="44.31084" lon="5.19489">
        <ele>629.7</ele>
        <time>2022-07-17T08:42:08Z</time>
      </trkpt>
      <trkpt lat="44.31085" lon="5.19488">
        <ele>629.7</ele>
        <time>2022-07-17T08:42:09Z</time>
      </trkpt>
      <trkpt lat="44.31088" lon="5.19486">
        <ele>629.8</ele>
        <time>2022-07-17T08:42:10Z</time>
      </trkpt>
      <trkpt lat="44.31089" lon="5.19485">
        <ele>629.8</ele>
        <time>2022-07-17T08:42:11Z</time>
      </trkpt>
      <trkpt lat="44.31092" lon="5.19484">
        <ele>629.9</ele>
        <time>2022-07-17T08:42:12Z</time>
      </trkpt>
      <trkpt lat="44.31095" lon="5.19482">
        <ele>630</ele>
        <time>2022-07-17T08:42:13Z</time>
      </trkpt>
      <trkpt lat="44.31098" lon="5.19481">
        <ele>630.1</ele>
        <time>2022-07-17T08:42:14Z</time>
      </trkpt>
      <trkpt lat="44.31099" lon="5.1948">
        <ele>630.2</ele>
        <time>2022-07-17T08:42:15Z</time>
      </trkpt>
      <trkpt lat="44.31102" lon="5.19479">
        <ele>630.3</ele>
        <time>2022-07-17T08:42:16Z</time>
      </trkpt>
      <trkpt lat="44.31103" lon="5.19478">
        <ele>630.3</ele>
        <time>2022-07-17T08:42:17Z</time>
      </trkpt>
      <trkpt lat="44.31104" lon="5.19477">
        <ele>630.4</ele>
        <time>2022-07-17T08:42:18Z</time>
      </trkpt>
      <trkpt lat="44.31106" lon="5.19476">
        <ele>630.5</ele>
        <time>2022-07-17T08:42:19Z</time>
      </trkpt>
      <trkpt lat="44.31108" lon="5.19476">
        <ele>630.6</ele>
        <time>2022-07-17T08:42:20Z</time>
      </trkpt>
      <trkpt lat="44.31109" lon="5.19475">
        <ele>630.6</ele>
        <time>2022-07-17T08:42:21Z</time>
      </trkpt>
      <trkpt lat="44.3111" lon="5.19475">
        <ele>630.7</ele>
        <time>2022-07-17T08:42:22Z</time>
      </trkpt>
      <trkpt lat="44.31113" lon="5.19473">
        <ele>630.9</ele>
        <time>2022-07-17T08:42:23Z</time>
      </trkpt>
      <trkpt lat="44.31114" lon="5.19472">
        <ele>631</ele>
        <time>2022-07-17T08:42:24Z</time>
      </trkpt>
      <trkpt lat="44.31118" lon="5.19469">
        <ele>631.3</ele>
        <time>2022-07-17T08:42:25Z</time>
      </trkpt>
      <trkpt lat="44.31119" lon="5.19468">
        <ele>631.4</ele>
        <time>2022-07-17T08:42:26Z</time>
      </trkpt>
      <trkpt lat="44.31123" lon="5.19466">
        <ele>631.7</ele>
        <time>2022-07-17T08:42:27Z</time>
      </trkpt>
      <trkpt lat="44.31124" lon="5.19465">
        <ele>631.9</ele>
        <time>2022-07-17T08:42:28Z</time>
      </trkpt>
      <trkpt lat="44.31127" lon="5.19463">
        <ele>632.2</ele>
        <time>2022-07-17T08:42:29Z</time>
      </trkpt>
      <trkpt lat="44.31128" lon="5.19463">
        <ele>632.4</ele>
        <time>2022-07-17T08:42:30Z</time>
      </trkpt>
      <trkpt lat="44.31131" lon="5.19462">
        <ele>632.7</ele>
        <time>2022-07-17T08:42:31Z</time>
      </trkpt>
      <trkpt lat="44.31132" lon="5.19461">
        <ele>632.9</ele>
        <time>2022-07-17T08:42:32Z</time>
      </trkpt>
      <trkpt lat="44.31135" lon="5.1946">
        <ele>633.3</ele>
        <time>2022-07-17T08:42:33Z</time>
      </trkpt>
      <trkpt lat="44.31136" lon="5.19459">
        <ele>633.5</ele>
        <time>2022-07-17T08:42:34Z</time>
      </trkpt>
      <trkpt lat="44.31139" lon="5.19457">
        <ele>633.9</ele>
        <time>2022-07-17T08:42:35Z</time>
      </trkpt>
      <trkpt lat="44.3114" lon="5.19456">
        <ele>634</ele>
        <time>2022-07-17T08:42:36Z</time>
      </trkpt>
      <trkpt lat="44.31142" lon="5.19453">
        <ele>634.4</ele>
        <time>2022-07-17T08:42:37Z</time>
      </trkpt>
      <trkpt lat="44.31143" lon="5.19452">
        <ele>634.5</ele>
        <time>2022-07-17T08:42:38Z</time>
      </trkpt>
      <trkpt lat="44.31146" lon="5.1945">
        <ele>634.9</ele>
        <time>2022-07-17T08:42:39Z</time>
      </trkpt>
      <trkpt lat="44.31147" lon="5.1945">
        <ele>635</ele>
        <time>2022-07-17T08:42:40Z</time>
      </trkpt>
      <trkpt lat="44.31149" lon="5.19448">
        <ele>635.3</ele>
        <time>2022-07-17T08:42:41Z</time>
      </trkpt>
      <trkpt lat="44.3115" lon="5.19447">
        <ele>635.4</ele>
        <time>2022-07-17T08:42:42Z</time>
      </trkpt>
      <trkpt lat="44.31154" lon="5.19445">
        <ele>635.8</ele>
        <time>2022-07-17T08:42:43Z</time>
      </trkpt>
      <trkpt lat="44.31155" lon="5.19444">
        <ele>635.8</ele>
        <time>2022-07-17T08:42:44Z</time>
      </trkpt>
      <trkpt lat="44.31157" lon="5.19442">
        <ele>636.1</ele>
        <time>2022-07-17T08:42:45Z</time>
      </trkpt>
      <trkpt lat="44.31158" lon="5.19441">
        <ele>636.1</ele>
        <time>2022-07-17T08:42:46Z</time>
      </trkpt>
      <trkpt lat="44.3116" lon="5.1944">
        <ele>636.3</ele>
        <time>2022-07-17T08:42:47Z</time>
      </trkpt>
      <trkpt lat="44.31161" lon="5.19439">
        <ele>636.3</ele>
        <time>2022-07-17T08:42:48Z</time>
      </trkpt>
      <trkpt lat="44.31163" lon="5.19438">
        <ele>636.4</ele>
        <time>2022-07-17T08:42:49Z</time>
      </trkpt>
      <trkpt lat="44.31164" lon="5.19437">
        <ele>636.4</ele>
        <time>2022-07-17T08:42:50Z</time>
      </trkpt>
      <trkpt lat="44.31165" lon="5.19436">
        <ele>636.5</ele>
        <time>2022-07-17T08:42:51Z</time>
      </trkpt>
      <trkpt lat="44.31166" lon="5.19435">
        <ele>636.5</ele>
        <time>2022-07-17T08:42:52Z</time>
      </trkpt>
      <trkpt lat="44.31166" lon="5.19433">
        <ele>636.6</ele>
        <time>2022-07-17T08:42:53Z</time>
      </trkpt>
      <trkpt lat="44.31166" lon="5.19433">
        <ele>636.6</ele>
        <time>2022-07-17T08:42:54Z</time>
      </trkpt>
      <trkpt lat="44.31167" lon="5.19432">
        <ele>636.6</ele>
        <time>2022-07-17T08:42:55Z</time>
      </trkpt>
      <trkpt lat="44.31168" lon="5.1943">
        <ele>636.7</ele>
        <time>2022-07-17T08:42:56Z</time>
      </trkpt>
      <trkpt lat="44.31171" lon="5.19429">
        <ele>636.8</ele>
        <time>2022-07-17T08:42:57Z</time>
      </trkpt>
      <trkpt lat="44.31172" lon="5.19428">
        <ele>636.8</ele>
        <time>2022-07-17T08:42:58Z</time>
      </trkpt>
      <trkpt lat="44.31175" lon="5.19427">
        <ele>636.9</ele>
        <time>2022-07-17T08:42:59Z</time>
      </trkpt>
      <trkpt lat="44.31176" lon="5.19426">
        <ele>636.9</ele>
        <time>2022-07-17T08:43:00Z</time>
      </trkpt>
      <trkpt lat="44.31179" lon="5.19425">
        <ele>637</ele>
        <time>2022-07-17T08:43:01Z</time>
      </trkpt>
      <trkpt lat="44.3118" lon="5.19424">
        <ele>637</ele>
        <time>2022-07-17T08:43:02Z</time>
      </trkpt>
      <trkpt lat="44.31183" lon="5.19422">
        <ele>636.9</ele>
        <time>2022-07-17T08:43:03Z</time>
      </trkpt>
      <trkpt lat="44.31184" lon="5.19422">
        <ele>636.9</ele>
        <time>2022-07-17T08:43:04Z</time>
      </trkpt>
      <trkpt lat="44.31187" lon="5.19421">
        <ele>636.8</ele>
        <time>2022-07-17T08:43:05Z</time>
      </trkpt>
      <trkpt lat="44.31187" lon="5.1942">
        <ele>636.8</ele>
        <time>2022-07-17T08:43:06Z</time>
      </trkpt>
      <trkpt lat="44.31191" lon="5.1942">
        <ele>636.6</ele>
        <time>2022-07-17T08:43:07Z</time>
      </trkpt>
      <trkpt lat="44.31192" lon="5.19419">
        <ele>636.6</ele>
        <time>2022-07-17T08:43:08Z</time>
      </trkpt>
      <trkpt lat="44.31193" lon="5.19419">
        <ele>636.5</ele>
        <time>2022-07-17T08:43:09Z</time>
      </trkpt>
      <trkpt lat="44.31195" lon="5.19418">
        <ele>636.4</ele>
        <time>2022-07-17T08:43:10Z</time>
      </trkpt>
      <trkpt lat="44.31199" lon="5.19417">
        <ele>636.3</ele>
        <time>2022-07-17T08:43:11Z</time>
      </trkpt>
      <trkpt lat="44.312" lon="5.19417">
        <ele>636.3</ele>
        <time>2022-07-17T08:43:12Z</time>
      </trkpt>
      <trkpt lat="44.31203" lon="5.19417">
        <ele>636.3</ele>
        <time>2022-07-17T08:43:13Z</time>
      </trkpt>
      <trkpt lat="44.31204" lon="5.19417">
        <ele>636.3</ele>
        <time>2022-07-17T08:43:14Z</time>
      </trkpt>
      <trkpt lat="44.31208" lon="5.19419">
        <ele>636.3</ele>
        <time>2022-07-17T08:43:15Z</time>
      </trkpt>
      <trkpt lat="44.31209" lon="5.19419">
        <ele>636.3</ele>
        <time>2022-07-17T08:43:16Z</time>
      </trkpt>
      <trkpt lat="44.31212" lon="5.1942">
        <ele>636.3</ele>
        <time>2022-07-17T08:43:17Z</time>
      </trkpt>
      <trkpt lat="44.31215" lon="5.19422">
        <ele>636.3</ele>
        <time>2022-07-17T08:43:18Z</time>
      </trkpt>
      <trkpt lat="44.31218" lon="5.19424">
        <ele>636.3</ele>
        <time>2022-07-17T08:43:19Z</time>
      </trkpt>
      <trkpt lat="44.3122" lon="5.19426">
        <ele>636.3</ele>
        <time>2022-07-17T08:43:20Z</time>
      </trkpt>
      <trkpt lat="44.31223" lon="5.19429">
        <ele>636.3</ele>
        <time>2022-07-17T08:43:21Z</time>
      </trkpt>
      <trkpt lat="44.31226" lon="5.19432">
        <ele>636.3</ele>
        <time>2022-07-17T08:43:22Z</time>
      </trkpt>
      <trkpt lat="44.31229" lon="5.19435">
        <ele>636.3</ele>
        <time>2022-07-17T08:43:23Z</time>
      </trkpt>
      <trkpt lat="44.31231" lon="5.19437">
        <ele>636.4</ele>
        <time>2022-07-17T08:43:24Z</time>
      </trkpt>
      <trkpt lat="44.31234" lon="5.1944">
        <ele>636.4</ele>
        <time>2022-07-17T08:43:25Z</time>
      </trkpt>
      <trkpt lat="44.31236" lon="5.19442">
        <ele>636.6</ele>
        <time>2022-07-17T08:43:26Z</time>
      </trkpt>
      <trkpt lat="44.31239" lon="5.19446">
        <ele>636.7</ele>
        <time>2022-07-17T08:43:27Z</time>
      </trkpt>
      <trkpt lat="44.31242" lon="5.19448">
        <ele>636.9</ele>
        <time>2022-07-17T08:43:28Z</time>
      </trkpt>
      <trkpt lat="44.31245" lon="5.19451">
        <ele>637</ele>
        <time>2022-07-17T08:43:29Z</time>
      </trkpt>
      <trkpt lat="44.31249" lon="5.19453">
        <ele>637.2</ele>
        <time>2022-07-17T08:43:30Z</time>
      </trkpt>
      <trkpt lat="44.31251" lon="5.19456">
        <ele>637.3</ele>
        <time>2022-07-17T08:43:31Z</time>
      </trkpt>
      <trkpt lat="44.31254" lon="5.19457">
        <ele>637.4</ele>
        <time>2022-07-17T08:43:32Z</time>
      </trkpt>
      <trkpt lat="44.31256" lon="5.1946">
        <ele>637.5</ele>
        <time>2022-07-17T08:43:33Z</time>
      </trkpt>
      <trkpt lat="44.31257" lon="5.19461">
        <ele>637.5</ele>
        <time>2022-07-17T08:43:34Z</time>
      </trkpt>
      <trkpt lat="44.3126" lon="5.19464">
        <ele>637.6</ele>
        <time>2022-07-17T08:43:35Z</time>
      </trkpt>
      <trkpt lat="44.31261" lon="5.19465">
        <ele>637.6</ele>
        <time>2022-07-17T08:43:36Z</time>
      </trkpt>
      <trkpt lat="44.31265" lon="5.19466">
        <ele>637.8</ele>
        <time>2022-07-17T08:43:37Z</time>
      </trkpt>
      <trkpt lat="44.31266" lon="5.19467">
        <ele>637.9</ele>
        <time>2022-07-17T08:43:38Z</time>
      </trkpt>
      <trkpt lat="44.3127" lon="5.19468">
        <ele>638.1</ele>
        <time>2022-07-17T08:43:39Z</time>
      </trkpt>
      <trkpt lat="44.31271" lon="5.19468">
        <ele>638.2</ele>
        <time>2022-07-17T08:43:40Z</time>
      </trkpt>
      <trkpt lat="44.31275" lon="5.19469">
        <ele>638.5</ele>
        <time>2022-07-17T08:43:41Z</time>
      </trkpt>
      <trkpt lat="44.31276" lon="5.1947">
        <ele>638.6</ele>
        <time>2022-07-17T08:43:42Z</time>
      </trkpt>
      <trkpt lat="44.31279" lon="5.19471">
        <ele>638.8</ele>
        <time>2022-07-17T08:43:43Z</time>
      </trkpt>
      <trkpt lat="44.31282" lon="5.19471">
        <ele>639</ele>
        <time>2022-07-17T08:43:44Z</time>
      </trkpt>
      <trkpt lat="44.31286" lon="5.19472">
        <ele>638.8</ele>
        <time>2022-07-17T08:43:45Z</time>
      </trkpt>
      <trkpt lat="44.31289" lon="5.19473">
        <ele>638.7</ele>
        <time>2022-07-17T08:43:46Z</time>
      </trkpt>
      <trkpt lat="44.3129" lon="5.19474">
        <ele>638.6</ele>
        <time>2022-07-17T08:43:47Z</time>
      </trkpt>
      <trkpt lat="44.31294" lon="5.19475">
        <ele>638.5</ele>
        <time>2022-07-17T08:43:48Z</time>
      </trkpt>
      <trkpt lat="44.31295" lon="5.19476">
        <ele>638.4</ele>
        <time>2022-07-17T08:43:49Z</time>
      </trkpt>
      <trkpt lat="44.31298" lon="5.19477">
        <ele>638.3</ele>
        <time>2022-07-17T08:43:50Z</time>
      </trkpt>
      <trkpt lat="44.31301" lon="5.19477">
        <ele>638.3</ele>
        <time>2022-07-17T08:43:51Z</time>
      </trkpt>
      <trkpt lat="44.31304" lon="5.19477">
        <ele>638.2</ele>
        <time>2022-07-17T08:43:52Z</time>
      </trkpt>
      <trkpt lat="44.31307" lon="5.19478">
        <ele>638.1</ele>
        <time>2022-07-17T08:43:53Z</time>
      </trkpt>
      <trkpt lat="44.31308" lon="5.19478">
        <ele>638.1</ele>
        <time>2022-07-17T08:43:54Z</time>
      </trkpt>
      <trkpt lat="44.31311" lon="5.19479">
        <ele>638</ele>
        <time>2022-07-17T08:43:55Z</time>
      </trkpt>
      <trkpt lat="44.31312" lon="5.19479">
        <ele>638</ele>
        <time>2022-07-17T08:43:56Z</time>
      </trkpt>
      <trkpt lat="44.31316" lon="5.19481">
        <ele>637.9</ele>
        <time>2022-07-17T08:43:57Z</time>
      </trkpt>
      <trkpt lat="44.31317" lon="5.19481">
        <ele>637.8</ele>
        <time>2022-07-17T08:43:58Z</time>
      </trkpt>
      <trkpt lat="44.3132" lon="5.19482">
        <ele>637.7</ele>
        <time>2022-07-17T08:43:59Z</time>
      </trkpt>
      <trkpt lat="44.31321" lon="5.19482">
        <ele>637.7</ele>
        <time>2022-07-17T08:44:00Z</time>
      </trkpt>
      <trkpt lat="44.31324" lon="5.19482">
        <ele>637.6</ele>
        <time>2022-07-17T08:44:01Z</time>
      </trkpt>
      <trkpt lat="44.31325" lon="5.19482">
        <ele>637.5</ele>
        <time>2022-07-17T08:44:02Z</time>
      </trkpt>
      <trkpt lat="44.31328" lon="5.19483">
        <ele>637.4</ele>
        <time>2022-07-17T08:44:03Z</time>
      </trkpt>
      <trkpt lat="44.31329" lon="5.19483">
        <ele>637.4</ele>
        <time>2022-07-17T08:44:04Z</time>
      </trkpt>
      <trkpt lat="44.3133" lon="5.19483">
        <ele>637.3</ele>
        <time>2022-07-17T08:44:05Z</time>
      </trkpt>
      <trkpt lat="44.31332" lon="5.19482">
        <ele>637.3</ele>
        <time>2022-07-17T08:44:06Z</time>
      </trkpt>
      <trkpt lat="44.31334" lon="5.19482">
        <ele>637.2</ele>
        <time>2022-07-17T08:44:07Z</time>
      </trkpt>
      <trkpt lat="44.31335" lon="5.19482">
        <ele>637.2</ele>
        <time>2022-07-17T08:44:08Z</time>
      </trkpt>
      <trkpt lat="44.31336" lon="5.19482">
        <ele>637.2</ele>
        <time>2022-07-17T08:44:09Z</time>
      </trkpt>
      <trkpt lat="44.31337" lon="5.19484">
        <ele>637.1</ele>
        <time>2022-07-17T08:44:10Z</time>
      </trkpt>
      <trkpt lat="44.31338" lon="5.19485">
        <ele>637.1</ele>
        <time>2022-07-17T08:44:11Z</time>
      </trkpt>
      <trkpt lat="44.31339" lon="5.19486">
        <ele>637.1</ele>
        <time>2022-07-17T08:44:12Z</time>
      </trkpt>
      <trkpt lat="44.31339" lon="5.19487">
        <ele>637.1</ele>
        <time>2022-07-17T08:44:13Z</time>
      </trkpt>
      <trkpt lat="44.3134" lon="5.19489">
        <ele>637.1</ele>
        <time>2022-07-17T08:44:14Z</time>
      </trkpt>
      <trkpt lat="44.31341" lon="5.1949">
        <ele>637.1</ele>
        <time>2022-07-17T08:44:15Z</time>
      </trkpt>
      <trkpt lat="44.31341" lon="5.19491">
        <ele>637.1</ele>
        <time>2022-07-17T08:44:16Z</time>
      </trkpt>
      <trkpt lat="44.31342" lon="5.19492">
        <ele>637.1</ele>
        <time>2022-07-17T08:44:17Z</time>
      </trkpt>
      <trkpt lat="44.31343" lon="5.19493">
        <ele>637.1</ele>
        <time>2022-07-17T08:44:18Z</time>
      </trkpt>
      <trkpt lat="44.31343" lon="5.19494">
        <ele>637.1</ele>
        <time>2022-07-17T08:44:19Z</time>
      </trkpt>
      <trkpt lat="44.31344" lon="5.19495">
        <ele>637.1</ele>
        <time>2022-07-17T08:44:20Z</time>
      </trkpt>
      <trkpt lat="44.31344" lon="5.19496">
        <ele>637.1</ele>
        <time>2022-07-17T08:44:21Z</time>
      </trkpt>
      <trkpt lat="44.31346" lon="5.19498">
        <ele>637.2</ele>
        <time>2022-07-17T08:44:22Z</time>
      </trkpt>
      <trkpt lat="44.31347" lon="5.19499">
        <ele>637.2</ele>
        <time>2022-07-17T08:44:23Z</time>
      </trkpt>
      <trkpt lat="44.31348" lon="5.195">
        <ele>637.3</ele>
        <time>2022-07-17T08:44:24Z</time>
      </trkpt>
      <trkpt lat="44.31349" lon="5.19501">
        <ele>637.3</ele>
        <time>2022-07-17T08:44:25Z</time>
      </trkpt>
      <trkpt lat="44.31351" lon="5.19502">
        <ele>637.4</ele>
        <time>2022-07-17T08:44:26Z</time>
      </trkpt>
      <trkpt lat="44.31352" lon="5.19504">
        <ele>637.4</ele>
        <time>2022-07-17T08:44:27Z</time>
      </trkpt>
      <trkpt lat="44.31353" lon="5.19505">
        <ele>637.5</ele>
        <time>2022-07-17T08:44:28Z</time>
      </trkpt>
      <trkpt lat="44.31356" lon="5.19507">
        <ele>637.6</ele>
        <time>2022-07-17T08:44:29Z</time>
      </trkpt>
      <trkpt lat="44.31357" lon="5.19508">
        <ele>637.7</ele>
        <time>2022-07-17T08:44:30Z</time>
      </trkpt>
      <trkpt lat="44.31358" lon="5.19509">
        <ele>637.7</ele>
        <time>2022-07-17T08:44:31Z</time>
      </trkpt>
      <trkpt lat="44.3136" lon="5.1951">
        <ele>637.8</ele>
        <time>2022-07-17T08:44:32Z</time>
      </trkpt>
      <trkpt lat="44.31362" lon="5.19511">
        <ele>637.9</ele>
        <time>2022-07-17T08:44:33Z</time>
      </trkpt>
      <trkpt lat="44.31363" lon="5.19512">
        <ele>637.9</ele>
        <time>2022-07-17T08:44:34Z</time>
      </trkpt>
      <trkpt lat="44.31366" lon="5.19513">
        <ele>638</ele>
        <time>2022-07-17T08:44:35Z</time>
      </trkpt>
      <trkpt lat="44.31367" lon="5.19514">
        <ele>638.1</ele>
        <time>2022-07-17T08:44:36Z</time>
      </trkpt>
      <trkpt lat="44.3137" lon="5.19517">
        <ele>638.2</ele>
        <time>2022-07-17T08:44:37Z</time>
      </trkpt>
      <trkpt lat="44.3137" lon="5.19518">
        <ele>638.2</ele>
        <time>2022-07-17T08:44:38Z</time>
      </trkpt>
      <trkpt lat="44.31372" lon="5.19519">
        <ele>638.3</ele>
        <time>2022-07-17T08:44:39Z</time>
      </trkpt>
      <trkpt lat="44.31373" lon="5.1952">
        <ele>638.3</ele>
        <time>2022-07-17T08:44:40Z</time>
      </trkpt>
      <trkpt lat="44.31375" lon="5.19523">
        <ele>638.4</ele>
        <time>2022-07-17T08:44:41Z</time>
      </trkpt>
      <trkpt lat="44.31375" lon="5.19523">
        <ele>638.4</ele>
        <time>2022-07-17T08:44:42Z</time>
      </trkpt>
      <trkpt lat="44.31376" lon="5.19524">
        <ele>638.4</ele>
        <time>2022-07-17T08:44:43Z</time>
      </trkpt>
      <trkpt lat="44.31378" lon="5.19525">
        <ele>638.5</ele>
        <time>2022-07-17T08:44:44Z</time>
      </trkpt>
      <trkpt lat="44.31379" lon="5.19526">
        <ele>638.5</ele>
        <time>2022-07-17T08:44:45Z</time>
      </trkpt>
      <trkpt lat="44.31381" lon="5.19526">
        <ele>638.5</ele>
        <time>2022-07-17T08:44:46Z</time>
      </trkpt>
      <trkpt lat="44.31382" lon="5.19526">
        <ele>638.5</ele>
        <time>2022-07-17T08:44:47Z</time>
      </trkpt>
      <trkpt lat="44.31383" lon="5.19526">
        <ele>638.5</ele>
        <time>2022-07-17T08:44:48Z</time>
      </trkpt>
      <trkpt lat="44.31384" lon="5.19526">
        <ele>638.5</ele>
        <time>2022-07-17T08:44:49Z</time>
      </trkpt>
      <trkpt lat="44.31386" lon="5.19526">
        <ele>638.5</ele>
        <time>2022-07-17T08:44:50Z</time>
      </trkpt>
      <trkpt lat="44.31387" lon="5.19527">
        <ele>638.5</ele>
        <time>2022-07-17T08:44:51Z</time>
      </trkpt>
      <trkpt lat="44.31388" lon="5.19529">
        <ele>638.5</ele>
        <time>2022-07-17T08:44:52Z</time>
      </trkpt>
      <trkpt lat="44.31391" lon="5.19531">
        <ele>638.5</ele>
        <time>2022-07-17T08:44:53Z</time>
      </trkpt>
      <trkpt lat="44.31392" lon="5.19532">
        <ele>638.4</ele>
        <time>2022-07-17T08:44:54Z</time>
      </trkpt>
      <trkpt lat="44.31395" lon="5.19534">
        <ele>638.4</ele>
        <time>2022-07-17T08:44:55Z</time>
      </trkpt>
      <trkpt lat="44.31396" lon="5.19535">
        <ele>638.3</ele>
        <time>2022-07-17T08:44:56Z</time>
      </trkpt>
      <trkpt lat="44.31397" lon="5.19536">
        <ele>638.3</ele>
        <time>2022-07-17T08:44:57Z</time>
      </trkpt>
      <trkpt lat="44.31398" lon="5.19538">
        <ele>638.3</ele>
        <time>2022-07-17T08:44:58Z</time>
      </trkpt>
      <trkpt lat="44.31401" lon="5.19539">
        <ele>638.2</ele>
        <time>2022-07-17T08:44:59Z</time>
      </trkpt>
      <trkpt lat="44.31402" lon="5.1954">
        <ele>638.1</ele>
        <time>2022-07-17T08:45:00Z</time>
      </trkpt>
      <trkpt lat="44.31405" lon="5.19542">
        <ele>638</ele>
        <time>2022-07-17T08:45:01Z</time>
      </trkpt>
      <trkpt lat="44.31406" lon="5.19542">
        <ele>638</ele>
        <time>2022-07-17T08:45:02Z</time>
      </trkpt>
      <trkpt lat="44.31408" lon="5.19544">
        <ele>637.9</ele>
        <time>2022-07-17T08:45:03Z</time>
      </trkpt>
      <trkpt lat="44.31411" lon="5.19546">
        <ele>637.8</ele>
        <time>2022-07-17T08:45:04Z</time>
      </trkpt>
      <trkpt lat="44.31413" lon="5.19547">
        <ele>637.7</ele>
        <time>2022-07-17T08:45:05Z</time>
      </trkpt>
      <trkpt lat="44.31417" lon="5.19549">
        <ele>637.5</ele>
        <time>2022-07-17T08:45:06Z</time>
      </trkpt>
      <trkpt lat="44.31418" lon="5.1955">
        <ele>637.4</ele>
        <time>2022-07-17T08:45:07Z</time>
      </trkpt>
      <trkpt lat="44.31421" lon="5.19551">
        <ele>637.3</ele>
        <time>2022-07-17T08:45:08Z</time>
      </trkpt>
      <trkpt lat="44.31422" lon="5.19551">
        <ele>637.2</ele>
        <time>2022-07-17T08:45:09Z</time>
      </trkpt>
      <trkpt lat="44.31425" lon="5.19552">
        <ele>637</ele>
        <time>2022-07-17T08:45:10Z</time>
      </trkpt>
      <trkpt lat="44.31426" lon="5.19552">
        <ele>636.9</ele>
        <time>2022-07-17T08:45:11Z</time>
      </trkpt>
      <trkpt lat="44.31429" lon="5.19554">
        <ele>636.7</ele>
        <time>2022-07-17T08:45:12Z</time>
      </trkpt>
      <trkpt lat="44.3143" lon="5.19554">
        <ele>636.7</ele>
        <time>2022-07-17T08:45:13Z</time>
      </trkpt>
      <trkpt lat="44.31431" lon="5.19555">
        <ele>636.6</ele>
        <time>2022-07-17T08:45:14Z</time>
      </trkpt>
      <trkpt lat="44.31432" lon="5.19557">
        <ele>636.5</ele>
        <time>2022-07-17T08:45:15Z</time>
      </trkpt>
      <trkpt lat="44.31432" lon="5.19557">
        <ele>636.4</ele>
        <time>2022-07-17T08:45:16Z</time>
      </trkpt>
      <trkpt lat="44.31432" lon="5.19557">
        <ele>636.4</ele>
        <time>2022-07-17T08:45:17Z</time>
      </trkpt>
      <trkpt lat="44.31432" lon="5.19557">
        <ele>636.4</ele>
        <time>2022-07-17T08:45:18Z</time>
      </trkpt>
      <trkpt lat="44.31432" lon="5.19557">
        <ele>636.4</ele>
        <time>2022-07-17T08:45:19Z</time>
      </trkpt>
      <trkpt lat="44.31432" lon="5.19557">
        <ele>636.4</ele>
        <time>2022-07-17T08:45:20Z</time>
      </trkpt>
      <trkpt lat="44.31432" lon="5.19557">
        <ele>636.4</ele>
        <time>2022-07-17T08:45:21Z</time>
      </trkpt>
      <trkpt lat="44.31432" lon="5.19557">
        <ele>636.4</ele>
        <time>2022-07-17T08:45:22Z</time>
      </trkpt>
      <trkpt lat="44.31432" lon="5.19557">
        <ele>636.4</ele>
        <time>2022-07-17T08:45:23Z</time>
      </trkpt>
      <trkpt lat="44.31432" lon="5.19557">
        <ele>636.4</ele>
        <time>2022-07-17T08:45:24Z</time>
      </trkpt>
      <trkpt lat="44.31432" lon="5.19553">
        <ele>636.2</ele>
        <time>2022-07-17T08:45:25Z</time>
      </trkpt>
      <trkpt lat="44.31432" lon="5.19553">
        <ele>636.2</ele>
        <time>2022-07-17T08:45:26Z</time>
      </trkpt>
      <trkpt lat="44.31436" lon="5.19555">
        <ele>635.9</ele>
        <time>2022-07-17T08:48:16Z</time>
      </trkpt>
      <trkpt lat="44.31434" lon="5.19555">
        <ele>636.5</ele>
        <time>2022-07-17T08:48:17Z</time>
      </trkpt>
      <trkpt lat="44.3143" lon="5.19554">
        <ele>636.9</ele>
        <time>2022-07-17T08:48:18Z</time>
      </trkpt>
      <trkpt lat="44.31429" lon="5.19554">
        <ele>637.1</ele>
        <time>2022-07-17T08:48:19Z</time>
      </trkpt>
      <trkpt lat="44.31426" lon="5.19553">
        <ele>637.4</ele>
        <time>2022-07-17T08:48:20Z</time>
      </trkpt>
      <trkpt lat="44.31425" lon="5.19553">
        <ele>637.5</ele>
        <time>2022-07-17T08:48:21Z</time>
      </trkpt>
      <trkpt lat="44.31424" lon="5.19553">
        <ele>637.6</ele>
        <time>2022-07-17T08:48:22Z</time>
      </trkpt>
      <trkpt lat="44.31423" lon="5.19553">
        <ele>637.7</ele>
        <time>2022-07-17T08:48:23Z</time>
      </trkpt>
      <trkpt lat="44.31422" lon="5.19553">
        <ele>637.8</ele>
        <time>2022-07-17T08:48:24Z</time>
      </trkpt>
      <trkpt lat="44.3142" lon="5.19554">
        <ele>638.1</ele>
        <time>2022-07-17T08:48:25Z</time>
      </trkpt>
      <trkpt lat="44.31419" lon="5.19554">
        <ele>638.2</ele>
        <time>2022-07-17T08:48:26Z</time>
      </trkpt>
      <trkpt lat="44.31418" lon="5.19554">
        <ele>638.3</ele>
        <time>2022-07-17T08:48:27Z</time>
      </trkpt>
      <trkpt lat="44.31417" lon="5.19554">
        <ele>638.4</ele>
        <time>2022-07-17T08:48:28Z</time>
      </trkpt>
      <trkpt lat="44.31416" lon="5.19554">
        <ele>638.5</ele>
        <time>2022-07-17T08:48:29Z</time>
      </trkpt>
      <trkpt lat="44.31415" lon="5.19554">
        <ele>638.6</ele>
        <time>2022-07-17T08:48:30Z</time>
      </trkpt>
      <trkpt lat="44.31414" lon="5.19554">
        <ele>638.7</ele>
        <time>2022-07-17T08:48:31Z</time>
      </trkpt>
      <trkpt lat="44.31413" lon="5.19554">
        <ele>638.8</ele>
        <time>2022-07-17T08:48:32Z</time>
      </trkpt>
      <trkpt lat="44.31412" lon="5.19553">
        <ele>639</ele>
        <time>2022-07-17T08:48:33Z</time>
      </trkpt>
      <trkpt lat="44.31411" lon="5.19553">
        <ele>639.1</ele>
        <time>2022-07-17T08:48:34Z</time>
      </trkpt>
      <trkpt lat="44.3141" lon="5.19553">
        <ele>639.1</ele>
        <time>2022-07-17T08:48:35Z</time>
      </trkpt>
      <trkpt lat="44.31409" lon="5.19553">
        <ele>639.3</ele>
        <time>2022-07-17T08:48:36Z</time>
      </trkpt>
      <trkpt lat="44.31407" lon="5.19553">
        <ele>639.4</ele>
        <time>2022-07-17T08:48:37Z</time>
      </trkpt>
      <trkpt lat="44.31406" lon="5.19553">
        <ele>639.6</ele>
        <time>2022-07-17T08:48:38Z</time>
      </trkpt>
      <trkpt lat="44.31405" lon="5.19553">
        <ele>639.7</ele>
        <time>2022-07-17T08:48:39Z</time>
      </trkpt>
      <trkpt lat="44.31403" lon="5.19551">
        <ele>639.9</ele>
        <time>2022-07-17T08:48:40Z</time>
      </trkpt>
      <trkpt lat="44.31402" lon="5.19549">
        <ele>640.1</ele>
        <time>2022-07-17T08:48:41Z</time>
      </trkpt>
      <trkpt lat="44.31401" lon="5.19548">
        <ele>640.2</ele>
        <time>2022-07-17T08:48:42Z</time>
      </trkpt>
      <trkpt lat="44.31399" lon="5.19547">
        <ele>640.4</ele>
        <time>2022-07-17T08:48:43Z</time>
      </trkpt>
      <trkpt lat="44.31398" lon="5.19547">
        <ele>640.5</ele>
        <time>2022-07-17T08:48:44Z</time>
      </trkpt>
      <trkpt lat="44.31397" lon="5.19546">
        <ele>640.6</ele>
        <time>2022-07-17T08:48:45Z</time>
      </trkpt>
      <trkpt lat="44.31396" lon="5.19546">
        <ele>640.7</ele>
        <time>2022-07-17T08:48:46Z</time>
      </trkpt>
      <trkpt lat="44.31396" lon="5.19546">
        <ele>640.7</ele>
        <time>2022-07-17T08:48:47Z</time>
      </trkpt>
      <trkpt lat="44.31396" lon="5.19546">
        <ele>640.7</ele>
        <time>2022-07-17T08:48:48Z</time>
      </trkpt>
      <trkpt lat="44.31396" lon="5.19546">
        <ele>640.7</ele>
        <time>2022-07-17T08:48:49Z</time>
      </trkpt>
      <trkpt lat="44.31396" lon="5.19546">
        <ele>640.7</ele>
        <time>2022-07-17T08:48:50Z</time>
      </trkpt>
      <trkpt lat="44.31396" lon="5.19546">
        <ele>640.7</ele>
        <time>2022-07-17T08:48:51Z</time>
      </trkpt>
      <trkpt lat="44.31396" lon="5.19546">
        <ele>640.7</ele>
        <time>2022-07-17T08:48:52Z</time>
      </trkpt>
      <trkpt lat="44.31396" lon="5.19546">
        <ele>640.7</ele>
        <time>2022-07-17T08:48:53Z</time>
      </trkpt>
      <trkpt lat="44.31395" lon="5.19545">
        <ele>640.8</ele>
        <time>2022-07-17T08:48:54Z</time>
      </trkpt>
      <trkpt lat="44.31394" lon="5.19545">
        <ele>640.9</ele>
        <time>2022-07-17T08:48:55Z</time>
      </trkpt>
      <trkpt lat="44.31393" lon="5.19545">
        <ele>641.1</ele>
        <time>2022-07-17T08:48:56Z</time>
      </trkpt>
      <trkpt lat="44.31392" lon="5.19545">
        <ele>641.2</ele>
        <time>2022-07-17T08:48:57Z</time>
      </trkpt>
      <trkpt lat="44.31391" lon="5.19545">
        <ele>641.3</ele>
        <time>2022-07-17T08:48:58Z</time>
      </trkpt>
      <trkpt lat="44.3139" lon="5.19545">
        <ele>641.4</ele>
        <time>2022-07-17T08:48:59Z</time>
      </trkpt>
      <trkpt lat="44.31389" lon="5.19545">
        <ele>641.5</ele>
        <time>2022-07-17T08:49:00Z</time>
      </trkpt>
      <trkpt lat="44.31386" lon="5.19545">
        <ele>641.7</ele>
        <time>2022-07-17T08:49:01Z</time>
      </trkpt>
      <trkpt lat="44.31385" lon="5.19545">
        <ele>641.8</ele>
        <time>2022-07-17T08:49:02Z</time>
      </trkpt>
      <trkpt lat="44.31384" lon="5.19545">
        <ele>641.9</ele>
        <time>2022-07-17T08:49:03Z</time>
      </trkpt>
      <trkpt lat="44.31383" lon="5.19544">
        <ele>642</ele>
        <time>2022-07-17T08:49:04Z</time>
      </trkpt>
      <trkpt lat="44.31382" lon="5.19544">
        <ele>642.1</ele>
        <time>2022-07-17T08:49:05Z</time>
      </trkpt>
      <trkpt lat="44.31381" lon="5.19544">
        <ele>642.2</ele>
        <time>2022-07-17T08:49:06Z</time>
      </trkpt>
      <trkpt lat="44.3138" lon="5.19544">
        <ele>642.3</ele>
        <time>2022-07-17T08:49:07Z</time>
      </trkpt>
      <trkpt lat="44.31378" lon="5.19543">
        <ele>642.5</ele>
        <time>2022-07-17T08:49:08Z</time>
      </trkpt>
      <trkpt lat="44.31376" lon="5.19542">
        <ele>642.7</ele>
        <time>2022-07-17T08:49:09Z</time>
      </trkpt>
      <trkpt lat="44.31376" lon="5.19542">
        <ele>642.7</ele>
        <time>2022-07-17T08:49:10Z</time>
      </trkpt>
      <trkpt lat="44.31375" lon="5.19542">
        <ele>642.8</ele>
        <time>2022-07-17T08:49:11Z</time>
      </trkpt>
      <trkpt lat="44.31374" lon="5.19542">
        <ele>642.9</ele>
        <time>2022-07-17T08:49:12Z</time>
      </trkpt>
      <trkpt lat="44.31374" lon="5.19543">
        <ele>642.9</ele>
        <time>2022-07-17T08:49:13Z</time>
      </trkpt>
      <trkpt lat="44.31373" lon="5.19543">
        <ele>643</ele>
        <time>2022-07-17T08:49:14Z</time>
      </trkpt>
      <trkpt lat="44.31372" lon="5.19543">
        <ele>643.1</ele>
        <time>2022-07-17T08:49:15Z</time>
      </trkpt>
      <trkpt lat="44.31371" lon="5.19543">
        <ele>643.2</ele>
        <time>2022-07-17T08:49:16Z</time>
      </trkpt>
      <trkpt lat="44.3137" lon="5.19542">
        <ele>643.2</ele>
        <time>2022-07-17T08:49:17Z</time>
      </trkpt>
      <trkpt lat="44.31369" lon="5.19542">
        <ele>643.3</ele>
        <time>2022-07-17T08:49:18Z</time>
      </trkpt>
      <trkpt lat="44.31368" lon="5.19542">
        <ele>643.4</ele>
        <time>2022-07-17T08:49:19Z</time>
      </trkpt>
      <trkpt lat="44.31367" lon="5.19541">
        <ele>643.5</ele>
        <time>2022-07-17T08:49:22Z</time>
      </trkpt>
      <trkpt lat="44.31367" lon="5.19541">
        <ele>643.6</ele>
        <time>2022-07-17T08:49:23Z</time>
      </trkpt>
      <trkpt lat="44.31366" lon="5.19541">
        <ele>643.7</ele>
        <time>2022-07-17T08:49:24Z</time>
      </trkpt>
      <trkpt lat="44.31364" lon="5.1954">
        <ele>643.8</ele>
        <time>2022-07-17T08:49:25Z</time>
      </trkpt>
      <trkpt lat="44.31363" lon="5.1954">
        <ele>644</ele>
        <time>2022-07-17T08:49:26Z</time>
      </trkpt>
      <trkpt lat="44.31361" lon="5.19539">
        <ele>644.1</ele>
        <time>2022-07-17T08:49:27Z</time>
      </trkpt>
      <trkpt lat="44.3136" lon="5.19538">
        <ele>644.3</ele>
        <time>2022-07-17T08:49:28Z</time>
      </trkpt>
      <trkpt lat="44.31358" lon="5.19537">
        <ele>644.5</ele>
        <time>2022-07-17T08:49:29Z</time>
      </trkpt>
      <trkpt lat="44.31358" lon="5.19536">
        <ele>644.5</ele>
        <time>2022-07-17T08:49:30Z</time>
      </trkpt>
      <trkpt lat="44.31357" lon="5.19535">
        <ele>644.6</ele>
        <time>2022-07-17T08:49:31Z</time>
      </trkpt>
      <trkpt lat="44.31356" lon="5.19534">
        <ele>644.7</ele>
        <time>2022-07-17T08:49:32Z</time>
      </trkpt>
      <trkpt lat="44.31354" lon="5.19534">
        <ele>644.9</ele>
        <time>2022-07-17T08:49:33Z</time>
      </trkpt>
      <trkpt lat="44.31353" lon="5.19533">
        <ele>645</ele>
        <time>2022-07-17T08:49:34Z</time>
      </trkpt>
      <trkpt lat="44.31351" lon="5.19533">
        <ele>645.1</ele>
        <time>2022-07-17T08:49:35Z</time>
      </trkpt>
      <trkpt lat="44.31349" lon="5.19533">
        <ele>645.3</ele>
        <time>2022-07-17T08:49:36Z</time>
      </trkpt>
      <trkpt lat="44.31348" lon="5.19532">
        <ele>645.4</ele>
        <time>2022-07-17T08:49:37Z</time>
      </trkpt>
      <trkpt lat="44.31347" lon="5.19532">
        <ele>645.5</ele>
        <time>2022-07-17T08:49:38Z</time>
      </trkpt>
      <trkpt lat="44.31345" lon="5.19532">
        <ele>645.7</ele>
        <time>2022-07-17T08:49:39Z</time>
      </trkpt>
      <trkpt lat="44.31344" lon="5.19532">
        <ele>645.7</ele>
        <time>2022-07-17T08:49:40Z</time>
      </trkpt>
      <trkpt lat="44.31343" lon="5.19531">
        <ele>645.8</ele>
        <time>2022-07-17T08:49:41Z</time>
      </trkpt>
      <trkpt lat="44.31342" lon="5.19531">
        <ele>645.9</ele>
        <time>2022-07-17T08:49:42Z</time>
      </trkpt>
      <trkpt lat="44.31341" lon="5.1953">
        <ele>646.1</ele>
        <time>2022-07-17T08:49:43Z</time>
      </trkpt>
      <trkpt lat="44.31339" lon="5.19529">
        <ele>646.2</ele>
        <time>2022-07-17T08:49:44Z</time>
      </trkpt>
      <trkpt lat="44.31338" lon="5.19529">
        <ele>646.3</ele>
        <time>2022-07-17T08:49:45Z</time>
      </trkpt>
      <trkpt lat="44.31337" lon="5.19528">
        <ele>646.4</ele>
        <time>2022-07-17T08:49:46Z</time>
      </trkpt>
      <trkpt lat="44.31335" lon="5.19528">
        <ele>646.6</ele>
        <time>2022-07-17T08:49:47Z</time>
      </trkpt>
      <trkpt lat="44.31332" lon="5.19527">
        <ele>646.8</ele>
        <time>2022-07-17T08:49:48Z</time>
      </trkpt>
      <trkpt lat="44.31331" lon="5.19527">
        <ele>646.9</ele>
        <time>2022-07-17T08:49:49Z</time>
      </trkpt>
      <trkpt lat="44.31329" lon="5.19526">
        <ele>647.1</ele>
        <time>2022-07-17T08:49:50Z</time>
      </trkpt>
      <trkpt lat="44.31328" lon="5.19526">
        <ele>647.2</ele>
        <time>2022-07-17T08:49:51Z</time>
      </trkpt>
      <trkpt lat="44.31325" lon="5.19525">
        <ele>647.4</ele>
        <time>2022-07-17T08:49:52Z</time>
      </trkpt>
      <trkpt lat="44.31324" lon="5.19525">
        <ele>647.5</ele>
        <time>2022-07-17T08:49:53Z</time>
      </trkpt>
      <trkpt lat="44.3132" lon="5.19525">
        <ele>647.7</ele>
        <time>2022-07-17T08:49:54Z</time>
      </trkpt>
      <trkpt lat="44.31319" lon="5.19525">
        <ele>647.8</ele>
        <time>2022-07-17T08:49:55Z</time>
      </trkpt>
      <trkpt lat="44.31318" lon="5.19526">
        <ele>647.9</ele>
        <time>2022-07-17T08:49:56Z</time>
      </trkpt>
      <trkpt lat="44.31316" lon="5.19526">
        <ele>648</ele>
        <time>2022-07-17T08:49:57Z</time>
      </trkpt>
      <trkpt lat="44.31314" lon="5.19526">
        <ele>648.2</ele>
        <time>2022-07-17T08:49:58Z</time>
      </trkpt>
      <trkpt lat="44.31313" lon="5.19526">
        <ele>648.3</ele>
        <time>2022-07-17T08:49:59Z</time>
      </trkpt>
      <trkpt lat="44.31311" lon="5.19526">
        <ele>648.4</ele>
        <time>2022-07-17T08:50:00Z</time>
      </trkpt>
      <trkpt lat="44.3131" lon="5.19526">
        <ele>648.5</ele>
        <time>2022-07-17T08:50:01Z</time>
      </trkpt>
      <trkpt lat="44.31309" lon="5.19527">
        <ele>648.6</ele>
        <time>2022-07-17T08:50:02Z</time>
      </trkpt>
      <trkpt lat="44.31307" lon="5.19527">
        <ele>648.7</ele>
        <time>2022-07-17T08:50:03Z</time>
      </trkpt>
      <trkpt lat="44.31306" lon="5.19528">
        <ele>648.8</ele>
        <time>2022-07-17T08:50:04Z</time>
      </trkpt>
      <trkpt lat="44.31304" lon="5.19528">
        <ele>648.9</ele>
        <time>2022-07-17T08:50:05Z</time>
      </trkpt>
      <trkpt lat="44.31302" lon="5.1953">
        <ele>649.1</ele>
        <time>2022-07-17T08:50:06Z</time>
      </trkpt>
      <trkpt lat="44.31301" lon="5.1953">
        <ele>649.1</ele>
        <time>2022-07-17T08:50:07Z</time>
      </trkpt>
      <trkpt lat="44.31301" lon="5.19531">
        <ele>649.2</ele>
        <time>2022-07-17T08:50:08Z</time>
      </trkpt>
      <trkpt lat="44.31299" lon="5.19532">
        <ele>649.3</ele>
        <time>2022-07-17T08:50:09Z</time>
      </trkpt>
      <trkpt lat="44.31298" lon="5.19533">
        <ele>649.4</ele>
        <time>2022-07-17T08:50:10Z</time>
      </trkpt>
      <trkpt lat="44.31297" lon="5.19533">
        <ele>649.4</ele>
        <time>2022-07-17T08:50:11Z</time>
      </trkpt>
      <trkpt lat="44.31295" lon="5.19534">
        <ele>649.5</ele>
        <time>2022-07-17T08:50:12Z</time>
      </trkpt>
      <trkpt lat="44.31294" lon="5.19535">
        <ele>649.6</ele>
        <time>2022-07-17T08:50:13Z</time>
      </trkpt>
      <trkpt lat="44.31293" lon="5.19535">
        <ele>649.6</ele>
        <time>2022-07-17T08:50:14Z</time>
      </trkpt>
      <trkpt lat="44.31291" lon="5.19535">
        <ele>649.8</ele>
        <time>2022-07-17T08:50:15Z</time>
      </trkpt>
      <trkpt lat="44.31291" lon="5.19536">
        <ele>649.8</ele>
        <time>2022-07-17T08:50:16Z</time>
      </trkpt>
      <trkpt lat="44.3129" lon="5.19536">
        <ele>649.8</ele>
        <time>2022-07-17T08:50:17Z</time>
      </trkpt>
      <trkpt lat="44.31288" lon="5.19536">
        <ele>649.9</ele>
        <time>2022-07-17T08:50:18Z</time>
      </trkpt>
      <trkpt lat="44.31287" lon="5.19536">
        <ele>650</ele>
        <time>2022-07-17T08:50:19Z</time>
      </trkpt>
      <trkpt lat="44.31286" lon="5.19536">
        <ele>650</ele>
        <time>2022-07-17T08:50:20Z</time>
      </trkpt>
      <trkpt lat="44.31284" lon="5.19537">
        <ele>650.1</ele>
        <time>2022-07-17T08:50:21Z</time>
      </trkpt>
      <trkpt lat="44.31283" lon="5.19537">
        <ele>650.1</ele>
        <time>2022-07-17T08:50:22Z</time>
      </trkpt>
      <trkpt lat="44.31282" lon="5.19536">
        <ele>650.2</ele>
        <time>2022-07-17T08:50:23Z</time>
      </trkpt>
      <trkpt lat="44.3128" lon="5.19536">
        <ele>650.3</ele>
        <time>2022-07-17T08:50:24Z</time>
      </trkpt>
      <trkpt lat="44.31279" lon="5.19536">
        <ele>650.3</ele>
        <time>2022-07-17T08:50:25Z</time>
      </trkpt>
      <trkpt lat="44.31278" lon="5.19536">
        <ele>650.4</ele>
        <time>2022-07-17T08:50:26Z</time>
      </trkpt>
      <trkpt lat="44.31277" lon="5.19536">
        <ele>650.4</ele>
        <time>2022-07-17T08:50:27Z</time>
      </trkpt>
      <trkpt lat="44.31276" lon="5.19537">
        <ele>650.5</ele>
        <time>2022-07-17T08:50:28Z</time>
      </trkpt>
      <trkpt lat="44.31274" lon="5.19538">
        <ele>650.7</ele>
        <time>2022-07-17T08:50:29Z</time>
      </trkpt>
      <trkpt lat="44.31273" lon="5.19538">
        <ele>650.7</ele>
        <time>2022-07-17T08:50:30Z</time>
      </trkpt>
      <trkpt lat="44.31272" lon="5.19538">
        <ele>650.8</ele>
        <time>2022-07-17T08:50:31Z</time>
      </trkpt>
      <trkpt lat="44.31271" lon="5.19538">
        <ele>650.9</ele>
        <time>2022-07-17T08:50:32Z</time>
      </trkpt>
      <trkpt lat="44.3127" lon="5.19538">
        <ele>651</ele>
        <time>2022-07-17T08:50:33Z</time>
      </trkpt>
      <trkpt lat="44.31268" lon="5.19538">
        <ele>651</ele>
        <time>2022-07-17T08:50:34Z</time>
      </trkpt>
      <trkpt lat="44.31266" lon="5.19538">
        <ele>651.2</ele>
        <time>2022-07-17T08:50:35Z</time>
      </trkpt>
      <trkpt lat="44.31265" lon="5.19538">
        <ele>651.3</ele>
        <time>2022-07-17T08:50:36Z</time>
      </trkpt>
      <trkpt lat="44.31265" lon="5.19537">
        <ele>651.3</ele>
        <time>2022-07-17T08:50:37Z</time>
      </trkpt>
      <trkpt lat="44.31263" lon="5.19537">
        <ele>651.4</ele>
        <time>2022-07-17T08:50:38Z</time>
      </trkpt>
      <trkpt lat="44.31262" lon="5.19537">
        <ele>651.5</ele>
        <time>2022-07-17T08:50:39Z</time>
      </trkpt>
      <trkpt lat="44.3126" lon="5.19537">
        <ele>651.6</ele>
        <time>2022-07-17T08:50:40Z</time>
      </trkpt>
      <trkpt lat="44.31259" lon="5.19538">
        <ele>651.7</ele>
        <time>2022-07-17T08:50:41Z</time>
      </trkpt>
      <trkpt lat="44.31257" lon="5.19538">
        <ele>651.9</ele>
        <time>2022-07-17T08:50:42Z</time>
      </trkpt>
      <trkpt lat="44.31256" lon="5.19538">
        <ele>651.9</ele>
        <time>2022-07-17T08:50:43Z</time>
      </trkpt>
      <trkpt lat="44.31255" lon="5.19538">
        <ele>652</ele>
        <time>2022-07-17T08:50:44Z</time>
      </trkpt>
      <trkpt lat="44.31254" lon="5.19538">
        <ele>652.1</ele>
        <time>2022-07-17T08:50:45Z</time>
      </trkpt>
      <trkpt lat="44.31252" lon="5.19538">
        <ele>652.2</ele>
        <time>2022-07-17T08:50:46Z</time>
      </trkpt>
      <trkpt lat="44.31251" lon="5.19538">
        <ele>652.3</ele>
        <time>2022-07-17T08:50:47Z</time>
      </trkpt>
      <trkpt lat="44.31249" lon="5.19538">
        <ele>652.3</ele>
        <time>2022-07-17T08:50:48Z</time>
      </trkpt>
      <trkpt lat="44.31247" lon="5.19538">
        <ele>652.4</ele>
        <time>2022-07-17T08:50:49Z</time>
      </trkpt>
      <trkpt lat="44.31246" lon="5.19538">
        <ele>652.5</ele>
        <time>2022-07-17T08:50:50Z</time>
      </trkpt>
      <trkpt lat="44.31245" lon="5.19535">
        <ele>652.6</ele>
        <time>2022-07-17T08:50:51Z</time>
      </trkpt>
      <trkpt lat="44.31244" lon="5.19534">
        <ele>652.6</ele>
        <time>2022-07-17T08:50:52Z</time>
      </trkpt>
      <trkpt lat="44.31244" lon="5.19533">
        <ele>652.7</ele>
        <time>2022-07-17T08:50:53Z</time>
      </trkpt>
      <trkpt lat="44.31243" lon="5.19531">
        <ele>652.7</ele>
        <time>2022-07-17T08:50:54Z</time>
      </trkpt>
      <trkpt lat="44.31243" lon="5.1953">
        <ele>652.8</ele>
        <time>2022-07-17T08:50:55Z</time>
      </trkpt>
      <trkpt lat="44.31242" lon="5.19529">
        <ele>652.8</ele>
        <time>2022-07-17T08:50:56Z</time>
      </trkpt>
      <trkpt lat="44.31241" lon="5.19529">
        <ele>652.8</ele>
        <time>2022-07-17T08:50:57Z</time>
      </trkpt>
      <trkpt lat="44.3124" lon="5.19529">
        <ele>652.9</ele>
        <time>2022-07-17T08:50:58Z</time>
      </trkpt>
      <trkpt lat="44.31239" lon="5.19528">
        <ele>652.9</ele>
        <time>2022-07-17T08:50:59Z</time>
      </trkpt>
      <trkpt lat="44.31238" lon="5.19529">
        <ele>653</ele>
        <time>2022-07-17T08:51:00Z</time>
      </trkpt>
      <trkpt lat="44.31237" lon="5.1953">
        <ele>653</ele>
        <time>2022-07-17T08:51:01Z</time>
      </trkpt>
      <trkpt lat="44.31237" lon="5.19532">
        <ele>653.1</ele>
        <time>2022-07-17T08:51:02Z</time>
      </trkpt>
      <trkpt lat="44.31236" lon="5.19535">
        <ele>653.2</ele>
        <time>2022-07-17T08:51:03Z</time>
      </trkpt>
      <trkpt lat="44.31236" lon="5.19537">
        <ele>653.2</ele>
        <time>2022-07-17T08:51:04Z</time>
      </trkpt>
      <trkpt lat="44.31235" lon="5.19538">
        <ele>653.3</ele>
        <time>2022-07-17T08:51:05Z</time>
      </trkpt>
      <trkpt lat="44.31235" lon="5.19539">
        <ele>653.3</ele>
        <time>2022-07-17T08:51:06Z</time>
      </trkpt>
      <trkpt lat="44.31233" lon="5.1954">
        <ele>653.4</ele>
        <time>2022-07-17T08:51:07Z</time>
      </trkpt>
      <trkpt lat="44.31232" lon="5.19541">
        <ele>653.5</ele>
        <time>2022-07-17T08:51:08Z</time>
      </trkpt>
      <trkpt lat="44.31231" lon="5.19542">
        <ele>653.6</ele>
        <time>2022-07-17T08:51:09Z</time>
      </trkpt>
      <trkpt lat="44.31229" lon="5.19542">
        <ele>653.6</ele>
        <time>2022-07-17T08:51:42Z</time>
      </trkpt>
      <trkpt lat="44.31228" lon="5.19543">
        <ele>653.7</ele>
        <time>2022-07-17T08:51:43Z</time>
      </trkpt>
      <trkpt lat="44.31226" lon="5.19543">
        <ele>653.8</ele>
        <time>2022-07-17T08:51:44Z</time>
      </trkpt>
      <trkpt lat="44.31225" lon="5.19542">
        <ele>653.9</ele>
        <time>2022-07-17T08:51:45Z</time>
      </trkpt>
      <trkpt lat="44.31223" lon="5.19542">
        <ele>654</ele>
        <time>2022-07-17T08:51:46Z</time>
      </trkpt>
      <trkpt lat="44.31222" lon="5.19542">
        <ele>654.1</ele>
        <time>2022-07-17T08:51:47Z</time>
      </trkpt>
      <trkpt lat="44.31219" lon="5.19541">
        <ele>654.3</ele>
        <time>2022-07-17T08:51:48Z</time>
      </trkpt>
      <trkpt lat="44.31218" lon="5.19541">
        <ele>654.3</ele>
        <time>2022-07-17T08:51:49Z</time>
      </trkpt>
      <trkpt lat="44.31216" lon="5.19541">
        <ele>654.4</ele>
        <time>2022-07-17T08:51:50Z</time>
      </trkpt>
      <trkpt lat="44.31215" lon="5.19541">
        <ele>654.6</ele>
        <time>2022-07-17T08:51:51Z</time>
      </trkpt>
      <trkpt lat="44.31213" lon="5.19543">
        <ele>654.7</ele>
        <time>2022-07-17T08:51:52Z</time>
      </trkpt>
      <trkpt lat="44.31212" lon="5.19544">
        <ele>654.8</ele>
        <time>2022-07-17T08:51:53Z</time>
      </trkpt>
      <trkpt lat="44.31212" lon="5.19545">
        <ele>654.9</ele>
        <time>2022-07-17T08:51:54Z</time>
      </trkpt>
      <trkpt lat="44.31211" lon="5.19547">
        <ele>655</ele>
        <time>2022-07-17T08:51:55Z</time>
      </trkpt>
      <trkpt lat="44.3121" lon="5.19549">
        <ele>655.1</ele>
        <time>2022-07-17T08:51:56Z</time>
      </trkpt>
      <trkpt lat="44.3121" lon="5.19551">
        <ele>655.2</ele>
        <time>2022-07-17T08:51:57Z</time>
      </trkpt>
      <trkpt lat="44.3121" lon="5.19553">
        <ele>655.4</ele>
        <time>2022-07-17T08:51:58Z</time>
      </trkpt>
      <trkpt lat="44.3121" lon="5.19555">
        <ele>656</ele>
        <time>2022-07-17T08:51:59Z</time>
      </trkpt>
      <trkpt lat="44.3121" lon="5.19557">
        <ele>656.1</ele>
        <time>2022-07-17T08:52:00Z</time>
      </trkpt>
      <trkpt lat="44.31211" lon="5.19559">
        <ele>656.2</ele>
        <time>2022-07-17T08:52:01Z</time>
      </trkpt>
      <trkpt lat="44.31212" lon="5.19561">
        <ele>656.4</ele>
        <time>2022-07-17T08:52:02Z</time>
      </trkpt>
      <trkpt lat="44.31213" lon="5.19563">
        <ele>656.5</ele>
        <time>2022-07-17T08:52:03Z</time>
      </trkpt>
      <trkpt lat="44.31214" lon="5.19564">
        <ele>656.6</ele>
        <time>2022-07-17T08:52:04Z</time>
      </trkpt>
      <trkpt lat="44.31216" lon="5.19566">
        <ele>656.7</ele>
        <time>2022-07-17T08:52:05Z</time>
      </trkpt>
      <trkpt lat="44.31216" lon="5.19566">
        <ele>656.8</ele>
        <time>2022-07-17T08:52:06Z</time>
      </trkpt>
      <trkpt lat="44.31217" lon="5.19567">
        <ele>656.8</ele>
        <time>2022-07-17T08:52:07Z</time>
      </trkpt>
      <trkpt lat="44.31218" lon="5.19568">
        <ele>656.9</ele>
        <time>2022-07-17T08:52:08Z</time>
      </trkpt>
      <trkpt lat="44.3122" lon="5.19569">
        <ele>657</ele>
        <time>2022-07-17T08:52:09Z</time>
      </trkpt>
      <trkpt lat="44.31221" lon="5.1957">
        <ele>657.1</ele>
        <time>2022-07-17T08:52:10Z</time>
      </trkpt>
      <trkpt lat="44.31222" lon="5.19571">
        <ele>657.2</ele>
        <time>2022-07-17T08:52:11Z</time>
      </trkpt>
      <trkpt lat="44.31223" lon="5.19572">
        <ele>657.3</ele>
        <time>2022-07-17T08:52:12Z</time>
      </trkpt>
      <trkpt lat="44.31225" lon="5.19573">
        <ele>657.4</ele>
        <time>2022-07-17T08:52:13Z</time>
      </trkpt>
      <trkpt lat="44.31226" lon="5.19573">
        <ele>657.5</ele>
        <time>2022-07-17T08:52:14Z</time>
      </trkpt>
      <trkpt lat="44.31228" lon="5.19574">
        <ele>657.6</ele>
        <time>2022-07-17T08:52:15Z</time>
      </trkpt>
      <trkpt lat="44.31229" lon="5.19574">
        <ele>657.7</ele>
        <time>2022-07-17T08:52:16Z</time>
      </trkpt>
      <trkpt lat="44.31231" lon="5.19574">
        <ele>657.8</ele>
        <time>2022-07-17T08:52:17Z</time>
      </trkpt>
      <trkpt lat="44.31232" lon="5.19575">
        <ele>657.9</ele>
        <time>2022-07-17T08:52:18Z</time>
      </trkpt>
      <trkpt lat="44.31234" lon="5.19575">
        <ele>658</ele>
        <time>2022-07-17T08:52:19Z</time>
      </trkpt>
      <trkpt lat="44.31237" lon="5.19574">
        <ele>658.2</ele>
        <time>2022-07-17T08:52:20Z</time>
      </trkpt>
      <trkpt lat="44.31238" lon="5.19574">
        <ele>658.3</ele>
        <time>2022-07-17T08:52:21Z</time>
      </trkpt>
      <trkpt lat="44.31241" lon="5.19574">
        <ele>658.4</ele>
        <time>2022-07-17T08:52:22Z</time>
      </trkpt>
      <trkpt lat="44.31242" lon="5.19574">
        <ele>658.5</ele>
        <time>2022-07-17T08:52:23Z</time>
      </trkpt>
      <trkpt lat="44.31244" lon="5.19574">
        <ele>658.6</ele>
        <time>2022-07-17T08:52:24Z</time>
      </trkpt>
      <trkpt lat="44.31246" lon="5.19573">
        <ele>658.6</ele>
        <time>2022-07-17T08:52:25Z</time>
      </trkpt>
      <trkpt lat="44.31249" lon="5.19574">
        <ele>658.7</ele>
        <time>2022-07-17T08:52:26Z</time>
      </trkpt>
      <trkpt lat="44.31249" lon="5.19574">
        <ele>658.8</ele>
        <time>2022-07-17T08:52:27Z</time>
      </trkpt>
      <trkpt lat="44.31252" lon="5.19574">
        <ele>658.9</ele>
        <time>2022-07-17T08:52:28Z</time>
      </trkpt>
      <trkpt lat="44.31252" lon="5.19574">
        <ele>658.9</ele>
        <time>2022-07-17T08:52:29Z</time>
      </trkpt>
      <trkpt lat="44.31253" lon="5.19574">
        <ele>658.9</ele>
        <time>2022-07-17T08:52:30Z</time>
      </trkpt>
      <trkpt lat="44.31255" lon="5.19574">
        <ele>659</ele>
        <time>2022-07-17T08:52:31Z</time>
      </trkpt>
      <trkpt lat="44.31257" lon="5.19574">
        <ele>659</ele>
        <time>2022-07-17T08:52:32Z</time>
      </trkpt>
      <trkpt lat="44.31258" lon="5.19574">
        <ele>659.1</ele>
        <time>2022-07-17T08:52:34Z</time>
      </trkpt>
      <trkpt lat="44.31259" lon="5.19574">
        <ele>659.1</ele>
        <time>2022-07-17T08:52:35Z</time>
      </trkpt>
      <trkpt lat="44.31261" lon="5.19575">
        <ele>659.2</ele>
        <time>2022-07-17T08:52:36Z</time>
      </trkpt>
      <trkpt lat="44.31262" lon="5.19576">
        <ele>659.3</ele>
        <time>2022-07-17T08:52:37Z</time>
      </trkpt>
      <trkpt lat="44.31264" lon="5.19577">
        <ele>659.4</ele>
        <time>2022-07-17T08:52:38Z</time>
      </trkpt>
      <trkpt lat="44.31265" lon="5.19577">
        <ele>659.4</ele>
        <time>2022-07-17T08:52:39Z</time>
      </trkpt>
      <trkpt lat="44.31266" lon="5.19578">
        <ele>659.5</ele>
        <time>2022-07-17T08:52:40Z</time>
      </trkpt>
      <trkpt lat="44.31267" lon="5.19578">
        <ele>659.6</ele>
        <time>2022-07-17T08:52:41Z</time>
      </trkpt>
      <trkpt lat="44.31269" lon="5.19579">
        <ele>659.7</ele>
        <time>2022-07-17T08:52:42Z</time>
      </trkpt>
      <trkpt lat="44.3127" lon="5.19579">
        <ele>659.8</ele>
        <time>2022-07-17T08:52:43Z</time>
      </trkpt>
      <trkpt lat="44.31272" lon="5.19579">
        <ele>659.9</ele>
        <time>2022-07-17T08:52:44Z</time>
      </trkpt>
      <trkpt lat="44.31273" lon="5.1958">
        <ele>660</ele>
        <time>2022-07-17T08:52:45Z</time>
      </trkpt>
      <trkpt lat="44.31275" lon="5.1958">
        <ele>660.2</ele>
        <time>2022-07-17T08:52:46Z</time>
      </trkpt>
      <trkpt lat="44.31276" lon="5.1958">
        <ele>660.3</ele>
        <time>2022-07-17T08:52:47Z</time>
      </trkpt>
      <trkpt lat="44.31278" lon="5.19581">
        <ele>660.4</ele>
        <time>2022-07-17T08:52:48Z</time>
      </trkpt>
      <trkpt lat="44.31279" lon="5.19581">
        <ele>660.6</ele>
        <time>2022-07-17T08:52:49Z</time>
      </trkpt>
      <trkpt lat="44.31281" lon="5.19582">
        <ele>660.8</ele>
        <time>2022-07-17T08:52:50Z</time>
      </trkpt>
      <trkpt lat="44.31282" lon="5.19583">
        <ele>661</ele>
        <time>2022-07-17T08:52:51Z</time>
      </trkpt>
      <trkpt lat="44.31284" lon="5.19584">
        <ele>661.1</ele>
        <time>2022-07-17T08:52:52Z</time>
      </trkpt>
      <trkpt lat="44.31285" lon="5.19585">
        <ele>661.3</ele>
        <time>2022-07-17T08:52:53Z</time>
      </trkpt>
      <trkpt lat="44.31287" lon="5.19585">
        <ele>661.5</ele>
        <time>2022-07-17T08:52:54Z</time>
      </trkpt>
      <trkpt lat="44.31289" lon="5.19587">
        <ele>661.8</ele>
        <time>2022-07-17T08:52:55Z</time>
      </trkpt>
      <trkpt lat="44.31289" lon="5.19587">
        <ele>661.9</ele>
        <time>2022-07-17T08:52:56Z</time>
      </trkpt>
      <trkpt lat="44.3129" lon="5.19588">
        <ele>662</ele>
        <time>2022-07-17T08:52:57Z</time>
      </trkpt>
      <trkpt lat="44.31292" lon="5.19588">
        <ele>662.1</ele>
        <time>2022-07-17T08:52:58Z</time>
      </trkpt>
      <trkpt lat="44.31293" lon="5.19589">
        <ele>662.3</ele>
        <time>2022-07-17T08:52:59Z</time>
      </trkpt>
      <trkpt lat="44.31294" lon="5.1959">
        <ele>662.4</ele>
        <time>2022-07-17T08:53:00Z</time>
      </trkpt>
      <trkpt lat="44.31295" lon="5.1959">
        <ele>662.5</ele>
        <time>2022-07-17T08:53:01Z</time>
      </trkpt>
      <trkpt lat="44.31295" lon="5.19591">
        <ele>662.6</ele>
        <time>2022-07-17T08:53:02Z</time>
      </trkpt>
      <trkpt lat="44.31297" lon="5.19592">
        <ele>662.8</ele>
        <time>2022-07-17T08:53:03Z</time>
      </trkpt>
      <trkpt lat="44.31298" lon="5.19592">
        <ele>662.9</ele>
        <time>2022-07-17T08:53:04Z</time>
      </trkpt>
      <trkpt lat="44.31299" lon="5.19593">
        <ele>663</ele>
        <time>2022-07-17T08:53:05Z</time>
      </trkpt>
      <trkpt lat="44.313" lon="5.19593">
        <ele>663.1</ele>
        <time>2022-07-17T08:53:06Z</time>
      </trkpt>
      <trkpt lat="44.31301" lon="5.19593">
        <ele>663.3</ele>
        <time>2022-07-17T08:53:07Z</time>
      </trkpt>
      <trkpt lat="44.31302" lon="5.19593">
        <ele>663.4</ele>
        <time>2022-07-17T08:53:08Z</time>
      </trkpt>
      <trkpt lat="44.31304" lon="5.19594">
        <ele>663.6</ele>
        <time>2022-07-17T08:53:09Z</time>
      </trkpt>
      <trkpt lat="44.31305" lon="5.19595">
        <ele>663.7</ele>
        <time>2022-07-17T08:53:10Z</time>
      </trkpt>
      <trkpt lat="44.31306" lon="5.19595">
        <ele>663.8</ele>
        <time>2022-07-17T08:53:11Z</time>
      </trkpt>
      <trkpt lat="44.31307" lon="5.19596">
        <ele>663.8</ele>
        <time>2022-07-17T08:53:12Z</time>
      </trkpt>
      <trkpt lat="44.31308" lon="5.19597">
        <ele>663.9</ele>
        <time>2022-07-17T08:53:13Z</time>
      </trkpt>
      <trkpt lat="44.31308" lon="5.19598">
        <ele>664</ele>
        <time>2022-07-17T08:53:14Z</time>
      </trkpt>
      <trkpt lat="44.31309" lon="5.19599">
        <ele>664.1</ele>
        <time>2022-07-17T08:53:15Z</time>
      </trkpt>
      <trkpt lat="44.3131" lon="5.196">
        <ele>664.2</ele>
        <time>2022-07-17T08:53:16Z</time>
      </trkpt>
      <trkpt lat="44.31311" lon="5.19601">
        <ele>664.3</ele>
        <time>2022-07-17T08:53:17Z</time>
      </trkpt>
      <trkpt lat="44.31312" lon="5.19601">
        <ele>664.4</ele>
        <time>2022-07-17T08:53:18Z</time>
      </trkpt>
      <trkpt lat="44.31313" lon="5.19603">
        <ele>664.5</ele>
        <time>2022-07-17T08:53:19Z</time>
      </trkpt>
      <trkpt lat="44.31314" lon="5.19604">
        <ele>664.6</ele>
        <time>2022-07-17T08:53:20Z</time>
      </trkpt>
      <trkpt lat="44.31315" lon="5.19605">
        <ele>664.7</ele>
        <time>2022-07-17T08:53:21Z</time>
      </trkpt>
      <trkpt lat="44.31316" lon="5.19605">
        <ele>664.8</ele>
        <time>2022-07-17T08:53:22Z</time>
      </trkpt>
      <trkpt lat="44.31317" lon="5.19606">
        <ele>664.8</ele>
        <time>2022-07-17T08:53:23Z</time>
      </trkpt>
      <trkpt lat="44.31317" lon="5.19607">
        <ele>664.9</ele>
        <time>2022-07-17T08:53:24Z</time>
      </trkpt>
      <trkpt lat="44.31319" lon="5.19609">
        <ele>665.1</ele>
        <time>2022-07-17T08:53:25Z</time>
      </trkpt>
      <trkpt lat="44.31319" lon="5.19609">
        <ele>665.1</ele>
        <time>2022-07-17T08:53:26Z</time>
      </trkpt>
      <trkpt lat="44.3132" lon="5.1961">
        <ele>665.2</ele>
        <time>2022-07-17T08:53:27Z</time>
      </trkpt>
      <trkpt lat="44.31321" lon="5.19612">
        <ele>665.3</ele>
        <time>2022-07-17T08:53:28Z</time>
      </trkpt>
      <trkpt lat="44.31322" lon="5.19613">
        <ele>665.4</ele>
        <time>2022-07-17T08:53:29Z</time>
      </trkpt>
      <trkpt lat="44.31322" lon="5.19614">
        <ele>665.5</ele>
        <time>2022-07-17T08:53:30Z</time>
      </trkpt>
      <trkpt lat="44.31324" lon="5.19616">
        <ele>665.6</ele>
        <time>2022-07-17T08:53:31Z</time>
      </trkpt>
      <trkpt lat="44.31324" lon="5.19617">
        <ele>665.7</ele>
        <time>2022-07-17T08:53:32Z</time>
      </trkpt>
      <trkpt lat="44.31325" lon="5.19618">
        <ele>665.8</ele>
        <time>2022-07-17T08:53:33Z</time>
      </trkpt>
      <trkpt lat="44.31326" lon="5.19619">
        <ele>665.9</ele>
        <time>2022-07-17T08:53:34Z</time>
      </trkpt>
      <trkpt lat="44.31327" lon="5.19621">
        <ele>666.1</ele>
        <time>2022-07-17T08:53:35Z</time>
      </trkpt>
      <trkpt lat="44.31328" lon="5.19623">
        <ele>666.3</ele>
        <time>2022-07-17T08:53:36Z</time>
      </trkpt>
      <trkpt lat="44.31329" lon="5.19624">
        <ele>666.4</ele>
        <time>2022-07-17T08:53:37Z</time>
      </trkpt>
      <trkpt lat="44.3133" lon="5.19626">
        <ele>666.5</ele>
        <time>2022-07-17T08:53:38Z</time>
      </trkpt>
      <trkpt lat="44.31331" lon="5.19627">
        <ele>666.7</ele>
        <time>2022-07-17T08:53:39Z</time>
      </trkpt>
      <trkpt lat="44.31332" lon="5.19628">
        <ele>666.8</ele>
        <time>2022-07-17T08:53:40Z</time>
      </trkpt>
      <trkpt lat="44.31333" lon="5.19629">
        <ele>666.9</ele>
        <time>2022-07-17T08:53:41Z</time>
      </trkpt>
      <trkpt lat="44.31334" lon="5.1963">
        <ele>667.1</ele>
        <time>2022-07-17T08:53:42Z</time>
      </trkpt>
      <trkpt lat="44.31335" lon="5.19631">
        <ele>667.2</ele>
        <time>2022-07-17T08:53:43Z</time>
      </trkpt>
      <trkpt lat="44.31335" lon="5.19633">
        <ele>667.3</ele>
        <time>2022-07-17T08:53:44Z</time>
      </trkpt>
      <trkpt lat="44.31336" lon="5.19634">
        <ele>667.5</ele>
        <time>2022-07-17T08:53:45Z</time>
      </trkpt>
      <trkpt lat="44.31338" lon="5.19636">
        <ele>667.7</ele>
        <time>2022-07-17T08:53:46Z</time>
      </trkpt>
      <trkpt lat="44.31338" lon="5.19636">
        <ele>667.8</ele>
        <time>2022-07-17T08:53:47Z</time>
      </trkpt>
      <trkpt lat="44.31339" lon="5.19637">
        <ele>667.9</ele>
        <time>2022-07-17T08:53:48Z</time>
      </trkpt>
      <trkpt lat="44.3134" lon="5.19639">
        <ele>668.2</ele>
        <time>2022-07-17T08:53:49Z</time>
      </trkpt>
      <trkpt lat="44.31341" lon="5.1964">
        <ele>668.3</ele>
        <time>2022-07-17T08:53:50Z</time>
      </trkpt>
      <trkpt lat="44.31342" lon="5.19641">
        <ele>668.4</ele>
        <time>2022-07-17T08:53:51Z</time>
      </trkpt>
      <trkpt lat="44.31343" lon="5.19642">
        <ele>668.6</ele>
        <time>2022-07-17T08:53:52Z</time>
      </trkpt>
      <trkpt lat="44.31344" lon="5.19644">
        <ele>668.8</ele>
        <time>2022-07-17T08:53:53Z</time>
      </trkpt>
      <trkpt lat="44.31345" lon="5.19645">
        <ele>668.9</ele>
        <time>2022-07-17T08:53:54Z</time>
      </trkpt>
      <trkpt lat="44.31346" lon="5.19645">
        <ele>669.1</ele>
        <time>2022-07-17T08:53:55Z</time>
      </trkpt>
      <trkpt lat="44.31347" lon="5.19646">
        <ele>669.2</ele>
        <time>2022-07-17T08:53:56Z</time>
      </trkpt>
      <trkpt lat="44.31348" lon="5.19647">
        <ele>669.4</ele>
        <time>2022-07-17T08:53:57Z</time>
      </trkpt>
      <trkpt lat="44.31349" lon="5.19647">
        <ele>669.6</ele>
        <time>2022-07-17T08:53:58Z</time>
      </trkpt>
      <trkpt lat="44.3135" lon="5.19648">
        <ele>669.7</ele>
        <time>2022-07-17T08:53:59Z</time>
      </trkpt>
      <trkpt lat="44.31352" lon="5.1965">
        <ele>670.1</ele>
        <time>2022-07-17T08:54:00Z</time>
      </trkpt>
      <trkpt lat="44.31353" lon="5.19651">
        <ele>670.2</ele>
        <time>2022-07-17T08:54:01Z</time>
      </trkpt>
      <trkpt lat="44.31353" lon="5.19651">
        <ele>670.3</ele>
        <time>2022-07-17T08:54:02Z</time>
      </trkpt>
      <trkpt lat="44.31355" lon="5.19652">
        <ele>670.5</ele>
        <time>2022-07-17T08:54:03Z</time>
      </trkpt>
      <trkpt lat="44.31356" lon="5.19653">
        <ele>670.7</ele>
        <time>2022-07-17T08:54:04Z</time>
      </trkpt>
      <trkpt lat="44.31358" lon="5.19654">
        <ele>671</ele>
        <time>2022-07-17T08:54:05Z</time>
      </trkpt>
      <trkpt lat="44.31359" lon="5.19654">
        <ele>671.1</ele>
        <time>2022-07-17T08:54:06Z</time>
      </trkpt>
      <trkpt lat="44.3136" lon="5.19655">
        <ele>671.3</ele>
        <time>2022-07-17T08:54:07Z</time>
      </trkpt>
      <trkpt lat="44.31361" lon="5.19656">
        <ele>671.5</ele>
        <time>2022-07-17T08:54:08Z</time>
      </trkpt>
      <trkpt lat="44.31362" lon="5.19656">
        <ele>671.7</ele>
        <time>2022-07-17T08:54:09Z</time>
      </trkpt>
      <trkpt lat="44.31364" lon="5.19657">
        <ele>672</ele>
        <time>2022-07-17T08:54:10Z</time>
      </trkpt>
      <trkpt lat="44.31365" lon="5.19658">
        <ele>672.1</ele>
        <time>2022-07-17T08:54:11Z</time>
      </trkpt>
      <trkpt lat="44.31366" lon="5.19658">
        <ele>672.2</ele>
        <time>2022-07-17T08:54:12Z</time>
      </trkpt>
      <trkpt lat="44.31368" lon="5.19659">
        <ele>672.4</ele>
        <time>2022-07-17T08:54:13Z</time>
      </trkpt>
      <trkpt lat="44.31369" lon="5.19659">
        <ele>672.5</ele>
        <time>2022-07-17T08:54:14Z</time>
      </trkpt>
      <trkpt lat="44.31369" lon="5.1966">
        <ele>672.6</ele>
        <time>2022-07-17T08:54:15Z</time>
      </trkpt>
      <trkpt lat="44.3137" lon="5.1966">
        <ele>672.8</ele>
        <time>2022-07-17T08:54:16Z</time>
      </trkpt>
      <trkpt lat="44.31372" lon="5.19661">
        <ele>673</ele>
        <time>2022-07-17T08:54:17Z</time>
      </trkpt>
      <trkpt lat="44.31373" lon="5.19662">
        <ele>673.1</ele>
        <time>2022-07-17T08:54:18Z</time>
      </trkpt>
      <trkpt lat="44.31374" lon="5.19662">
        <ele>673.2</ele>
        <time>2022-07-17T08:54:19Z</time>
      </trkpt>
      <trkpt lat="44.31375" lon="5.19663">
        <ele>673.4</ele>
        <time>2022-07-17T08:54:20Z</time>
      </trkpt>
      <trkpt lat="44.31376" lon="5.19663">
        <ele>673.5</ele>
        <time>2022-07-17T08:54:21Z</time>
      </trkpt>
      <trkpt lat="44.31377" lon="5.19664">
        <ele>673.7</ele>
        <time>2022-07-17T08:54:22Z</time>
      </trkpt>
      <trkpt lat="44.31379" lon="5.19665">
        <ele>673.9</ele>
        <time>2022-07-17T08:54:23Z</time>
      </trkpt>
      <trkpt lat="44.3138" lon="5.19666">
        <ele>674.1</ele>
        <time>2022-07-17T08:54:24Z</time>
      </trkpt>
      <trkpt lat="44.31381" lon="5.19667">
        <ele>674.3</ele>
        <time>2022-07-17T08:54:25Z</time>
      </trkpt>
      <trkpt lat="44.31383" lon="5.19668">
        <ele>674.5</ele>
        <time>2022-07-17T08:54:26Z</time>
      </trkpt>
      <trkpt lat="44.31384" lon="5.19669">
        <ele>674.7</ele>
        <time>2022-07-17T08:54:27Z</time>
      </trkpt>
      <trkpt lat="44.31385" lon="5.19669">
        <ele>674.8</ele>
        <time>2022-07-17T08:54:28Z</time>
      </trkpt>
      <trkpt lat="44.31386" lon="5.1967">
        <ele>675</ele>
        <time>2022-07-17T08:54:29Z</time>
      </trkpt>
      <trkpt lat="44.31387" lon="5.19671">
        <ele>675.1</ele>
        <time>2022-07-17T08:54:30Z</time>
      </trkpt>
      <trkpt lat="44.31389" lon="5.19672">
        <ele>675.3</ele>
        <time>2022-07-17T08:54:31Z</time>
      </trkpt>
      <trkpt lat="44.3139" lon="5.19672">
        <ele>675.5</ele>
        <time>2022-07-17T08:54:32Z</time>
      </trkpt>
      <trkpt lat="44.31391" lon="5.19673">
        <ele>675.6</ele>
        <time>2022-07-17T08:54:33Z</time>
      </trkpt>
      <trkpt lat="44.31392" lon="5.19674">
        <ele>675.8</ele>
        <time>2022-07-17T08:54:34Z</time>
      </trkpt>
      <trkpt lat="44.31394" lon="5.19675">
        <ele>676</ele>
        <time>2022-07-17T08:54:35Z</time>
      </trkpt>
      <trkpt lat="44.31395" lon="5.19675">
        <ele>676.1</ele>
        <time>2022-07-17T08:54:36Z</time>
      </trkpt>
      <trkpt lat="44.31396" lon="5.19676">
        <ele>676.2</ele>
        <time>2022-07-17T08:54:37Z</time>
      </trkpt>
      <trkpt lat="44.31398" lon="5.19677">
        <ele>676.4</ele>
        <time>2022-07-17T08:54:38Z</time>
      </trkpt>
      <trkpt lat="44.31398" lon="5.19677">
        <ele>676.5</ele>
        <time>2022-07-17T08:54:39Z</time>
      </trkpt>
      <trkpt lat="44.31399" lon="5.19678">
        <ele>676.6</ele>
        <time>2022-07-17T08:54:40Z</time>
      </trkpt>
      <trkpt lat="44.31401" lon="5.19679">
        <ele>676.8</ele>
        <time>2022-07-17T08:54:41Z</time>
      </trkpt>
      <trkpt lat="44.31402" lon="5.1968">
        <ele>676.9</ele>
        <time>2022-07-17T08:54:42Z</time>
      </trkpt>
      <trkpt lat="44.31403" lon="5.1968">
        <ele>676.9</ele>
        <time>2022-07-17T08:54:43Z</time>
      </trkpt>
      <trkpt lat="44.31404" lon="5.19681">
        <ele>677.1</ele>
        <time>2022-07-17T08:54:44Z</time>
      </trkpt>
      <trkpt lat="44.31404" lon="5.19681">
        <ele>677.2</ele>
        <time>2022-07-17T08:54:45Z</time>
      </trkpt>
      <trkpt lat="44.31405" lon="5.19682">
        <ele>677.3</ele>
        <time>2022-07-17T08:54:46Z</time>
      </trkpt>
      <trkpt lat="44.31407" lon="5.19683">
        <ele>677.4</ele>
        <time>2022-07-17T08:54:47Z</time>
      </trkpt>
      <trkpt lat="44.31408" lon="5.19683">
        <ele>677.6</ele>
        <time>2022-07-17T08:54:48Z</time>
      </trkpt>
      <trkpt lat="44.31409" lon="5.19684">
        <ele>677.7</ele>
        <time>2022-07-17T08:54:49Z</time>
      </trkpt>
      <trkpt lat="44.31411" lon="5.19685">
        <ele>677.8</ele>
        <time>2022-07-17T08:54:50Z</time>
      </trkpt>
      <trkpt lat="44.31412" lon="5.19686">
        <ele>678</ele>
        <time>2022-07-17T08:54:51Z</time>
      </trkpt>
      <trkpt lat="44.31413" lon="5.19687">
        <ele>678.1</ele>
        <time>2022-07-17T08:54:52Z</time>
      </trkpt>
      <trkpt lat="44.31415" lon="5.19688">
        <ele>678.3</ele>
        <time>2022-07-17T08:54:53Z</time>
      </trkpt>
      <trkpt lat="44.31416" lon="5.19689">
        <ele>678.4</ele>
        <time>2022-07-17T08:54:54Z</time>
      </trkpt>
      <trkpt lat="44.31416" lon="5.19689">
        <ele>678.5</ele>
        <time>2022-07-17T08:54:55Z</time>
      </trkpt>
      <trkpt lat="44.31418" lon="5.1969">
        <ele>678.6</ele>
        <time>2022-07-17T08:54:56Z</time>
      </trkpt>
      <trkpt lat="44.31419" lon="5.19691">
        <ele>678.7</ele>
        <time>2022-07-17T08:54:57Z</time>
      </trkpt>
      <trkpt lat="44.3142" lon="5.19691">
        <ele>678.8</ele>
        <time>2022-07-17T08:54:58Z</time>
      </trkpt>
      <trkpt lat="44.31422" lon="5.19693">
        <ele>679</ele>
        <time>2022-07-17T08:54:59Z</time>
      </trkpt>
      <trkpt lat="44.31422" lon="5.19693">
        <ele>679</ele>
        <time>2022-07-17T08:55:00Z</time>
      </trkpt>
      <trkpt lat="44.31423" lon="5.19693">
        <ele>679.1</ele>
        <time>2022-07-17T08:55:01Z</time>
      </trkpt>
      <trkpt lat="44.31424" lon="5.19694">
        <ele>679.2</ele>
        <time>2022-07-17T08:55:02Z</time>
      </trkpt>
      <trkpt lat="44.31425" lon="5.19694">
        <ele>679.2</ele>
        <time>2022-07-17T08:55:03Z</time>
      </trkpt>
      <trkpt lat="44.31426" lon="5.19695">
        <ele>679.3</ele>
        <time>2022-07-17T08:55:04Z</time>
      </trkpt>
      <trkpt lat="44.31427" lon="5.19696">
        <ele>679.4</ele>
        <time>2022-07-17T08:55:05Z</time>
      </trkpt>
      <trkpt lat="44.31429" lon="5.19697">
        <ele>679.5</ele>
        <time>2022-07-17T08:55:06Z</time>
      </trkpt>
      <trkpt lat="44.3143" lon="5.19698">
        <ele>679.6</ele>
        <time>2022-07-17T08:55:07Z</time>
      </trkpt>
      <trkpt lat="44.31431" lon="5.19699">
        <ele>679.7</ele>
        <time>2022-07-17T08:55:08Z</time>
      </trkpt>
      <trkpt lat="44.31433" lon="5.19699">
        <ele>679.8</ele>
        <time>2022-07-17T08:55:09Z</time>
      </trkpt>
      <trkpt lat="44.31434" lon="5.197">
        <ele>680</ele>
        <time>2022-07-17T08:55:10Z</time>
      </trkpt>
      <trkpt lat="44.31436" lon="5.19701">
        <ele>680.1</ele>
        <time>2022-07-17T08:55:11Z</time>
      </trkpt>
      <trkpt lat="44.31437" lon="5.19702">
        <ele>680.2</ele>
        <time>2022-07-17T08:55:12Z</time>
      </trkpt>
      <trkpt lat="44.31438" lon="5.19702">
        <ele>680.3</ele>
        <time>2022-07-17T08:55:13Z</time>
      </trkpt>
      <trkpt lat="44.31439" lon="5.19703">
        <ele>680.4</ele>
        <time>2022-07-17T08:55:14Z</time>
      </trkpt>
      <trkpt lat="44.3144" lon="5.19704">
        <ele>680.5</ele>
        <time>2022-07-17T08:55:15Z</time>
      </trkpt>
      <trkpt lat="44.31442" lon="5.19705">
        <ele>680.7</ele>
        <time>2022-07-17T08:55:16Z</time>
      </trkpt>
      <trkpt lat="44.31443" lon="5.19706">
        <ele>680.8</ele>
        <time>2022-07-17T08:55:17Z</time>
      </trkpt>
      <trkpt lat="44.31444" lon="5.19707">
        <ele>680.9</ele>
        <time>2022-07-17T08:55:18Z</time>
      </trkpt>
      <trkpt lat="44.31445" lon="5.19708">
        <ele>681</ele>
        <time>2022-07-17T08:55:19Z</time>
      </trkpt>
      <trkpt lat="44.31446" lon="5.19709">
        <ele>681.1</ele>
        <time>2022-07-17T08:55:20Z</time>
      </trkpt>
      <trkpt lat="44.31447" lon="5.1971">
        <ele>681.2</ele>
        <time>2022-07-17T08:55:21Z</time>
      </trkpt>
      <trkpt lat="44.31449" lon="5.19711">
        <ele>681.4</ele>
        <time>2022-07-17T08:55:22Z</time>
      </trkpt>
      <trkpt lat="44.3145" lon="5.19712">
        <ele>681.5</ele>
        <time>2022-07-17T08:55:23Z</time>
      </trkpt>
      <trkpt lat="44.31451" lon="5.19712">
        <ele>681.6</ele>
        <time>2022-07-17T08:55:24Z</time>
      </trkpt>
      <trkpt lat="44.31452" lon="5.19713">
        <ele>681.7</ele>
        <time>2022-07-17T08:55:25Z</time>
      </trkpt>
      <trkpt lat="44.31454" lon="5.19714">
        <ele>681.8</ele>
        <time>2022-07-17T08:55:26Z</time>
      </trkpt>
      <trkpt lat="44.31455" lon="5.19715">
        <ele>682</ele>
        <time>2022-07-17T08:55:27Z</time>
      </trkpt>
      <trkpt lat="44.31456" lon="5.19716">
        <ele>682</ele>
        <time>2022-07-17T08:55:28Z</time>
      </trkpt>
      <trkpt lat="44.31457" lon="5.19717">
        <ele>682.1</ele>
        <time>2022-07-17T08:55:29Z</time>
      </trkpt>
      <trkpt lat="44.31458" lon="5.19718">
        <ele>682.3</ele>
        <time>2022-07-17T08:55:30Z</time>
      </trkpt>
      <trkpt lat="44.31459" lon="5.19719">
        <ele>682.3</ele>
        <time>2022-07-17T08:55:31Z</time>
      </trkpt>
      <trkpt lat="44.3146" lon="5.1972">
        <ele>682.4</ele>
        <time>2022-07-17T08:55:32Z</time>
      </trkpt>
      <trkpt lat="44.31461" lon="5.19722">
        <ele>682.6</ele>
        <time>2022-07-17T08:55:33Z</time>
      </trkpt>
      <trkpt lat="44.31462" lon="5.19722">
        <ele>682.6</ele>
        <time>2022-07-17T08:55:34Z</time>
      </trkpt>
      <trkpt lat="44.31463" lon="5.19723">
        <ele>682.7</ele>
        <time>2022-07-17T08:55:35Z</time>
      </trkpt>
      <trkpt lat="44.31464" lon="5.19724">
        <ele>682.8</ele>
        <time>2022-07-17T08:55:36Z</time>
      </trkpt>
      <trkpt lat="44.31465" lon="5.19725">
        <ele>682.9</ele>
        <time>2022-07-17T08:55:37Z</time>
      </trkpt>
      <trkpt lat="44.31466" lon="5.19726">
        <ele>683.1</ele>
        <time>2022-07-17T08:55:38Z</time>
      </trkpt>
      <trkpt lat="44.31468" lon="5.19727">
        <ele>683.2</ele>
        <time>2022-07-17T08:55:39Z</time>
      </trkpt>
      <trkpt lat="44.31469" lon="5.19729">
        <ele>683.4</ele>
        <time>2022-07-17T08:55:40Z</time>
      </trkpt>
      <trkpt lat="44.3147" lon="5.1973">
        <ele>683.5</ele>
        <time>2022-07-17T08:55:41Z</time>
      </trkpt>
      <trkpt lat="44.31472" lon="5.19731">
        <ele>683.7</ele>
        <time>2022-07-17T08:55:42Z</time>
      </trkpt>
      <trkpt lat="44.31473" lon="5.19731">
        <ele>683.8</ele>
        <time>2022-07-17T08:55:43Z</time>
      </trkpt>
      <trkpt lat="44.31475" lon="5.19733">
        <ele>684</ele>
        <time>2022-07-17T08:55:44Z</time>
      </trkpt>
      <trkpt lat="44.31476" lon="5.19734">
        <ele>684.1</ele>
        <time>2022-07-17T08:55:45Z</time>
      </trkpt>
      <trkpt lat="44.31476" lon="5.19734">
        <ele>684.2</ele>
        <time>2022-07-17T08:55:46Z</time>
      </trkpt>
      <trkpt lat="44.31477" lon="5.19735">
        <ele>684.3</ele>
        <time>2022-07-17T08:55:47Z</time>
      </trkpt>
      <trkpt lat="44.31479" lon="5.19737">
        <ele>684.5</ele>
        <time>2022-07-17T08:55:48Z</time>
      </trkpt>
      <trkpt lat="44.3148" lon="5.19738">
        <ele>684.6</ele>
        <time>2022-07-17T08:55:49Z</time>
      </trkpt>
      <trkpt lat="44.31481" lon="5.19739">
        <ele>684.7</ele>
        <time>2022-07-17T08:55:50Z</time>
      </trkpt>
      <trkpt lat="44.31482" lon="5.19741">
        <ele>684.8</ele>
        <time>2022-07-17T08:55:51Z</time>
      </trkpt>
      <trkpt lat="44.31483" lon="5.19742">
        <ele>684.9</ele>
        <time>2022-07-17T08:55:52Z</time>
      </trkpt>
      <trkpt lat="44.31485" lon="5.19743">
        <ele>685</ele>
        <time>2022-07-17T08:55:53Z</time>
      </trkpt>
      <trkpt lat="44.31486" lon="5.19744">
        <ele>685.1</ele>
        <time>2022-07-17T08:55:54Z</time>
      </trkpt>
      <trkpt lat="44.31488" lon="5.19744">
        <ele>685.2</ele>
        <time>2022-07-17T08:55:55Z</time>
      </trkpt>
      <trkpt lat="44.31489" lon="5.19745">
        <ele>685.3</ele>
        <time>2022-07-17T08:55:56Z</time>
      </trkpt>
      <trkpt lat="44.31491" lon="5.19746">
        <ele>685.3</ele>
        <time>2022-07-17T08:55:57Z</time>
      </trkpt>
      <trkpt lat="44.31492" lon="5.19747">
        <ele>685.4</ele>
        <time>2022-07-17T08:55:58Z</time>
      </trkpt>
      <trkpt lat="44.31493" lon="5.19748">
        <ele>685.5</ele>
        <time>2022-07-17T08:55:59Z</time>
      </trkpt>
      <trkpt lat="44.31495" lon="5.19748">
        <ele>685.6</ele>
        <time>2022-07-17T08:56:00Z</time>
      </trkpt>
      <trkpt lat="44.31496" lon="5.19749">
        <ele>685.6</ele>
        <time>2022-07-17T08:56:01Z</time>
      </trkpt>
      <trkpt lat="44.31497" lon="5.1975">
        <ele>685.7</ele>
        <time>2022-07-17T08:56:02Z</time>
      </trkpt>
      <trkpt lat="44.31498" lon="5.1975">
        <ele>685.7</ele>
        <time>2022-07-17T08:56:03Z</time>
      </trkpt>
      <trkpt lat="44.315" lon="5.1975">
        <ele>685.8</ele>
        <time>2022-07-17T08:56:04Z</time>
      </trkpt>
      <trkpt lat="44.31501" lon="5.19751">
        <ele>685.8</ele>
        <time>2022-07-17T08:56:05Z</time>
      </trkpt>
      <trkpt lat="44.31504" lon="5.19752">
        <ele>685.9</ele>
        <time>2022-07-17T08:56:06Z</time>
      </trkpt>
      <trkpt lat="44.31505" lon="5.19753">
        <ele>685.9</ele>
        <time>2022-07-17T08:56:07Z</time>
      </trkpt>
      <trkpt lat="44.31507" lon="5.19755">
        <ele>686</ele>
        <time>2022-07-17T08:56:08Z</time>
      </trkpt>
      <trkpt lat="44.31508" lon="5.19755">
        <ele>686.1</ele>
        <time>2022-07-17T08:56:09Z</time>
      </trkpt>
      <trkpt lat="44.31511" lon="5.19757">
        <ele>686.1</ele>
        <time>2022-07-17T08:56:10Z</time>
      </trkpt>
      <trkpt lat="44.31512" lon="5.19757">
        <ele>686.2</ele>
        <time>2022-07-17T08:56:11Z</time>
      </trkpt>
      <trkpt lat="44.31515" lon="5.19759">
        <ele>686.3</ele>
        <time>2022-07-17T08:56:12Z</time>
      </trkpt>
      <trkpt lat="44.31516" lon="5.19759">
        <ele>686.3</ele>
        <time>2022-07-17T08:56:13Z</time>
      </trkpt>
      <trkpt lat="44.31517" lon="5.19759">
        <ele>686.3</ele>
        <time>2022-07-17T08:56:14Z</time>
      </trkpt>
      <trkpt lat="44.31519" lon="5.1976">
        <ele>686.4</ele>
        <time>2022-07-17T08:56:15Z</time>
      </trkpt>
      <trkpt lat="44.31522" lon="5.19762">
        <ele>686.5</ele>
        <time>2022-07-17T08:56:16Z</time>
      </trkpt>
      <trkpt lat="44.31523" lon="5.19763">
        <ele>686.5</ele>
        <time>2022-07-17T08:56:17Z</time>
      </trkpt>
      <trkpt lat="44.31526" lon="5.19765">
        <ele>686.6</ele>
        <time>2022-07-17T08:56:18Z</time>
      </trkpt>
      <trkpt lat="44.31527" lon="5.19766">
        <ele>686.6</ele>
        <time>2022-07-17T08:56:19Z</time>
      </trkpt>
      <trkpt lat="44.31529" lon="5.19767">
        <ele>686.7</ele>
        <time>2022-07-17T08:56:20Z</time>
      </trkpt>
      <trkpt lat="44.3153" lon="5.19767">
        <ele>686.8</ele>
        <time>2022-07-17T08:56:21Z</time>
      </trkpt>
      <trkpt lat="44.31534" lon="5.19768">
        <ele>686.8</ele>
        <time>2022-07-17T08:56:22Z</time>
      </trkpt>
      <trkpt lat="44.31535" lon="5.19769">
        <ele>686.9</ele>
        <time>2022-07-17T08:56:23Z</time>
      </trkpt>
      <trkpt lat="44.31538" lon="5.19771">
        <ele>686.9</ele>
        <time>2022-07-17T08:56:24Z</time>
      </trkpt>
      <trkpt lat="44.31539" lon="5.19771">
        <ele>686.9</ele>
        <time>2022-07-17T08:56:25Z</time>
      </trkpt>
      <trkpt lat="44.31542" lon="5.19773">
        <ele>687</ele>
        <time>2022-07-17T08:56:26Z</time>
      </trkpt>
      <trkpt lat="44.31543" lon="5.19774">
        <ele>687</ele>
        <time>2022-07-17T08:56:27Z</time>
      </trkpt>
      <trkpt lat="44.31546" lon="5.19775">
        <ele>686.9</ele>
        <time>2022-07-17T08:56:28Z</time>
      </trkpt>
      <trkpt lat="44.31546" lon="5.19776">
        <ele>686.9</ele>
        <time>2022-07-17T08:56:29Z</time>
      </trkpt>
      <trkpt lat="44.3155" lon="5.19778">
        <ele>686.9</ele>
        <time>2022-07-17T08:56:30Z</time>
      </trkpt>
      <trkpt lat="44.31551" lon="5.19779">
        <ele>686.9</ele>
        <time>2022-07-17T08:56:31Z</time>
      </trkpt>
      <trkpt lat="44.31553" lon="5.1978">
        <ele>686.8</ele>
        <time>2022-07-17T08:56:32Z</time>
      </trkpt>
      <trkpt lat="44.31556" lon="5.19782">
        <ele>686.7</ele>
        <time>2022-07-17T08:56:33Z</time>
      </trkpt>
      <trkpt lat="44.31559" lon="5.19783">
        <ele>686.7</ele>
        <time>2022-07-17T08:56:34Z</time>
      </trkpt>
      <trkpt lat="44.31562" lon="5.19785">
        <ele>686.6</ele>
        <time>2022-07-17T08:56:35Z</time>
      </trkpt>
      <trkpt lat="44.31565" lon="5.19787">
        <ele>686.5</ele>
        <time>2022-07-17T08:56:36Z</time>
      </trkpt>
      <trkpt lat="44.31568" lon="5.19788">
        <ele>686.3</ele>
        <time>2022-07-17T08:56:37Z</time>
      </trkpt>
      <trkpt lat="44.31571" lon="5.1979">
        <ele>686.2</ele>
        <time>2022-07-17T08:56:38Z</time>
      </trkpt>
      <trkpt lat="44.31574" lon="5.19792">
        <ele>686.1</ele>
        <time>2022-07-17T08:56:39Z</time>
      </trkpt>
      <trkpt lat="44.31577" lon="5.19794">
        <ele>685.9</ele>
        <time>2022-07-17T08:56:40Z</time>
      </trkpt>
      <trkpt lat="44.3158" lon="5.19795">
        <ele>685.8</ele>
        <time>2022-07-17T08:56:41Z</time>
      </trkpt>
      <trkpt lat="44.31583" lon="5.19797">
        <ele>685.6</ele>
        <time>2022-07-17T08:56:42Z</time>
      </trkpt>
      <trkpt lat="44.31586" lon="5.198">
        <ele>685.4</ele>
        <time>2022-07-17T08:56:43Z</time>
      </trkpt>
      <trkpt lat="44.31589" lon="5.19802">
        <ele>685.3</ele>
        <time>2022-07-17T08:56:44Z</time>
      </trkpt>
      <trkpt lat="44.31592" lon="5.19805">
        <ele>685.1</ele>
        <time>2022-07-17T08:56:45Z</time>
      </trkpt>
      <trkpt lat="44.31596" lon="5.19808">
        <ele>684.8</ele>
        <time>2022-07-17T08:56:46Z</time>
      </trkpt>
      <trkpt lat="44.31601" lon="5.19813">
        <ele>684.3</ele>
        <time>2022-07-17T08:56:47Z</time>
      </trkpt>
      <trkpt lat="44.31607" lon="5.19817">
        <ele>683.9</ele>
        <time>2022-07-17T08:56:48Z</time>
      </trkpt>
      <trkpt lat="44.31612" lon="5.19819">
        <ele>683.7</ele>
        <time>2022-07-17T08:56:49Z</time>
      </trkpt>
      <trkpt lat="44.31617" lon="5.19819">
        <ele>683.7</ele>
        <time>2022-07-17T08:56:50Z</time>
      </trkpt>
      <trkpt lat="44.31622" lon="5.19818">
        <ele>684</ele>
        <time>2022-07-17T08:56:51Z</time>
      </trkpt>
      <trkpt lat="44.31624" lon="5.19815">
        <ele>684.4</ele>
        <time>2022-07-17T08:56:52Z</time>
      </trkpt>
      <trkpt lat="44.31627" lon="5.19812">
        <ele>684.8</ele>
        <time>2022-07-17T08:56:53Z</time>
      </trkpt>
      <trkpt lat="44.31628" lon="5.19812">
        <ele>685</ele>
        <time>2022-07-17T08:56:54Z</time>
      </trkpt>
      <trkpt lat="44.31631" lon="5.1981">
        <ele>685.4</ele>
        <time>2022-07-17T08:56:55Z</time>
      </trkpt>
      <trkpt lat="44.31631" lon="5.19809">
        <ele>685.6</ele>
        <time>2022-07-17T08:56:56Z</time>
      </trkpt>
      <trkpt lat="44.31633" lon="5.19809">
        <ele>685.9</ele>
        <time>2022-07-17T08:56:57Z</time>
      </trkpt>
      <trkpt lat="44.31635" lon="5.19808">
        <ele>686.2</ele>
        <time>2022-07-17T08:56:58Z</time>
      </trkpt>
      <trkpt lat="44.31638" lon="5.19808">
        <ele>686.8</ele>
        <time>2022-07-17T08:56:59Z</time>
      </trkpt>
      <trkpt lat="44.31639" lon="5.19808">
        <ele>687</ele>
        <time>2022-07-17T08:57:00Z</time>
      </trkpt>
      <trkpt lat="44.31641" lon="5.19808">
        <ele>687.2</ele>
        <time>2022-07-17T08:57:01Z</time>
      </trkpt>
      <trkpt lat="44.31642" lon="5.19808">
        <ele>687.4</ele>
        <time>2022-07-17T08:57:02Z</time>
      </trkpt>
      <trkpt lat="44.31644" lon="5.19809">
        <ele>687.7</ele>
        <time>2022-07-17T08:57:03Z</time>
      </trkpt>
      <trkpt lat="44.31645" lon="5.1981">
        <ele>687.8</ele>
        <time>2022-07-17T08:57:04Z</time>
      </trkpt>
      <trkpt lat="44.31646" lon="5.19811">
        <ele>688</ele>
        <time>2022-07-17T08:57:05Z</time>
      </trkpt>
      <trkpt lat="44.31647" lon="5.19811">
        <ele>688.1</ele>
        <time>2022-07-17T08:57:06Z</time>
      </trkpt>
      <trkpt lat="44.31648" lon="5.19812">
        <ele>688.2</ele>
        <time>2022-07-17T08:57:07Z</time>
      </trkpt>
      <trkpt lat="44.31649" lon="5.19812">
        <ele>688.3</ele>
        <time>2022-07-17T08:57:08Z</time>
      </trkpt>
      <trkpt lat="44.31651" lon="5.19813">
        <ele>688.5</ele>
        <time>2022-07-17T08:57:09Z</time>
      </trkpt>
      <trkpt lat="44.31652" lon="5.19813">
        <ele>688.6</ele>
        <time>2022-07-17T08:57:10Z</time>
      </trkpt>
      <trkpt lat="44.31654" lon="5.19813">
        <ele>688.7</ele>
        <time>2022-07-17T08:57:11Z</time>
      </trkpt>
      <trkpt lat="44.31656" lon="5.19814">
        <ele>688.8</ele>
        <time>2022-07-17T08:57:12Z</time>
      </trkpt>
      <trkpt lat="44.31657" lon="5.19815">
        <ele>689</ele>
        <time>2022-07-17T08:57:13Z</time>
      </trkpt>
      <trkpt lat="44.31659" lon="5.19815">
        <ele>689</ele>
        <time>2022-07-17T08:57:14Z</time>
      </trkpt>
      <trkpt lat="44.3166" lon="5.19816">
        <ele>689.2</ele>
        <time>2022-07-17T08:57:15Z</time>
      </trkpt>
      <trkpt lat="44.31662" lon="5.19817">
        <ele>689.2</ele>
        <time>2022-07-17T08:57:16Z</time>
      </trkpt>
      <trkpt lat="44.31663" lon="5.19817">
        <ele>689.3</ele>
        <time>2022-07-17T08:57:17Z</time>
      </trkpt>
      <trkpt lat="44.31665" lon="5.19818">
        <ele>689.4</ele>
        <time>2022-07-17T08:57:18Z</time>
      </trkpt>
      <trkpt lat="44.31666" lon="5.19819">
        <ele>689.5</ele>
        <time>2022-07-17T08:57:19Z</time>
      </trkpt>
      <trkpt lat="44.31667" lon="5.1982">
        <ele>689.5</ele>
        <time>2022-07-17T08:57:20Z</time>
      </trkpt>
      <trkpt lat="44.31668" lon="5.1982">
        <ele>689.6</ele>
        <time>2022-07-17T08:57:21Z</time>
      </trkpt>
      <trkpt lat="44.31669" lon="5.19821">
        <ele>689.6</ele>
        <time>2022-07-17T08:57:22Z</time>
      </trkpt>
      <trkpt lat="44.3167" lon="5.19822">
        <ele>689.7</ele>
        <time>2022-07-17T08:57:23Z</time>
      </trkpt>
      <trkpt lat="44.31671" lon="5.19823">
        <ele>689.7</ele>
        <time>2022-07-17T08:57:24Z</time>
      </trkpt>
      <trkpt lat="44.31672" lon="5.19824">
        <ele>689.8</ele>
        <time>2022-07-17T08:57:25Z</time>
      </trkpt>
      <trkpt lat="44.31673" lon="5.19824">
        <ele>689.8</ele>
        <time>2022-07-17T08:57:26Z</time>
      </trkpt>
      <trkpt lat="44.31674" lon="5.19825">
        <ele>689.9</ele>
        <time>2022-07-17T08:57:27Z</time>
      </trkpt>
      <trkpt lat="44.31675" lon="5.19826">
        <ele>689.9</ele>
        <time>2022-07-17T08:57:28Z</time>
      </trkpt>
      <trkpt lat="44.31678" lon="5.19827">
        <ele>690</ele>
        <time>2022-07-17T08:57:29Z</time>
      </trkpt>
      <trkpt lat="44.31678" lon="5.19827">
        <ele>690</ele>
        <time>2022-07-17T08:57:30Z</time>
      </trkpt>
      <trkpt lat="44.31679" lon="5.19828">
        <ele>690</ele>
        <time>2022-07-17T08:57:31Z</time>
      </trkpt>
      <trkpt lat="44.31681" lon="5.19829">
        <ele>690.1</ele>
        <time>2022-07-17T08:57:32Z</time>
      </trkpt>
      <trkpt lat="44.31683" lon="5.1983">
        <ele>690.1</ele>
        <time>2022-07-17T08:57:33Z</time>
      </trkpt>
      <trkpt lat="44.31684" lon="5.19831">
        <ele>690.2</ele>
        <time>2022-07-17T08:57:34Z</time>
      </trkpt>
      <trkpt lat="44.31685" lon="5.19831">
        <ele>690.2</ele>
        <time>2022-07-17T08:57:35Z</time>
      </trkpt>
      <trkpt lat="44.31686" lon="5.19832">
        <ele>690.3</ele>
        <time>2022-07-17T08:57:36Z</time>
      </trkpt>
      <trkpt lat="44.31688" lon="5.19833">
        <ele>690.3</ele>
        <time>2022-07-17T08:57:37Z</time>
      </trkpt>
      <trkpt lat="44.31689" lon="5.19833">
        <ele>690.3</ele>
        <time>2022-07-17T08:57:38Z</time>
      </trkpt>
      <trkpt lat="44.3169" lon="5.19834">
        <ele>690.4</ele>
        <time>2022-07-17T08:57:39Z</time>
      </trkpt>
      <trkpt lat="44.31692" lon="5.19835">
        <ele>690.5</ele>
        <time>2022-07-17T08:57:40Z</time>
      </trkpt>
      <trkpt lat="44.31693" lon="5.19836">
        <ele>690.6</ele>
        <time>2022-07-17T08:57:41Z</time>
      </trkpt>
      <trkpt lat="44.31694" lon="5.19836">
        <ele>690.6</ele>
        <time>2022-07-17T08:57:42Z</time>
      </trkpt>
      <trkpt lat="44.31695" lon="5.19837">
        <ele>690.7</ele>
        <time>2022-07-17T08:57:43Z</time>
      </trkpt>
      <trkpt lat="44.31696" lon="5.19837">
        <ele>690.8</ele>
        <time>2022-07-17T08:57:44Z</time>
      </trkpt>
      <trkpt lat="44.31697" lon="5.19838">
        <ele>690.9</ele>
        <time>2022-07-17T08:57:45Z</time>
      </trkpt>
      <trkpt lat="44.31699" lon="5.1984">
        <ele>691.1</ele>
        <time>2022-07-17T08:57:46Z</time>
      </trkpt>
      <trkpt lat="44.31699" lon="5.19841">
        <ele>691.2</ele>
        <time>2022-07-17T08:57:47Z</time>
      </trkpt>
      <trkpt lat="44.317" lon="5.19842">
        <ele>691.3</ele>
        <time>2022-07-17T08:57:48Z</time>
      </trkpt>
      <trkpt lat="44.31701" lon="5.19843">
        <ele>691.4</ele>
        <time>2022-07-17T08:57:49Z</time>
      </trkpt>
      <trkpt lat="44.31704" lon="5.19844">
        <ele>691.8</ele>
        <time>2022-07-17T08:57:50Z</time>
      </trkpt>
      <trkpt lat="44.31704" lon="5.19845">
        <ele>691.9</ele>
        <time>2022-07-17T08:57:51Z</time>
      </trkpt>
      <trkpt lat="44.31707" lon="5.19847">
        <ele>692.3</ele>
        <time>2022-07-17T08:57:52Z</time>
      </trkpt>
      <trkpt lat="44.31707" lon="5.19848">
        <ele>692.4</ele>
        <time>2022-07-17T08:57:53Z</time>
      </trkpt>
      <trkpt lat="44.31709" lon="5.1985">
        <ele>692.7</ele>
        <time>2022-07-17T08:57:54Z</time>
      </trkpt>
      <trkpt lat="44.3171" lon="5.19851">
        <ele>692.9</ele>
        <time>2022-07-17T08:57:55Z</time>
      </trkpt>
      <trkpt lat="44.31711" lon="5.19852">
        <ele>693.2</ele>
        <time>2022-07-17T08:57:56Z</time>
      </trkpt>
      <trkpt lat="44.31713" lon="5.19853">
        <ele>693.4</ele>
        <time>2022-07-17T08:57:57Z</time>
      </trkpt>
      <trkpt lat="44.31714" lon="5.19853">
        <ele>693.7</ele>
        <time>2022-07-17T08:57:58Z</time>
      </trkpt>
      <trkpt lat="44.31715" lon="5.19854">
        <ele>693.9</ele>
        <time>2022-07-17T08:57:59Z</time>
      </trkpt>
      <trkpt lat="44.31717" lon="5.19855">
        <ele>694.1</ele>
        <time>2022-07-17T08:58:00Z</time>
      </trkpt>
      <trkpt lat="44.31718" lon="5.19856">
        <ele>694.3</ele>
        <time>2022-07-17T08:58:01Z</time>
      </trkpt>
      <trkpt lat="44.31718" lon="5.19856">
        <ele>694.4</ele>
        <time>2022-07-17T08:58:02Z</time>
      </trkpt>
      <trkpt lat="44.31719" lon="5.19856">
        <ele>694.6</ele>
        <time>2022-07-17T08:58:03Z</time>
      </trkpt>
      <trkpt lat="44.3172" lon="5.19857">
        <ele>694.7</ele>
        <time>2022-07-17T08:58:04Z</time>
      </trkpt>
      <trkpt lat="44.31721" lon="5.19857">
        <ele>694.9</ele>
        <time>2022-07-17T08:58:05Z</time>
      </trkpt>
      <trkpt lat="44.31723" lon="5.19858">
        <ele>695.1</ele>
        <time>2022-07-17T08:58:06Z</time>
      </trkpt>
      <trkpt lat="44.31724" lon="5.19858">
        <ele>695.2</ele>
        <time>2022-07-17T08:58:07Z</time>
      </trkpt>
      <trkpt lat="44.31725" lon="5.19859">
        <ele>695.4</ele>
        <time>2022-07-17T08:58:08Z</time>
      </trkpt>
      <trkpt lat="44.31726" lon="5.19859">
        <ele>695.6</ele>
        <time>2022-07-17T08:58:09Z</time>
      </trkpt>
      <trkpt lat="44.31727" lon="5.1986">
        <ele>695.8</ele>
        <time>2022-07-17T08:58:10Z</time>
      </trkpt>
      <trkpt lat="44.31729" lon="5.19861">
        <ele>696</ele>
        <time>2022-07-17T08:58:11Z</time>
      </trkpt>
      <trkpt lat="44.3173" lon="5.19861">
        <ele>696.2</ele>
        <time>2022-07-17T08:58:12Z</time>
      </trkpt>
      <trkpt lat="44.31732" lon="5.19862">
        <ele>696.5</ele>
        <time>2022-07-17T08:58:13Z</time>
      </trkpt>
      <trkpt lat="44.31733" lon="5.19862">
        <ele>696.6</ele>
        <time>2022-07-17T08:58:14Z</time>
      </trkpt>
      <trkpt lat="44.31734" lon="5.19863">
        <ele>696.7</ele>
        <time>2022-07-17T08:58:15Z</time>
      </trkpt>
      <trkpt lat="44.31735" lon="5.19863">
        <ele>696.9</ele>
        <time>2022-07-17T08:58:16Z</time>
      </trkpt>
      <trkpt lat="44.31736" lon="5.19864">
        <ele>697</ele>
        <time>2022-07-17T08:58:17Z</time>
      </trkpt>
      <trkpt lat="44.31737" lon="5.19865">
        <ele>697.2</ele>
        <time>2022-07-17T08:58:18Z</time>
      </trkpt>
      <trkpt lat="44.31737" lon="5.19866">
        <ele>697.3</ele>
        <time>2022-07-17T08:58:19Z</time>
      </trkpt>
      <trkpt lat="44.31738" lon="5.19867">
        <ele>697.4</ele>
        <time>2022-07-17T08:58:20Z</time>
      </trkpt>
      <trkpt lat="44.31739" lon="5.19867">
        <ele>697.5</ele>
        <time>2022-07-17T08:58:21Z</time>
      </trkpt>
      <trkpt lat="44.3174" lon="5.19868">
        <ele>697.7</ele>
        <time>2022-07-17T08:58:22Z</time>
      </trkpt>
      <trkpt lat="44.3174" lon="5.19869">
        <ele>697.8</ele>
        <time>2022-07-17T08:58:23Z</time>
      </trkpt>
      <trkpt lat="44.31741" lon="5.1987">
        <ele>697.9</ele>
        <time>2022-07-17T08:58:24Z</time>
      </trkpt>
      <trkpt lat="44.31742" lon="5.19871">
        <ele>698.1</ele>
        <time>2022-07-17T08:58:25Z</time>
      </trkpt>
      <trkpt lat="44.31743" lon="5.19872">
        <ele>698.3</ele>
        <time>2022-07-17T08:58:26Z</time>
      </trkpt>
      <trkpt lat="44.31745" lon="5.19874">
        <ele>698.6</ele>
        <time>2022-07-17T08:58:27Z</time>
      </trkpt>
      <trkpt lat="44.31746" lon="5.19875">
        <ele>698.7</ele>
        <time>2022-07-17T08:58:28Z</time>
      </trkpt>
      <trkpt lat="44.31746" lon="5.19875">
        <ele>698.9</ele>
        <time>2022-07-17T08:58:29Z</time>
      </trkpt>
      <trkpt lat="44.31747" lon="5.19876">
        <ele>699</ele>
        <time>2022-07-17T08:58:30Z</time>
      </trkpt>
      <trkpt lat="44.31748" lon="5.19878">
        <ele>699.2</ele>
        <time>2022-07-17T08:58:31Z</time>
      </trkpt>
      <trkpt lat="44.31749" lon="5.19879">
        <ele>699.3</ele>
        <time>2022-07-17T08:58:32Z</time>
      </trkpt>
      <trkpt lat="44.3175" lon="5.19881">
        <ele>699.7</ele>
        <time>2022-07-17T08:58:33Z</time>
      </trkpt>
      <trkpt lat="44.31751" lon="5.19882">
        <ele>699.8</ele>
        <time>2022-07-17T08:58:34Z</time>
      </trkpt>
      <trkpt lat="44.31751" lon="5.19882">
        <ele>699.9</ele>
        <time>2022-07-17T08:58:35Z</time>
      </trkpt>
      <trkpt lat="44.31753" lon="5.19884">
        <ele>700.3</ele>
        <time>2022-07-17T08:58:36Z</time>
      </trkpt>
      <trkpt lat="44.31754" lon="5.19885">
        <ele>700.5</ele>
        <time>2022-07-17T08:58:37Z</time>
      </trkpt>
      <trkpt lat="44.31754" lon="5.19886">
        <ele>700.6</ele>
        <time>2022-07-17T08:58:38Z</time>
      </trkpt>
      <trkpt lat="44.31755" lon="5.19888">
        <ele>700.9</ele>
        <time>2022-07-17T08:58:39Z</time>
      </trkpt>
      <trkpt lat="44.31756" lon="5.19889">
        <ele>701.1</ele>
        <time>2022-07-17T08:58:40Z</time>
      </trkpt>
      <trkpt lat="44.31757" lon="5.19892">
        <ele>701.5</ele>
        <time>2022-07-17T08:58:41Z</time>
      </trkpt>
      <trkpt lat="44.31757" lon="5.19893">
        <ele>701.6</ele>
        <time>2022-07-17T08:58:42Z</time>
      </trkpt>
      <trkpt lat="44.31757" lon="5.19894">
        <ele>701.8</ele>
        <time>2022-07-17T08:58:43Z</time>
      </trkpt>
      <trkpt lat="44.31757" lon="5.19896">
        <ele>702</ele>
        <time>2022-07-17T08:58:44Z</time>
      </trkpt>
      <trkpt lat="44.31758" lon="5.19897">
        <ele>702.1</ele>
        <time>2022-07-17T08:58:45Z</time>
      </trkpt>
      <trkpt lat="44.31758" lon="5.19898">
        <ele>702.3</ele>
        <time>2022-07-17T08:58:46Z</time>
      </trkpt>
      <trkpt lat="44.31759" lon="5.199">
        <ele>702.5</ele>
        <time>2022-07-17T08:58:47Z</time>
      </trkpt>
      <trkpt lat="44.3176" lon="5.19901">
        <ele>702.7</ele>
        <time>2022-07-17T08:58:48Z</time>
      </trkpt>
      <trkpt lat="44.3176" lon="5.19902">
        <ele>702.9</ele>
        <time>2022-07-17T08:58:49Z</time>
      </trkpt>
      <trkpt lat="44.31761" lon="5.19904">
        <ele>703.1</ele>
        <time>2022-07-17T08:58:50Z</time>
      </trkpt>
      <trkpt lat="44.31762" lon="5.19905">
        <ele>703.3</ele>
        <time>2022-07-17T08:58:51Z</time>
      </trkpt>
      <trkpt lat="44.31763" lon="5.19906">
        <ele>703.5</ele>
        <time>2022-07-17T08:58:52Z</time>
      </trkpt>
      <trkpt lat="44.31763" lon="5.19907">
        <ele>703.6</ele>
        <time>2022-07-17T08:58:53Z</time>
      </trkpt>
      <trkpt lat="44.31764" lon="5.19908">
        <ele>703.8</ele>
        <time>2022-07-17T08:58:54Z</time>
      </trkpt>
      <trkpt lat="44.31765" lon="5.19909">
        <ele>704</ele>
        <time>2022-07-17T08:58:55Z</time>
      </trkpt>
      <trkpt lat="44.31765" lon="5.1991">
        <ele>704.1</ele>
        <time>2022-07-17T08:58:56Z</time>
      </trkpt>
      <trkpt lat="44.31766" lon="5.19911">
        <ele>704.3</ele>
        <time>2022-07-17T08:58:57Z</time>
      </trkpt>
      <trkpt lat="44.31767" lon="5.19912">
        <ele>704.5</ele>
        <time>2022-07-17T08:58:58Z</time>
      </trkpt>
      <trkpt lat="44.31768" lon="5.19913">
        <ele>704.6</ele>
        <time>2022-07-17T08:58:59Z</time>
      </trkpt>
      <trkpt lat="44.31768" lon="5.19914">
        <ele>704.8</ele>
        <time>2022-07-17T08:59:00Z</time>
      </trkpt>
      <trkpt lat="44.31769" lon="5.19915">
        <ele>705</ele>
        <time>2022-07-17T08:59:01Z</time>
      </trkpt>
      <trkpt lat="44.3177" lon="5.19916">
        <ele>705.1</ele>
        <time>2022-07-17T08:59:02Z</time>
      </trkpt>
      <trkpt lat="44.31771" lon="5.19917">
        <ele>705.3</ele>
        <time>2022-07-17T08:59:03Z</time>
      </trkpt>
      <trkpt lat="44.31771" lon="5.19918">
        <ele>705.5</ele>
        <time>2022-07-17T08:59:04Z</time>
      </trkpt>
      <trkpt lat="44.31772" lon="5.19919">
        <ele>705.6</ele>
        <time>2022-07-17T08:59:05Z</time>
      </trkpt>
      <trkpt lat="44.31772" lon="5.19921">
        <ele>705.8</ele>
        <time>2022-07-17T08:59:06Z</time>
      </trkpt>
      <trkpt lat="44.31773" lon="5.19921">
        <ele>705.9</ele>
        <time>2022-07-17T08:59:07Z</time>
      </trkpt>
      <trkpt lat="44.31773" lon="5.19922">
        <ele>706</ele>
        <time>2022-07-17T08:59:08Z</time>
      </trkpt>
      <trkpt lat="44.31774" lon="5.19923">
        <ele>706.2</ele>
        <time>2022-07-17T08:59:09Z</time>
      </trkpt>
      <trkpt lat="44.31774" lon="5.19924">
        <ele>706.3</ele>
        <time>2022-07-17T08:59:10Z</time>
      </trkpt>
      <trkpt lat="44.31775" lon="5.19925">
        <ele>706.4</ele>
        <time>2022-07-17T08:59:11Z</time>
      </trkpt>
      <trkpt lat="44.31775" lon="5.19926">
        <ele>706.6</ele>
        <time>2022-07-17T08:59:12Z</time>
      </trkpt>
      <trkpt lat="44.31776" lon="5.19927">
        <ele>706.8</ele>
        <time>2022-07-17T08:59:13Z</time>
      </trkpt>
      <trkpt lat="44.31777" lon="5.19929">
        <ele>706.9</ele>
        <time>2022-07-17T08:59:14Z</time>
      </trkpt>
      <trkpt lat="44.31778" lon="5.19931">
        <ele>707.3</ele>
        <time>2022-07-17T08:59:15Z</time>
      </trkpt>
      <trkpt lat="44.31778" lon="5.19932">
        <ele>707.4</ele>
        <time>2022-07-17T08:59:16Z</time>
      </trkpt>
      <trkpt lat="44.31778" lon="5.19933">
        <ele>707.5</ele>
        <time>2022-07-17T08:59:17Z</time>
      </trkpt>
      <trkpt lat="44.31779" lon="5.19934">
        <ele>707.6</ele>
        <time>2022-07-17T08:59:18Z</time>
      </trkpt>
      <trkpt lat="44.3178" lon="5.19935">
        <ele>707.7</ele>
        <time>2022-07-17T08:59:19Z</time>
      </trkpt>
      <trkpt lat="44.3178" lon="5.19936">
        <ele>707.9</ele>
        <time>2022-07-17T08:59:20Z</time>
      </trkpt>
      <trkpt lat="44.31781" lon="5.19938">
        <ele>708.1</ele>
        <time>2022-07-17T08:59:21Z</time>
      </trkpt>
      <trkpt lat="44.31782" lon="5.19939">
        <ele>708.3</ele>
        <time>2022-07-17T08:59:22Z</time>
      </trkpt>
      <trkpt lat="44.31783" lon="5.1994">
        <ele>708.5</ele>
        <time>2022-07-17T08:59:23Z</time>
      </trkpt>
      <trkpt lat="44.31784" lon="5.19941">
        <ele>708.6</ele>
        <time>2022-07-17T08:59:24Z</time>
      </trkpt>
      <trkpt lat="44.31784" lon="5.19942">
        <ele>708.8</ele>
        <time>2022-07-17T08:59:25Z</time>
      </trkpt>
      <trkpt lat="44.31785" lon="5.19943">
        <ele>709</ele>
        <time>2022-07-17T08:59:26Z</time>
      </trkpt>
      <trkpt lat="44.31786" lon="5.19945">
        <ele>709.2</ele>
        <time>2022-07-17T08:59:27Z</time>
      </trkpt>
      <trkpt lat="44.31787" lon="5.19947">
        <ele>709.4</ele>
        <time>2022-07-17T08:59:28Z</time>
      </trkpt>
      <trkpt lat="44.31787" lon="5.19948">
        <ele>709.5</ele>
        <time>2022-07-17T08:59:29Z</time>
      </trkpt>
      <trkpt lat="44.31788" lon="5.19949">
        <ele>709.6</ele>
        <time>2022-07-17T08:59:30Z</time>
      </trkpt>
      <trkpt lat="44.31789" lon="5.19951">
        <ele>709.9</ele>
        <time>2022-07-17T08:59:31Z</time>
      </trkpt>
      <trkpt lat="44.3179" lon="5.19952">
        <ele>710.1</ele>
        <time>2022-07-17T08:59:33Z</time>
      </trkpt>
      <trkpt lat="44.31791" lon="5.19953">
        <ele>710.2</ele>
        <time>2022-07-17T08:59:34Z</time>
      </trkpt>
      <trkpt lat="44.31792" lon="5.19954">
        <ele>710.4</ele>
        <time>2022-07-17T08:59:35Z</time>
      </trkpt>
      <trkpt lat="44.31792" lon="5.19955">
        <ele>710.5</ele>
        <time>2022-07-17T08:59:36Z</time>
      </trkpt>
      <trkpt lat="44.31793" lon="5.19956">
        <ele>710.6</ele>
        <time>2022-07-17T08:59:37Z</time>
      </trkpt>
      <trkpt lat="44.31794" lon="5.19957">
        <ele>710.8</ele>
        <time>2022-07-17T08:59:38Z</time>
      </trkpt>
      <trkpt lat="44.31795" lon="5.19957">
        <ele>710.9</ele>
        <time>2022-07-17T08:59:39Z</time>
      </trkpt>
      <trkpt lat="44.31796" lon="5.19958">
        <ele>711</ele>
        <time>2022-07-17T08:59:40Z</time>
      </trkpt>
      <trkpt lat="44.31796" lon="5.19959">
        <ele>711.1</ele>
        <time>2022-07-17T08:59:41Z</time>
      </trkpt>
      <trkpt lat="44.31797" lon="5.19959">
        <ele>711.2</ele>
        <time>2022-07-17T08:59:42Z</time>
      </trkpt>
      <trkpt lat="44.31798" lon="5.1996">
        <ele>711.3</ele>
        <time>2022-07-17T08:59:43Z</time>
      </trkpt>
      <trkpt lat="44.31799" lon="5.19961">
        <ele>711.5</ele>
        <time>2022-07-17T08:59:44Z</time>
      </trkpt>
      <trkpt lat="44.318" lon="5.19962">
        <ele>711.6</ele>
        <time>2022-07-17T08:59:45Z</time>
      </trkpt>
      <trkpt lat="44.318" lon="5.19963">
        <ele>711.7</ele>
        <time>2022-07-17T08:59:46Z</time>
      </trkpt>
      <trkpt lat="44.31801" lon="5.19964">
        <ele>711.9</ele>
        <time>2022-07-17T08:59:47Z</time>
      </trkpt>
      <trkpt lat="44.31802" lon="5.19964">
        <ele>712</ele>
        <time>2022-07-17T08:59:48Z</time>
      </trkpt>
      <trkpt lat="44.31803" lon="5.19965">
        <ele>712.1</ele>
        <time>2022-07-17T08:59:49Z</time>
      </trkpt>
      <trkpt lat="44.31804" lon="5.19966">
        <ele>712.3</ele>
        <time>2022-07-17T08:59:50Z</time>
      </trkpt>
      <trkpt lat="44.31806" lon="5.19967">
        <ele>712.5</ele>
        <time>2022-07-17T08:59:51Z</time>
      </trkpt>
      <trkpt lat="44.31807" lon="5.19968">
        <ele>712.7</ele>
        <time>2022-07-17T08:59:52Z</time>
      </trkpt>
      <trkpt lat="44.31807" lon="5.19969">
        <ele>712.8</ele>
        <time>2022-07-17T08:59:53Z</time>
      </trkpt>
      <trkpt lat="44.31809" lon="5.1997">
        <ele>713</ele>
        <time>2022-07-17T08:59:54Z</time>
      </trkpt>
      <trkpt lat="44.3181" lon="5.19971">
        <ele>713.1</ele>
        <time>2022-07-17T08:59:55Z</time>
      </trkpt>
      <trkpt lat="44.31812" lon="5.19972">
        <ele>713.4</ele>
        <time>2022-07-17T08:59:56Z</time>
      </trkpt>
      <trkpt lat="44.31812" lon="5.19973">
        <ele>713.6</ele>
        <time>2022-07-17T08:59:57Z</time>
      </trkpt>
      <trkpt lat="44.31813" lon="5.19974">
        <ele>713.7</ele>
        <time>2022-07-17T08:59:58Z</time>
      </trkpt>
      <trkpt lat="44.31814" lon="5.19974">
        <ele>713.8</ele>
        <time>2022-07-17T08:59:59Z</time>
      </trkpt>
      <trkpt lat="44.31815" lon="5.19975">
        <ele>714</ele>
        <time>2022-07-17T09:00:00Z</time>
      </trkpt>
      <trkpt lat="44.31816" lon="5.19976">
        <ele>714.1</ele>
        <time>2022-07-17T09:00:01Z</time>
      </trkpt>
      <trkpt lat="44.31818" lon="5.19978">
        <ele>714.4</ele>
        <time>2022-07-17T09:00:02Z</time>
      </trkpt>
      <trkpt lat="44.31818" lon="5.19979">
        <ele>714.5</ele>
        <time>2022-07-17T09:00:03Z</time>
      </trkpt>
      <trkpt lat="44.31819" lon="5.19979">
        <ele>714.6</ele>
        <time>2022-07-17T09:00:04Z</time>
      </trkpt>
      <trkpt lat="44.3182" lon="5.1998">
        <ele>714.8</ele>
        <time>2022-07-17T09:00:05Z</time>
      </trkpt>
      <trkpt lat="44.31821" lon="5.19981">
        <ele>714.9</ele>
        <time>2022-07-17T09:00:06Z</time>
      </trkpt>
      <trkpt lat="44.31822" lon="5.19983">
        <ele>715.2</ele>
        <time>2022-07-17T09:00:07Z</time>
      </trkpt>
      <trkpt lat="44.31823" lon="5.19984">
        <ele>715.3</ele>
        <time>2022-07-17T09:00:09Z</time>
      </trkpt>
      <trkpt lat="44.31825" lon="5.19986">
        <ele>715.7</ele>
        <time>2022-07-17T09:00:10Z</time>
      </trkpt>
      <trkpt lat="44.31826" lon="5.19987">
        <ele>715.8</ele>
        <time>2022-07-17T09:00:11Z</time>
      </trkpt>
      <trkpt lat="44.31827" lon="5.19988">
        <ele>716</ele>
        <time>2022-07-17T09:00:13Z</time>
      </trkpt>
      <trkpt lat="44.31828" lon="5.1999">
        <ele>716.2</ele>
        <time>2022-07-17T09:00:14Z</time>
      </trkpt>
      <trkpt lat="44.31829" lon="5.1999">
        <ele>716.3</ele>
        <time>2022-07-17T09:00:16Z</time>
      </trkpt>
      <trkpt lat="44.31829" lon="5.19991">
        <ele>716.4</ele>
        <time>2022-07-17T09:00:17Z</time>
      </trkpt>
      <trkpt lat="44.3183" lon="5.19991">
        <ele>716.5</ele>
        <time>2022-07-17T09:00:18Z</time>
      </trkpt>
      <trkpt lat="44.31831" lon="5.19992">
        <ele>716.6</ele>
        <time>2022-07-17T09:00:19Z</time>
      </trkpt>
      <trkpt lat="44.31831" lon="5.19992">
        <ele>716.7</ele>
        <time>2022-07-17T09:00:20Z</time>
      </trkpt>
      <trkpt lat="44.31832" lon="5.19993">
        <ele>716.8</ele>
        <time>2022-07-17T09:00:21Z</time>
      </trkpt>
      <trkpt lat="44.31833" lon="5.19993">
        <ele>716.9</ele>
        <time>2022-07-17T09:00:22Z</time>
      </trkpt>
      <trkpt lat="44.31833" lon="5.19993">
        <ele>717</ele>
        <time>2022-07-17T09:00:23Z</time>
      </trkpt>
      <trkpt lat="44.31834" lon="5.19993">
        <ele>717.1</ele>
        <time>2022-07-17T09:00:24Z</time>
      </trkpt>
      <trkpt lat="44.31836" lon="5.19994">
        <ele>717.3</ele>
        <time>2022-07-17T09:00:25Z</time>
      </trkpt>
      <trkpt lat="44.31838" lon="5.19995">
        <ele>717.7</ele>
        <time>2022-07-17T09:00:27Z</time>
      </trkpt>
      <trkpt lat="44.31839" lon="5.19996">
        <ele>717.8</ele>
        <time>2022-07-17T09:00:28Z</time>
      </trkpt>
      <trkpt lat="44.3184" lon="5.19997">
        <ele>718</ele>
        <time>2022-07-17T09:00:29Z</time>
      </trkpt>
      <trkpt lat="44.31841" lon="5.19998">
        <ele>718.2</ele>
        <time>2022-07-17T09:00:30Z</time>
      </trkpt>
      <trkpt lat="44.31842" lon="5.19999">
        <ele>718.4</ele>
        <time>2022-07-17T09:00:32Z</time>
      </trkpt>
      <trkpt lat="44.31842" lon="5.2">
        <ele>718.5</ele>
        <time>2022-07-17T09:00:33Z</time>
      </trkpt>
      <trkpt lat="44.31843" lon="5.20001">
        <ele>718.6</ele>
        <time>2022-07-17T09:00:34Z</time>
      </trkpt>
      <trkpt lat="44.31843" lon="5.20001">
        <ele>718.7</ele>
        <time>2022-07-17T09:00:35Z</time>
      </trkpt>
      <trkpt lat="44.31844" lon="5.20002">
        <ele>718.8</ele>
        <time>2022-07-17T09:00:36Z</time>
      </trkpt>
      <trkpt lat="44.31845" lon="5.20003">
        <ele>719</ele>
        <time>2022-07-17T09:00:37Z</time>
      </trkpt>
      <trkpt lat="44.31845" lon="5.20004">
        <ele>719.1</ele>
        <time>2022-07-17T09:00:38Z</time>
      </trkpt>
      <trkpt lat="44.31846" lon="5.20004">
        <ele>719.3</ele>
        <time>2022-07-17T09:00:39Z</time>
      </trkpt>
      <trkpt lat="44.31847" lon="5.20005">
        <ele>719.4</ele>
        <time>2022-07-17T09:00:40Z</time>
      </trkpt>
      <trkpt lat="44.31848" lon="5.20006">
        <ele>719.6</ele>
        <time>2022-07-17T09:00:41Z</time>
      </trkpt>
      <trkpt lat="44.3185" lon="5.20007">
        <ele>719.9</ele>
        <time>2022-07-17T09:00:42Z</time>
      </trkpt>
      <trkpt lat="44.3185" lon="5.20008">
        <ele>720.1</ele>
        <time>2022-07-17T09:00:43Z</time>
      </trkpt>
      <trkpt lat="44.31851" lon="5.20009">
        <ele>720.2</ele>
        <time>2022-07-17T09:00:44Z</time>
      </trkpt>
      <trkpt lat="44.31852" lon="5.2001">
        <ele>720.4</ele>
        <time>2022-07-17T09:00:45Z</time>
      </trkpt>
      <trkpt lat="44.31853" lon="5.20012">
        <ele>720.7</ele>
        <time>2022-07-17T09:00:46Z</time>
      </trkpt>
      <trkpt lat="44.31854" lon="5.20013">
        <ele>720.9</ele>
        <time>2022-07-17T09:00:47Z</time>
      </trkpt>
      <trkpt lat="44.31855" lon="5.20014">
        <ele>721.1</ele>
        <time>2022-07-17T09:00:48Z</time>
      </trkpt>
      <trkpt lat="44.31857" lon="5.20016">
        <ele>721.5</ele>
        <time>2022-07-17T09:00:49Z</time>
      </trkpt>
      <trkpt lat="44.31857" lon="5.20017">
        <ele>721.6</ele>
        <time>2022-07-17T09:00:50Z</time>
      </trkpt>
      <trkpt lat="44.31858" lon="5.20017">
        <ele>721.7</ele>
        <time>2022-07-17T09:00:51Z</time>
      </trkpt>
      <trkpt lat="44.3186" lon="5.20019">
        <ele>722.1</ele>
        <time>2022-07-17T09:00:52Z</time>
      </trkpt>
      <trkpt lat="44.3186" lon="5.2002">
        <ele>722.2</ele>
        <time>2022-07-17T09:00:53Z</time>
      </trkpt>
      <trkpt lat="44.31861" lon="5.20021">
        <ele>722.3</ele>
        <time>2022-07-17T09:00:54Z</time>
      </trkpt>
      <trkpt lat="44.31863" lon="5.20024">
        <ele>722.8</ele>
        <time>2022-07-17T09:00:55Z</time>
      </trkpt>
      <trkpt lat="44.31864" lon="5.20024">
        <ele>722.9</ele>
        <time>2022-07-17T09:00:56Z</time>
      </trkpt>
      <trkpt lat="44.31866" lon="5.20026">
        <ele>723.2</ele>
        <time>2022-07-17T09:00:58Z</time>
      </trkpt>
      <trkpt lat="44.31867" lon="5.20028">
        <ele>723.4</ele>
        <time>2022-07-17T09:00:59Z</time>
      </trkpt>
      <trkpt lat="44.31868" lon="5.20029">
        <ele>723.6</ele>
        <time>2022-07-17T09:01:00Z</time>
      </trkpt>
      <trkpt lat="44.31869" lon="5.2003">
        <ele>723.8</ele>
        <time>2022-07-17T09:01:01Z</time>
      </trkpt>
      <trkpt lat="44.3187" lon="5.2003">
        <ele>724</ele>
        <time>2022-07-17T09:01:02Z</time>
      </trkpt>
      <trkpt lat="44.3187" lon="5.2003">
        <ele>724</ele>
        <time>2022-07-17T09:01:03Z</time>
      </trkpt>
      <trkpt lat="44.31871" lon="5.20029">
        <ele>724.1</ele>
        <time>2022-07-17T09:01:05Z</time>
      </trkpt>
      <trkpt lat="44.31871" lon="5.20028">
        <ele>724.2</ele>
        <time>2022-07-17T09:01:06Z</time>
      </trkpt>
      <trkpt lat="44.31871" lon="5.20027">
        <ele>724.3</ele>
        <time>2022-07-17T09:01:07Z</time>
      </trkpt>
      <trkpt lat="44.31872" lon="5.20027">
        <ele>724.4</ele>
        <time>2022-07-17T09:01:08Z</time>
      </trkpt>
      <trkpt lat="44.31872" lon="5.20026">
        <ele>724.5</ele>
        <time>2022-07-17T09:01:09Z</time>
      </trkpt>
      <trkpt lat="44.31873" lon="5.20025">
        <ele>724.5</ele>
        <time>2022-07-17T09:01:11Z</time>
      </trkpt>
      <trkpt lat="44.31873" lon="5.20024">
        <ele>724.6</ele>
        <time>2022-07-17T09:01:13Z</time>
      </trkpt>
      <trkpt lat="44.31873" lon="5.20024">
        <ele>724.7</ele>
        <time>2022-07-17T09:01:33Z</time>
      </trkpt>
      <trkpt lat="44.31874" lon="5.20023">
        <ele>724.7</ele>
        <time>2022-07-17T09:01:34Z</time>
      </trkpt>
      <trkpt lat="44.31874" lon="5.20022">
        <ele>724.8</ele>
        <time>2022-07-17T09:01:36Z</time>
      </trkpt>
      <trkpt lat="44.31875" lon="5.20021">
        <ele>724.9</ele>
        <time>2022-07-17T09:01:37Z</time>
      </trkpt>
      <trkpt lat="44.31875" lon="5.20021">
        <ele>725</ele>
        <time>2022-07-17T09:01:39Z</time>
      </trkpt>
      <trkpt lat="44.31876" lon="5.2002">
        <ele>725.1</ele>
        <time>2022-07-17T09:01:40Z</time>
      </trkpt>
      <trkpt lat="44.31877" lon="5.2002">
        <ele>725.1</ele>
        <time>2022-07-17T09:01:41Z</time>
      </trkpt>
      <trkpt lat="44.31877" lon="5.2002">
        <ele>725.1</ele>
        <time>2022-07-17T09:01:43Z</time>
      </trkpt>
      <trkpt lat="44.31878" lon="5.2002">
        <ele>725.3</ele>
        <time>2022-07-17T09:01:44Z</time>
      </trkpt>
      <trkpt lat="44.31878" lon="5.2002">
        <ele>725.3</ele>
        <time>2022-07-17T09:01:45Z</time>
      </trkpt>
      <trkpt lat="44.31878" lon="5.2002">
        <ele>725.3</ele>
        <time>2022-07-17T09:01:46Z</time>
      </trkpt>
      <trkpt lat="44.31878" lon="5.2002">
        <ele>725.3</ele>
        <time>2022-07-17T09:01:48Z</time>
      </trkpt>
      <trkpt lat="44.31878" lon="5.2002">
        <ele>725.3</ele>
        <time>2022-07-17T09:01:49Z</time>
      </trkpt>
      <trkpt lat="44.31878" lon="5.2002">
        <ele>725.3</ele>
        <time>2022-07-17T09:01:50Z</time>
      </trkpt>
      <trkpt lat="44.3189" lon="5.20022">
        <ele>726.3</ele>
        <time>2022-07-17T09:06:08Z</time>
      </trkpt>
      <trkpt lat="44.31902" lon="5.20023">
        <ele>727.3</ele>
        <time>2022-07-17T09:06:10Z</time>
      </trkpt>
      <trkpt lat="44.31909" lon="5.20026">
        <ele>727.9</ele>
        <time>2022-07-17T09:06:11Z</time>
      </trkpt>
      <trkpt lat="44.31915" lon="5.2003">
        <ele>728.5</ele>
        <time>2022-07-17T09:06:12Z</time>
      </trkpt>
      <trkpt lat="44.31922" lon="5.20034">
        <ele>727.6</ele>
        <time>2022-07-17T09:06:13Z</time>
      </trkpt>
      <trkpt lat="44.31934" lon="5.20047">
        <ele>727.1</ele>
        <time>2022-07-17T09:06:15Z</time>
      </trkpt>
      <trkpt lat="44.3194" lon="5.20052">
        <ele>726.3</ele>
        <time>2022-07-17T09:06:16Z</time>
      </trkpt>
      <trkpt lat="44.31945" lon="5.20059">
        <ele>726.9</ele>
        <time>2022-07-17T09:06:17Z</time>
      </trkpt>
      <trkpt lat="44.3195" lon="5.20065">
        <ele>726.8</ele>
        <time>2022-07-17T09:06:18Z</time>
      </trkpt>
      <trkpt lat="44.31955" lon="5.20071">
        <ele>726</ele>
        <time>2022-07-17T09:06:19Z</time>
      </trkpt>
      <trkpt lat="44.31969" lon="5.20089">
        <ele>725.2</ele>
        <time>2022-07-17T09:06:22Z</time>
      </trkpt>
      <trkpt lat="44.31977" lon="5.20103">
        <ele>724</ele>
        <time>2022-07-17T09:06:24Z</time>
      </trkpt>
      <trkpt lat="44.31981" lon="5.20111">
        <ele>724.3</ele>
        <time>2022-07-17T09:06:25Z</time>
      </trkpt>
      <trkpt lat="44.31985" lon="5.20118">
        <ele>724.6</ele>
        <time>2022-07-17T09:06:26Z</time>
      </trkpt>
      <trkpt lat="44.3199" lon="5.20126">
        <ele>724</ele>
        <time>2022-07-17T09:06:27Z</time>
      </trkpt>
      <trkpt lat="44.31995" lon="5.20134">
        <ele>723.7</ele>
        <time>2022-07-17T09:06:28Z</time>
      </trkpt>
      <trkpt lat="44.32" lon="5.20141">
        <ele>723.1</ele>
        <time>2022-07-17T09:06:29Z</time>
      </trkpt>
      <trkpt lat="44.32005" lon="5.20149">
        <ele>722.4</ele>
        <time>2022-07-17T09:06:30Z</time>
      </trkpt>
      <trkpt lat="44.3201" lon="5.20157">
        <ele>722.9</ele>
        <time>2022-07-17T09:06:31Z</time>
      </trkpt>
      <trkpt lat="44.32016" lon="5.20167">
        <ele>722.9</ele>
        <time>2022-07-17T09:06:32Z</time>
      </trkpt>
      <trkpt lat="44.32021" lon="5.20176">
        <ele>722.8</ele>
        <time>2022-07-17T09:06:33Z</time>
      </trkpt>
      <trkpt lat="44.32025" lon="5.20186">
        <ele>723.6</ele>
        <time>2022-07-17T09:06:34Z</time>
      </trkpt>
      <trkpt lat="44.3203" lon="5.20196">
        <ele>722.6</ele>
        <time>2022-07-17T09:06:35Z</time>
      </trkpt>
      <trkpt lat="44.32034" lon="5.20205">
        <ele>722.4</ele>
        <time>2022-07-17T09:06:36Z</time>
      </trkpt>
      <trkpt lat="44.32038" lon="5.20214">
        <ele>721.8</ele>
        <time>2022-07-17T09:06:37Z</time>
      </trkpt>
      <trkpt lat="44.32041" lon="5.20222">
        <ele>721.9</ele>
        <time>2022-07-17T09:06:38Z</time>
      </trkpt>
      <trkpt lat="44.32043" lon="5.2023">
        <ele>722.4</ele>
        <time>2022-07-17T09:06:39Z</time>
      </trkpt>
      <trkpt lat="44.32043" lon="5.20238">
        <ele>722.7</ele>
        <time>2022-07-17T09:06:40Z</time>
      </trkpt>
      <trkpt lat="44.32043" lon="5.20244">
        <ele>722.9</ele>
        <time>2022-07-17T09:06:41Z</time>
      </trkpt>
      <trkpt lat="44.32043" lon="5.20251">
        <ele>723.1</ele>
        <time>2022-07-17T09:06:42Z</time>
      </trkpt>
      <trkpt lat="44.32044" lon="5.20259">
        <ele>722.7</ele>
        <time>2022-07-17T09:06:45Z</time>
      </trkpt>
      <trkpt lat="44.32045" lon="5.20273">
        <ele>723</ele>
        <time>2022-07-17T09:06:46Z</time>
      </trkpt>
      <trkpt lat="44.32045" lon="5.2028">
        <ele>723.2</ele>
        <time>2022-07-17T09:06:47Z</time>
      </trkpt>
      <trkpt lat="44.32046" lon="5.20293">
        <ele>723.8</ele>
        <time>2022-07-17T09:06:48Z</time>
      </trkpt>
      <trkpt lat="44.32047" lon="5.20299">
        <ele>724</ele>
        <time>2022-07-17T09:06:49Z</time>
      </trkpt>
      <trkpt lat="44.3205" lon="5.20305">
        <ele>723.2</ele>
        <time>2022-07-17T09:06:50Z</time>
      </trkpt>
      <trkpt lat="44.32053" lon="5.20311">
        <ele>722.4</ele>
        <time>2022-07-17T09:06:51Z</time>
      </trkpt>
      <trkpt lat="44.32056" lon="5.20318">
        <ele>721.4</ele>
        <time>2022-07-17T09:06:52Z</time>
      </trkpt>
      <trkpt lat="44.32059" lon="5.20325">
        <ele>719.3</ele>
        <time>2022-07-17T09:06:53Z</time>
      </trkpt>
      <trkpt lat="44.32062" lon="5.20332">
        <ele>719.6</ele>
        <time>2022-07-17T09:06:54Z</time>
      </trkpt>
      <trkpt lat="44.32065" lon="5.20337">
        <ele>718.8</ele>
        <time>2022-07-17T09:06:55Z</time>
      </trkpt>
      <trkpt lat="44.32069" lon="5.20344">
        <ele>717.3</ele>
        <time>2022-07-17T09:06:56Z</time>
      </trkpt>
      <trkpt lat="44.32072" lon="5.20354">
        <ele>716.8</ele>
        <time>2022-07-17T09:06:57Z</time>
      </trkpt>
      <trkpt lat="44.32075" lon="5.20361">
        <ele>715.9</ele>
        <time>2022-07-17T09:06:58Z</time>
      </trkpt>
      <trkpt lat="44.32079" lon="5.20372">
        <ele>715.5</ele>
        <time>2022-07-17T09:06:59Z</time>
      </trkpt>
      <trkpt lat="44.32084" lon="5.20382">
        <ele>714.7</ele>
        <time>2022-07-17T09:07:00Z</time>
      </trkpt>
      <trkpt lat="44.32088" lon="5.20391">
        <ele>712.3</ele>
        <time>2022-07-17T09:07:01Z</time>
      </trkpt>
      <trkpt lat="44.32091" lon="5.204">
        <ele>711.4</ele>
        <time>2022-07-17T09:07:02Z</time>
      </trkpt>
      <trkpt lat="44.32095" lon="5.20408">
        <ele>710.1</ele>
        <time>2022-07-17T09:07:03Z</time>
      </trkpt>
      <trkpt lat="44.32098" lon="5.20416">
        <ele>708.9</ele>
        <time>2022-07-17T09:07:04Z</time>
      </trkpt>
      <trkpt lat="44.32102" lon="5.20424">
        <ele>707.6</ele>
        <time>2022-07-17T09:07:05Z</time>
      </trkpt>
      <trkpt lat="44.32107" lon="5.20433">
        <ele>704.9</ele>
        <time>2022-07-17T09:07:06Z</time>
      </trkpt>
      <trkpt lat="44.32112" lon="5.20441">
        <ele>703.6</ele>
        <time>2022-07-17T09:07:07Z</time>
      </trkpt>
      <trkpt lat="44.32116" lon="5.20448">
        <ele>700.6</ele>
        <time>2022-07-17T09:07:08Z</time>
      </trkpt>
      <trkpt lat="44.32118" lon="5.20455">
        <ele>699.1</ele>
        <time>2022-07-17T09:07:09Z</time>
      </trkpt>
      <trkpt lat="44.32122" lon="5.20468">
        <ele>698.2</ele>
        <time>2022-07-17T09:07:11Z</time>
      </trkpt>
      <trkpt lat="44.32123" lon="5.20473">
        <ele>698.6</ele>
        <time>2022-07-17T09:07:13Z</time>
      </trkpt>
      <trkpt lat="44.32126" lon="5.20485">
        <ele>697.6</ele>
        <time>2022-07-17T09:07:14Z</time>
      </trkpt>
      <trkpt lat="44.32127" lon="5.20491">
        <ele>698</ele>
        <time>2022-07-17T09:07:15Z</time>
      </trkpt>
      <trkpt lat="44.32128" lon="5.20496">
        <ele>696.9</ele>
        <time>2022-07-17T09:07:17Z</time>
      </trkpt>
      <trkpt lat="44.32131" lon="5.20502">
        <ele>695.7</ele>
        <time>2022-07-17T09:07:18Z</time>
      </trkpt>
      <trkpt lat="44.32134" lon="5.20507">
        <ele>694.4</ele>
        <time>2022-07-17T09:07:19Z</time>
      </trkpt>
      <trkpt lat="44.32138" lon="5.20514">
        <ele>693.1</ele>
        <time>2022-07-17T09:07:20Z</time>
      </trkpt>
      <trkpt lat="44.32141" lon="5.20518">
        <ele>691.6</ele>
        <time>2022-07-17T09:07:21Z</time>
      </trkpt>
      <trkpt lat="44.32144" lon="5.20523">
        <ele>690.1</ele>
        <time>2022-07-17T09:07:22Z</time>
      </trkpt>
      <trkpt lat="44.32148" lon="5.20526">
        <ele>688.7</ele>
        <time>2022-07-17T09:07:23Z</time>
      </trkpt>
      <trkpt lat="44.32149" lon="5.20527">
        <ele>687.1</ele>
        <time>2022-07-17T09:07:24Z</time>
      </trkpt>
      <trkpt lat="44.32149" lon="5.20527">
        <ele>687.1</ele>
        <time>2022-07-17T09:07:25Z</time>
      </trkpt>
      <trkpt lat="44.32149" lon="5.20528">
        <ele>687.1</ele>
        <time>2022-07-17T09:07:26Z</time>
      </trkpt>
      <trkpt lat="44.32148" lon="5.20528">
        <ele>687.1</ele>
        <time>2022-07-17T09:07:27Z</time>
      </trkpt>
      <trkpt lat="44.32148" lon="5.20528">
        <ele>688.7</ele>
        <time>2022-07-17T09:07:28Z</time>
      </trkpt>
      <trkpt lat="44.32148" lon="5.20529">
        <ele>688.7</ele>
        <time>2022-07-17T09:07:29Z</time>
      </trkpt>
      <trkpt lat="44.32148" lon="5.20529">
        <ele>689</ele>
        <time>2022-07-17T09:07:30Z</time>
      </trkpt>
      <trkpt lat="44.32148" lon="5.20529">
        <ele>689</ele>
        <time>2022-07-17T09:07:31Z</time>
      </trkpt>
      <trkpt lat="44.32148" lon="5.2053">
        <ele>689</ele>
        <time>2022-07-17T09:07:32Z</time>
      </trkpt>
      <trkpt lat="44.32148" lon="5.2053">
        <ele>689</ele>
        <time>2022-07-17T09:07:33Z</time>
      </trkpt>
      <trkpt lat="44.32147" lon="5.2053">
        <ele>689</ele>
        <time>2022-07-17T09:08:59Z</time>
      </trkpt>
      <trkpt lat="44.32147" lon="5.2053">
        <ele>689</ele>
        <time>2022-07-17T09:09:00Z</time>
      </trkpt>
      <trkpt lat="44.32147" lon="5.20531">
        <ele>689</ele>
        <time>2022-07-17T09:09:01Z</time>
      </trkpt>
      <trkpt lat="44.32147" lon="5.20531">
        <ele>689</ele>
        <time>2022-07-17T09:09:02Z</time>
      </trkpt>
      <trkpt lat="44.32147" lon="5.20531">
        <ele>689</ele>
        <time>2022-07-17T09:09:03Z</time>
      </trkpt>
      <trkpt lat="44.32147" lon="5.20532">
        <ele>689</ele>
        <time>2022-07-17T09:09:04Z</time>
      </trkpt>
      <trkpt lat="44.32146" lon="5.20532">
        <ele>689</ele>
        <time>2022-07-17T09:09:05Z</time>
      </trkpt>
      <trkpt lat="44.32146" lon="5.20532">
        <ele>689</ele>
        <time>2022-07-17T09:09:06Z</time>
      </trkpt>
      <trkpt lat="44.32146" lon="5.20533">
        <ele>689</ele>
        <time>2022-07-17T09:09:07Z</time>
      </trkpt>
      <trkpt lat="44.32146" lon="5.20533">
        <ele>689</ele>
        <time>2022-07-17T09:09:08Z</time>
      </trkpt>
      <trkpt lat="44.32146" lon="5.20533">
        <ele>689.4</ele>
        <time>2022-07-17T09:09:09Z</time>
      </trkpt>
      <trkpt lat="44.32146" lon="5.20533">
        <ele>689.4</ele>
        <time>2022-07-17T09:09:10Z</time>
      </trkpt>
      <trkpt lat="44.32145" lon="5.20534">
        <ele>689.4</ele>
        <time>2022-07-17T09:09:11Z</time>
      </trkpt>
      <trkpt lat="44.32144" lon="5.20535">
        <ele>691.2</ele>
        <time>2022-07-17T09:09:12Z</time>
      </trkpt>
      <trkpt lat="44.32144" lon="5.20536">
        <ele>691.2</ele>
        <time>2022-07-17T09:09:13Z</time>
      </trkpt>
      <trkpt lat="44.32143" lon="5.20538">
        <ele>691.5</ele>
        <time>2022-07-17T09:09:14Z</time>
      </trkpt>
      <trkpt lat="44.32141" lon="5.2054">
        <ele>693.5</ele>
        <time>2022-07-17T09:09:15Z</time>
      </trkpt>
      <trkpt lat="44.32139" lon="5.20543">
        <ele>693.9</ele>
        <time>2022-07-17T09:09:16Z</time>
      </trkpt>
      <trkpt lat="44.32137" lon="5.20547">
        <ele>696.3</ele>
        <time>2022-07-17T09:09:17Z</time>
      </trkpt>
      <trkpt lat="44.32135" lon="5.20551">
        <ele>698.7</ele>
        <time>2022-07-17T09:09:18Z</time>
      </trkpt>
      <trkpt lat="44.32132" lon="5.20558">
        <ele>701.1</ele>
        <time>2022-07-17T09:09:19Z</time>
      </trkpt>
      <trkpt lat="44.32128" lon="5.20562">
        <ele>703.3</ele>
        <time>2022-07-17T09:09:20Z</time>
      </trkpt>
      <trkpt lat="44.32124" lon="5.20566">
        <ele>705.5</ele>
        <time>2022-07-17T09:09:21Z</time>
      </trkpt>
      <trkpt lat="44.32121" lon="5.2057">
        <ele>707.7</ele>
        <time>2022-07-17T09:09:22Z</time>
      </trkpt>
      <trkpt lat="44.3212" lon="5.20571">
        <ele>709.5</ele>
        <time>2022-07-17T09:09:23Z</time>
      </trkpt>
      <trkpt lat="44.32119" lon="5.20573">
        <ele>710</ele>
        <time>2022-07-17T09:09:24Z</time>
      </trkpt>
      <trkpt lat="44.32113" lon="5.20573">
        <ele>713.8</ele>
        <time>2022-07-17T09:09:25Z</time>
      </trkpt>
      <trkpt lat="44.3211" lon="5.20576">
        <ele>716.2</ele>
        <time>2022-07-17T09:09:26Z</time>
      </trkpt>
      <trkpt lat="44.3211" lon="5.20577">
        <ele>716.2</ele>
        <time>2022-07-17T09:09:27Z</time>
      </trkpt>
      <trkpt lat="44.32107" lon="5.2058">
        <ele>718</ele>
        <time>2022-07-17T09:09:28Z</time>
      </trkpt>
      <trkpt lat="44.32106" lon="5.20581">
        <ele>718.4</ele>
        <time>2022-07-17T09:09:29Z</time>
      </trkpt>
      <trkpt lat="44.32104" lon="5.20583">
        <ele>720.1</ele>
        <time>2022-07-17T09:09:30Z</time>
      </trkpt>
      <trkpt lat="44.32103" lon="5.20584">
        <ele>720.1</ele>
        <time>2022-07-17T09:09:31Z</time>
      </trkpt>
      <trkpt lat="44.32101" lon="5.20587">
        <ele>722.1</ele>
        <time>2022-07-17T09:09:32Z</time>
      </trkpt>
      <trkpt lat="44.321" lon="5.20587">
        <ele>722.1</ele>
        <time>2022-07-17T09:09:33Z</time>
      </trkpt>
      <trkpt lat="44.32099" lon="5.20589">
        <ele>723.7</ele>
        <time>2022-07-17T09:09:34Z</time>
      </trkpt>
      <trkpt lat="44.32098" lon="5.20589">
        <ele>724</ele>
        <time>2022-07-17T09:09:35Z</time>
      </trkpt>
      <trkpt lat="44.32097" lon="5.2059">
        <ele>724</ele>
        <time>2022-07-17T09:09:36Z</time>
      </trkpt>
      <trkpt lat="44.32096" lon="5.2059">
        <ele>725.6</ele>
        <time>2022-07-17T09:09:37Z</time>
      </trkpt>
      <trkpt lat="44.32095" lon="5.20591">
        <ele>725.6</ele>
        <time>2022-07-17T09:09:38Z</time>
      </trkpt>
      <trkpt lat="44.32095" lon="5.20591">
        <ele>725.6</ele>
        <time>2022-07-17T09:09:39Z</time>
      </trkpt>
      <trkpt lat="44.32093" lon="5.20593">
        <ele>727.4</ele>
        <time>2022-07-17T09:09:40Z</time>
      </trkpt>
      <trkpt lat="44.32093" lon="5.20594">
        <ele>727.4</ele>
        <time>2022-07-17T09:09:41Z</time>
      </trkpt>
      <trkpt lat="44.32092" lon="5.20595">
        <ele>727.4</ele>
        <time>2022-07-17T09:09:42Z</time>
      </trkpt>
      <trkpt lat="44.32091" lon="5.20597">
        <ele>727.4</ele>
        <time>2022-07-17T09:09:43Z</time>
      </trkpt>
      <trkpt lat="44.32091" lon="5.206">
        <ele>727.6</ele>
        <time>2022-07-17T09:09:44Z</time>
      </trkpt>
      <trkpt lat="44.32091" lon="5.20602">
        <ele>727.8</ele>
        <time>2022-07-17T09:09:45Z</time>
      </trkpt>
      <trkpt lat="44.32091" lon="5.20604">
        <ele>727.8</ele>
        <time>2022-07-17T09:09:46Z</time>
      </trkpt>
      <trkpt lat="44.32091" lon="5.20606">
        <ele>727.8</ele>
        <time>2022-07-17T09:09:47Z</time>
      </trkpt>
      <trkpt lat="44.32091" lon="5.20607">
        <ele>728</ele>
        <time>2022-07-17T09:09:48Z</time>
      </trkpt>
      <trkpt lat="44.32091" lon="5.20608">
        <ele>728</ele>
        <time>2022-07-17T09:09:49Z</time>
      </trkpt>
      <trkpt lat="44.32091" lon="5.20609">
        <ele>728</ele>
        <time>2022-07-17T09:09:50Z</time>
      </trkpt>
      <trkpt lat="44.32091" lon="5.20612">
        <ele>728.2</ele>
        <time>2022-07-17T09:09:51Z</time>
      </trkpt>
      <trkpt lat="44.32091" lon="5.20613">
        <ele>728.2</ele>
        <time>2022-07-17T09:09:52Z</time>
      </trkpt>
      <trkpt lat="44.32091" lon="5.20614">
        <ele>728.2</ele>
        <time>2022-07-17T09:09:53Z</time>
      </trkpt>
      <trkpt lat="44.32091" lon="5.20615">
        <ele>728.3</ele>
        <time>2022-07-17T09:09:54Z</time>
      </trkpt>
      <trkpt lat="44.32091" lon="5.20616">
        <ele>728.3</ele>
        <time>2022-07-17T09:09:55Z</time>
      </trkpt>
      <trkpt lat="44.32091" lon="5.20618">
        <ele>728.3</ele>
        <time>2022-07-17T09:09:56Z</time>
      </trkpt>
      <trkpt lat="44.32091" lon="5.20619">
        <ele>728.3</ele>
        <time>2022-07-17T09:09:57Z</time>
      </trkpt>
      <trkpt lat="44.3209" lon="5.2062">
        <ele>728.4</ele>
        <time>2022-07-17T09:09:58Z</time>
      </trkpt>
      <trkpt lat="44.3209" lon="5.20621">
        <ele>728.4</ele>
        <time>2022-07-17T09:09:59Z</time>
      </trkpt>
      <trkpt lat="44.3209" lon="5.20622">
        <ele>728.4</ele>
        <time>2022-07-17T09:10:00Z</time>
      </trkpt>
      <trkpt lat="44.3209" lon="5.20623">
        <ele>728.5</ele>
        <time>2022-07-17T09:10:01Z</time>
      </trkpt>
      <trkpt lat="44.3209" lon="5.20625">
        <ele>728.5</ele>
        <time>2022-07-17T09:10:02Z</time>
      </trkpt>
      <trkpt lat="44.3209" lon="5.20626">
        <ele>730</ele>
        <time>2022-07-17T09:10:03Z</time>
      </trkpt>
      <trkpt lat="44.3209" lon="5.20627">
        <ele>729.9</ele>
        <time>2022-07-17T09:10:04Z</time>
      </trkpt>
      <trkpt lat="44.3209" lon="5.20628">
        <ele>729.9</ele>
        <time>2022-07-17T09:10:05Z</time>
      </trkpt>
      <trkpt lat="44.3209" lon="5.20629">
        <ele>729.9</ele>
        <time>2022-07-17T09:10:06Z</time>
      </trkpt>
      <trkpt lat="44.3209" lon="5.2063">
        <ele>729.9</ele>
        <time>2022-07-17T09:10:07Z</time>
      </trkpt>
      <trkpt lat="44.3209" lon="5.20631">
        <ele>729.9</ele>
        <time>2022-07-17T09:10:08Z</time>
      </trkpt>
      <trkpt lat="44.3209" lon="5.20633">
        <ele>729.9</ele>
        <time>2022-07-17T09:10:09Z</time>
      </trkpt>
      <trkpt lat="44.32089" lon="5.20634">
        <ele>729.9</ele>
        <time>2022-07-17T09:10:10Z</time>
      </trkpt>
      <trkpt lat="44.32089" lon="5.20635">
        <ele>729.8</ele>
        <time>2022-07-17T09:11:08Z</time>
      </trkpt>
      <trkpt lat="44.32089" lon="5.20636">
        <ele>729.7</ele>
        <time>2022-07-17T09:11:09Z</time>
      </trkpt>
      <trkpt lat="44.32089" lon="5.20637">
        <ele>729.7</ele>
        <time>2022-07-17T09:11:10Z</time>
      </trkpt>
      <trkpt lat="44.32091" lon="5.20639">
        <ele>728.3</ele>
        <time>2022-07-17T09:11:11Z</time>
      </trkpt>
      <trkpt lat="44.32092" lon="5.20641">
        <ele>728.3</ele>
        <time>2022-07-17T09:11:12Z</time>
      </trkpt>
      <trkpt lat="44.32093" lon="5.20642">
        <ele>728.3</ele>
        <time>2022-07-17T09:11:13Z</time>
      </trkpt>
      <trkpt lat="44.32094" lon="5.20643">
        <ele>726.8</ele>
        <time>2022-07-17T09:11:14Z</time>
      </trkpt>
      <trkpt lat="44.32096" lon="5.20644">
        <ele>726.8</ele>
        <time>2022-07-17T09:11:15Z</time>
      </trkpt>
      <trkpt lat="44.32097" lon="5.20645">
        <ele>725.5</ele>
        <time>2022-07-17T09:11:16Z</time>
      </trkpt>
      <trkpt lat="44.32099" lon="5.20647">
        <ele>725.5</ele>
        <time>2022-07-17T09:11:17Z</time>
      </trkpt>
      <trkpt lat="44.321" lon="5.20647">
        <ele>724.2</ele>
        <time>2022-07-17T09:11:18Z</time>
      </trkpt>
      <trkpt lat="44.321" lon="5.20648">
        <ele>724.2</ele>
        <time>2022-07-17T09:11:19Z</time>
      </trkpt>
      <trkpt lat="44.32101" lon="5.20649">
        <ele>724.2</ele>
        <time>2022-07-17T09:11:20Z</time>
      </trkpt>
      <trkpt lat="44.32102" lon="5.2065">
        <ele>724.3</ele>
        <time>2022-07-17T09:11:21Z</time>
      </trkpt>
      <trkpt lat="44.32102" lon="5.2065">
        <ele>724.3</ele>
        <time>2022-07-17T09:11:22Z</time>
      </trkpt>
      <trkpt lat="44.32103" lon="5.2065">
        <ele>722.9</ele>
        <time>2022-07-17T09:11:23Z</time>
      </trkpt>
      <trkpt lat="44.32104" lon="5.2065">
        <ele>722.9</ele>
        <time>2022-07-17T09:11:24Z</time>
      </trkpt>
      <trkpt lat="44.32104" lon="5.2065">
        <ele>722.9</ele>
        <time>2022-07-17T09:11:25Z</time>
      </trkpt>
      <trkpt lat="44.32105" lon="5.2065">
        <ele>722.9</ele>
        <time>2022-07-17T09:11:34Z</time>
      </trkpt>
      <trkpt lat="44.32105" lon="5.2065">
        <ele>722.8</ele>
        <time>2022-07-17T09:11:35Z</time>
      </trkpt>
      <trkpt lat="44.32106" lon="5.2065">
        <ele>721.5</ele>
        <time>2022-07-17T09:11:36Z</time>
      </trkpt>
      <trkpt lat="44.32106" lon="5.2065">
        <ele>721.5</ele>
        <time>2022-07-17T09:11:37Z</time>
      </trkpt>
      <trkpt lat="44.32107" lon="5.2065">
        <ele>721.5</ele>
        <time>2022-07-17T09:11:38Z</time>
      </trkpt>
      <trkpt lat="44.32108" lon="5.2065">
        <ele>721.4</ele>
        <time>2022-07-17T09:11:39Z</time>
      </trkpt>
      <trkpt lat="44.32108" lon="5.2065">
        <ele>721.4</ele>
        <time>2022-07-17T09:11:40Z</time>
      </trkpt>
      <trkpt lat="44.32109" lon="5.2065">
        <ele>719.9</ele>
        <time>2022-07-17T09:11:41Z</time>
      </trkpt>
      <trkpt lat="44.32109" lon="5.2065">
        <ele>719.9</ele>
        <time>2022-07-17T09:11:42Z</time>
      </trkpt>
      <trkpt lat="44.3211" lon="5.2065">
        <ele>719.9</ele>
        <time>2022-07-17T09:11:43Z</time>
      </trkpt>
      <trkpt lat="44.32111" lon="5.20651">
        <ele>719.9</ele>
        <time>2022-07-17T09:11:44Z</time>
      </trkpt>
      <trkpt lat="44.32112" lon="5.20652">
        <ele>718.3</ele>
        <time>2022-07-17T09:11:45Z</time>
      </trkpt>
      <trkpt lat="44.32113" lon="5.20652">
        <ele>718.3</ele>
        <time>2022-07-17T09:11:51Z</time>
      </trkpt>
      <trkpt lat="44.32114" lon="5.20653">
        <ele>718.3</ele>
        <time>2022-07-17T09:11:52Z</time>
      </trkpt>
      <trkpt lat="44.32115" lon="5.20653">
        <ele>716.7</ele>
        <time>2022-07-17T09:11:53Z</time>
      </trkpt>
      <trkpt lat="44.32116" lon="5.20654">
        <ele>717</ele>
        <time>2022-07-17T09:11:54Z</time>
      </trkpt>
      <trkpt lat="44.32118" lon="5.20654">
        <ele>715.5</ele>
        <time>2022-07-17T09:11:55Z</time>
      </trkpt>
      <trkpt lat="44.32119" lon="5.20655">
        <ele>715.4</ele>
        <time>2022-07-17T09:11:56Z</time>
      </trkpt>
      <trkpt lat="44.32119" lon="5.20655">
        <ele>715.4</ele>
        <time>2022-07-17T09:11:57Z</time>
      </trkpt>
      <trkpt lat="44.3212" lon="5.20655">
        <ele>715.4</ele>
        <time>2022-07-17T09:11:58Z</time>
      </trkpt>
      <trkpt lat="44.3212" lon="5.20656">
        <ele>715.4</ele>
        <time>2022-07-17T09:11:59Z</time>
      </trkpt>
      <trkpt lat="44.32121" lon="5.20656">
        <ele>714</ele>
        <time>2022-07-17T09:12:00Z</time>
      </trkpt>
      <trkpt lat="44.32121" lon="5.20656">
        <ele>713.9</ele>
        <time>2022-07-17T09:12:01Z</time>
      </trkpt>
      <trkpt lat="44.32122" lon="5.20657">
        <ele>713.9</ele>
        <time>2022-07-17T09:12:02Z</time>
      </trkpt>
      <trkpt lat="44.32123" lon="5.20657">
        <ele>713.9</ele>
        <time>2022-07-17T09:12:03Z</time>
      </trkpt>
      <trkpt lat="44.32123" lon="5.20657">
        <ele>713.9</ele>
        <time>2022-07-17T09:12:08Z</time>
      </trkpt>
      <trkpt lat="44.32124" lon="5.20657">
        <ele>713.8</ele>
        <time>2022-07-17T09:12:09Z</time>
      </trkpt>
      <trkpt lat="44.32124" lon="5.20658">
        <ele>713.1</ele>
        <time>2022-07-17T09:12:10Z</time>
      </trkpt>
      <trkpt lat="44.32125" lon="5.20658">
        <ele>713.1</ele>
        <time>2022-07-17T09:12:11Z</time>
      </trkpt>
      <trkpt lat="44.32126" lon="5.20658">
        <ele>713</ele>
        <time>2022-07-17T09:12:12Z</time>
      </trkpt>
      <trkpt lat="44.32127" lon="5.20659">
        <ele>711.7</ele>
        <time>2022-07-17T09:12:13Z</time>
      </trkpt>
      <trkpt lat="44.32128" lon="5.20659">
        <ele>711.7</ele>
        <time>2022-07-17T09:12:14Z</time>
      </trkpt>
      <trkpt lat="44.32129" lon="5.20659">
        <ele>711.7</ele>
        <time>2022-07-17T09:12:15Z</time>
      </trkpt>
      <trkpt lat="44.3213" lon="5.20659">
        <ele>710.4</ele>
        <time>2022-07-17T09:12:16Z</time>
      </trkpt>
      <trkpt lat="44.32131" lon="5.20659">
        <ele>710.3</ele>
        <time>2022-07-17T09:12:17Z</time>
      </trkpt>
      <trkpt lat="44.32132" lon="5.20658">
        <ele>710.3</ele>
        <time>2022-07-17T09:12:18Z</time>
      </trkpt>
      <trkpt lat="44.32132" lon="5.20658">
        <ele>710.3</ele>
        <time>2022-07-17T09:12:19Z</time>
      </trkpt>
      <trkpt lat="44.32133" lon="5.20658">
        <ele>710.3</ele>
        <time>2022-07-17T09:12:20Z</time>
      </trkpt>
      <trkpt lat="44.32133" lon="5.20658">
        <ele>708.8</ele>
        <time>2022-07-17T09:12:21Z</time>
      </trkpt>
      <trkpt lat="44.32134" lon="5.20658">
        <ele>708.7</ele>
        <time>2022-07-17T09:12:22Z</time>
      </trkpt>
      <trkpt lat="44.32135" lon="5.20658">
        <ele>708.7</ele>
        <time>2022-07-17T09:12:23Z</time>
      </trkpt>
      <trkpt lat="44.32136" lon="5.20658">
        <ele>707</ele>
        <time>2022-07-17T09:12:24Z</time>
      </trkpt>
      <trkpt lat="44.32138" lon="5.20656">
        <ele>706.3</ele>
        <time>2022-07-17T09:12:25Z</time>
      </trkpt>
      <trkpt lat="44.3214" lon="5.20655">
        <ele>704.6</ele>
        <time>2022-07-17T09:12:26Z</time>
      </trkpt>
      <trkpt lat="44.32141" lon="5.20654">
        <ele>704.5</ele>
        <time>2022-07-17T09:12:27Z</time>
      </trkpt>
      <trkpt lat="44.32141" lon="5.20654">
        <ele>704.5</ele>
        <time>2022-07-17T09:12:28Z</time>
      </trkpt>
      <trkpt lat="44.32143" lon="5.20653">
        <ele>702.2</ele>
        <time>2022-07-17T09:12:29Z</time>
      </trkpt>
      <trkpt lat="44.32144" lon="5.20653">
        <ele>702.1</ele>
        <time>2022-07-17T09:12:30Z</time>
      </trkpt>
      <trkpt lat="44.32146" lon="5.20652">
        <ele>700.4</ele>
        <time>2022-07-17T09:12:31Z</time>
      </trkpt>
      <trkpt lat="44.32148" lon="5.20652">
        <ele>700.4</ele>
        <time>2022-07-17T09:12:32Z</time>
      </trkpt>
      <trkpt lat="44.32149" lon="5.20652">
        <ele>698.9</ele>
        <time>2022-07-17T09:12:33Z</time>
      </trkpt>
      <trkpt lat="44.32151" lon="5.20652">
        <ele>698.9</ele>
        <time>2022-07-17T09:12:34Z</time>
      </trkpt>
      <trkpt lat="44.32152" lon="5.20652">
        <ele>697.4</ele>
        <time>2022-07-17T09:12:35Z</time>
      </trkpt>
      <trkpt lat="44.32154" lon="5.20652">
        <ele>697.3</ele>
        <time>2022-07-17T09:12:36Z</time>
      </trkpt>
      <trkpt lat="44.32155" lon="5.20652">
        <ele>695.8</ele>
        <time>2022-07-17T09:12:37Z</time>
      </trkpt>
      <trkpt lat="44.32157" lon="5.20652">
        <ele>695.8</ele>
        <time>2022-07-17T09:12:38Z</time>
      </trkpt>
      <trkpt lat="44.32158" lon="5.20651">
        <ele>694.2</ele>
        <time>2022-07-17T09:12:39Z</time>
      </trkpt>
      <trkpt lat="44.3216" lon="5.2065">
        <ele>694.2</ele>
        <time>2022-07-17T09:12:40Z</time>
      </trkpt>
      <trkpt lat="44.32162" lon="5.20648">
        <ele>691.8</ele>
        <time>2022-07-17T09:12:41Z</time>
      </trkpt>
      <trkpt lat="44.32163" lon="5.20647">
        <ele>691.8</ele>
        <time>2022-07-17T09:12:42Z</time>
      </trkpt>
      <trkpt lat="44.32166" lon="5.20645">
        <ele>690</ele>
        <time>2022-07-17T09:12:43Z</time>
      </trkpt>
      <trkpt lat="44.32167" lon="5.20644">
        <ele>687.6</ele>
        <time>2022-07-17T09:12:44Z</time>
      </trkpt>
      <trkpt lat="44.3217" lon="5.20641">
        <ele>685.8</ele>
        <time>2022-07-17T09:12:45Z</time>
      </trkpt>
      <trkpt lat="44.32171" lon="5.20641">
        <ele>685.7</ele>
        <time>2022-07-17T09:12:46Z</time>
      </trkpt>
      <trkpt lat="44.32173" lon="5.2064">
        <ele>685.2</ele>
        <time>2022-07-17T09:12:47Z</time>
      </trkpt>
      <trkpt lat="44.32174" lon="5.20639">
        <ele>683.5</ele>
        <time>2022-07-17T09:12:48Z</time>
      </trkpt>
      <trkpt lat="44.32176" lon="5.20637">
        <ele>683.5</ele>
        <time>2022-07-17T09:12:49Z</time>
      </trkpt>
      <trkpt lat="44.32178" lon="5.20635">
        <ele>681.4</ele>
        <time>2022-07-17T09:12:50Z</time>
      </trkpt>
      <trkpt lat="44.32179" lon="5.20633">
        <ele>681.3</ele>
        <time>2022-07-17T09:12:51Z</time>
      </trkpt>
      <trkpt lat="44.32181" lon="5.20631">
        <ele>679.2</ele>
        <time>2022-07-17T09:12:52Z</time>
      </trkpt>
      <trkpt lat="44.32182" lon="5.20629">
        <ele>677.4</ele>
        <time>2022-07-17T09:12:53Z</time>
      </trkpt>
      <trkpt lat="44.32184" lon="5.20627">
        <ele>676.9</ele>
        <time>2022-07-17T09:12:54Z</time>
      </trkpt>
      <trkpt lat="44.32185" lon="5.20625">
        <ele>675.1</ele>
        <time>2022-07-17T09:12:55Z</time>
      </trkpt>
      <trkpt lat="44.32187" lon="5.20623">
        <ele>674.6</ele>
        <time>2022-07-17T09:12:56Z</time>
      </trkpt>
      <trkpt lat="44.32189" lon="5.20621">
        <ele>672.7</ele>
        <time>2022-07-17T09:12:57Z</time>
      </trkpt>
      <trkpt lat="44.3219" lon="5.20619">
        <ele>672.3</ele>
        <time>2022-07-17T09:12:58Z</time>
      </trkpt>
      <trkpt lat="44.32192" lon="5.20617">
        <ele>670.3</ele>
        <time>2022-07-17T09:12:59Z</time>
      </trkpt>
      <trkpt lat="44.32193" lon="5.20615">
        <ele>669.9</ele>
        <time>2022-07-17T09:15:08Z</time>
      </trkpt>
      <trkpt lat="44.32195" lon="5.20612">
        <ele>667.9</ele>
        <time>2022-07-17T09:15:09Z</time>
      </trkpt>
      <trkpt lat="44.32196" lon="5.2061">
        <ele>667.9</ele>
        <time>2022-07-17T09:15:10Z</time>
      </trkpt>
      <trkpt lat="44.32198" lon="5.2061">
        <ele>665.6</ele>
        <time>2022-07-17T09:15:11Z</time>
      </trkpt>
      <trkpt lat="44.32199" lon="5.2061">
        <ele>665.6</ele>
        <time>2022-07-17T09:15:12Z</time>
      </trkpt>
      <trkpt lat="44.322" lon="5.2061">
        <ele>665.6</ele>
        <time>2022-07-17T09:15:13Z</time>
      </trkpt>
      <trkpt lat="44.322" lon="5.20611">
        <ele>666</ele>
        <time>2022-07-17T09:15:14Z</time>
      </trkpt>
      <trkpt lat="44.32201" lon="5.20611">
        <ele>664.1</ele>
        <time>2022-07-17T09:15:15Z</time>
      </trkpt>
      <trkpt lat="44.32203" lon="5.20611">
        <ele>664.1</ele>
        <time>2022-07-17T09:15:16Z</time>
      </trkpt>
      <trkpt lat="44.32205" lon="5.2061">
        <ele>661.9</ele>
        <time>2022-07-17T09:15:17Z</time>
      </trkpt>
      <trkpt lat="44.32205" lon="5.20609">
        <ele>661.9</ele>
        <time>2022-07-17T09:15:18Z</time>
      </trkpt>
      <trkpt lat="44.32206" lon="5.20608">
        <ele>661.9</ele>
        <time>2022-07-17T09:15:19Z</time>
      </trkpt>
      <trkpt lat="44.32206" lon="5.20607">
        <ele>661.9</ele>
        <time>2022-07-17T09:15:20Z</time>
      </trkpt>
      <trkpt lat="44.32207" lon="5.20606">
        <ele>661.5</ele>
        <time>2022-07-17T09:15:21Z</time>
      </trkpt>
      <trkpt lat="44.32207" lon="5.20605">
        <ele>659.8</ele>
        <time>2022-07-17T09:15:22Z</time>
      </trkpt>
      <trkpt lat="44.32208" lon="5.20603">
        <ele>659.8</ele>
        <time>2022-07-17T09:15:23Z</time>
      </trkpt>
      <trkpt lat="44.32208" lon="5.20602">
        <ele>659.8</ele>
        <time>2022-07-17T09:15:24Z</time>
      </trkpt>
      <trkpt lat="44.32209" lon="5.206">
        <ele>659.5</ele>
        <time>2022-07-17T09:15:25Z</time>
      </trkpt>
      <trkpt lat="44.32209" lon="5.20599">
        <ele>659.5</ele>
        <time>2022-07-17T09:15:26Z</time>
      </trkpt>
      <trkpt lat="44.3221" lon="5.20597">
        <ele>657.5</ele>
        <time>2022-07-17T09:15:30Z</time>
      </trkpt>
      <trkpt lat="44.3221" lon="5.20596">
        <ele>657.5</ele>
        <time>2022-07-17T09:15:31Z</time>
      </trkpt>
      <trkpt lat="44.32211" lon="5.20594">
        <ele>657.5</ele>
        <time>2022-07-17T09:15:32Z</time>
      </trkpt>
      <trkpt lat="44.32212" lon="5.20593">
        <ele>657.1</ele>
        <time>2022-07-17T09:15:33Z</time>
      </trkpt>
      <trkpt lat="44.32214" lon="5.20592">
        <ele>655.5</ele>
        <time>2022-07-17T09:15:34Z</time>
      </trkpt>
      <trkpt lat="44.32216" lon="5.20592">
        <ele>655.5</ele>
        <time>2022-07-17T09:15:35Z</time>
      </trkpt>
      <trkpt lat="44.32217" lon="5.20591">
        <ele>653.9</ele>
        <time>2022-07-17T09:15:36Z</time>
      </trkpt>
      <trkpt lat="44.32219" lon="5.20591">
        <ele>653.9</ele>
        <time>2022-07-17T09:15:37Z</time>
      </trkpt>
      <trkpt lat="44.3222" lon="5.2059">
        <ele>652.3</ele>
        <time>2022-07-17T09:15:38Z</time>
      </trkpt>
      <trkpt lat="44.32222" lon="5.2059">
        <ele>652.3</ele>
        <time>2022-07-17T09:15:39Z</time>
      </trkpt>
      <trkpt lat="44.32224" lon="5.20589">
        <ele>650.6</ele>
        <time>2022-07-17T09:15:40Z</time>
      </trkpt>
      <trkpt lat="44.32225" lon="5.20589">
        <ele>650.6</ele>
        <time>2022-07-17T09:15:41Z</time>
      </trkpt>
      <trkpt lat="44.32227" lon="5.20589">
        <ele>648.5</ele>
        <time>2022-07-17T09:16:14Z</time>
      </trkpt>
      <trkpt lat="44.32228" lon="5.20588">
        <ele>648.5</ele>
        <time>2022-07-17T09:16:15Z</time>
      </trkpt>
      <trkpt lat="44.3223" lon="5.20588">
        <ele>646.9</ele>
        <time>2022-07-17T09:16:16Z</time>
      </trkpt>
      <trkpt lat="44.32231" lon="5.20589">
        <ele>647.4</ele>
        <time>2022-07-17T09:16:17Z</time>
      </trkpt>
      <trkpt lat="44.32232" lon="5.2059">
        <ele>645.9</ele>
        <time>2022-07-17T09:16:18Z</time>
      </trkpt>
      <trkpt lat="44.32234" lon="5.20592">
        <ele>645.9</ele>
        <time>2022-07-17T09:16:19Z</time>
      </trkpt>
      <trkpt lat="44.32235" lon="5.20593">
        <ele>644.5</ele>
        <time>2022-07-17T09:16:20Z</time>
      </trkpt>
      <trkpt lat="44.32236" lon="5.20594">
        <ele>644.9</ele>
        <time>2022-07-17T09:16:21Z</time>
      </trkpt>
      <trkpt lat="44.32237" lon="5.20595">
        <ele>644.9</ele>
        <time>2022-07-17T09:16:22Z</time>
      </trkpt>
      <trkpt lat="44.32237" lon="5.20595">
        <ele>644.9</ele>
        <time>2022-07-17T09:16:23Z</time>
      </trkpt>
      <trkpt lat="44.32238" lon="5.20596">
        <ele>643.6</ele>
        <time>2022-07-17T09:16:24Z</time>
      </trkpt>
      <trkpt lat="44.32238" lon="5.20596">
        <ele>643.6</ele>
        <time>2022-07-17T09:16:25Z</time>
      </trkpt>
      <trkpt lat="44.32239" lon="5.20596">
        <ele>643.6</ele>
        <time>2022-07-17T09:16:26Z</time>
      </trkpt>
      <trkpt lat="44.32239" lon="5.20597">
        <ele>643.6</ele>
        <time>2022-07-17T09:16:27Z</time>
      </trkpt>
      <trkpt lat="44.3224" lon="5.20597">
        <ele>643.6</ele>
        <time>2022-07-17T09:16:28Z</time>
      </trkpt>
      <trkpt lat="44.32241" lon="5.20597">
        <ele>643.5</ele>
        <time>2022-07-17T09:16:29Z</time>
      </trkpt>
      <trkpt lat="44.32241" lon="5.20597">
        <ele>642.3</ele>
        <time>2022-07-17T09:16:30Z</time>
      </trkpt>
      <trkpt lat="44.32241" lon="5.20596">
        <ele>642.3</ele>
        <time>2022-07-17T09:16:31Z</time>
      </trkpt>
      <trkpt lat="44.32241" lon="5.20595">
        <ele>642.3</ele>
        <time>2022-07-17T09:18:06Z</time>
      </trkpt>
      <trkpt lat="44.32242" lon="5.20594">
        <ele>642.3</ele>
        <time>2022-07-17T09:18:07Z</time>
      </trkpt>
      <trkpt lat="44.32242" lon="5.20593">
        <ele>641.8</ele>
        <time>2022-07-17T09:18:08Z</time>
      </trkpt>
      <trkpt lat="44.32242" lon="5.20592">
        <ele>641.8</ele>
        <time>2022-07-17T09:18:09Z</time>
      </trkpt>
      <trkpt lat="44.32243" lon="5.20591">
        <ele>641.8</ele>
        <time>2022-07-17T09:18:10Z</time>
      </trkpt>
      <trkpt lat="44.32243" lon="5.2059">
        <ele>641.8</ele>
        <time>2022-07-17T09:18:11Z</time>
      </trkpt>
      <trkpt lat="44.32243" lon="5.20589">
        <ele>641.8</ele>
        <time>2022-07-17T09:18:12Z</time>
      </trkpt>
      <trkpt lat="44.32244" lon="5.20589">
        <ele>640</ele>
        <time>2022-07-17T09:18:13Z</time>
      </trkpt>
      <trkpt lat="44.32244" lon="5.20588">
        <ele>640</ele>
        <time>2022-07-17T09:18:14Z</time>
      </trkpt>
      <trkpt lat="44.32244" lon="5.20587">
        <ele>640</ele>
        <time>2022-07-17T09:18:15Z</time>
      </trkpt>
      <trkpt lat="44.32245" lon="5.20586">
        <ele>640</ele>
        <time>2022-07-17T09:20:46Z</time>
      </trkpt>
      <trkpt lat="44.32245" lon="5.20585">
        <ele>640</ele>
        <time>2022-07-17T09:20:47Z</time>
      </trkpt>
      <trkpt lat="44.32245" lon="5.20584">
        <ele>639.5</ele>
        <time>2022-07-17T09:20:48Z</time>
      </trkpt>
      <trkpt lat="44.32246" lon="5.20583">
        <ele>639.5</ele>
        <time>2022-07-17T09:20:49Z</time>
      </trkpt>
      <trkpt lat="44.32246" lon="5.20582">
        <ele>639.5</ele>
        <time>2022-07-17T09:20:50Z</time>
      </trkpt>
      <trkpt lat="44.32246" lon="5.20581">
        <ele>639.5</ele>
        <time>2022-07-17T09:20:51Z</time>
      </trkpt>
      <trkpt lat="44.32247" lon="5.20581">
        <ele>639.5</ele>
        <time>2022-07-17T09:20:52Z</time>
      </trkpt>
      <trkpt lat="44.32247" lon="5.2058">
        <ele>637.6</ele>
        <time>2022-07-17T09:20:53Z</time>
      </trkpt>
      <trkpt lat="44.32247" lon="5.20579">
        <ele>637.6</ele>
        <time>2022-07-17T09:20:54Z</time>
      </trkpt>
      <trkpt lat="44.32247" lon="5.20578">
        <ele>637.6</ele>
        <time>2022-07-17T09:20:55Z</time>
      </trkpt>
      <trkpt lat="44.32248" lon="5.20577">
        <ele>637.6</ele>
        <time>2022-07-17T09:20:56Z</time>
      </trkpt>
      <trkpt lat="44.32248" lon="5.20576">
        <ele>637</ele>
        <time>2022-07-17T09:21:46Z</time>
      </trkpt>
      <trkpt lat="44.32248" lon="5.20575">
        <ele>637</ele>
        <time>2022-07-17T09:21:47Z</time>
      </trkpt>
      <trkpt lat="44.32249" lon="5.20574">
        <ele>637</ele>
        <time>2022-07-17T09:21:48Z</time>
      </trkpt>
      <trkpt lat="44.32249" lon="5.20573">
        <ele>637</ele>
        <time>2022-07-17T09:21:49Z</time>
      </trkpt>
      <trkpt lat="44.32249" lon="5.20573">
        <ele>637</ele>
        <time>2022-07-17T09:21:50Z</time>
      </trkpt>
      <trkpt lat="44.3225" lon="5.20571">
        <ele>636.4</ele>
        <time>2022-07-17T09:21:51Z</time>
      </trkpt>
      <trkpt lat="44.3225" lon="5.20569">
        <ele>635.1</ele>
        <time>2022-07-17T09:21:52Z</time>
      </trkpt>
      <trkpt lat="44.3225" lon="5.20567">
        <ele>634.6</ele>
        <time>2022-07-17T09:21:53Z</time>
      </trkpt>
      <trkpt lat="44.32251" lon="5.20566">
        <ele>634.6</ele>
        <time>2022-07-17T09:21:54Z</time>
      </trkpt>
      <trkpt lat="44.32251" lon="5.20564">
        <ele>634.6</ele>
        <time>2022-07-17T09:21:55Z</time>
      </trkpt>
      <trkpt lat="44.32251" lon="5.20562">
        <ele>634</ele>
        <time>2022-07-17T09:21:56Z</time>
      </trkpt>
      <trkpt lat="44.32252" lon="5.20561">
        <ele>634</ele>
        <time>2022-07-17T09:22:21Z</time>
      </trkpt>
      <trkpt lat="44.32252" lon="5.20559">
        <ele>633.5</ele>
        <time>2022-07-17T09:22:22Z</time>
      </trkpt>
      <trkpt lat="44.32252" lon="5.20557">
        <ele>633.5</ele>
        <time>2022-07-17T09:22:23Z</time>
      </trkpt>
      <trkpt lat="44.32253" lon="5.20555">
        <ele>633.5</ele>
        <time>2022-07-17T09:22:24Z</time>
      </trkpt>
      <trkpt lat="44.32253" lon="5.20554">
        <ele>631.7</ele>
        <time>2022-07-17T09:22:25Z</time>
      </trkpt>
      <trkpt lat="44.32253" lon="5.20552">
        <ele>631.7</ele>
        <time>2022-07-17T09:22:26Z</time>
      </trkpt>
      <trkpt lat="44.32254" lon="5.2055">
        <ele>631.2</ele>
        <time>2022-07-17T09:22:27Z</time>
      </trkpt>
      <trkpt lat="44.32254" lon="5.20549">
        <ele>631.2</ele>
        <time>2022-07-17T09:22:28Z</time>
      </trkpt>
      <trkpt lat="44.32254" lon="5.20547">
        <ele>631.2</ele>
        <time>2022-07-17T09:22:29Z</time>
      </trkpt>
      <trkpt lat="44.32255" lon="5.20545">
        <ele>630.6</ele>
        <time>2022-07-17T09:22:30Z</time>
      </trkpt>
      <trkpt lat="44.32255" lon="5.20543">
        <ele>630.6</ele>
        <time>2022-07-17T09:23:07Z</time>
      </trkpt>
      <trkpt lat="44.32255" lon="5.20542">
        <ele>630.1</ele>
        <time>2022-07-17T09:23:08Z</time>
      </trkpt>
      <trkpt lat="44.32256" lon="5.2054">
        <ele>630.1</ele>
        <time>2022-07-17T09:23:09Z</time>
      </trkpt>
      <trkpt lat="44.32256" lon="5.20538">
        <ele>630</ele>
        <time>2022-07-17T09:23:10Z</time>
      </trkpt>
      <trkpt lat="44.32257" lon="5.20538">
        <ele>628.9</ele>
        <time>2022-07-17T09:23:11Z</time>
      </trkpt>
      <trkpt lat="44.32258" lon="5.20537">
        <ele>628.3</ele>
        <time>2022-07-17T09:23:12Z</time>
      </trkpt>
      <trkpt lat="44.32258" lon="5.20536">
        <ele>628.3</ele>
        <time>2022-07-17T09:23:13Z</time>
      </trkpt>
      <trkpt lat="44.32259" lon="5.20534">
        <ele>628.3</ele>
        <time>2022-07-17T09:23:14Z</time>
      </trkpt>
      <trkpt lat="44.32259" lon="5.20533">
        <ele>627.3</ele>
        <time>2022-07-17T09:23:15Z</time>
      </trkpt>
      <trkpt lat="44.3226" lon="5.20533">
        <ele>626.7</ele>
        <time>2022-07-17T09:23:16Z</time>
      </trkpt>
      <trkpt lat="44.3226" lon="5.20532">
        <ele>626.7</ele>
        <time>2022-07-17T09:23:17Z</time>
      </trkpt>
      <trkpt lat="44.3226" lon="5.20532">
        <ele>626.7</ele>
        <time>2022-07-17T09:23:18Z</time>
      </trkpt>
      <trkpt lat="44.3226" lon="5.20531">
        <ele>626.7</ele>
        <time>2022-07-17T09:23:19Z</time>
      </trkpt>
      <trkpt lat="44.32261" lon="5.2053">
        <ele>626.7</ele>
        <time>2022-07-17T09:23:20Z</time>
      </trkpt>
      <trkpt lat="44.32261" lon="5.2053">
        <ele>626.7</ele>
        <time>2022-07-17T09:23:21Z</time>
      </trkpt>
      <trkpt lat="44.32261" lon="5.20529">
        <ele>626.7</ele>
        <time>2022-07-17T09:23:22Z</time>
      </trkpt>
      <trkpt lat="44.32261" lon="5.20529">
        <ele>626.7</ele>
        <time>2022-07-17T09:23:23Z</time>
      </trkpt>
      <trkpt lat="44.32262" lon="5.20528">
        <ele>625.2</ele>
        <time>2022-07-17T09:23:24Z</time>
      </trkpt>
      <trkpt lat="44.32264" lon="5.20523">
        <ele>624.6</ele>
        <time>2022-07-17T09:23:25Z</time>
      </trkpt>
      <trkpt lat="44.32264" lon="5.20518">
        <ele>624.1</ele>
        <time>2022-07-17T09:25:08Z</time>
      </trkpt>
      <trkpt lat="44.32265" lon="5.20514">
        <ele>623.5</ele>
        <time>2022-07-17T09:25:09Z</time>
      </trkpt>
      <trkpt lat="44.32265" lon="5.2051">
        <ele>622.3</ele>
        <time>2022-07-17T09:25:10Z</time>
      </trkpt>
      <trkpt lat="44.32265" lon="5.20507">
        <ele>621.7</ele>
        <time>2022-07-17T09:25:11Z</time>
      </trkpt>
      <trkpt lat="44.32265" lon="5.20505">
        <ele>621.7</ele>
        <time>2022-07-17T09:25:12Z</time>
      </trkpt>
      <trkpt lat="44.32265" lon="5.20504">
        <ele>621.7</ele>
        <time>2022-07-17T09:25:13Z</time>
      </trkpt>
      <trkpt lat="44.32265" lon="5.20502">
        <ele>621.1</ele>
        <time>2022-07-17T09:25:14Z</time>
      </trkpt>
      <trkpt lat="44.32265" lon="5.20499">
        <ele>621.1</ele>
        <time>2022-07-17T09:25:15Z</time>
      </trkpt>
      <trkpt lat="44.32265" lon="5.20497">
        <ele>620.5</ele>
        <time>2022-07-17T09:25:16Z</time>
      </trkpt>
      <trkpt lat="44.32265" lon="5.20496">
        <ele>620.5</ele>
        <time>2022-07-17T09:25:17Z</time>
      </trkpt>
      <trkpt lat="44.32265" lon="5.20494">
        <ele>619.9</ele>
        <time>2022-07-17T09:25:18Z</time>
      </trkpt>
      <trkpt lat="44.32265" lon="5.2049">
        <ele>619.8</ele>
        <time>2022-07-17T09:25:19Z</time>
      </trkpt>
      <trkpt lat="44.32265" lon="5.20488">
        <ele>619.8</ele>
        <time>2022-07-17T09:25:20Z</time>
      </trkpt>
      <trkpt lat="44.32264" lon="5.20483">
        <ele>619.2</ele>
        <time>2022-07-17T09:25:21Z</time>
      </trkpt>
      <trkpt lat="44.32264" lon="5.20478">
        <ele>618.6</ele>
        <time>2022-07-17T09:25:22Z</time>
      </trkpt>
      <trkpt lat="44.32263" lon="5.20473">
        <ele>617.6</ele>
        <time>2022-07-17T09:25:23Z</time>
      </trkpt>
      <trkpt lat="44.32262" lon="5.20469">
        <ele>618.2</ele>
        <time>2022-07-17T09:25:24Z</time>
      </trkpt>
      <trkpt lat="44.32261" lon="5.20465">
        <ele>617.7</ele>
        <time>2022-07-17T09:25:25Z</time>
      </trkpt>
      <trkpt lat="44.3226" lon="5.20464">
        <ele>617.2</ele>
        <time>2022-07-17T09:25:26Z</time>
      </trkpt>
      <trkpt lat="44.32259" lon="5.20461">
        <ele>617.2</ele>
        <time>2022-07-17T09:25:27Z</time>
      </trkpt>
      <trkpt lat="44.32258" lon="5.20456">
        <ele>617.5</ele>
        <time>2022-07-17T09:25:28Z</time>
      </trkpt>
      <trkpt lat="44.32256" lon="5.20451">
        <ele>616.6</ele>
        <time>2022-07-17T09:25:29Z</time>
      </trkpt>
      <trkpt lat="44.32256" lon="5.2045">
        <ele>617.5</ele>
        <time>2022-07-17T09:25:30Z</time>
      </trkpt>
      <trkpt lat="44.32255" lon="5.20445">
        <ele>617.1</ele>
        <time>2022-07-17T09:25:31Z</time>
      </trkpt>
      <trkpt lat="44.32255" lon="5.20443">
        <ele>616.6</ele>
        <time>2022-07-17T09:25:32Z</time>
      </trkpt>
      <trkpt lat="44.32255" lon="5.20439">
        <ele>616</ele>
        <time>2022-07-17T09:25:33Z</time>
      </trkpt>
      <trkpt lat="44.32255" lon="5.20435">
        <ele>616</ele>
        <time>2022-07-17T09:25:34Z</time>
      </trkpt>
      <trkpt lat="44.32255" lon="5.20431">
        <ele>615.5</ele>
        <time>2022-07-17T09:25:35Z</time>
      </trkpt>
      <trkpt lat="44.32256" lon="5.20426">
        <ele>614.1</ele>
        <time>2022-07-17T09:25:36Z</time>
      </trkpt>
      <trkpt lat="44.32256" lon="5.20421">
        <ele>614</ele>
        <time>2022-07-17T09:25:37Z</time>
      </trkpt>
      <trkpt lat="44.32255" lon="5.20415">
        <ele>613.4</ele>
        <time>2022-07-17T09:25:38Z</time>
      </trkpt>
      <trkpt lat="44.32254" lon="5.2041">
        <ele>612.9</ele>
        <time>2022-07-17T09:25:39Z</time>
      </trkpt>
      <trkpt lat="44.32252" lon="5.20405">
        <ele>613.3</ele>
        <time>2022-07-17T09:25:40Z</time>
      </trkpt>
      <trkpt lat="44.3225" lon="5.20401">
        <ele>612.7</ele>
        <time>2022-07-17T09:25:41Z</time>
      </trkpt>
      <trkpt lat="44.32248" lon="5.20396">
        <ele>613.2</ele>
        <time>2022-07-17T09:25:42Z</time>
      </trkpt>
      <trkpt lat="44.32247" lon="5.20389">
        <ele>612.1</ele>
        <time>2022-07-17T09:25:43Z</time>
      </trkpt>
      <trkpt lat="44.32244" lon="5.20384">
        <ele>612.8</ele>
        <time>2022-07-17T09:25:44Z</time>
      </trkpt>
      <trkpt lat="44.32243" lon="5.20378">
        <ele>612.9</ele>
        <time>2022-07-17T09:25:45Z</time>
      </trkpt>
      <trkpt lat="44.32241" lon="5.20372">
        <ele>612.5</ele>
        <time>2022-07-17T09:25:46Z</time>
      </trkpt>
      <trkpt lat="44.32239" lon="5.20367">
        <ele>613.2</ele>
        <time>2022-07-17T09:25:47Z</time>
      </trkpt>
      <trkpt lat="44.32238" lon="5.20361">
        <ele>612.1</ele>
        <time>2022-07-17T09:25:48Z</time>
      </trkpt>
      <trkpt lat="44.32238" lon="5.20357">
        <ele>611.6</ele>
        <time>2022-07-17T09:25:49Z</time>
      </trkpt>
      <trkpt lat="44.32237" lon="5.20353">
        <ele>612.3</ele>
        <time>2022-07-17T09:25:50Z</time>
      </trkpt>
      <trkpt lat="44.32236" lon="5.20348">
        <ele>611.8</ele>
        <time>2022-07-17T09:25:51Z</time>
      </trkpt>
      <trkpt lat="44.32236" lon="5.20347">
        <ele>611.8</ele>
        <time>2022-07-17T09:25:52Z</time>
      </trkpt>
      <trkpt lat="44.32234" lon="5.20342">
        <ele>612.6</ele>
        <time>2022-07-17T09:25:53Z</time>
      </trkpt>
      <trkpt lat="44.32233" lon="5.20338">
        <ele>612.1</ele>
        <time>2022-07-17T09:25:54Z</time>
      </trkpt>
      <trkpt lat="44.32233" lon="5.20336">
        <ele>612.1</ele>
        <time>2022-07-17T09:25:55Z</time>
      </trkpt>
      <trkpt lat="44.32232" lon="5.20332">
        <ele>611.6</ele>
        <time>2022-07-17T09:25:56Z</time>
      </trkpt>
      <trkpt lat="44.32231" lon="5.20331">
        <ele>612.7</ele>
        <time>2022-07-17T09:25:57Z</time>
      </trkpt>
      <trkpt lat="44.3223" lon="5.20327">
        <ele>612.2</ele>
        <time>2022-07-17T09:25:58Z</time>
      </trkpt>
      <trkpt lat="44.3223" lon="5.20326">
        <ele>612.2</ele>
        <time>2022-07-17T09:25:59Z</time>
      </trkpt>
      <trkpt lat="44.32229" lon="5.20324">
        <ele>612.2</ele>
        <time>2022-07-17T09:26:00Z</time>
      </trkpt>
      <trkpt lat="44.32229" lon="5.20322">
        <ele>611.8</ele>
        <time>2022-07-17T09:26:01Z</time>
      </trkpt>
      <trkpt lat="44.32229" lon="5.20319">
        <ele>611.8</ele>
        <time>2022-07-17T09:26:02Z</time>
      </trkpt>
      <trkpt lat="44.32229" lon="5.20317">
        <ele>611.3</ele>
        <time>2022-07-17T09:26:03Z</time>
      </trkpt>
      <trkpt lat="44.32229" lon="5.20315">
        <ele>611.3</ele>
        <time>2022-07-17T09:26:04Z</time>
      </trkpt>
      <trkpt lat="44.32229" lon="5.20313">
        <ele>610.7</ele>
        <time>2022-07-17T09:26:05Z</time>
      </trkpt>
      <trkpt lat="44.32229" lon="5.20311">
        <ele>610.7</ele>
        <time>2022-07-17T09:26:06Z</time>
      </trkpt>
      <trkpt lat="44.32229" lon="5.20309">
        <ele>610.2</ele>
        <time>2022-07-17T09:26:07Z</time>
      </trkpt>
      <trkpt lat="44.32229" lon="5.20308">
        <ele>610.2</ele>
        <time>2022-07-17T09:26:08Z</time>
      </trkpt>
      <trkpt lat="44.32229" lon="5.20306">
        <ele>610.2</ele>
        <time>2022-07-17T09:26:09Z</time>
      </trkpt>
      <trkpt lat="44.3223" lon="5.20305">
        <ele>609.6</ele>
        <time>2022-07-17T09:26:10Z</time>
      </trkpt>
      <trkpt lat="44.3223" lon="5.20304">
        <ele>609.6</ele>
        <time>2022-07-17T09:26:11Z</time>
      </trkpt>
      <trkpt lat="44.3223" lon="5.20304">
        <ele>609.6</ele>
        <time>2022-07-17T09:26:12Z</time>
      </trkpt>
      <trkpt lat="44.3223" lon="5.20303">
        <ele>609.6</ele>
        <time>2022-07-17T09:26:13Z</time>
      </trkpt>
      <trkpt lat="44.3223" lon="5.20302">
        <ele>609.6</ele>
        <time>2022-07-17T09:26:14Z</time>
      </trkpt>
      <trkpt lat="44.32229" lon="5.20301">
        <ele>609</ele>
        <time>2022-07-17T09:26:15Z</time>
      </trkpt>
      <trkpt lat="44.32229" lon="5.20299">
        <ele>609</ele>
        <time>2022-07-17T09:26:16Z</time>
      </trkpt>
      <trkpt lat="44.32228" lon="5.20298">
        <ele>610.7</ele>
        <time>2022-07-17T09:26:17Z</time>
      </trkpt>
      <trkpt lat="44.32227" lon="5.20297">
        <ele>610.7</ele>
        <time>2022-07-17T09:26:18Z</time>
      </trkpt>
      <trkpt lat="44.32226" lon="5.20296">
        <ele>610.2</ele>
        <time>2022-07-17T09:26:19Z</time>
      </trkpt>
      <trkpt lat="44.32226" lon="5.20294">
        <ele>610.2</ele>
        <time>2022-07-17T09:26:20Z</time>
      </trkpt>
      <trkpt lat="44.32225" lon="5.20293">
        <ele>610.2</ele>
        <time>2022-07-17T09:26:21Z</time>
      </trkpt>
      <trkpt lat="44.32225" lon="5.20292">
        <ele>611.5</ele>
        <time>2022-07-17T09:26:22Z</time>
      </trkpt>
      <trkpt lat="44.32224" lon="5.20291">
        <ele>611.5</ele>
        <time>2022-07-17T09:26:23Z</time>
      </trkpt>
      <trkpt lat="44.32223" lon="5.2029">
        <ele>611.4</ele>
        <time>2022-07-17T09:26:24Z</time>
      </trkpt>
      <trkpt lat="44.32222" lon="5.20289">
        <ele>611.4</ele>
        <time>2022-07-17T09:26:25Z</time>
      </trkpt>
      <trkpt lat="44.32222" lon="5.20287">
        <ele>612.8</ele>
        <time>2022-07-17T09:26:26Z</time>
      </trkpt>
      <trkpt lat="44.32221" lon="5.20286">
        <ele>612.8</ele>
        <time>2022-07-17T09:26:27Z</time>
      </trkpt>
      <trkpt lat="44.3222" lon="5.20284">
        <ele>612.2</ele>
        <time>2022-07-17T09:26:28Z</time>
      </trkpt>
      <trkpt lat="44.3222" lon="5.20282">
        <ele>612.2</ele>
        <time>2022-07-17T09:26:29Z</time>
      </trkpt>
      <trkpt lat="44.3222" lon="5.20279">
        <ele>611.5</ele>
        <time>2022-07-17T09:26:30Z</time>
      </trkpt>
      <trkpt lat="44.3222" lon="5.20278">
        <ele>611.5</ele>
        <time>2022-07-17T09:26:31Z</time>
      </trkpt>
      <trkpt lat="44.3222" lon="5.20277">
        <ele>611.5</ele>
        <time>2022-07-17T09:26:32Z</time>
      </trkpt>
      <trkpt lat="44.32219" lon="5.20275">
        <ele>610.8</ele>
        <time>2022-07-17T09:26:33Z</time>
      </trkpt>
      <trkpt lat="44.32219" lon="5.20272">
        <ele>612.7</ele>
        <time>2022-07-17T09:26:34Z</time>
      </trkpt>
      <trkpt lat="44.3222" lon="5.20268">
        <ele>610.1</ele>
        <time>2022-07-17T09:26:35Z</time>
      </trkpt>
      <trkpt lat="44.3222" lon="5.20267">
        <ele>610.1</ele>
        <time>2022-07-17T09:26:36Z</time>
      </trkpt>
      <trkpt lat="44.3222" lon="5.20265">
        <ele>609.3</ele>
        <time>2022-07-17T09:26:37Z</time>
      </trkpt>
      <trkpt lat="44.32221" lon="5.20264">
        <ele>609.3</ele>
        <time>2022-07-17T09:26:38Z</time>
      </trkpt>
      <trkpt lat="44.32221" lon="5.20263">
        <ele>608.6</ele>
        <time>2022-07-17T09:26:39Z</time>
      </trkpt>
      <trkpt lat="44.32221" lon="5.20263">
        <ele>608.6</ele>
        <time>2022-07-17T09:26:40Z</time>
      </trkpt>
      <trkpt lat="44.32221" lon="5.20261">
        <ele>608.5</ele>
        <time>2022-07-17T09:26:41Z</time>
      </trkpt>
      <trkpt lat="44.32221" lon="5.20261">
        <ele>608.5</ele>
        <time>2022-07-17T09:26:42Z</time>
      </trkpt>
      <trkpt lat="44.32221" lon="5.2026">
        <ele>608.5</ele>
        <time>2022-07-17T09:26:43Z</time>
      </trkpt>
      <trkpt lat="44.32222" lon="5.20259">
        <ele>608.5</ele>
        <time>2022-07-17T09:26:44Z</time>
      </trkpt>
      <trkpt lat="44.32222" lon="5.20258">
        <ele>605.9</ele>
        <time>2022-07-17T09:26:45Z</time>
      </trkpt>
      <trkpt lat="44.32223" lon="5.20255">
        <ele>605.9</ele>
        <time>2022-07-17T09:26:46Z</time>
      </trkpt>
      <trkpt lat="44.32223" lon="5.20254">
        <ele>605.1</ele>
        <time>2022-07-17T09:26:47Z</time>
      </trkpt>
      <trkpt lat="44.32224" lon="5.20252">
        <ele>605.1</ele>
        <time>2022-07-17T09:26:48Z</time>
      </trkpt>
      <trkpt lat="44.32225" lon="5.20249">
        <ele>602.6</ele>
        <time>2022-07-17T09:26:49Z</time>
      </trkpt>
      <trkpt lat="44.32226" lon="5.20247">
        <ele>602.6</ele>
        <time>2022-07-17T09:26:50Z</time>
      </trkpt>
      <trkpt lat="44.32227" lon="5.20244">
        <ele>601.8</ele>
        <time>2022-07-17T09:26:51Z</time>
      </trkpt>
      <trkpt lat="44.32228" lon="5.20243">
        <ele>601.8</ele>
        <time>2022-07-17T09:26:52Z</time>
      </trkpt>
      <trkpt lat="44.32228" lon="5.2024">
        <ele>601.1</ele>
        <time>2022-07-17T09:26:53Z</time>
      </trkpt>
      <trkpt lat="44.32227" lon="5.20238">
        <ele>601.1</ele>
        <time>2022-07-17T09:26:54Z</time>
      </trkpt>
      <trkpt lat="44.32227" lon="5.20237">
        <ele>600.4</ele>
        <time>2022-07-17T09:26:55Z</time>
      </trkpt>
      <trkpt lat="44.32226" lon="5.20235">
        <ele>600.4</ele>
        <time>2022-07-17T09:26:56Z</time>
      </trkpt>
      <trkpt lat="44.32225" lon="5.20233">
        <ele>600.4</ele>
        <time>2022-07-17T09:26:57Z</time>
      </trkpt>
      <trkpt lat="44.32224" lon="5.20231">
        <ele>601.4</ele>
        <time>2022-07-17T09:26:58Z</time>
      </trkpt>
      <trkpt lat="44.32222" lon="5.20229">
        <ele>601.4</ele>
        <time>2022-07-17T09:26:59Z</time>
      </trkpt>
      <trkpt lat="44.32221" lon="5.20227">
        <ele>602.5</ele>
        <time>2022-07-17T09:27:00Z</time>
      </trkpt>
      <trkpt lat="44.32219" lon="5.20225">
        <ele>604.2</ele>
        <time>2022-07-17T09:27:01Z</time>
      </trkpt>
      <trkpt lat="44.32217" lon="5.20223">
        <ele>603.5</ele>
        <time>2022-07-17T09:27:02Z</time>
      </trkpt>
      <trkpt lat="44.32216" lon="5.20221">
        <ele>605.3</ele>
        <time>2022-07-17T09:27:03Z</time>
      </trkpt>
      <trkpt lat="44.32214" lon="5.20218">
        <ele>604.6</ele>
        <time>2022-07-17T09:29:59Z</time>
      </trkpt>
      <trkpt lat="44.32212" lon="5.20216">
        <ele>606.4</ele>
        <time>2022-07-17T09:30:00Z</time>
      </trkpt>
      <trkpt lat="44.32211" lon="5.20214">
        <ele>605.7</ele>
        <time>2022-07-17T09:30:01Z</time>
      </trkpt>
      <trkpt lat="44.3221" lon="5.20213">
        <ele>605.7</ele>
        <time>2022-07-17T09:30:02Z</time>
      </trkpt>
      <trkpt lat="44.3221" lon="5.20211">
        <ele>605.1</ele>
        <time>2022-07-17T09:30:03Z</time>
      </trkpt>
      <trkpt lat="44.32209" lon="5.2021">
        <ele>607</ele>
        <time>2022-07-17T09:30:04Z</time>
      </trkpt>
      <trkpt lat="44.32209" lon="5.20208">
        <ele>607</ele>
        <time>2022-07-17T09:30:05Z</time>
      </trkpt>
      <trkpt lat="44.32208" lon="5.20206">
        <ele>606.3</ele>
        <time>2022-07-17T09:30:06Z</time>
      </trkpt>
      <trkpt lat="44.32208" lon="5.20204">
        <ele>606.3</ele>
        <time>2022-07-17T09:30:07Z</time>
      </trkpt>
      <trkpt lat="44.32208" lon="5.20202">
        <ele>605.7</ele>
        <time>2022-07-17T09:30:08Z</time>
      </trkpt>
      <trkpt lat="44.32208" lon="5.202">
        <ele>605.7</ele>
        <time>2022-07-17T09:30:09Z</time>
      </trkpt>
      <trkpt lat="44.32207" lon="5.20197">
        <ele>605.2</ele>
        <time>2022-07-17T09:30:10Z</time>
      </trkpt>
      <trkpt lat="44.32207" lon="5.20193">
        <ele>604.7</ele>
        <time>2022-07-17T09:30:11Z</time>
      </trkpt>
      <trkpt lat="44.32207" lon="5.20192">
        <ele>606.6</ele>
        <time>2022-07-17T09:30:12Z</time>
      </trkpt>
      <trkpt lat="44.32206" lon="5.20188">
        <ele>606.1</ele>
        <time>2022-07-17T09:30:13Z</time>
      </trkpt>
      <trkpt lat="44.32205" lon="5.20186">
        <ele>606.1</ele>
        <time>2022-07-17T09:30:14Z</time>
      </trkpt>
      <trkpt lat="44.32205" lon="5.20184">
        <ele>605.6</ele>
        <time>2022-07-17T09:30:15Z</time>
      </trkpt>
      <trkpt lat="44.32204" lon="5.20182">
        <ele>605.6</ele>
        <time>2022-07-17T09:30:16Z</time>
      </trkpt>
      <trkpt lat="44.32204" lon="5.20178">
        <ele>605.1</ele>
        <time>2022-07-17T09:30:17Z</time>
      </trkpt>
      <trkpt lat="44.32204" lon="5.20177">
        <ele>605.1</ele>
        <time>2022-07-17T09:30:18Z</time>
      </trkpt>
      <trkpt lat="44.32204" lon="5.20175">
        <ele>604.6</ele>
        <time>2022-07-17T09:30:19Z</time>
      </trkpt>
      <trkpt lat="44.32204" lon="5.20173">
        <ele>604.6</ele>
        <time>2022-07-17T09:30:20Z</time>
      </trkpt>
      <trkpt lat="44.32205" lon="5.20171">
        <ele>604.1</ele>
        <time>2022-07-17T09:30:21Z</time>
      </trkpt>
      <trkpt lat="44.32205" lon="5.20168">
        <ele>603.6</ele>
        <time>2022-07-17T09:30:22Z</time>
      </trkpt>
      <trkpt lat="44.32205" lon="5.20165">
        <ele>603.6</ele>
        <time>2022-07-17T09:30:23Z</time>
      </trkpt>
      <trkpt lat="44.32205" lon="5.20164">
        <ele>603.1</ele>
        <time>2022-07-17T09:30:24Z</time>
      </trkpt>
      <trkpt lat="44.32205" lon="5.20162">
        <ele>603</ele>
        <time>2022-07-17T09:30:25Z</time>
      </trkpt>
      <trkpt lat="44.32205" lon="5.2016">
        <ele>602.6</ele>
        <time>2022-07-17T09:30:26Z</time>
      </trkpt>
      <trkpt lat="44.32205" lon="5.20158">
        <ele>602.6</ele>
        <time>2022-07-17T09:30:27Z</time>
      </trkpt>
      <trkpt lat="44.32204" lon="5.20154">
        <ele>602.2</ele>
        <time>2022-07-17T09:30:28Z</time>
      </trkpt>
      <trkpt lat="44.32204" lon="5.20153">
        <ele>602.2</ele>
        <time>2022-07-17T09:30:29Z</time>
      </trkpt>
      <trkpt lat="44.32205" lon="5.20151">
        <ele>601.8</ele>
        <time>2022-07-17T09:30:30Z</time>
      </trkpt>
      <trkpt lat="44.32205" lon="5.20148">
        <ele>601.7</ele>
        <time>2022-07-17T09:30:31Z</time>
      </trkpt>
      <trkpt lat="44.32205" lon="5.20144">
        <ele>601.3</ele>
        <time>2022-07-17T09:30:32Z</time>
      </trkpt>
      <trkpt lat="44.32205" lon="5.20143">
        <ele>601.3</ele>
        <time>2022-07-17T09:30:33Z</time>
      </trkpt>
      <trkpt lat="44.32205" lon="5.2014">
        <ele>600.9</ele>
        <time>2022-07-17T09:30:34Z</time>
      </trkpt>
      <trkpt lat="44.32204" lon="5.20139">
        <ele>600.9</ele>
        <time>2022-07-17T09:30:35Z</time>
      </trkpt>
      <trkpt lat="44.32204" lon="5.20137">
        <ele>600.4</ele>
        <time>2022-07-17T09:30:36Z</time>
      </trkpt>
      <trkpt lat="44.32204" lon="5.20135">
        <ele>600.4</ele>
        <time>2022-07-17T09:30:37Z</time>
      </trkpt>
      <trkpt lat="44.32204" lon="5.20133">
        <ele>601.7</ele>
        <time>2022-07-17T09:30:38Z</time>
      </trkpt>
      <trkpt lat="44.32203" lon="5.20131">
        <ele>601.7</ele>
        <time>2022-07-17T09:30:39Z</time>
      </trkpt>
      <trkpt lat="44.32203" lon="5.20129">
        <ele>601.2</ele>
        <time>2022-07-17T09:30:40Z</time>
      </trkpt>
      <trkpt lat="44.32202" lon="5.20127">
        <ele>601.2</ele>
        <time>2022-07-17T09:30:41Z</time>
      </trkpt>
      <trkpt lat="44.32201" lon="5.20123">
        <ele>600.6</ele>
        <time>2022-07-17T09:30:42Z</time>
      </trkpt>
      <trkpt lat="44.32201" lon="5.20122">
        <ele>600.6</ele>
        <time>2022-07-17T09:30:43Z</time>
      </trkpt>
      <trkpt lat="44.322" lon="5.20118">
        <ele>601.8</ele>
        <time>2022-07-17T09:30:44Z</time>
      </trkpt>
      <trkpt lat="44.32199" lon="5.20117">
        <ele>601.8</ele>
        <time>2022-07-17T09:30:45Z</time>
      </trkpt>
      <trkpt lat="44.32199" lon="5.20115">
        <ele>601.3</ele>
        <time>2022-07-17T09:30:46Z</time>
      </trkpt>
      <trkpt lat="44.32198" lon="5.20113">
        <ele>600.7</ele>
        <time>2022-07-17T09:30:47Z</time>
      </trkpt>
      <trkpt lat="44.32198" lon="5.20111">
        <ele>600.7</ele>
        <time>2022-07-17T09:30:48Z</time>
      </trkpt>
      <trkpt lat="44.32197" lon="5.20109">
        <ele>602.4</ele>
        <time>2022-07-17T09:30:49Z</time>
      </trkpt>
      <trkpt lat="44.32197" lon="5.20106">
        <ele>601.8</ele>
        <time>2022-07-17T09:30:50Z</time>
      </trkpt>
      <trkpt lat="44.32197" lon="5.20104">
        <ele>601.8</ele>
        <time>2022-07-17T09:30:51Z</time>
      </trkpt>
      <trkpt lat="44.32197" lon="5.20101">
        <ele>601.2</ele>
        <time>2022-07-17T09:30:52Z</time>
      </trkpt>
      <trkpt lat="44.32196" lon="5.201">
        <ele>601.2</ele>
        <time>2022-07-17T09:30:53Z</time>
      </trkpt>
      <trkpt lat="44.32196" lon="5.20099">
        <ele>600.6</ele>
        <time>2022-07-17T09:30:54Z</time>
      </trkpt>
      <trkpt lat="44.32195" lon="5.20098">
        <ele>600.6</ele>
        <time>2022-07-17T09:30:55Z</time>
      </trkpt>
      <trkpt lat="44.32194" lon="5.20096">
        <ele>602.3</ele>
        <time>2022-07-17T09:30:56Z</time>
      </trkpt>
      <trkpt lat="44.32193" lon="5.20094">
        <ele>601.7</ele>
        <time>2022-07-17T09:30:57Z</time>
      </trkpt>
      <trkpt lat="44.32192" lon="5.20093">
        <ele>601.7</ele>
        <time>2022-07-17T09:30:58Z</time>
      </trkpt>
      <trkpt lat="44.32192" lon="5.20092">
        <ele>601.6</ele>
        <time>2022-07-17T09:30:59Z</time>
      </trkpt>
      <trkpt lat="44.32191" lon="5.20091">
        <ele>602.7</ele>
        <time>2022-07-17T09:31:00Z</time>
      </trkpt>
      <trkpt lat="44.32191" lon="5.2009">
        <ele>602.7</ele>
        <time>2022-07-17T09:31:01Z</time>
      </trkpt>
      <trkpt lat="44.32191" lon="5.20089">
        <ele>602.7</ele>
        <time>2022-07-17T09:31:02Z</time>
      </trkpt>
      <trkpt lat="44.32191" lon="5.20087">
        <ele>602.7</ele>
        <time>2022-07-17T09:31:03Z</time>
      </trkpt>
      <trkpt lat="44.3219" lon="5.20086">
        <ele>601.9</ele>
        <time>2022-07-17T09:31:04Z</time>
      </trkpt>
      <trkpt lat="44.3219" lon="5.20084">
        <ele>601.9</ele>
        <time>2022-07-17T09:31:05Z</time>
      </trkpt>
      <trkpt lat="44.32189" lon="5.20082">
        <ele>601.2</ele>
        <time>2022-07-17T09:31:06Z</time>
      </trkpt>
      <trkpt lat="44.32189" lon="5.20081">
        <ele>601.2</ele>
        <time>2022-07-17T09:31:07Z</time>
      </trkpt>
      <trkpt lat="44.32189" lon="5.2008">
        <ele>601.2</ele>
        <time>2022-07-17T09:31:08Z</time>
      </trkpt>
      <trkpt lat="44.32188" lon="5.20079">
        <ele>602.8</ele>
        <time>2022-07-17T09:31:09Z</time>
      </trkpt>
      <trkpt lat="44.32188" lon="5.20078">
        <ele>602.8</ele>
        <time>2022-07-17T09:31:10Z</time>
      </trkpt>
      <trkpt lat="44.32187" lon="5.20077">
        <ele>602.1</ele>
        <time>2022-07-17T09:31:11Z</time>
      </trkpt>
      <trkpt lat="44.32186" lon="5.20076">
        <ele>602.1</ele>
        <time>2022-07-17T09:31:12Z</time>
      </trkpt>
      <trkpt lat="44.32185" lon="5.20075">
        <ele>603.7</ele>
        <time>2022-07-17T09:31:13Z</time>
      </trkpt>
      <trkpt lat="44.32183" lon="5.20073">
        <ele>603</ele>
        <time>2022-07-17T09:31:14Z</time>
      </trkpt>
      <trkpt lat="44.32182" lon="5.20072">
        <ele>603</ele>
        <time>2022-07-17T09:31:15Z</time>
      </trkpt>
      <trkpt lat="44.32181" lon="5.2007">
        <ele>604.5</ele>
        <time>2022-07-17T09:31:16Z</time>
      </trkpt>
      <trkpt lat="44.3218" lon="5.20069">
        <ele>603.8</ele>
        <time>2022-07-17T09:31:17Z</time>
      </trkpt>
      <trkpt lat="44.32179" lon="5.20067">
        <ele>605.3</ele>
        <time>2022-07-17T09:31:18Z</time>
      </trkpt>
      <trkpt lat="44.32178" lon="5.20066">
        <ele>605.2</ele>
        <time>2022-07-17T09:31:19Z</time>
      </trkpt>
      <trkpt lat="44.32177" lon="5.20064">
        <ele>604.5</ele>
        <time>2022-07-17T09:31:20Z</time>
      </trkpt>
      <trkpt lat="44.32176" lon="5.20063">
        <ele>606</ele>
        <time>2022-07-17T09:31:21Z</time>
      </trkpt>
      <trkpt lat="44.32174" lon="5.20062">
        <ele>606</ele>
        <time>2022-07-17T09:31:22Z</time>
      </trkpt>
      <trkpt lat="44.32173" lon="5.20061">
        <ele>605.2</ele>
        <time>2022-07-17T09:31:23Z</time>
      </trkpt>
      <trkpt lat="44.32173" lon="5.2006">
        <ele>606.7</ele>
        <time>2022-07-17T09:31:24Z</time>
      </trkpt>
      <trkpt lat="44.32172" lon="5.20059">
        <ele>606.7</ele>
        <time>2022-07-17T09:31:25Z</time>
      </trkpt>
      <trkpt lat="44.32172" lon="5.20058">
        <ele>606.7</ele>
        <time>2022-07-17T09:31:26Z</time>
      </trkpt>
      <trkpt lat="44.32172" lon="5.20056">
        <ele>605.8</ele>
        <time>2022-07-17T09:31:27Z</time>
      </trkpt>
      <trkpt lat="44.32171" lon="5.20055">
        <ele>605.8</ele>
        <time>2022-07-17T09:31:28Z</time>
      </trkpt>
      <trkpt lat="44.32171" lon="5.20053">
        <ele>605.8</ele>
        <time>2022-07-17T09:31:29Z</time>
      </trkpt>
      <trkpt lat="44.32171" lon="5.20052">
        <ele>605</ele>
        <time>2022-07-17T09:31:30Z</time>
      </trkpt>
      <trkpt lat="44.3217" lon="5.20051">
        <ele>605</ele>
        <time>2022-07-17T09:31:31Z</time>
      </trkpt>
      <trkpt lat="44.3217" lon="5.2005">
        <ele>604.9</ele>
        <time>2022-07-17T09:31:32Z</time>
      </trkpt>
      <trkpt lat="44.32169" lon="5.20047">
        <ele>605.6</ele>
        <time>2022-07-17T09:31:33Z</time>
      </trkpt>
      <trkpt lat="44.32169" lon="5.20046">
        <ele>605.6</ele>
        <time>2022-07-17T09:31:34Z</time>
      </trkpt>
      <trkpt lat="44.32168" lon="5.20045">
        <ele>605.6</ele>
        <time>2022-07-17T09:31:35Z</time>
      </trkpt>
      <trkpt lat="44.32167" lon="5.20044">
        <ele>604.6</ele>
        <time>2022-07-17T09:31:36Z</time>
      </trkpt>
      <trkpt lat="44.32166" lon="5.20042">
        <ele>606.2</ele>
        <time>2022-07-17T09:31:37Z</time>
      </trkpt>
      <trkpt lat="44.32163" lon="5.2004">
        <ele>607.9</ele>
        <time>2022-07-17T09:31:38Z</time>
      </trkpt>
      <trkpt lat="44.32163" lon="5.2004">
        <ele>607.9</ele>
        <time>2022-07-17T09:31:39Z</time>
      </trkpt>
      <trkpt lat="44.32161" lon="5.20038">
        <ele>606.8</ele>
        <time>2022-07-17T09:31:40Z</time>
      </trkpt>
      <trkpt lat="44.3216" lon="5.20037">
        <ele>608.4</ele>
        <time>2022-07-17T09:31:41Z</time>
      </trkpt>
      <trkpt lat="44.32159" lon="5.20035">
        <ele>607.3</ele>
        <time>2022-07-17T09:31:42Z</time>
      </trkpt>
      <trkpt lat="44.32158" lon="5.20033">
        <ele>607.3</ele>
        <time>2022-07-17T09:31:43Z</time>
      </trkpt>
      <trkpt lat="44.32157" lon="5.20031">
        <ele>608.8</ele>
        <time>2022-07-17T09:31:44Z</time>
      </trkpt>
      <trkpt lat="44.32157" lon="5.2003">
        <ele>607.7</ele>
        <time>2022-07-17T09:31:45Z</time>
      </trkpt>
      <trkpt lat="44.32157" lon="5.20028">
        <ele>607.7</ele>
        <time>2022-07-17T09:31:46Z</time>
      </trkpt>
      <trkpt lat="44.32157" lon="5.20027">
        <ele>607.7</ele>
        <time>2022-07-17T09:31:47Z</time>
      </trkpt>
      <trkpt lat="44.32157" lon="5.20026">
        <ele>606.6</ele>
        <time>2022-07-17T09:31:48Z</time>
      </trkpt>
      <trkpt lat="44.32157" lon="5.20025">
        <ele>606.6</ele>
        <time>2022-07-17T09:31:49Z</time>
      </trkpt>
      <trkpt lat="44.32157" lon="5.20024">
        <ele>606.6</ele>
        <time>2022-07-17T09:31:50Z</time>
      </trkpt>
      <trkpt lat="44.32157" lon="5.20023">
        <ele>606.6</ele>
        <time>2022-07-17T09:31:51Z</time>
      </trkpt>
      <trkpt lat="44.32156" lon="5.20021">
        <ele>605.5</ele>
        <time>2022-07-17T09:31:52Z</time>
      </trkpt>
      <trkpt lat="44.32156" lon="5.20019">
        <ele>605.5</ele>
        <time>2022-07-17T09:31:53Z</time>
      </trkpt>
      <trkpt lat="44.32155" lon="5.20018">
        <ele>604.5</ele>
        <time>2022-07-17T09:31:54Z</time>
      </trkpt>
      <trkpt lat="44.32154" lon="5.20016">
        <ele>605.9</ele>
        <time>2022-07-17T09:31:55Z</time>
      </trkpt>
      <trkpt lat="44.32153" lon="5.20015">
        <ele>605.9</ele>
        <time>2022-07-17T09:31:56Z</time>
      </trkpt>
      <trkpt lat="44.32152" lon="5.20014">
        <ele>605.9</ele>
        <time>2022-07-17T09:31:57Z</time>
      </trkpt>
      <trkpt lat="44.3215" lon="5.20013">
        <ele>606.3</ele>
        <time>2022-07-17T09:31:58Z</time>
      </trkpt>
      <trkpt lat="44.32149" lon="5.20012">
        <ele>606.3</ele>
        <time>2022-07-17T09:31:59Z</time>
      </trkpt>
      <trkpt lat="44.32147" lon="5.2001">
        <ele>607.8</ele>
        <time>2022-07-17T09:32:00Z</time>
      </trkpt>
      <trkpt lat="44.32146" lon="5.20009">
        <ele>606.8</ele>
        <time>2022-07-17T09:32:01Z</time>
      </trkpt>
      <trkpt lat="44.32145" lon="5.20008">
        <ele>608.5</ele>
        <time>2022-07-17T09:32:02Z</time>
      </trkpt>
      <trkpt lat="44.32144" lon="5.20007">
        <ele>608.4</ele>
        <time>2022-07-17T09:32:03Z</time>
      </trkpt>
      <trkpt lat="44.32142" lon="5.20006">
        <ele>608.4</ele>
        <time>2022-07-17T09:32:04Z</time>
      </trkpt>
      <trkpt lat="44.32141" lon="5.20005">
        <ele>609.1</ele>
        <time>2022-07-17T09:32:05Z</time>
      </trkpt>
      <trkpt lat="44.3214" lon="5.20003">
        <ele>609.1</ele>
        <time>2022-07-17T09:32:06Z</time>
      </trkpt>
      <trkpt lat="44.3214" lon="5.20001">
        <ele>609.1</ele>
        <time>2022-07-17T09:32:07Z</time>
      </trkpt>
      <trkpt lat="44.32139" lon="5.2">
        <ele>609.8</ele>
        <time>2022-07-17T09:32:08Z</time>
      </trkpt>
      <trkpt lat="44.32138" lon="5.19997">
        <ele>609.8</ele>
        <time>2022-07-17T09:32:09Z</time>
      </trkpt>
      <trkpt lat="44.32137" lon="5.19996">
        <ele>608.5</ele>
        <time>2022-07-17T09:32:10Z</time>
      </trkpt>
      <trkpt lat="44.32137" lon="5.19995">
        <ele>608.5</ele>
        <time>2022-07-17T09:32:11Z</time>
      </trkpt>
      <trkpt lat="44.32136" lon="5.19994">
        <ele>610.3</ele>
        <time>2022-07-17T09:32:12Z</time>
      </trkpt>
      <trkpt lat="44.32135" lon="5.19992">
        <ele>609</ele>
        <time>2022-07-17T09:32:13Z</time>
      </trkpt>
      <trkpt lat="44.32135" lon="5.19991">
        <ele>609</ele>
        <time>2022-07-17T09:32:14Z</time>
      </trkpt>
      <trkpt lat="44.32135" lon="5.19989">
        <ele>609</ele>
        <time>2022-07-17T09:32:15Z</time>
      </trkpt>
      <trkpt lat="44.32135" lon="5.19988">
        <ele>607.7</ele>
        <time>2022-07-17T09:32:16Z</time>
      </trkpt>
      <trkpt lat="44.32135" lon="5.19986">
        <ele>607.7</ele>
        <time>2022-07-17T09:32:17Z</time>
      </trkpt>
      <trkpt lat="44.32134" lon="5.19985">
        <ele>607.6</ele>
        <time>2022-07-17T09:32:18Z</time>
      </trkpt>
      <trkpt lat="44.32134" lon="5.19984">
        <ele>607.6</ele>
        <time>2022-07-17T09:32:19Z</time>
      </trkpt>
      <trkpt lat="44.32133" lon="5.19983">
        <ele>606.4</ele>
        <time>2022-07-17T09:32:20Z</time>
      </trkpt>
      <trkpt lat="44.32133" lon="5.19981">
        <ele>606.4</ele>
        <time>2022-07-17T09:32:21Z</time>
      </trkpt>
      <trkpt lat="44.32133" lon="5.1998">
        <ele>607.9</ele>
        <time>2022-07-17T09:32:22Z</time>
      </trkpt>
      <trkpt lat="44.32132" lon="5.19979">
        <ele>606.6</ele>
        <time>2022-07-17T09:32:23Z</time>
      </trkpt>
      <trkpt lat="44.32131" lon="5.19978">
        <ele>606.6</ele>
        <time>2022-07-17T09:32:24Z</time>
      </trkpt>
      <trkpt lat="44.32131" lon="5.19976">
        <ele>606.6</ele>
        <time>2022-07-17T09:32:25Z</time>
      </trkpt>
      <trkpt lat="44.3213" lon="5.19975">
        <ele>605.3</ele>
        <time>2022-07-17T09:32:26Z</time>
      </trkpt>
      <trkpt lat="44.32128" lon="5.19973">
        <ele>606.7</ele>
        <time>2022-07-17T09:32:27Z</time>
      </trkpt>
      <trkpt lat="44.32128" lon="5.19972">
        <ele>606.7</ele>
        <time>2022-07-17T09:32:28Z</time>
      </trkpt>
      <trkpt lat="44.32127" lon="5.19971">
        <ele>608.1</ele>
        <time>2022-07-17T09:32:29Z</time>
      </trkpt>
      <trkpt lat="44.32125" lon="5.19969">
        <ele>606.9</ele>
        <time>2022-07-17T09:32:30Z</time>
      </trkpt>
      <trkpt lat="44.32125" lon="5.19968">
        <ele>606.8</ele>
        <time>2022-07-17T09:32:31Z</time>
      </trkpt>
      <trkpt lat="44.32124" lon="5.19966">
        <ele>605.6</ele>
        <time>2022-07-17T09:32:32Z</time>
      </trkpt>
      <trkpt lat="44.32124" lon="5.19964">
        <ele>607</ele>
        <time>2022-07-17T09:32:33Z</time>
      </trkpt>
      <trkpt lat="44.32123" lon="5.19963">
        <ele>607</ele>
        <time>2022-07-17T09:32:34Z</time>
      </trkpt>
      <trkpt lat="44.32122" lon="5.19962">
        <ele>605.8</ele>
        <time>2022-07-17T09:32:35Z</time>
      </trkpt>
      <trkpt lat="44.32122" lon="5.1996">
        <ele>605.8</ele>
        <time>2022-07-17T09:32:36Z</time>
      </trkpt>
      <trkpt lat="44.32121" lon="5.19959">
        <ele>605.8</ele>
        <time>2022-07-17T09:32:37Z</time>
      </trkpt>
      <trkpt lat="44.32121" lon="5.19957">
        <ele>604.6</ele>
        <time>2022-07-17T09:32:38Z</time>
      </trkpt>
      <trkpt lat="44.32121" lon="5.19956">
        <ele>604.6</ele>
        <time>2022-07-17T09:32:39Z</time>
      </trkpt>
      <trkpt lat="44.3212" lon="5.19954">
        <ele>606.1</ele>
        <time>2022-07-17T09:32:40Z</time>
      </trkpt>
      <trkpt lat="44.3212" lon="5.19953">
        <ele>604.9</ele>
        <time>2022-07-17T09:32:41Z</time>
      </trkpt>
      <trkpt lat="44.32118" lon="5.19952">
        <ele>604.9</ele>
        <time>2022-07-17T09:32:42Z</time>
      </trkpt>
      <trkpt lat="44.32117" lon="5.1995">
        <ele>606.5</ele>
        <time>2022-07-17T09:32:43Z</time>
      </trkpt>
      <trkpt lat="44.32116" lon="5.19949">
        <ele>605.3</ele>
        <time>2022-07-17T09:32:44Z</time>
      </trkpt>
      <trkpt lat="44.32116" lon="5.19948">
        <ele>605.3</ele>
        <time>2022-07-17T09:32:45Z</time>
      </trkpt>
      <trkpt lat="44.32115" lon="5.19947">
        <ele>605.3</ele>
        <time>2022-07-17T09:32:46Z</time>
      </trkpt>
      <trkpt lat="44.32114" lon="5.19945">
        <ele>605.9</ele>
        <time>2022-07-17T09:32:47Z</time>
      </trkpt>
      <trkpt lat="44.32112" lon="5.19944">
        <ele>605.8</ele>
        <time>2022-07-17T09:32:48Z</time>
      </trkpt>
      <trkpt lat="44.32111" lon="5.19944">
        <ele>607.6</ele>
        <time>2022-07-17T09:32:49Z</time>
      </trkpt>
      <trkpt lat="44.3211" lon="5.19943">
        <ele>607.6</ele>
        <time>2022-07-17T09:32:50Z</time>
      </trkpt>
      <trkpt lat="44.32109" lon="5.19943">
        <ele>607.6</ele>
        <time>2022-07-17T09:32:51Z</time>
      </trkpt>
      <trkpt lat="44.32108" lon="5.19943">
        <ele>609.2</ele>
        <time>2022-07-17T09:32:52Z</time>
      </trkpt>
      <trkpt lat="44.32107" lon="5.19941">
        <ele>609.2</ele>
        <time>2022-07-17T09:32:53Z</time>
      </trkpt>
      <trkpt lat="44.32106" lon="5.19939">
        <ele>608.1</ele>
        <time>2022-07-17T09:32:54Z</time>
      </trkpt>
      <trkpt lat="44.32105" lon="5.19938">
        <ele>609.7</ele>
        <time>2022-07-17T09:32:55Z</time>
      </trkpt>
      <trkpt lat="44.32105" lon="5.19936">
        <ele>608.7</ele>
        <time>2022-07-17T09:32:56Z</time>
      </trkpt>
      <trkpt lat="44.32104" lon="5.19935">
        <ele>608.7</ele>
        <time>2022-07-17T09:32:57Z</time>
      </trkpt>
      <trkpt lat="44.32103" lon="5.19933">
        <ele>608.7</ele>
        <time>2022-07-17T09:32:58Z</time>
      </trkpt>
      <trkpt lat="44.32102" lon="5.19931">
        <ele>609.3</ele>
        <time>2022-07-17T09:33:34Z</time>
      </trkpt>
      <trkpt lat="44.32102" lon="5.1993">
        <ele>609.3</ele>
        <time>2022-07-17T09:33:35Z</time>
      </trkpt>
      <trkpt lat="44.32101" lon="5.19925">
        <ele>608.4</ele>
        <time>2022-07-17T09:33:36Z</time>
      </trkpt>
      <trkpt lat="44.32101" lon="5.19923">
        <ele>607.5</ele>
        <time>2022-07-17T09:33:37Z</time>
      </trkpt>
      <trkpt lat="44.32101" lon="5.19921">
        <ele>607.5</ele>
        <time>2022-07-17T09:33:38Z</time>
      </trkpt>
      <trkpt lat="44.32101" lon="5.19919">
        <ele>606.7</ele>
        <time>2022-07-17T09:33:39Z</time>
      </trkpt>
      <trkpt lat="44.321" lon="5.19918">
        <ele>606.7</ele>
        <time>2022-07-17T09:33:40Z</time>
      </trkpt>
      <trkpt lat="44.32101" lon="5.19917">
        <ele>606.7</ele>
        <time>2022-07-17T09:33:41Z</time>
      </trkpt>
      <trkpt lat="44.321" lon="5.19917">
        <ele>606.6</ele>
        <time>2022-07-17T09:33:42Z</time>
      </trkpt>
      <trkpt lat="44.321" lon="5.19916">
        <ele>606.6</ele>
        <time>2022-07-17T09:33:43Z</time>
      </trkpt>
      <trkpt lat="44.321" lon="5.19914">
        <ele>605.8</ele>
        <time>2022-07-17T09:33:44Z</time>
      </trkpt>
      <trkpt lat="44.321" lon="5.19913">
        <ele>605.8</ele>
        <time>2022-07-17T09:33:45Z</time>
      </trkpt>
      <trkpt lat="44.32099" lon="5.19913">
        <ele>605.8</ele>
        <time>2022-07-17T09:33:46Z</time>
      </trkpt>
      <trkpt lat="44.32099" lon="5.19913">
        <ele>605.8</ele>
        <time>2022-07-17T09:33:47Z</time>
      </trkpt>
      <trkpt lat="44.32098" lon="5.19912">
        <ele>607.4</ele>
        <time>2022-07-17T09:33:48Z</time>
      </trkpt>
      <trkpt lat="44.32098" lon="5.19911">
        <ele>607.3</ele>
        <time>2022-07-17T09:33:49Z</time>
      </trkpt>
      <trkpt lat="44.32097" lon="5.19911">
        <ele>607.3</ele>
        <time>2022-07-17T09:33:50Z</time>
      </trkpt>
      <trkpt lat="44.32097" lon="5.19911">
        <ele>607.3</ele>
        <time>2022-07-17T09:33:51Z</time>
      </trkpt>
      <trkpt lat="44.32097" lon="5.19912">
        <ele>607.3</ele>
        <time>2022-07-17T09:33:52Z</time>
      </trkpt>
      <trkpt lat="44.32096" lon="5.19911">
        <ele>608.1</ele>
        <time>2022-07-17T09:33:53Z</time>
      </trkpt>
      <trkpt lat="44.32096" lon="5.19909">
        <ele>608.1</ele>
        <time>2022-07-17T09:33:54Z</time>
      </trkpt>
      <trkpt lat="44.32095" lon="5.19908">
        <ele>608.1</ele>
        <time>2022-07-17T09:33:55Z</time>
      </trkpt>
      <trkpt lat="44.32095" lon="5.19907">
        <ele>607.3</ele>
        <time>2022-07-17T09:34:04Z</time>
      </trkpt>
      <trkpt lat="44.32094" lon="5.19905">
        <ele>607.3</ele>
        <time>2022-07-17T09:34:05Z</time>
      </trkpt>
      <trkpt lat="44.32094" lon="5.19904">
        <ele>607.3</ele>
        <time>2022-07-17T09:34:06Z</time>
      </trkpt>
      <trkpt lat="44.32092" lon="5.19901">
        <ele>608.2</ele>
        <time>2022-07-17T09:34:07Z</time>
      </trkpt>
      <trkpt lat="44.32092" lon="5.199">
        <ele>608.2</ele>
        <time>2022-07-17T09:34:08Z</time>
      </trkpt>
      <trkpt lat="44.32091" lon="5.19899">
        <ele>608.2</ele>
        <time>2022-07-17T09:34:09Z</time>
      </trkpt>
      <trkpt lat="44.3209" lon="5.19895">
        <ele>609.2</ele>
        <time>2022-07-17T09:34:10Z</time>
      </trkpt>
      <trkpt lat="44.3209" lon="5.19894">
        <ele>608.6</ele>
        <time>2022-07-17T09:34:11Z</time>
      </trkpt>
      <trkpt lat="44.32088" lon="5.1989">
        <ele>608.6</ele>
        <time>2022-07-17T09:34:12Z</time>
      </trkpt>
      <trkpt lat="44.32087" lon="5.19886">
        <ele>609.8</ele>
        <time>2022-07-17T09:34:13Z</time>
      </trkpt>
      <trkpt lat="44.32085" lon="5.19881">
        <ele>608.7</ele>
        <time>2022-07-17T09:34:14Z</time>
      </trkpt>
      <trkpt lat="44.32083" lon="5.19875">
        <ele>610.1</ele>
        <time>2022-07-17T09:34:15Z</time>
      </trkpt>
      <trkpt lat="44.32081" lon="5.1987">
        <ele>609.7</ele>
        <time>2022-07-17T09:34:16Z</time>
      </trkpt>
      <trkpt lat="44.32079" lon="5.19864">
        <ele>611</ele>
        <time>2022-07-17T09:34:17Z</time>
      </trkpt>
      <trkpt lat="44.32077" lon="5.19858">
        <ele>611.6</ele>
        <time>2022-07-17T09:34:18Z</time>
      </trkpt>
      <trkpt lat="44.32072" lon="5.19846">
        <ele>611.1</ele>
        <time>2022-07-17T09:34:19Z</time>
      </trkpt>
      <trkpt lat="44.3207" lon="5.19843">
        <ele>612.5</ele>
        <time>2022-07-17T09:34:20Z</time>
      </trkpt>
      <trkpt lat="44.32069" lon="5.19837">
        <ele>611.1</ele>
        <time>2022-07-17T09:34:21Z</time>
      </trkpt>
      <trkpt lat="44.32067" lon="5.19832">
        <ele>611.5</ele>
        <time>2022-07-17T09:34:22Z</time>
      </trkpt>
      <trkpt lat="44.32065" lon="5.19825">
        <ele>611</ele>
        <time>2022-07-17T09:34:23Z</time>
      </trkpt>
      <trkpt lat="44.32063" lon="5.19819">
        <ele>610.1</ele>
        <time>2022-07-17T09:34:24Z</time>
      </trkpt>
      <trkpt lat="44.32063" lon="5.19814">
        <ele>609.1</ele>
        <time>2022-07-17T09:34:25Z</time>
      </trkpt>
      <trkpt lat="44.32063" lon="5.19808">
        <ele>608.1</ele>
        <time>2022-07-17T09:34:26Z</time>
      </trkpt>
      <trkpt lat="44.32061" lon="5.19805">
        <ele>608.4</ele>
        <time>2022-07-17T09:34:27Z</time>
      </trkpt>
      <trkpt lat="44.32059" lon="5.19801">
        <ele>607.4</ele>
        <time>2022-07-17T09:34:28Z</time>
      </trkpt>
      <trkpt lat="44.32059" lon="5.19796">
        <ele>607.7</ele>
        <time>2022-07-17T09:34:29Z</time>
      </trkpt>
      <trkpt lat="44.32059" lon="5.19792">
        <ele>606.8</ele>
        <time>2022-07-17T09:34:30Z</time>
      </trkpt>
      <trkpt lat="44.32059" lon="5.19791">
        <ele>606.8</ele>
        <time>2022-07-17T09:34:31Z</time>
      </trkpt>
      <trkpt lat="44.32059" lon="5.19789">
        <ele>605.9</ele>
        <time>2022-07-17T09:34:32Z</time>
      </trkpt>
      <trkpt lat="44.32058" lon="5.19787">
        <ele>605.9</ele>
        <time>2022-07-17T09:34:33Z</time>
      </trkpt>
      <trkpt lat="44.32056" lon="5.19784">
        <ele>606.3</ele>
        <time>2022-07-17T09:34:34Z</time>
      </trkpt>
      <trkpt lat="44.32055" lon="5.19782">
        <ele>606.3</ele>
        <time>2022-07-17T09:34:35Z</time>
      </trkpt>
      <trkpt lat="44.32053" lon="5.1978">
        <ele>606.7</ele>
        <time>2022-07-17T09:34:36Z</time>
      </trkpt>
      <trkpt lat="44.3205" lon="5.19776">
        <ele>605.8</ele>
        <time>2022-07-17T09:34:37Z</time>
      </trkpt>
      <trkpt lat="44.32048" lon="5.19772">
        <ele>606.2</ele>
        <time>2022-07-17T09:34:38Z</time>
      </trkpt>
      <trkpt lat="44.32041" lon="5.19764">
        <ele>606.7</ele>
        <time>2022-07-17T09:34:39Z</time>
      </trkpt>
      <trkpt lat="44.32039" lon="5.19758">
        <ele>606.9</ele>
        <time>2022-07-17T09:34:40Z</time>
      </trkpt>
      <trkpt lat="44.32038" lon="5.19751">
        <ele>605.4</ele>
        <time>2022-07-17T09:34:41Z</time>
      </trkpt>
      <trkpt lat="44.32036" lon="5.19744">
        <ele>605.7</ele>
        <time>2022-07-17T09:34:42Z</time>
      </trkpt>
      <trkpt lat="44.32034" lon="5.19737">
        <ele>605.4</ele>
        <time>2022-07-17T09:34:43Z</time>
      </trkpt>
      <trkpt lat="44.32031" lon="5.19729">
        <ele>605.1</ele>
        <time>2022-07-17T09:34:44Z</time>
      </trkpt>
      <trkpt lat="44.32029" lon="5.19721">
        <ele>603.4</ele>
        <time>2022-07-17T09:34:45Z</time>
      </trkpt>
      <trkpt lat="44.32027" lon="5.19713">
        <ele>603</ele>
        <time>2022-07-17T09:34:46Z</time>
      </trkpt>
      <trkpt lat="44.32024" lon="5.19706">
        <ele>603.5</ele>
        <time>2022-07-17T09:34:47Z</time>
      </trkpt>
      <trkpt lat="44.32024" lon="5.19701">
        <ele>602.8</ele>
        <time>2022-07-17T09:34:48Z</time>
      </trkpt>
      <trkpt lat="44.32024" lon="5.19696">
        <ele>601.5</ele>
        <time>2022-07-17T09:34:49Z</time>
      </trkpt>
      <trkpt lat="44.32024" lon="5.19692">
        <ele>600.8</ele>
        <time>2022-07-17T09:34:50Z</time>
      </trkpt>
      <trkpt lat="44.32023" lon="5.19688">
        <ele>600.1</ele>
        <time>2022-07-17T09:34:51Z</time>
      </trkpt>
      <trkpt lat="44.32023" lon="5.19686">
        <ele>600.1</ele>
        <time>2022-07-17T09:34:52Z</time>
      </trkpt>
      <trkpt lat="44.32022" lon="5.19682">
        <ele>600.6</ele>
        <time>2022-07-17T09:34:53Z</time>
      </trkpt>
      <trkpt lat="44.32022" lon="5.1968">
        <ele>600.5</ele>
        <time>2022-07-17T09:34:54Z</time>
      </trkpt>
      <trkpt lat="44.32021" lon="5.19676">
        <ele>599.7</ele>
        <time>2022-07-17T09:34:55Z</time>
      </trkpt>
      <trkpt lat="44.32019" lon="5.19672">
        <ele>600</ele>
        <time>2022-07-17T09:34:56Z</time>
      </trkpt>
      <trkpt lat="44.32018" lon="5.19667">
        <ele>599</ele>
        <time>2022-07-17T09:34:57Z</time>
      </trkpt>
      <trkpt lat="44.32017" lon="5.19663">
        <ele>598.1</ele>
        <time>2022-07-17T09:34:58Z</time>
      </trkpt>
      <trkpt lat="44.32015" lon="5.19659">
        <ele>598.2</ele>
        <time>2022-07-17T09:34:59Z</time>
      </trkpt>
      <trkpt lat="44.32014" lon="5.19655">
        <ele>597.2</ele>
        <time>2022-07-17T09:35:00Z</time>
      </trkpt>
      <trkpt lat="44.32013" lon="5.1965">
        <ele>596.7</ele>
        <time>2022-07-17T09:35:01Z</time>
      </trkpt>
      <trkpt lat="44.32011" lon="5.19646">
        <ele>595.7</ele>
        <time>2022-07-17T09:35:02Z</time>
      </trkpt>
      <trkpt lat="44.32009" lon="5.19643">
        <ele>595.6</ele>
        <time>2022-07-17T09:35:03Z</time>
      </trkpt>
      <trkpt lat="44.32006" lon="5.1964">
        <ele>595.6</ele>
        <time>2022-07-17T09:35:04Z</time>
      </trkpt>
      <trkpt lat="44.32003" lon="5.19637">
        <ele>596.7</ele>
        <time>2022-07-17T09:35:05Z</time>
      </trkpt>
      <trkpt lat="44.32" lon="5.19634">
        <ele>596.5</ele>
        <time>2022-07-17T09:35:06Z</time>
      </trkpt>
      <trkpt lat="44.31996" lon="5.19632">
        <ele>596.3</ele>
        <time>2022-07-17T09:35:07Z</time>
      </trkpt>
      <trkpt lat="44.31993" lon="5.19629">
        <ele>597.2</ele>
        <time>2022-07-17T09:35:08Z</time>
      </trkpt>
      <trkpt lat="44.31969" lon="5.19626">
        <ele>600.9</ele>
        <time>2022-07-17T09:35:09Z</time>
      </trkpt>
      <trkpt lat="44.31966" lon="5.19625">
        <ele>601.4</ele>
        <time>2022-07-17T09:35:10Z</time>
      </trkpt>
      <trkpt lat="44.31962" lon="5.19622">
        <ele>600.5</ele>
        <time>2022-07-17T09:35:11Z</time>
      </trkpt>
      <trkpt lat="44.31957" lon="5.19621">
        <ele>601.1</ele>
        <time>2022-07-17T09:35:12Z</time>
      </trkpt>
      <trkpt lat="44.31951" lon="5.19619">
        <ele>600.4</ele>
        <time>2022-07-17T09:35:13Z</time>
      </trkpt>
      <trkpt lat="44.31948" lon="5.19618">
        <ele>600.7</ele>
        <time>2022-07-17T09:35:14Z</time>
      </trkpt>
      <trkpt lat="44.31944" lon="5.19617">
        <ele>601</ele>
        <time>2022-07-17T09:35:15Z</time>
      </trkpt>
      <trkpt lat="44.31943" lon="5.19617">
        <ele>601.3</ele>
        <time>2022-07-17T09:35:16Z</time>
      </trkpt>
      <trkpt lat="44.3194" lon="5.19616">
        <ele>601.3</ele>
        <time>2022-07-17T09:35:17Z</time>
      </trkpt>
      <trkpt lat="44.31939" lon="5.19616">
        <ele>601.6</ele>
        <time>2022-07-17T09:35:18Z</time>
      </trkpt>
      <trkpt lat="44.31936" lon="5.19615">
        <ele>601.8</ele>
        <time>2022-07-17T09:35:19Z</time>
      </trkpt>
      <trkpt lat="44.31934" lon="5.19617">
        <ele>601.8</ele>
        <time>2022-07-17T09:35:20Z</time>
      </trkpt>
      <trkpt lat="44.31931" lon="5.19617">
        <ele>602</ele>
        <time>2022-07-17T09:35:21Z</time>
      </trkpt>
      <trkpt lat="44.31929" lon="5.19619">
        <ele>603.3</ele>
        <time>2022-07-17T09:35:22Z</time>
      </trkpt>
      <trkpt lat="44.31928" lon="5.1962">
        <ele>603.3</ele>
        <time>2022-07-17T09:35:23Z</time>
      </trkpt>
      <trkpt lat="44.31925" lon="5.19621">
        <ele>603.4</ele>
        <time>2022-07-17T09:35:24Z</time>
      </trkpt>
      <trkpt lat="44.31924" lon="5.19621">
        <ele>603.5</ele>
        <time>2022-07-17T09:35:25Z</time>
      </trkpt>
      <trkpt lat="44.3192" lon="5.19622">
        <ele>603.6</ele>
        <time>2022-07-17T09:35:26Z</time>
      </trkpt>
      <trkpt lat="44.31919" lon="5.19623">
        <ele>603.6</ele>
        <time>2022-07-17T09:35:27Z</time>
      </trkpt>
      <trkpt lat="44.31917" lon="5.19623">
        <ele>603.7</ele>
        <time>2022-07-17T09:35:28Z</time>
      </trkpt>
      <trkpt lat="44.31915" lon="5.19623">
        <ele>603.7</ele>
        <time>2022-07-17T09:35:29Z</time>
      </trkpt>
      <trkpt lat="44.31914" lon="5.19622">
        <ele>603.8</ele>
        <time>2022-07-17T09:35:30Z</time>
      </trkpt>
      <trkpt lat="44.31913" lon="5.19622">
        <ele>603.8</ele>
        <time>2022-07-17T09:35:31Z</time>
      </trkpt>
      <trkpt lat="44.31912" lon="5.19621">
        <ele>603.8</ele>
        <time>2022-07-17T09:35:32Z</time>
      </trkpt>
      <trkpt lat="44.31909" lon="5.19619">
        <ele>602.7</ele>
        <time>2022-07-17T09:35:33Z</time>
      </trkpt>
      <trkpt lat="44.31908" lon="5.19618">
        <ele>602.6</ele>
        <time>2022-07-17T09:35:34Z</time>
      </trkpt>
      <trkpt lat="44.31907" lon="5.19617">
        <ele>602.5</ele>
        <time>2022-07-17T09:35:35Z</time>
      </trkpt>
      <trkpt lat="44.31905" lon="5.19616">
        <ele>602.3</ele>
        <time>2022-07-17T09:35:36Z</time>
      </trkpt>
      <trkpt lat="44.31904" lon="5.19616">
        <ele>602.2</ele>
        <time>2022-07-17T09:35:37Z</time>
      </trkpt>
      <trkpt lat="44.31903" lon="5.19614">
        <ele>602.1</ele>
        <time>2022-07-17T09:35:38Z</time>
      </trkpt>
      <trkpt lat="44.31903" lon="5.19613">
        <ele>602</ele>
        <time>2022-07-17T09:35:39Z</time>
      </trkpt>
      <trkpt lat="44.31902" lon="5.19612">
        <ele>602</ele>
        <time>2022-07-17T09:35:40Z</time>
      </trkpt>
      <trkpt lat="44.31901" lon="5.19611">
        <ele>601.9</ele>
        <time>2022-07-17T09:35:41Z</time>
      </trkpt>
      <trkpt lat="44.319" lon="5.1961">
        <ele>601.8</ele>
        <time>2022-07-17T09:35:42Z</time>
      </trkpt>
      <trkpt lat="44.31898" lon="5.19609">
        <ele>601.5</ele>
        <time>2022-07-17T09:35:43Z</time>
      </trkpt>
      <trkpt lat="44.31898" lon="5.19608">
        <ele>601.5</ele>
        <time>2022-07-17T09:35:44Z</time>
      </trkpt>
      <trkpt lat="44.31897" lon="5.19607">
        <ele>601.4</ele>
        <time>2022-07-17T09:35:45Z</time>
      </trkpt>
      <trkpt lat="44.31894" lon="5.19606">
        <ele>601.1</ele>
        <time>2022-07-17T09:35:46Z</time>
      </trkpt>
      <trkpt lat="44.31892" lon="5.19606">
        <ele>601</ele>
        <time>2022-07-17T09:35:47Z</time>
      </trkpt>
      <trkpt lat="44.31889" lon="5.19605">
        <ele>600.6</ele>
        <time>2022-07-17T09:35:48Z</time>
      </trkpt>
      <trkpt lat="44.31887" lon="5.19605">
        <ele>600.5</ele>
        <time>2022-07-17T09:35:49Z</time>
      </trkpt>
      <trkpt lat="44.31884" lon="5.19604">
        <ele>600.2</ele>
        <time>2022-07-17T09:35:50Z</time>
      </trkpt>
      <trkpt lat="44.31881" lon="5.19602">
        <ele>600</ele>
        <time>2022-07-17T09:35:51Z</time>
      </trkpt>
      <trkpt lat="44.31879" lon="5.19599">
        <ele>599.7</ele>
        <time>2022-07-17T09:35:52Z</time>
      </trkpt>
      <trkpt lat="44.31857" lon="5.19587">
        <ele>597.6</ele>
        <time>2022-07-17T09:35:53Z</time>
      </trkpt>
      <trkpt lat="44.31855" lon="5.19584">
        <ele>597.4</ele>
        <time>2022-07-17T09:35:54Z</time>
      </trkpt>
      <trkpt lat="44.31852" lon="5.19578">
        <ele>597.2</ele>
        <time>2022-07-17T09:35:55Z</time>
      </trkpt>
      <trkpt lat="44.31848" lon="5.19571">
        <ele>597</ele>
        <time>2022-07-17T09:35:56Z</time>
      </trkpt>
      <trkpt lat="44.31845" lon="5.19564">
        <ele>596.8</ele>
        <time>2022-07-17T09:35:57Z</time>
      </trkpt>
      <trkpt lat="44.31841" lon="5.19558">
        <ele>596.6</ele>
        <time>2022-07-17T09:35:58Z</time>
      </trkpt>
      <trkpt lat="44.31837" lon="5.19554">
        <ele>596.4</ele>
        <time>2022-07-17T09:35:59Z</time>
      </trkpt>
      <trkpt lat="44.31835" lon="5.19552">
        <ele>596.3</ele>
        <time>2022-07-17T09:36:00Z</time>
      </trkpt>
      <trkpt lat="44.31837" lon="5.19552">
        <ele>596.2</ele>
        <time>2022-07-17T09:36:01Z</time>
      </trkpt>
      <trkpt lat="44.31837" lon="5.19552">
        <ele>596.2</ele>
        <time>2022-07-17T09:36:02Z</time>
      </trkpt>
      <trkpt lat="44.31835" lon="5.19552">
        <ele>596.1</ele>
        <time>2022-07-17T09:36:03Z</time>
      </trkpt>
      <trkpt lat="44.31834" lon="5.19551">
        <ele>596</ele>
        <time>2022-07-17T09:36:04Z</time>
      </trkpt>
      <trkpt lat="44.31833" lon="5.19551">
        <ele>595.9</ele>
        <time>2022-07-17T09:36:05Z</time>
      </trkpt>
      <trkpt lat="44.31833" lon="5.19551">
        <ele>595.9</ele>
        <time>2022-07-17T09:36:06Z</time>
      </trkpt>
      <trkpt lat="44.31831" lon="5.1955">
        <ele>595.8</ele>
        <time>2022-07-17T09:36:07Z</time>
      </trkpt>
      <trkpt lat="44.31831" lon="5.1955">
        <ele>595.8</ele>
        <time>2022-07-17T09:36:08Z</time>
      </trkpt>
      <trkpt lat="44.31831" lon="5.19549">
        <ele>595.8</ele>
        <time>2022-07-17T09:36:09Z</time>
      </trkpt>
      <trkpt lat="44.31827" lon="5.19549">
        <ele>595.4</ele>
        <time>2022-07-17T09:36:10Z</time>
      </trkpt>
      <trkpt lat="44.31825" lon="5.19549">
        <ele>595.2</ele>
        <time>2022-07-17T09:36:11Z</time>
      </trkpt>
      <trkpt lat="44.31824" lon="5.19548">
        <ele>595.1</ele>
        <time>2022-07-17T09:36:12Z</time>
      </trkpt>
      <trkpt lat="44.31823" lon="5.19547">
        <ele>595</ele>
        <time>2022-07-17T09:36:13Z</time>
      </trkpt>
      <trkpt lat="44.31821" lon="5.19547">
        <ele>594.9</ele>
        <time>2022-07-17T09:36:14Z</time>
      </trkpt>
      <trkpt lat="44.3182" lon="5.19546">
        <ele>594.7</ele>
        <time>2022-07-17T09:36:15Z</time>
      </trkpt>
      <trkpt lat="44.31819" lon="5.19546">
        <ele>594.6</ele>
        <time>2022-07-17T09:36:29Z</time>
      </trkpt>
      <trkpt lat="44.31818" lon="5.19545">
        <ele>594.5</ele>
        <time>2022-07-17T09:36:30Z</time>
      </trkpt>
      <trkpt lat="44.31815" lon="5.19544">
        <ele>594.2</ele>
        <time>2022-07-17T09:36:31Z</time>
      </trkpt>
      <trkpt lat="44.31798" lon="5.19547">
        <ele>592.9</ele>
        <time>2022-07-17T09:36:32Z</time>
      </trkpt>
      <trkpt lat="44.31795" lon="5.19547">
        <ele>592.6</ele>
        <time>2022-07-17T09:36:33Z</time>
      </trkpt>
      <trkpt lat="44.3179" lon="5.19547">
        <ele>592.3</ele>
        <time>2022-07-17T09:36:34Z</time>
      </trkpt>
      <trkpt lat="44.31787" lon="5.19547">
        <ele>592.1</ele>
        <time>2022-07-17T09:36:35Z</time>
      </trkpt>
      <trkpt lat="44.31786" lon="5.19545">
        <ele>590.7</ele>
        <time>2022-07-17T09:36:36Z</time>
      </trkpt>
      <trkpt lat="44.31784" lon="5.19542">
        <ele>590.2</ele>
        <time>2022-07-17T09:36:37Z</time>
      </trkpt>
      <trkpt lat="44.31786" lon="5.1954">
        <ele>588.5</ele>
        <time>2022-07-17T09:36:38Z</time>
      </trkpt>
      <trkpt lat="44.3179" lon="5.19541">
        <ele>587.3</ele>
        <time>2022-07-17T09:36:39Z</time>
      </trkpt>
      <trkpt lat="44.31791" lon="5.19538">
        <ele>586.8</ele>
        <time>2022-07-17T09:36:40Z</time>
      </trkpt>
      <trkpt lat="44.31793" lon="5.19536">
        <ele>584.8</ele>
        <time>2022-07-17T09:36:41Z</time>
      </trkpt>
      <trkpt lat="44.31794" lon="5.19532">
        <ele>583</ele>
        <time>2022-07-17T09:36:42Z</time>
      </trkpt>
      <trkpt lat="44.31795" lon="5.19528">
        <ele>581.3</ele>
        <time>2022-07-17T09:36:43Z</time>
      </trkpt>
      <trkpt lat="44.31794" lon="5.19524">
        <ele>579.5</ele>
        <time>2022-07-17T09:36:44Z</time>
      </trkpt>
      <trkpt lat="44.31783" lon="5.19517">
        <ele>578.6</ele>
        <time>2022-07-17T09:36:45Z</time>
      </trkpt>
      <trkpt lat="44.31779" lon="5.19515">
        <ele>577.5</ele>
        <time>2022-07-17T09:36:46Z</time>
      </trkpt>
      <trkpt lat="44.31775" lon="5.19514">
        <ele>577.3</ele>
        <time>2022-07-17T09:36:47Z</time>
      </trkpt>
      <trkpt lat="44.31773" lon="5.19514">
        <ele>577.2</ele>
        <time>2022-07-17T09:36:48Z</time>
      </trkpt>
      <trkpt lat="44.31766" lon="5.19514">
        <ele>577.4</ele>
        <time>2022-07-17T09:36:49Z</time>
      </trkpt>
      <trkpt lat="44.3176" lon="5.19515">
        <ele>577.6</ele>
        <time>2022-07-17T09:36:50Z</time>
      </trkpt>
      <trkpt lat="44.31756" lon="5.19517">
        <ele>578.7</ele>
        <time>2022-07-17T09:36:51Z</time>
      </trkpt>
      <trkpt lat="44.31749" lon="5.19515">
        <ele>578.4</ele>
        <time>2022-07-17T09:36:52Z</time>
      </trkpt>
      <trkpt lat="44.31746" lon="5.19511">
        <ele>577.2</ele>
        <time>2022-07-17T09:36:53Z</time>
      </trkpt>
      <trkpt lat="44.31744" lon="5.1951">
        <ele>576.7</ele>
        <time>2022-07-17T09:36:54Z</time>
      </trkpt>
      <trkpt lat="44.31741" lon="5.19506">
        <ele>575.3</ele>
        <time>2022-07-17T09:36:55Z</time>
      </trkpt>
      <trkpt lat="44.31736" lon="5.19503">
        <ele>574.5</ele>
        <time>2022-07-17T09:36:56Z</time>
      </trkpt>
      <trkpt lat="44.31731" lon="5.19502">
        <ele>574.5</ele>
        <time>2022-07-17T09:36:57Z</time>
      </trkpt>
      <trkpt lat="44.31722" lon="5.195">
        <ele>573.9</ele>
        <time>2022-07-17T09:36:58Z</time>
      </trkpt>
      <trkpt lat="44.31719" lon="5.19499">
        <ele>573.7</ele>
        <time>2022-07-17T09:36:59Z</time>
      </trkpt>
      <trkpt lat="44.31716" lon="5.19499">
        <ele>573.4</ele>
        <time>2022-07-17T09:37:00Z</time>
      </trkpt>
      <trkpt lat="44.31716" lon="5.195">
        <ele>573.4</ele>
        <time>2022-07-17T09:37:01Z</time>
      </trkpt>
      <trkpt lat="44.31714" lon="5.19499">
        <ele>573.2</ele>
        <time>2022-07-17T09:37:02Z</time>
      </trkpt>
      <trkpt lat="44.31713" lon="5.19497">
        <ele>573</ele>
        <time>2022-07-17T09:37:03Z</time>
      </trkpt>
      <trkpt lat="44.31714" lon="5.19493">
        <ele>572.8</ele>
        <time>2022-07-17T09:37:04Z</time>
      </trkpt>
      <trkpt lat="44.31715" lon="5.19491">
        <ele>572.6</ele>
        <time>2022-07-17T09:37:05Z</time>
      </trkpt>
      <trkpt lat="44.31716" lon="5.19488">
        <ele>572.5</ele>
        <time>2022-07-17T09:37:06Z</time>
      </trkpt>
      <trkpt lat="44.31714" lon="5.19489">
        <ele>572.3</ele>
        <time>2022-07-17T09:37:07Z</time>
      </trkpt>
      <trkpt lat="44.31714" lon="5.19489">
        <ele>572.2</ele>
        <time>2022-07-17T09:37:08Z</time>
      </trkpt>
      <trkpt lat="44.31715" lon="5.19489">
        <ele>572.2</ele>
        <time>2022-07-17T09:37:09Z</time>
      </trkpt>
      <trkpt lat="44.31714" lon="5.19488">
        <ele>572.2</ele>
        <time>2022-07-17T09:37:10Z</time>
      </trkpt>
      <trkpt lat="44.31714" lon="5.19487">
        <ele>572.1</ele>
        <time>2022-07-17T09:37:11Z</time>
      </trkpt>
      <trkpt lat="44.31715" lon="5.19487">
        <ele>572.1</ele>
        <time>2022-07-17T09:37:12Z</time>
      </trkpt>
      <trkpt lat="44.31715" lon="5.19487">
        <ele>572</ele>
        <time>2022-07-17T09:37:13Z</time>
      </trkpt>
      <trkpt lat="44.31716" lon="5.19487">
        <ele>572</ele>
        <time>2022-07-17T09:37:14Z</time>
      </trkpt>
      <trkpt lat="44.31716" lon="5.19487">
        <ele>571.9</ele>
        <time>2022-07-17T09:37:15Z</time>
      </trkpt>
      <trkpt lat="44.31717" lon="5.19487">
        <ele>571.9</ele>
        <time>2022-07-17T09:37:16Z</time>
      </trkpt>
      <trkpt lat="44.31717" lon="5.19487">
        <ele>571.8</ele>
        <time>2022-07-17T09:37:17Z</time>
      </trkpt>
      <trkpt lat="44.31718" lon="5.19487">
        <ele>571.8</ele>
        <time>2022-07-17T09:37:18Z</time>
      </trkpt>
      <trkpt lat="44.31719" lon="5.19487">
        <ele>571.7</ele>
        <time>2022-07-17T09:37:19Z</time>
      </trkpt>
      <trkpt lat="44.31719" lon="5.19487">
        <ele>571.7</ele>
        <time>2022-07-17T09:37:20Z</time>
      </trkpt>
      <trkpt lat="44.3172" lon="5.19487">
        <ele>571.6</ele>
        <time>2022-07-17T09:37:27Z</time>
      </trkpt>
      <trkpt lat="44.3172" lon="5.19487">
        <ele>571.6</ele>
        <time>2022-07-17T09:37:28Z</time>
      </trkpt>
      <trkpt lat="44.31724" lon="5.19487">
        <ele>571.3</ele>
        <time>2022-07-17T09:37:29Z</time>
      </trkpt>
      <trkpt lat="44.31728" lon="5.19485">
        <ele>570.9</ele>
        <time>2022-07-17T09:37:30Z</time>
      </trkpt>
      <trkpt lat="44.31732" lon="5.19485">
        <ele>570.6</ele>
        <time>2022-07-17T09:37:31Z</time>
      </trkpt>
      <trkpt lat="44.31735" lon="5.19486">
        <ele>570.3</ele>
        <time>2022-07-17T09:37:32Z</time>
      </trkpt>
      <trkpt lat="44.31738" lon="5.19487">
        <ele>570</ele>
        <time>2022-07-17T09:37:33Z</time>
      </trkpt>
      <trkpt lat="44.31741" lon="5.19487">
        <ele>569.7</ele>
        <time>2022-07-17T09:37:34Z</time>
      </trkpt>
      <trkpt lat="44.31744" lon="5.19485">
        <ele>569.4</ele>
        <time>2022-07-17T09:37:35Z</time>
      </trkpt>
      <trkpt lat="44.31746" lon="5.19483">
        <ele>569.2</ele>
        <time>2022-07-17T09:37:36Z</time>
      </trkpt>
      <trkpt lat="44.31747" lon="5.19478">
        <ele>568.8</ele>
        <time>2022-07-17T09:37:37Z</time>
      </trkpt>
      <trkpt lat="44.31747" lon="5.19476">
        <ele>568.7</ele>
        <time>2022-07-17T09:37:38Z</time>
      </trkpt>
      <trkpt lat="44.31744" lon="5.19473">
        <ele>568.2</ele>
        <time>2022-07-17T09:37:39Z</time>
      </trkpt>
      <trkpt lat="44.31742" lon="5.19472">
        <ele>568.1</ele>
        <time>2022-07-17T09:37:40Z</time>
      </trkpt>
      <trkpt lat="44.31739" lon="5.19472">
        <ele>567.7</ele>
        <time>2022-07-17T09:37:41Z</time>
      </trkpt>
      <trkpt lat="44.31736" lon="5.19473">
        <ele>567.3</ele>
        <time>2022-07-17T09:37:42Z</time>
      </trkpt>
      <trkpt lat="44.31732" lon="5.19473">
        <ele>566.9</ele>
        <time>2022-07-17T09:37:43Z</time>
      </trkpt>
      <trkpt lat="44.31728" lon="5.19473">
        <ele>566.5</ele>
        <time>2022-07-17T09:37:44Z</time>
      </trkpt>
      <trkpt lat="44.31724" lon="5.19473">
        <ele>566.1</ele>
        <time>2022-07-17T09:37:45Z</time>
      </trkpt>
      <trkpt lat="44.3172" lon="5.19471">
        <ele>565.7</ele>
        <time>2022-07-17T09:37:46Z</time>
      </trkpt>
      <trkpt lat="44.31716" lon="5.19469">
        <ele>565.2</ele>
        <time>2022-07-17T09:37:47Z</time>
      </trkpt>
      <trkpt lat="44.31713" lon="5.19466">
        <ele>564.8</ele>
        <time>2022-07-17T09:37:48Z</time>
      </trkpt>
      <trkpt lat="44.31706" lon="5.19459">
        <ele>563.7</ele>
        <time>2022-07-17T09:37:49Z</time>
      </trkpt>
      <trkpt lat="44.31702" lon="5.19455">
        <ele>563</ele>
        <time>2022-07-17T09:37:50Z</time>
      </trkpt>
      <trkpt lat="44.31698" lon="5.19451">
        <ele>562.3</ele>
        <time>2022-07-17T09:37:51Z</time>
      </trkpt>
      <trkpt lat="44.31694" lon="5.19447">
        <ele>561.5</ele>
        <time>2022-07-17T09:37:52Z</time>
      </trkpt>
      <trkpt lat="44.31689" lon="5.19447">
        <ele>560.7</ele>
        <time>2022-07-17T09:37:53Z</time>
      </trkpt>
      <trkpt lat="44.31685" lon="5.19445">
        <ele>560.1</ele>
        <time>2022-07-17T09:37:54Z</time>
      </trkpt>
      <trkpt lat="44.31682" lon="5.19445">
        <ele>559.7</ele>
        <time>2022-07-17T09:37:55Z</time>
      </trkpt>
      <trkpt lat="44.31681" lon="5.19444">
        <ele>559.5</ele>
        <time>2022-07-17T09:37:56Z</time>
      </trkpt>
      <trkpt lat="44.31676" lon="5.19439">
        <ele>558.9</ele>
        <time>2022-07-17T09:37:57Z</time>
      </trkpt>
      <trkpt lat="44.31675" lon="5.19435">
        <ele>558.6</ele>
        <time>2022-07-17T09:37:58Z</time>
      </trkpt>
      <trkpt lat="44.31673" lon="5.19431">
        <ele>558.3</ele>
        <time>2022-07-17T09:37:59Z</time>
      </trkpt>
      <trkpt lat="44.31672" lon="5.19426">
        <ele>558</ele>
        <time>2022-07-17T09:38:00Z</time>
      </trkpt>
      <trkpt lat="44.31671" lon="5.1942">
        <ele>557.8</ele>
        <time>2022-07-17T09:38:01Z</time>
      </trkpt>
      <trkpt lat="44.31673" lon="5.19415">
        <ele>557.6</ele>
        <time>2022-07-17T09:38:02Z</time>
      </trkpt>
      <trkpt lat="44.31674" lon="5.19411">
        <ele>557.4</ele>
        <time>2022-07-17T09:38:03Z</time>
      </trkpt>
      <trkpt lat="44.31676" lon="5.19406">
        <ele>556.2</ele>
        <time>2022-07-17T09:38:04Z</time>
      </trkpt>
      <trkpt lat="44.31677" lon="5.19402">
        <ele>555.6</ele>
        <time>2022-07-17T09:38:05Z</time>
      </trkpt>
      <trkpt lat="44.31678" lon="5.19397">
        <ele>555</ele>
        <time>2022-07-17T09:38:06Z</time>
      </trkpt>
      <trkpt lat="44.3168" lon="5.19393">
        <ele>554.4</ele>
        <time>2022-07-17T09:38:07Z</time>
      </trkpt>
      <trkpt lat="44.31681" lon="5.19391">
        <ele>554</ele>
        <time>2022-07-17T09:38:08Z</time>
      </trkpt>
      <trkpt lat="44.31682" lon="5.19389">
        <ele>553.8</ele>
        <time>2022-07-17T09:38:09Z</time>
      </trkpt>
      <trkpt lat="44.31682" lon="5.19388">
        <ele>553.6</ele>
        <time>2022-07-17T09:38:10Z</time>
      </trkpt>
      <trkpt lat="44.31681" lon="5.19388">
        <ele>553.5</ele>
        <time>2022-07-17T09:38:11Z</time>
      </trkpt>
      <trkpt lat="44.31681" lon="5.19388">
        <ele>553.4</ele>
        <time>2022-07-17T09:38:12Z</time>
      </trkpt>
      <trkpt lat="44.3168" lon="5.19388">
        <ele>553.3</ele>
        <time>2022-07-17T09:38:13Z</time>
      </trkpt>
      <trkpt lat="44.31679" lon="5.19388">
        <ele>553.1</ele>
        <time>2022-07-17T09:38:14Z</time>
      </trkpt>
      <trkpt lat="44.31679" lon="5.19388">
        <ele>553</ele>
        <time>2022-07-17T09:38:15Z</time>
      </trkpt>
      <trkpt lat="44.31678" lon="5.19388">
        <ele>552.9</ele>
        <time>2022-07-17T09:38:16Z</time>
      </trkpt>
      <trkpt lat="44.31681" lon="5.19387">
        <ele>552.4</ele>
        <time>2022-07-17T09:38:17Z</time>
      </trkpt>
      <trkpt lat="44.31684" lon="5.19386">
        <ele>551.8</ele>
        <time>2022-07-17T09:38:18Z</time>
      </trkpt>
      <trkpt lat="44.31686" lon="5.19385">
        <ele>551.3</ele>
        <time>2022-07-17T09:38:19Z</time>
      </trkpt>
      <trkpt lat="44.31689" lon="5.19384">
        <ele>550.7</ele>
        <time>2022-07-17T09:38:20Z</time>
      </trkpt>
      <trkpt lat="44.31692" lon="5.19383">
        <ele>550.1</ele>
        <time>2022-07-17T09:38:21Z</time>
      </trkpt>
      <trkpt lat="44.31695" lon="5.19382">
        <ele>549.6</ele>
        <time>2022-07-17T09:38:42Z</time>
      </trkpt>
      <trkpt lat="44.31698" lon="5.19381">
        <ele>549</ele>
        <time>2022-07-17T09:38:43Z</time>
      </trkpt>
      <trkpt lat="44.31704" lon="5.19382">
        <ele>547.7</ele>
        <time>2022-07-17T09:38:44Z</time>
      </trkpt>
      <trkpt lat="44.31711" lon="5.19383">
        <ele>546.3</ele>
        <time>2022-07-17T09:38:45Z</time>
      </trkpt>
      <trkpt lat="44.31719" lon="5.1938">
        <ele>544.8</ele>
        <time>2022-07-17T09:38:46Z</time>
      </trkpt>
      <trkpt lat="44.31725" lon="5.19378">
        <ele>543.7</ele>
        <time>2022-07-17T09:38:47Z</time>
      </trkpt>
      <trkpt lat="44.31731" lon="5.19376">
        <ele>542.5</ele>
        <time>2022-07-17T09:38:48Z</time>
      </trkpt>
      <trkpt lat="44.31736" lon="5.19376">
        <ele>541.6</ele>
        <time>2022-07-17T09:38:49Z</time>
      </trkpt>
      <trkpt lat="44.31741" lon="5.19375">
        <ele>540.7</ele>
        <time>2022-07-17T09:38:50Z</time>
      </trkpt>
      <trkpt lat="44.31745" lon="5.19371">
        <ele>539.8</ele>
        <time>2022-07-17T09:38:51Z</time>
      </trkpt>
      <trkpt lat="44.31746" lon="5.19369">
        <ele>539.4</ele>
        <time>2022-07-17T09:38:52Z</time>
      </trkpt>
      <trkpt lat="44.31748" lon="5.19369">
        <ele>539.2</ele>
        <time>2022-07-17T09:38:53Z</time>
      </trkpt>
      <trkpt lat="44.31749" lon="5.19368">
        <ele>538.9</ele>
        <time>2022-07-17T09:38:54Z</time>
      </trkpt>
      <trkpt lat="44.31749" lon="5.19366">
        <ele>538.6</ele>
        <time>2022-07-17T09:38:55Z</time>
      </trkpt>
      <trkpt lat="44.31749" lon="5.19365">
        <ele>538.6</ele>
        <time>2022-07-17T09:38:56Z</time>
      </trkpt>
      <trkpt lat="44.31749" lon="5.19365">
        <ele>538.6</ele>
        <time>2022-07-17T09:38:57Z</time>
      </trkpt>
      <trkpt lat="44.3175" lon="5.19365">
        <ele>538.3</ele>
        <time>2022-07-17T09:38:58Z</time>
      </trkpt>
      <trkpt lat="44.3175" lon="5.19363">
        <ele>538.1</ele>
        <time>2022-07-17T09:38:59Z</time>
      </trkpt>
      <trkpt lat="44.3175" lon="5.19362">
        <ele>538</ele>
        <time>2022-07-17T09:39:00Z</time>
      </trkpt>
      <trkpt lat="44.3175" lon="5.19361">
        <ele>537.8</ele>
        <time>2022-07-17T09:39:01Z</time>
      </trkpt>
      <trkpt lat="44.3175" lon="5.19359">
        <ele>537.7</ele>
        <time>2022-07-17T09:39:02Z</time>
      </trkpt>
      <trkpt lat="44.3175" lon="5.19358">
        <ele>537.5</ele>
        <time>2022-07-17T09:39:03Z</time>
      </trkpt>
      <trkpt lat="44.3175" lon="5.19358">
        <ele>537.5</ele>
        <time>2022-07-17T09:39:04Z</time>
      </trkpt>
      <trkpt lat="44.3175" lon="5.19358">
        <ele>537.5</ele>
        <time>2022-07-17T09:39:05Z</time>
      </trkpt>
      <trkpt lat="44.3175" lon="5.19358">
        <ele>537.5</ele>
        <time>2022-07-17T09:39:06Z</time>
      </trkpt>
      <trkpt lat="44.3175" lon="5.19358">
        <ele>537.5</ele>
        <time>2022-07-17T09:39:07Z</time>
      </trkpt>
      <trkpt lat="44.3175" lon="5.19358">
        <ele>537.5</ele>
        <time>2022-07-17T09:39:08Z</time>
      </trkpt>
      <trkpt lat="44.31752" lon="5.19355">
        <ele>537</ele>
        <time>2022-07-17T09:39:23Z</time>
      </trkpt>
      <trkpt lat="44.31752" lon="5.19355">
        <ele>537</ele>
        <time>2022-07-17T09:39:24Z</time>
      </trkpt>
      <trkpt lat="44.3175" lon="5.19353">
        <ele>536.7</ele>
        <time>2022-07-17T09:39:25Z</time>
      </trkpt>
      <trkpt lat="44.31747" lon="5.19352">
        <ele>536.3</ele>
        <time>2022-07-17T09:39:26Z</time>
      </trkpt>
      <trkpt lat="44.31744" lon="5.1935">
        <ele>535.8</ele>
        <time>2022-07-17T09:39:27Z</time>
      </trkpt>
      <trkpt lat="44.31741" lon="5.19349">
        <ele>535.3</ele>
        <time>2022-07-17T09:39:28Z</time>
      </trkpt>
      <trkpt lat="44.31739" lon="5.19349">
        <ele>535.1</ele>
        <time>2022-07-17T09:39:29Z</time>
      </trkpt>
      <trkpt lat="44.31737" lon="5.19347">
        <ele>534.7</ele>
        <time>2022-07-17T09:39:30Z</time>
      </trkpt>
      <trkpt lat="44.31734" lon="5.19344">
        <ele>534.2</ele>
        <time>2022-07-17T09:39:31Z</time>
      </trkpt>
      <trkpt lat="44.31733" lon="5.19343">
        <ele>534.1</ele>
        <time>2022-07-17T09:39:32Z</time>
      </trkpt>
      <trkpt lat="44.31734" lon="5.19338">
        <ele>533.6</ele>
        <time>2022-07-17T09:39:33Z</time>
      </trkpt>
      <trkpt lat="44.31736" lon="5.19337">
        <ele>533.4</ele>
        <time>2022-07-17T09:39:34Z</time>
      </trkpt>
      <trkpt lat="44.31739" lon="5.19335">
        <ele>533</ele>
        <time>2022-07-17T09:39:35Z</time>
      </trkpt>
      <trkpt lat="44.31743" lon="5.19334">
        <ele>532.6</ele>
        <time>2022-07-17T09:39:36Z</time>
      </trkpt>
      <trkpt lat="44.31747" lon="5.19335">
        <ele>532.1</ele>
        <time>2022-07-17T09:39:37Z</time>
      </trkpt>
      <trkpt lat="44.31751" lon="5.19335">
        <ele>531.5</ele>
        <time>2022-07-17T09:39:38Z</time>
      </trkpt>
      <trkpt lat="44.31755" lon="5.19337">
        <ele>530.9</ele>
        <time>2022-07-17T09:39:39Z</time>
      </trkpt>
      <trkpt lat="44.31759" lon="5.19338">
        <ele>530.3</ele>
        <time>2022-07-17T09:39:40Z</time>
      </trkpt>
      <trkpt lat="44.31765" lon="5.19342">
        <ele>529.2</ele>
        <time>2022-07-17T09:39:41Z</time>
      </trkpt>
      <trkpt lat="44.3177" lon="5.19344">
        <ele>528.4</ele>
        <time>2022-07-17T09:39:42Z</time>
      </trkpt>
      <trkpt lat="44.31777" lon="5.19348">
        <ele>527.3</ele>
        <time>2022-07-17T09:39:43Z</time>
      </trkpt>
      <trkpt lat="44.31783" lon="5.19349">
        <ele>526.3</ele>
        <time>2022-07-17T09:39:44Z</time>
      </trkpt>
      <trkpt lat="44.31789" lon="5.19352">
        <ele>525.4</ele>
        <time>2022-07-17T09:39:45Z</time>
      </trkpt>
      <trkpt lat="44.31796" lon="5.19354">
        <ele>524.3</ele>
        <time>2022-07-17T09:39:46Z</time>
      </trkpt>
      <trkpt lat="44.318" lon="5.19359">
        <ele>523.3</ele>
        <time>2022-07-17T09:39:47Z</time>
      </trkpt>
      <trkpt lat="44.31805" lon="5.19363">
        <ele>522.3</ele>
        <time>2022-07-17T09:39:48Z</time>
      </trkpt>
      <trkpt lat="44.31808" lon="5.19366">
        <ele>521.7</ele>
        <time>2022-07-17T09:39:49Z</time>
      </trkpt>
      <trkpt lat="44.31809" lon="5.19368">
        <ele>521.3</ele>
        <time>2022-07-17T09:39:50Z</time>
      </trkpt>
      <trkpt lat="44.31813" lon="5.19372">
        <ele>520.4</ele>
        <time>2022-07-17T09:39:51Z</time>
      </trkpt>
      <trkpt lat="44.31817" lon="5.19375">
        <ele>519.7</ele>
        <time>2022-07-17T09:39:52Z</time>
      </trkpt>
      <trkpt lat="44.31824" lon="5.19372">
        <ele>518.2</ele>
        <time>2022-07-17T09:39:53Z</time>
      </trkpt>
      <trkpt lat="44.31828" lon="5.1937">
        <ele>517.3</ele>
        <time>2022-07-17T09:39:54Z</time>
      </trkpt>
      <trkpt lat="44.31833" lon="5.19366">
        <ele>516.3</ele>
        <time>2022-07-17T09:39:55Z</time>
      </trkpt>
      <trkpt lat="44.31836" lon="5.19362">
        <ele>515.4</ele>
        <time>2022-07-17T09:39:56Z</time>
      </trkpt>
      <trkpt lat="44.31838" lon="5.19355">
        <ele>514.3</ele>
        <time>2022-07-17T09:39:57Z</time>
      </trkpt>
      <trkpt lat="44.3184" lon="5.19348">
        <ele>513.3</ele>
        <time>2022-07-17T09:39:58Z</time>
      </trkpt>
      <trkpt lat="44.31845" lon="5.19342">
        <ele>512.2</ele>
        <time>2022-07-17T09:39:59Z</time>
      </trkpt>
      <trkpt lat="44.31844" lon="5.19336">
        <ele>511.4</ele>
        <time>2022-07-17T09:40:00Z</time>
      </trkpt>
      <trkpt lat="44.31843" lon="5.1933">
        <ele>510.9</ele>
        <time>2022-07-17T09:40:01Z</time>
      </trkpt>
      <trkpt lat="44.31841" lon="5.19325">
        <ele>510.8</ele>
        <time>2022-07-17T09:40:02Z</time>
      </trkpt>
      <trkpt lat="44.3184" lon="5.19319">
        <ele>510.8</ele>
        <time>2022-07-17T09:40:03Z</time>
      </trkpt>
      <trkpt lat="44.31838" lon="5.19315">
        <ele>510.7</ele>
        <time>2022-07-17T09:40:04Z</time>
      </trkpt>
      <trkpt lat="44.31837" lon="5.19309">
        <ele>510.7</ele>
        <time>2022-07-17T09:40:05Z</time>
      </trkpt>
      <trkpt lat="44.31834" lon="5.19301">
        <ele>510.7</ele>
        <time>2022-07-17T09:40:06Z</time>
      </trkpt>
      <trkpt lat="44.31831" lon="5.19294">
        <ele>510.6</ele>
        <time>2022-07-17T09:40:07Z</time>
      </trkpt>
      <trkpt lat="44.31829" lon="5.1929">
        <ele>510.6</ele>
        <time>2022-07-17T09:40:08Z</time>
      </trkpt>
      <trkpt lat="44.31826" lon="5.19286">
        <ele>510.6</ele>
        <time>2022-07-17T09:40:09Z</time>
      </trkpt>
      <trkpt lat="44.31824" lon="5.19282">
        <ele>510.5</ele>
        <time>2022-07-17T09:40:10Z</time>
      </trkpt>
      <trkpt lat="44.31821" lon="5.19277">
        <ele>510.4</ele>
        <time>2022-07-17T09:40:11Z</time>
      </trkpt>
      <trkpt lat="44.31819" lon="5.19273">
        <ele>510.3</ele>
        <time>2022-07-17T09:40:12Z</time>
      </trkpt>
      <trkpt lat="44.31816" lon="5.19269">
        <ele>510.1</ele>
        <time>2022-07-17T09:40:13Z</time>
      </trkpt>
      <trkpt lat="44.31813" lon="5.19266">
        <ele>509.9</ele>
        <time>2022-07-17T09:40:14Z</time>
      </trkpt>
      <trkpt lat="44.3181" lon="5.19262">
        <ele>509.8</ele>
        <time>2022-07-17T09:40:15Z</time>
      </trkpt>
      <trkpt lat="44.31807" lon="5.19259">
        <ele>509.6</ele>
        <time>2022-07-17T09:40:16Z</time>
      </trkpt>
      <trkpt lat="44.31804" lon="5.19255">
        <ele>509.4</ele>
        <time>2022-07-17T09:40:17Z</time>
      </trkpt>
      <trkpt lat="44.31801" lon="5.19251">
        <ele>509.1</ele>
        <time>2022-07-17T09:40:18Z</time>
      </trkpt>
      <trkpt lat="44.31799" lon="5.19249">
        <ele>509</ele>
        <time>2022-07-17T09:40:19Z</time>
      </trkpt>
      <trkpt lat="44.31799" lon="5.19249">
        <ele>509</ele>
        <time>2022-07-17T09:40:20Z</time>
      </trkpt>
      <trkpt lat="44.31799" lon="5.19249">
        <ele>509</ele>
        <time>2022-07-17T09:40:21Z</time>
      </trkpt>
      <trkpt lat="44.31798" lon="5.19248">
        <ele>508.9</ele>
        <time>2022-07-17T09:40:22Z</time>
      </trkpt>
      <trkpt lat="44.31797" lon="5.19247">
        <ele>508.9</ele>
        <time>2022-07-17T09:40:23Z</time>
      </trkpt>
      <trkpt lat="44.31796" lon="5.19245">
        <ele>508.8</ele>
        <time>2022-07-17T09:40:24Z</time>
      </trkpt>
      <trkpt lat="44.31794" lon="5.19241">
        <ele>508.6</ele>
        <time>2022-07-17T09:40:25Z</time>
      </trkpt>
      <trkpt lat="44.31792" lon="5.1924">
        <ele>508.5</ele>
        <time>2022-07-17T09:40:26Z</time>
      </trkpt>
      <trkpt lat="44.31789" lon="5.19237">
        <ele>508.3</ele>
        <time>2022-07-17T09:40:27Z</time>
      </trkpt>
      <trkpt lat="44.31785" lon="5.19234">
        <ele>508.1</ele>
        <time>2022-07-17T09:40:28Z</time>
      </trkpt>
      <trkpt lat="44.31781" lon="5.19231">
        <ele>507.9</ele>
        <time>2022-07-17T09:40:29Z</time>
      </trkpt>
      <trkpt lat="44.31777" lon="5.1923">
        <ele>507.7</ele>
        <time>2022-07-17T09:40:30Z</time>
      </trkpt>
      <trkpt lat="44.31773" lon="5.19228">
        <ele>507.5</ele>
        <time>2022-07-17T09:40:31Z</time>
      </trkpt>
      <trkpt lat="44.31764" lon="5.19227">
        <ele>506.9</ele>
        <time>2022-07-17T09:40:32Z</time>
      </trkpt>
      <trkpt lat="44.3176" lon="5.19226">
        <ele>506.5</ele>
        <time>2022-07-17T09:40:33Z</time>
      </trkpt>
      <trkpt lat="44.31749" lon="5.19227">
        <ele>505.8</ele>
        <time>2022-07-17T09:40:34Z</time>
      </trkpt>
      <trkpt lat="44.31743" lon="5.19229">
        <ele>505.4</ele>
        <time>2022-07-17T09:40:35Z</time>
      </trkpt>
      <trkpt lat="44.31736" lon="5.19229">
        <ele>505</ele>
        <time>2022-07-17T09:40:36Z</time>
      </trkpt>
      <trkpt lat="44.3173" lon="5.1923">
        <ele>504.7</ele>
        <time>2022-07-17T09:40:37Z</time>
      </trkpt>
      <trkpt lat="44.31723" lon="5.19228">
        <ele>504.4</ele>
        <time>2022-07-17T09:40:38Z</time>
      </trkpt>
      <trkpt lat="44.31717" lon="5.19225">
        <ele>504.3</ele>
        <time>2022-07-17T09:40:39Z</time>
      </trkpt>
      <trkpt lat="44.31715" lon="5.1922">
        <ele>504.2</ele>
        <time>2022-07-17T09:40:40Z</time>
      </trkpt>
      <trkpt lat="44.31711" lon="5.19214">
        <ele>504.2</ele>
        <time>2022-07-17T09:40:41Z</time>
      </trkpt>
      <trkpt lat="44.31706" lon="5.1921">
        <ele>504.1</ele>
        <time>2022-07-17T09:40:42Z</time>
      </trkpt>
      <trkpt lat="44.31703" lon="5.19205">
        <ele>504.1</ele>
        <time>2022-07-17T09:40:43Z</time>
      </trkpt>
      <trkpt lat="44.31699" lon="5.19202">
        <ele>504.1</ele>
        <time>2022-07-17T09:40:44Z</time>
      </trkpt>
      <trkpt lat="44.31695" lon="5.192">
        <ele>504.1</ele>
        <time>2022-07-17T09:40:45Z</time>
      </trkpt>
      <trkpt lat="44.3169" lon="5.19197">
        <ele>504</ele>
        <time>2022-07-17T09:40:46Z</time>
      </trkpt>
      <trkpt lat="44.31687" lon="5.19192">
        <ele>504</ele>
        <time>2022-07-17T09:40:47Z</time>
      </trkpt>
      <trkpt lat="44.31677" lon="5.19186">
        <ele>503.7</ele>
        <time>2022-07-17T09:40:48Z</time>
      </trkpt>
      <trkpt lat="44.31674" lon="5.19184">
        <ele>503.6</ele>
        <time>2022-07-17T09:40:49Z</time>
      </trkpt>
      <trkpt lat="44.31668" lon="5.19182">
        <ele>503.4</ele>
        <time>2022-07-17T09:40:50Z</time>
      </trkpt>
      <trkpt lat="44.31662" lon="5.19181">
        <ele>503.2</ele>
        <time>2022-07-17T09:40:51Z</time>
      </trkpt>
      <trkpt lat="44.31656" lon="5.1918">
        <ele>503</ele>
        <time>2022-07-17T09:40:52Z</time>
      </trkpt>
      <trkpt lat="44.31647" lon="5.19183">
        <ele>502.7</ele>
        <time>2022-07-17T09:40:53Z</time>
      </trkpt>
      <trkpt lat="44.31639" lon="5.19183">
        <ele>502.4</ele>
        <time>2022-07-17T09:40:54Z</time>
      </trkpt>
      <trkpt lat="44.31634" lon="5.19183">
        <ele>502.2</ele>
        <time>2022-07-17T09:40:55Z</time>
      </trkpt>
      <trkpt lat="44.31627" lon="5.19177">
        <ele>502</ele>
        <time>2022-07-17T09:40:56Z</time>
      </trkpt>
      <trkpt lat="44.31623" lon="5.19173">
        <ele>501.9</ele>
        <time>2022-07-17T09:40:57Z</time>
      </trkpt>
      <trkpt lat="44.31621" lon="5.19169">
        <ele>501.8</ele>
        <time>2022-07-17T09:40:58Z</time>
      </trkpt>
      <trkpt lat="44.3162" lon="5.19168">
        <ele>501.8</ele>
        <time>2022-07-17T09:40:59Z</time>
      </trkpt>
      <trkpt lat="44.31617" lon="5.19163">
        <ele>501.7</ele>
        <time>2022-07-17T09:41:00Z</time>
      </trkpt>
      <trkpt lat="44.31613" lon="5.19158">
        <ele>501.7</ele>
        <time>2022-07-17T09:41:01Z</time>
      </trkpt>
      <trkpt lat="44.3161" lon="5.19152">
        <ele>501.6</ele>
        <time>2022-07-17T09:41:02Z</time>
      </trkpt>
      <trkpt lat="44.31606" lon="5.19146">
        <ele>501.5</ele>
        <time>2022-07-17T09:41:03Z</time>
      </trkpt>
      <trkpt lat="44.316" lon="5.19138">
        <ele>501.3</ele>
        <time>2022-07-17T09:41:04Z</time>
      </trkpt>
      <trkpt lat="44.31597" lon="5.1913">
        <ele>501.2</ele>
        <time>2022-07-17T09:41:05Z</time>
      </trkpt>
      <trkpt lat="44.31593" lon="5.19124">
        <ele>501.1</ele>
        <time>2022-07-17T09:41:06Z</time>
      </trkpt>
      <trkpt lat="44.31589" lon="5.19119">
        <ele>500.9</ele>
        <time>2022-07-17T09:41:07Z</time>
      </trkpt>
      <trkpt lat="44.31584" lon="5.19114">
        <ele>500.9</ele>
        <time>2022-07-17T09:41:08Z</time>
      </trkpt>
      <trkpt lat="44.3158" lon="5.19109">
        <ele>500.8</ele>
        <time>2022-07-17T09:41:09Z</time>
      </trkpt>
      <trkpt lat="44.31574" lon="5.19104">
        <ele>500.7</ele>
        <time>2022-07-17T09:41:10Z</time>
      </trkpt>
      <trkpt lat="44.31568" lon="5.19099">
        <ele>500.5</ele>
        <time>2022-07-17T09:41:11Z</time>
      </trkpt>
      <trkpt lat="44.31565" lon="5.19095">
        <ele>500.4</ele>
        <time>2022-07-17T09:41:12Z</time>
      </trkpt>
      <trkpt lat="44.31562" lon="5.19089">
        <ele>500.2</ele>
        <time>2022-07-17T09:41:13Z</time>
      </trkpt>
      <trkpt lat="44.3156" lon="5.19083">
        <ele>500.1</ele>
        <time>2022-07-17T09:41:14Z</time>
      </trkpt>
      <trkpt lat="44.31558" lon="5.19076">
        <ele>499.8</ele>
        <time>2022-07-17T09:41:15Z</time>
      </trkpt>
      <trkpt lat="44.31555" lon="5.19067">
        <ele>499.5</ele>
        <time>2022-07-17T09:41:16Z</time>
      </trkpt>
      <trkpt lat="44.31553" lon="5.19059">
        <ele>499.1</ele>
        <time>2022-07-17T09:41:17Z</time>
      </trkpt>
      <trkpt lat="44.31546" lon="5.1905">
        <ele>498.3</ele>
        <time>2022-07-17T09:41:18Z</time>
      </trkpt>
      <trkpt lat="44.31541" lon="5.19043">
        <ele>497.9</ele>
        <time>2022-07-17T09:41:19Z</time>
      </trkpt>
      <trkpt lat="44.31535" lon="5.19037">
        <ele>497.3</ele>
        <time>2022-07-17T09:41:20Z</time>
      </trkpt>
      <trkpt lat="44.31529" lon="5.19029">
        <ele>496.9</ele>
        <time>2022-07-17T09:41:21Z</time>
      </trkpt>
      <trkpt lat="44.31524" lon="5.19023">
        <ele>496.5</ele>
        <time>2022-07-17T09:41:22Z</time>
      </trkpt>
      <trkpt lat="44.31522" lon="5.19015">
        <ele>496.2</ele>
        <time>2022-07-17T09:41:23Z</time>
      </trkpt>
      <trkpt lat="44.31516" lon="5.19009">
        <ele>495.8</ele>
        <time>2022-07-17T09:41:24Z</time>
      </trkpt>
      <trkpt lat="44.3151" lon="5.19003">
        <ele>495.5</ele>
        <time>2022-07-17T09:41:25Z</time>
      </trkpt>
      <trkpt lat="44.31504" lon="5.18996">
        <ele>495.1</ele>
        <time>2022-07-17T09:41:26Z</time>
      </trkpt>
      <trkpt lat="44.31499" lon="5.18989">
        <ele>494.8</ele>
        <time>2022-07-17T09:41:27Z</time>
      </trkpt>
      <trkpt lat="44.31495" lon="5.18981">
        <ele>494.5</ele>
        <time>2022-07-17T09:41:28Z</time>
      </trkpt>
      <trkpt lat="44.31492" lon="5.1897">
        <ele>494.2</ele>
        <time>2022-07-17T09:41:29Z</time>
      </trkpt>
      <trkpt lat="44.31491" lon="5.18962">
        <ele>493.9</ele>
        <time>2022-07-17T09:41:30Z</time>
      </trkpt>
      <trkpt lat="44.31488" lon="5.18954">
        <ele>493.6</ele>
        <time>2022-07-17T09:41:31Z</time>
      </trkpt>
      <trkpt lat="44.31485" lon="5.18944">
        <ele>493.2</ele>
        <time>2022-07-17T09:41:32Z</time>
      </trkpt>
      <trkpt lat="44.3148" lon="5.18935">
        <ele>492.9</ele>
        <time>2022-07-17T09:41:33Z</time>
      </trkpt>
      <trkpt lat="44.31474" lon="5.18927">
        <ele>492.6</ele>
        <time>2022-07-17T09:41:34Z</time>
      </trkpt>
      <trkpt lat="44.31468" lon="5.18919">
        <ele>492.3</ele>
        <time>2022-07-17T09:41:35Z</time>
      </trkpt>
      <trkpt lat="44.31461" lon="5.18914">
        <ele>492</ele>
        <time>2022-07-17T09:41:36Z</time>
      </trkpt>
      <trkpt lat="44.31454" lon="5.18907">
        <ele>491.6</ele>
        <time>2022-07-17T09:41:37Z</time>
      </trkpt>
      <trkpt lat="44.31446" lon="5.18901">
        <ele>491.1</ele>
        <time>2022-07-17T09:41:38Z</time>
      </trkpt>
      <trkpt lat="44.31441" lon="5.18896">
        <ele>490.8</ele>
        <time>2022-07-17T09:41:39Z</time>
      </trkpt>
      <trkpt lat="44.31437" lon="5.18887">
        <ele>490.4</ele>
        <time>2022-07-17T09:41:40Z</time>
      </trkpt>
      <trkpt lat="44.31431" lon="5.18879">
        <ele>489.8</ele>
        <time>2022-07-17T09:41:41Z</time>
      </trkpt>
      <trkpt lat="44.31423" lon="5.18871">
        <ele>489.1</ele>
        <time>2022-07-17T09:41:42Z</time>
      </trkpt>
      <trkpt lat="44.31416" lon="5.18865">
        <ele>488.6</ele>
        <time>2022-07-17T09:41:43Z</time>
      </trkpt>
      <trkpt lat="44.31408" lon="5.1886">
        <ele>488.2</ele>
        <time>2022-07-17T09:41:44Z</time>
      </trkpt>
      <trkpt lat="44.31402" lon="5.18855">
        <ele>487.9</ele>
        <time>2022-07-17T09:41:45Z</time>
      </trkpt>
      <trkpt lat="44.31388" lon="5.18847">
        <ele>487.1</ele>
        <time>2022-07-17T09:41:46Z</time>
      </trkpt>
      <trkpt lat="44.31382" lon="5.18843">
        <ele>486.7</ele>
        <time>2022-07-17T09:41:47Z</time>
      </trkpt>
      <trkpt lat="44.31377" lon="5.18839">
        <ele>486.4</ele>
        <time>2022-07-17T09:41:48Z</time>
      </trkpt>
      <trkpt lat="44.31374" lon="5.18837">
        <ele>486.2</ele>
        <time>2022-07-17T09:41:49Z</time>
      </trkpt>
      <trkpt lat="44.3137" lon="5.18834">
        <ele>486.1</ele>
        <time>2022-07-17T09:41:50Z</time>
      </trkpt>
      <trkpt lat="44.31366" lon="5.18832">
        <ele>486</ele>
        <time>2022-07-17T09:41:51Z</time>
      </trkpt>
      <trkpt lat="44.31364" lon="5.18831">
        <ele>485.9</ele>
        <time>2022-07-17T09:41:52Z</time>
      </trkpt>
      <trkpt lat="44.31362" lon="5.18829">
        <ele>485.8</ele>
        <time>2022-07-17T09:41:53Z</time>
      </trkpt>
      <trkpt lat="44.31361" lon="5.18829">
        <ele>485.8</ele>
        <time>2022-07-17T09:41:54Z</time>
      </trkpt>
      <trkpt lat="44.31357" lon="5.18828">
        <ele>485.6</ele>
        <time>2022-07-17T09:41:55Z</time>
      </trkpt>
      <trkpt lat="44.31356" lon="5.18828">
        <ele>485.6</ele>
        <time>2022-07-17T09:41:56Z</time>
      </trkpt>
      <trkpt lat="44.31349" lon="5.18825">
        <ele>485.3</ele>
        <time>2022-07-17T09:41:57Z</time>
      </trkpt>
      <trkpt lat="44.31347" lon="5.18824">
        <ele>485.1</ele>
        <time>2022-07-17T09:41:58Z</time>
      </trkpt>
      <trkpt lat="44.31347" lon="5.18824">
        <ele>485.1</ele>
        <time>2022-07-17T09:41:59Z</time>
      </trkpt>
      <trkpt lat="44.31346" lon="5.18824">
        <ele>485.1</ele>
        <time>2022-07-17T09:42:00Z</time>
      </trkpt>
      <trkpt lat="44.31346" lon="5.18824">
        <ele>485.1</ele>
        <time>2022-07-17T09:42:01Z</time>
      </trkpt>
      <trkpt lat="44.31346" lon="5.18823">
        <ele>485.1</ele>
        <time>2022-07-17T09:42:02Z</time>
      </trkpt>
      <trkpt lat="44.31346" lon="5.18823">
        <ele>485.1</ele>
        <time>2022-07-17T09:42:03Z</time>
      </trkpt>
      <trkpt lat="44.31346" lon="5.18823">
        <ele>485.1</ele>
        <time>2022-07-17T09:42:04Z</time>
      </trkpt>
      <trkpt lat="44.31345" lon="5.18823">
        <ele>485</ele>
        <time>2022-07-17T09:42:05Z</time>
      </trkpt>
      <trkpt lat="44.31345" lon="5.18823">
        <ele>485</ele>
        <time>2022-07-17T09:42:06Z</time>
      </trkpt>
      <trkpt lat="44.31345" lon="5.18823">
        <ele>485</ele>
        <time>2022-07-17T09:42:07Z</time>
      </trkpt>
      <trkpt lat="44.31345" lon="5.18822">
        <ele>485</ele>
        <time>2022-07-17T09:42:08Z</time>
      </trkpt>
      <trkpt lat="44.31344" lon="5.18822">
        <ele>485</ele>
        <time>2022-07-17T09:42:18Z</time>
      </trkpt>
      <trkpt lat="44.31344" lon="5.18822">
        <ele>485</ele>
        <time>2022-07-17T09:42:19Z</time>
      </trkpt>
      <trkpt lat="44.31344" lon="5.18822">
        <ele>485</ele>
        <time>2022-07-17T09:42:20Z</time>
      </trkpt>
      <trkpt lat="44.31344" lon="5.18822">
        <ele>485</ele>
        <time>2022-07-17T09:42:21Z</time>
      </trkpt>
      <trkpt lat="44.31344" lon="5.18822">
        <ele>484.9</ele>
        <time>2022-07-17T09:42:22Z</time>
      </trkpt>
      <trkpt lat="44.31343" lon="5.18821">
        <ele>484.9</ele>
        <time>2022-07-17T09:42:23Z</time>
      </trkpt>
      <trkpt lat="44.31343" lon="5.18821">
        <ele>484.9</ele>
        <time>2022-07-17T09:42:24Z</time>
      </trkpt>
      <trkpt lat="44.31342" lon="5.1882">
        <ele>484.8</ele>
        <time>2022-07-17T09:42:25Z</time>
      </trkpt>
      <trkpt lat="44.31341" lon="5.1882">
        <ele>484.8</ele>
        <time>2022-07-17T09:42:26Z</time>
      </trkpt>
      <trkpt lat="44.3134" lon="5.18821">
        <ele>484.7</ele>
        <time>2022-07-17T09:42:27Z</time>
      </trkpt>
      <trkpt lat="44.3134" lon="5.18821">
        <ele>484.7</ele>
        <time>2022-07-17T09:42:28Z</time>
      </trkpt>
      <trkpt lat="44.31339" lon="5.18821">
        <ele>484.7</ele>
        <time>2022-07-17T09:42:29Z</time>
      </trkpt>
      <trkpt lat="44.31338" lon="5.18821">
        <ele>484.6</ele>
        <time>2022-07-17T09:42:30Z</time>
      </trkpt>
      <trkpt lat="44.31337" lon="5.18821">
        <ele>484.6</ele>
        <time>2022-07-17T09:42:31Z</time>
      </trkpt>
      <trkpt lat="44.31337" lon="5.18821">
        <ele>484.5</ele>
        <time>2022-07-17T09:42:32Z</time>
      </trkpt>
      <trkpt lat="44.31336" lon="5.18821">
        <ele>484.5</ele>
        <time>2022-07-17T09:42:33Z</time>
      </trkpt>
      <trkpt lat="44.31335" lon="5.18821">
        <ele>484.5</ele>
        <time>2022-07-17T09:42:34Z</time>
      </trkpt>
      <trkpt lat="44.31335" lon="5.18821">
        <ele>484.4</ele>
        <time>2022-07-17T09:42:35Z</time>
      </trkpt>
      <trkpt lat="44.31334" lon="5.18821">
        <ele>484.4</ele>
        <time>2022-07-17T09:42:38Z</time>
      </trkpt>
      <trkpt lat="44.31333" lon="5.18821">
        <ele>484.3</ele>
        <time>2022-07-17T09:42:39Z</time>
      </trkpt>
      <trkpt lat="44.31329" lon="5.18821">
        <ele>484</ele>
        <time>2022-07-17T09:42:40Z</time>
      </trkpt>
      <trkpt lat="44.31324" lon="5.18822">
        <ele>483.6</ele>
        <time>2022-07-17T09:42:41Z</time>
      </trkpt>
      <trkpt lat="44.31314" lon="5.18825">
        <ele>482.5</ele>
        <time>2022-07-17T09:42:42Z</time>
      </trkpt>
      <trkpt lat="44.31309" lon="5.18822">
        <ele>481.8</ele>
        <time>2022-07-17T09:42:43Z</time>
      </trkpt>
      <trkpt lat="44.31305" lon="5.18823">
        <ele>481.3</ele>
        <time>2022-07-17T09:42:44Z</time>
      </trkpt>
      <trkpt lat="44.313" lon="5.18824">
        <ele>480.7</ele>
        <time>2022-07-17T09:42:45Z</time>
      </trkpt>
      <trkpt lat="44.31296" lon="5.18825">
        <ele>480.2</ele>
        <time>2022-07-17T09:42:46Z</time>
      </trkpt>
      <trkpt lat="44.31293" lon="5.18828">
        <ele>479.8</ele>
        <time>2022-07-17T09:42:47Z</time>
      </trkpt>
      <trkpt lat="44.31292" lon="5.18829">
        <ele>479.7</ele>
        <time>2022-07-17T09:42:48Z</time>
      </trkpt>
      <trkpt lat="44.31289" lon="5.18829">
        <ele>479.3</ele>
        <time>2022-07-17T09:42:49Z</time>
      </trkpt>
      <trkpt lat="44.31287" lon="5.18829">
        <ele>479.1</ele>
        <time>2022-07-17T09:42:50Z</time>
      </trkpt>
      <trkpt lat="44.31286" lon="5.1883">
        <ele>479</ele>
        <time>2022-07-17T09:42:51Z</time>
      </trkpt>
      <trkpt lat="44.31285" lon="5.18831">
        <ele>478.9</ele>
        <time>2022-07-17T09:42:52Z</time>
      </trkpt>
      <trkpt lat="44.31284" lon="5.18831">
        <ele>478.8</ele>
        <time>2022-07-17T09:42:53Z</time>
      </trkpt>
      <trkpt lat="44.31284" lon="5.18832">
        <ele>478.8</ele>
        <time>2022-07-17T09:42:54Z</time>
      </trkpt>
      <trkpt lat="44.31283" lon="5.18832">
        <ele>478.7</ele>
        <time>2022-07-17T09:42:55Z</time>
      </trkpt>
      <trkpt lat="44.31282" lon="5.18833">
        <ele>478.6</ele>
        <time>2022-07-17T09:42:56Z</time>
      </trkpt>
      <trkpt lat="44.31281" lon="5.18833">
        <ele>478.6</ele>
        <time>2022-07-17T09:42:57Z</time>
      </trkpt>
      <trkpt lat="44.31281" lon="5.18834">
        <ele>478.5</ele>
        <time>2022-07-17T09:42:58Z</time>
      </trkpt>
      <trkpt lat="44.31281" lon="5.18834">
        <ele>478.5</ele>
        <time>2022-07-17T09:42:59Z</time>
      </trkpt>
      <trkpt lat="44.31281" lon="5.18834">
        <ele>478.5</ele>
        <time>2022-07-17T09:43:00Z</time>
      </trkpt>
      <trkpt lat="44.31281" lon="5.18834">
        <ele>478.5</ele>
        <time>2022-07-17T09:43:01Z</time>
      </trkpt>
      <trkpt lat="44.31273" lon="5.18833">
        <ele>477.9</ele>
        <time>2022-07-17T09:43:03Z</time>
      </trkpt>
      <trkpt lat="44.31269" lon="5.18832">
        <ele>477.7</ele>
        <time>2022-07-17T09:43:04Z</time>
      </trkpt>
      <trkpt lat="44.31267" lon="5.18832">
        <ele>477.6</ele>
        <time>2022-07-17T09:43:05Z</time>
      </trkpt>
      <trkpt lat="44.31264" lon="5.18833">
        <ele>477.5</ele>
        <time>2022-07-17T09:43:06Z</time>
      </trkpt>
      <trkpt lat="44.31261" lon="5.18832">
        <ele>477.3</ele>
        <time>2022-07-17T09:43:07Z</time>
      </trkpt>
      <trkpt lat="44.31259" lon="5.18832">
        <ele>477.3</ele>
        <time>2022-07-17T09:43:08Z</time>
      </trkpt>
      <trkpt lat="44.31259" lon="5.18831">
        <ele>477.2</ele>
        <time>2022-07-17T09:43:09Z</time>
      </trkpt>
      <trkpt lat="44.31258" lon="5.18831">
        <ele>477.2</ele>
        <time>2022-07-17T09:43:10Z</time>
      </trkpt>
      <trkpt lat="44.31256" lon="5.18829">
        <ele>477.1</ele>
        <time>2022-07-17T09:43:11Z</time>
      </trkpt>
      <trkpt lat="44.31255" lon="5.18828">
        <ele>477.1</ele>
        <time>2022-07-17T09:43:12Z</time>
      </trkpt>
      <trkpt lat="44.31254" lon="5.18828">
        <ele>477</ele>
        <time>2022-07-17T09:43:13Z</time>
      </trkpt>
      <trkpt lat="44.31251" lon="5.18827">
        <ele>476.9</ele>
        <time>2022-07-17T09:43:14Z</time>
      </trkpt>
      <trkpt lat="44.31249" lon="5.18826">
        <ele>476.9</ele>
        <time>2022-07-17T09:43:15Z</time>
      </trkpt>
      <trkpt lat="44.31246" lon="5.18825">
        <ele>476.8</ele>
        <time>2022-07-17T09:43:16Z</time>
      </trkpt>
      <trkpt lat="44.31245" lon="5.18824">
        <ele>476.7</ele>
        <time>2022-07-17T09:43:17Z</time>
      </trkpt>
      <trkpt lat="44.31242" lon="5.18822">
        <ele>476.6</ele>
        <time>2022-07-17T09:43:18Z</time>
      </trkpt>
      <trkpt lat="44.31241" lon="5.18821">
        <ele>476.6</ele>
        <time>2022-07-17T09:43:19Z</time>
      </trkpt>
      <trkpt lat="44.31239" lon="5.18818">
        <ele>476.5</ele>
        <time>2022-07-17T09:43:20Z</time>
      </trkpt>
      <trkpt lat="44.31236" lon="5.18816">
        <ele>476.4</ele>
        <time>2022-07-17T09:43:21Z</time>
      </trkpt>
      <trkpt lat="44.31233" lon="5.18813">
        <ele>476.2</ele>
        <time>2022-07-17T09:43:22Z</time>
      </trkpt>
      <trkpt lat="44.31229" lon="5.1881">
        <ele>476</ele>
        <time>2022-07-17T09:43:23Z</time>
      </trkpt>
      <trkpt lat="44.31226" lon="5.18807">
        <ele>475.8</ele>
        <time>2022-07-17T09:43:24Z</time>
      </trkpt>
      <trkpt lat="44.31223" lon="5.18804">
        <ele>475.6</ele>
        <time>2022-07-17T09:43:25Z</time>
      </trkpt>
      <trkpt lat="44.31221" lon="5.188">
        <ele>475.5</ele>
        <time>2022-07-17T09:43:26Z</time>
      </trkpt>
      <trkpt lat="44.31221" lon="5.18799">
        <ele>475.5</ele>
        <time>2022-07-17T09:43:27Z</time>
      </trkpt>
      <trkpt lat="44.3122" lon="5.18797">
        <ele>475.4</ele>
        <time>2022-07-17T09:43:28Z</time>
      </trkpt>
      <trkpt lat="44.31219" lon="5.18796">
        <ele>475.4</ele>
        <time>2022-07-17T09:43:29Z</time>
      </trkpt>
      <trkpt lat="44.31219" lon="5.18795">
        <ele>475.4</ele>
        <time>2022-07-17T09:43:30Z</time>
      </trkpt>
      <trkpt lat="44.31219" lon="5.1879">
        <ele>475.3</ele>
        <time>2022-07-17T09:43:31Z</time>
      </trkpt>
      <trkpt lat="44.3122" lon="5.18788">
        <ele>475.3</ele>
        <time>2022-07-17T09:43:32Z</time>
      </trkpt>
      <trkpt lat="44.3122" lon="5.18783">
        <ele>475.2</ele>
        <time>2022-07-17T09:43:33Z</time>
      </trkpt>
      <trkpt lat="44.31219" lon="5.18778">
        <ele>475.2</ele>
        <time>2022-07-17T09:43:34Z</time>
      </trkpt>
      <trkpt lat="44.31219" lon="5.18773">
        <ele>475.2</ele>
        <time>2022-07-17T09:43:35Z</time>
      </trkpt>
      <trkpt lat="44.31218" lon="5.18767">
        <ele>475.2</ele>
        <time>2022-07-17T09:43:36Z</time>
      </trkpt>
      <trkpt lat="44.31218" lon="5.18762">
        <ele>475.2</ele>
        <time>2022-07-17T09:43:37Z</time>
      </trkpt>
      <trkpt lat="44.31218" lon="5.18755">
        <ele>475.2</ele>
        <time>2022-07-17T09:43:38Z</time>
      </trkpt>
      <trkpt lat="44.31218" lon="5.18749">
        <ele>475.3</ele>
        <time>2022-07-17T09:43:39Z</time>
      </trkpt>
      <trkpt lat="44.31216" lon="5.18743">
        <ele>475.4</ele>
        <time>2022-07-17T09:43:40Z</time>
      </trkpt>
      <trkpt lat="44.31214" lon="5.18738">
        <ele>475.5</ele>
        <time>2022-07-17T09:43:41Z</time>
      </trkpt>
      <trkpt lat="44.31212" lon="5.18733">
        <ele>475.6</ele>
        <time>2022-07-17T09:43:42Z</time>
      </trkpt>
      <trkpt lat="44.31209" lon="5.18729">
        <ele>475.8</ele>
        <time>2022-07-17T09:43:43Z</time>
      </trkpt>
      <trkpt lat="44.31206" lon="5.18725">
        <ele>475.9</ele>
        <time>2022-07-17T09:43:44Z</time>
      </trkpt>
      <trkpt lat="44.31204" lon="5.18722">
        <ele>476</ele>
        <time>2022-07-17T09:43:45Z</time>
      </trkpt>
      <trkpt lat="44.31201" lon="5.18718">
        <ele>476.1</ele>
        <time>2022-07-17T09:43:46Z</time>
      </trkpt>
      <trkpt lat="44.31199" lon="5.18715">
        <ele>476.2</ele>
        <time>2022-07-17T09:43:47Z</time>
      </trkpt>
      <trkpt lat="44.31195" lon="5.18712">
        <ele>476.3</ele>
        <time>2022-07-17T09:43:48Z</time>
      </trkpt>
      <trkpt lat="44.31192" lon="5.18708">
        <ele>476.5</ele>
        <time>2022-07-17T09:43:49Z</time>
      </trkpt>
      <trkpt lat="44.31188" lon="5.18705">
        <ele>476.6</ele>
        <time>2022-07-17T09:43:50Z</time>
      </trkpt>
      <trkpt lat="44.31185" lon="5.18703">
        <ele>476.7</ele>
        <time>2022-07-17T09:43:51Z</time>
      </trkpt>
      <trkpt lat="44.31182" lon="5.187">
        <ele>476.7</ele>
        <time>2022-07-17T09:43:52Z</time>
      </trkpt>
      <trkpt lat="44.31179" lon="5.18697">
        <ele>476.8</ele>
        <time>2022-07-17T09:43:53Z</time>
      </trkpt>
      <trkpt lat="44.31177" lon="5.18694">
        <ele>476.9</ele>
        <time>2022-07-17T09:43:54Z</time>
      </trkpt>
      <trkpt lat="44.31174" lon="5.1869">
        <ele>477</ele>
        <time>2022-07-17T09:43:55Z</time>
      </trkpt>
      <trkpt lat="44.31171" lon="5.18687">
        <ele>477</ele>
        <time>2022-07-17T09:43:56Z</time>
      </trkpt>
      <trkpt lat="44.31169" lon="5.18684">
        <ele>477.1</ele>
        <time>2022-07-17T09:43:57Z</time>
      </trkpt>
      <trkpt lat="44.31166" lon="5.1868">
        <ele>477.1</ele>
        <time>2022-07-17T09:43:58Z</time>
      </trkpt>
      <trkpt lat="44.31163" lon="5.18676">
        <ele>477.1</ele>
        <time>2022-07-17T09:43:59Z</time>
      </trkpt>
      <trkpt lat="44.3116" lon="5.18673">
        <ele>477.1</ele>
        <time>2022-07-17T09:44:00Z</time>
      </trkpt>
      <trkpt lat="44.31156" lon="5.18669">
        <ele>477.1</ele>
        <time>2022-07-17T09:44:01Z</time>
      </trkpt>
      <trkpt lat="44.31153" lon="5.18666">
        <ele>477.1</ele>
        <time>2022-07-17T09:44:02Z</time>
      </trkpt>
      <trkpt lat="44.3115" lon="5.18663">
        <ele>477.1</ele>
        <time>2022-07-17T09:44:03Z</time>
      </trkpt>
      <trkpt lat="44.31148" lon="5.1866">
        <ele>477.1</ele>
        <time>2022-07-17T09:44:04Z</time>
      </trkpt>
      <trkpt lat="44.31145" lon="5.18657">
        <ele>477.1</ele>
        <time>2022-07-17T09:44:05Z</time>
      </trkpt>
      <trkpt lat="44.31142" lon="5.18654">
        <ele>477</ele>
        <time>2022-07-17T09:44:06Z</time>
      </trkpt>
      <trkpt lat="44.3114" lon="5.18651">
        <ele>477</ele>
        <time>2022-07-17T09:44:07Z</time>
      </trkpt>
      <trkpt lat="44.31138" lon="5.18647">
        <ele>477</ele>
        <time>2022-07-17T09:44:08Z</time>
      </trkpt>
      <trkpt lat="44.31135" lon="5.18643">
        <ele>476.9</ele>
        <time>2022-07-17T09:44:09Z</time>
      </trkpt>
      <trkpt lat="44.31132" lon="5.18637">
        <ele>476.8</ele>
        <time>2022-07-17T09:44:10Z</time>
      </trkpt>
      <trkpt lat="44.31129" lon="5.18633">
        <ele>476.7</ele>
        <time>2022-07-17T09:44:11Z</time>
      </trkpt>
      <trkpt lat="44.31126" lon="5.18628">
        <ele>476.6</ele>
        <time>2022-07-17T09:44:12Z</time>
      </trkpt>
      <trkpt lat="44.31124" lon="5.18622">
        <ele>476.6</ele>
        <time>2022-07-17T09:44:13Z</time>
      </trkpt>
      <trkpt lat="44.31122" lon="5.18617">
        <ele>476.5</ele>
        <time>2022-07-17T09:44:14Z</time>
      </trkpt>
      <trkpt lat="44.3112" lon="5.18611">
        <ele>476.4</ele>
        <time>2022-07-17T09:44:15Z</time>
      </trkpt>
      <trkpt lat="44.31119" lon="5.18605">
        <ele>476.4</ele>
        <time>2022-07-17T09:44:16Z</time>
      </trkpt>
      <trkpt lat="44.31118" lon="5.186">
        <ele>476.3</ele>
        <time>2022-07-17T09:44:17Z</time>
      </trkpt>
      <trkpt lat="44.31117" lon="5.18594">
        <ele>476.3</ele>
        <time>2022-07-17T09:44:18Z</time>
      </trkpt>
      <trkpt lat="44.31115" lon="5.18589">
        <ele>476.2</ele>
        <time>2022-07-17T09:44:19Z</time>
      </trkpt>
      <trkpt lat="44.31113" lon="5.18583">
        <ele>476.2</ele>
        <time>2022-07-17T09:44:20Z</time>
      </trkpt>
      <trkpt lat="44.31111" lon="5.18577">
        <ele>476.1</ele>
        <time>2022-07-17T09:44:21Z</time>
      </trkpt>
      <trkpt lat="44.31109" lon="5.18571">
        <ele>476</ele>
        <time>2022-07-17T09:44:22Z</time>
      </trkpt>
      <trkpt lat="44.31108" lon="5.18565">
        <ele>476</ele>
        <time>2022-07-17T09:44:23Z</time>
      </trkpt>
      <trkpt lat="44.31106" lon="5.18559">
        <ele>475.9</ele>
        <time>2022-07-17T09:44:24Z</time>
      </trkpt>
      <trkpt lat="44.31102" lon="5.18554">
        <ele>475.8</ele>
        <time>2022-07-17T09:44:25Z</time>
      </trkpt>
      <trkpt lat="44.311" lon="5.18549">
        <ele>475.7</ele>
        <time>2022-07-17T09:44:26Z</time>
      </trkpt>
      <trkpt lat="44.31098" lon="5.18544">
        <ele>475.7</ele>
        <time>2022-07-17T09:44:27Z</time>
      </trkpt>
      <trkpt lat="44.31097" lon="5.18539">
        <ele>475.6</ele>
        <time>2022-07-17T09:44:28Z</time>
      </trkpt>
      <trkpt lat="44.31096" lon="5.18532">
        <ele>475.5</ele>
        <time>2022-07-17T09:44:29Z</time>
      </trkpt>
      <trkpt lat="44.31093" lon="5.18527">
        <ele>475.4</ele>
        <time>2022-07-17T09:44:30Z</time>
      </trkpt>
      <trkpt lat="44.3109" lon="5.18521">
        <ele>475.2</ele>
        <time>2022-07-17T09:44:31Z</time>
      </trkpt>
      <trkpt lat="44.31087" lon="5.18516">
        <ele>475.1</ele>
        <time>2022-07-17T09:44:32Z</time>
      </trkpt>
      <trkpt lat="44.31082" lon="5.18511">
        <ele>475</ele>
        <time>2022-07-17T09:44:33Z</time>
      </trkpt>
      <trkpt lat="44.31078" lon="5.18509">
        <ele>475</ele>
        <time>2022-07-17T09:44:34Z</time>
      </trkpt>
      <trkpt lat="44.31071" lon="5.18508">
        <ele>474.9</ele>
        <time>2022-07-17T09:44:35Z</time>
      </trkpt>
      <trkpt lat="44.31066" lon="5.1851">
        <ele>474.8</ele>
        <time>2022-07-17T09:44:36Z</time>
      </trkpt>
      <trkpt lat="44.31059" lon="5.18511">
        <ele>474.8</ele>
        <time>2022-07-17T09:44:37Z</time>
      </trkpt>
      <trkpt lat="44.31053" lon="5.18513">
        <ele>474.8</ele>
        <time>2022-07-17T09:44:38Z</time>
      </trkpt>
      <trkpt lat="44.31048" lon="5.18516">
        <ele>474.9</ele>
        <time>2022-07-17T09:44:39Z</time>
      </trkpt>
      <trkpt lat="44.31044" lon="5.18518">
        <ele>474.9</ele>
        <time>2022-07-17T09:44:40Z</time>
      </trkpt>
      <trkpt lat="44.3104" lon="5.18519">
        <ele>475</ele>
        <time>2022-07-17T09:44:41Z</time>
      </trkpt>
      <trkpt lat="44.31035" lon="5.1852">
        <ele>475.1</ele>
        <time>2022-07-17T09:44:42Z</time>
      </trkpt>
      <trkpt lat="44.31031" lon="5.1852">
        <ele>475.1</ele>
        <time>2022-07-17T09:44:43Z</time>
      </trkpt>
      <trkpt lat="44.31028" lon="5.1852">
        <ele>475.2</ele>
        <time>2022-07-17T09:44:44Z</time>
      </trkpt>
      <trkpt lat="44.31025" lon="5.18522">
        <ele>475.2</ele>
        <time>2022-07-17T09:44:45Z</time>
      </trkpt>
      <trkpt lat="44.31021" lon="5.18521">
        <ele>475.2</ele>
        <time>2022-07-17T09:44:46Z</time>
      </trkpt>
      <trkpt lat="44.31018" lon="5.18522">
        <ele>475.2</ele>
        <time>2022-07-17T09:44:47Z</time>
      </trkpt>
      <trkpt lat="44.31015" lon="5.18524">
        <ele>475.3</ele>
        <time>2022-07-17T09:44:48Z</time>
      </trkpt>
      <trkpt lat="44.31012" lon="5.18524">
        <ele>475.3</ele>
        <time>2022-07-17T09:44:49Z</time>
      </trkpt>
      <trkpt lat="44.31007" lon="5.18525">
        <ele>475.3</ele>
        <time>2022-07-17T09:44:50Z</time>
      </trkpt>
      <trkpt lat="44.31004" lon="5.18525">
        <ele>475.3</ele>
        <time>2022-07-17T09:44:51Z</time>
      </trkpt>
      <trkpt lat="44.31" lon="5.18524">
        <ele>475.4</ele>
        <time>2022-07-17T09:44:52Z</time>
      </trkpt>
      <trkpt lat="44.30995" lon="5.18523">
        <ele>475.4</ele>
        <time>2022-07-17T09:44:53Z</time>
      </trkpt>
      <trkpt lat="44.30991" lon="5.18522">
        <ele>475.4</ele>
        <time>2022-07-17T09:44:54Z</time>
      </trkpt>
      <trkpt lat="44.30986" lon="5.1852">
        <ele>475.4</ele>
        <time>2022-07-17T09:44:55Z</time>
      </trkpt>
      <trkpt lat="44.30982" lon="5.18519">
        <ele>475.4</ele>
        <time>2022-07-17T09:44:56Z</time>
      </trkpt>
      <trkpt lat="44.30978" lon="5.18517">
        <ele>475.5</ele>
        <time>2022-07-17T09:44:57Z</time>
      </trkpt>
      <trkpt lat="44.30973" lon="5.18515">
        <ele>475.5</ele>
        <time>2022-07-17T09:44:58Z</time>
      </trkpt>
      <trkpt lat="44.30969" lon="5.18513">
        <ele>475.5</ele>
        <time>2022-07-17T09:44:59Z</time>
      </trkpt>
      <trkpt lat="44.30966" lon="5.18511">
        <ele>475.5</ele>
        <time>2022-07-17T09:45:00Z</time>
      </trkpt>
      <trkpt lat="44.30962" lon="5.18508">
        <ele>475.6</ele>
        <time>2022-07-17T09:45:01Z</time>
      </trkpt>
      <trkpt lat="44.30958" lon="5.18506">
        <ele>475.6</ele>
        <time>2022-07-17T09:45:02Z</time>
      </trkpt>
      <trkpt lat="44.30955" lon="5.18504">
        <ele>475.7</ele>
        <time>2022-07-17T09:45:03Z</time>
      </trkpt>
      <trkpt lat="44.30952" lon="5.18502">
        <ele>475.7</ele>
        <time>2022-07-17T09:45:04Z</time>
      </trkpt>
      <trkpt lat="44.30948" lon="5.18499">
        <ele>475.8</ele>
        <time>2022-07-17T09:45:05Z</time>
      </trkpt>
      <trkpt lat="44.30945" lon="5.18497">
        <ele>475.8</ele>
        <time>2022-07-17T09:45:06Z</time>
      </trkpt>
      <trkpt lat="44.30942" lon="5.18494">
        <ele>475.9</ele>
        <time>2022-07-17T09:45:07Z</time>
      </trkpt>
      <trkpt lat="44.30939" lon="5.18492">
        <ele>475.9</ele>
        <time>2022-07-17T09:45:08Z</time>
      </trkpt>
      <trkpt lat="44.30935" lon="5.18489">
        <ele>475.9</ele>
        <time>2022-07-17T09:45:09Z</time>
      </trkpt>
      <trkpt lat="44.30932" lon="5.18485">
        <ele>476</ele>
        <time>2022-07-17T09:45:10Z</time>
      </trkpt>
      <trkpt lat="44.30928" lon="5.18483">
        <ele>476</ele>
        <time>2022-07-17T09:45:11Z</time>
      </trkpt>
      <trkpt lat="44.30925" lon="5.18479">
        <ele>476</ele>
        <time>2022-07-17T09:45:12Z</time>
      </trkpt>
      <trkpt lat="44.30919" lon="5.18476">
        <ele>476</ele>
        <time>2022-07-17T09:45:13Z</time>
      </trkpt>
      <trkpt lat="44.30915" lon="5.18472">
        <ele>476</ele>
        <time>2022-07-17T09:45:14Z</time>
      </trkpt>
      <trkpt lat="44.30911" lon="5.18469">
        <ele>475.9</ele>
        <time>2022-07-17T09:45:15Z</time>
      </trkpt>
      <trkpt lat="44.30906" lon="5.18465">
        <ele>475.9</ele>
        <time>2022-07-17T09:45:16Z</time>
      </trkpt>
      <trkpt lat="44.30902" lon="5.18462">
        <ele>475.8</ele>
        <time>2022-07-17T09:45:17Z</time>
      </trkpt>
      <trkpt lat="44.30897" lon="5.18458">
        <ele>475.7</ele>
        <time>2022-07-17T09:45:18Z</time>
      </trkpt>
      <trkpt lat="44.30892" lon="5.18454">
        <ele>475.7</ele>
        <time>2022-07-17T09:45:19Z</time>
      </trkpt>
      <trkpt lat="44.30886" lon="5.18452">
        <ele>475.6</ele>
        <time>2022-07-17T09:45:20Z</time>
      </trkpt>
      <trkpt lat="44.30882" lon="5.18449">
        <ele>475.6</ele>
        <time>2022-07-17T09:45:21Z</time>
      </trkpt>
      <trkpt lat="44.30876" lon="5.18448">
        <ele>475.5</ele>
        <time>2022-07-17T09:45:22Z</time>
      </trkpt>
      <trkpt lat="44.30871" lon="5.18446">
        <ele>475.5</ele>
        <time>2022-07-17T09:45:23Z</time>
      </trkpt>
      <trkpt lat="44.30866" lon="5.18444">
        <ele>475.4</ele>
        <time>2022-07-17T09:45:24Z</time>
      </trkpt>
      <trkpt lat="44.30865" lon="5.18442">
        <ele>475.4</ele>
        <time>2022-07-17T09:45:25Z</time>
      </trkpt>
      <trkpt lat="44.30863" lon="5.18441">
        <ele>475.3</ele>
        <time>2022-07-17T09:45:26Z</time>
      </trkpt>
      <trkpt lat="44.3086" lon="5.18438">
        <ele>475.3</ele>
        <time>2022-07-17T09:45:27Z</time>
      </trkpt>
      <trkpt lat="44.30854" lon="5.18434">
        <ele>475.2</ele>
        <time>2022-07-17T09:45:28Z</time>
      </trkpt>
      <trkpt lat="44.3085" lon="5.18432">
        <ele>475.2</ele>
        <time>2022-07-17T09:45:29Z</time>
      </trkpt>
      <trkpt lat="44.30846" lon="5.18429">
        <ele>475.1</ele>
        <time>2022-07-17T09:45:30Z</time>
      </trkpt>
      <trkpt lat="44.30841" lon="5.18427">
        <ele>475</ele>
        <time>2022-07-17T09:45:31Z</time>
      </trkpt>
      <trkpt lat="44.30837" lon="5.18428">
        <ele>474.9</ele>
        <time>2022-07-17T09:45:32Z</time>
      </trkpt>
      <trkpt lat="44.30833" lon="5.18426">
        <ele>474.8</ele>
        <time>2022-07-17T09:45:33Z</time>
      </trkpt>
      <trkpt lat="44.30828" lon="5.18424">
        <ele>474.7</ele>
        <time>2022-07-17T09:45:34Z</time>
      </trkpt>
      <trkpt lat="44.30823" lon="5.18421">
        <ele>474.6</ele>
        <time>2022-07-17T09:45:35Z</time>
      </trkpt>
      <trkpt lat="44.30819" lon="5.18419">
        <ele>474.5</ele>
        <time>2022-07-17T09:45:36Z</time>
      </trkpt>
      <trkpt lat="44.30814" lon="5.18417">
        <ele>474.4</ele>
        <time>2022-07-17T09:45:37Z</time>
      </trkpt>
      <trkpt lat="44.3081" lon="5.18412">
        <ele>474.3</ele>
        <time>2022-07-17T09:45:38Z</time>
      </trkpt>
      <trkpt lat="44.30806" lon="5.1841">
        <ele>474.2</ele>
        <time>2022-07-17T09:45:39Z</time>
      </trkpt>
      <trkpt lat="44.30802" lon="5.18407">
        <ele>474</ele>
        <time>2022-07-17T09:45:40Z</time>
      </trkpt>
      <trkpt lat="44.30799" lon="5.18404">
        <ele>473.9</ele>
        <time>2022-07-17T09:45:41Z</time>
      </trkpt>
      <trkpt lat="44.30795" lon="5.18401">
        <ele>473.8</ele>
        <time>2022-07-17T09:45:42Z</time>
      </trkpt>
      <trkpt lat="44.30795" lon="5.18396">
        <ele>473.7</ele>
        <time>2022-07-17T09:45:43Z</time>
      </trkpt>
      <trkpt lat="44.30795" lon="5.18393">
        <ele>473.7</ele>
        <time>2022-07-17T09:45:44Z</time>
      </trkpt>
      <trkpt lat="44.30795" lon="5.1839">
        <ele>473.6</ele>
        <time>2022-07-17T09:45:45Z</time>
      </trkpt>
      <trkpt lat="44.30796" lon="5.18391">
        <ele>473.6</ele>
        <time>2022-07-17T09:45:46Z</time>
      </trkpt>
      <trkpt lat="44.30798" lon="5.18392">
        <ele>473.5</ele>
        <time>2022-07-17T09:45:47Z</time>
      </trkpt>
      <trkpt lat="44.30798" lon="5.18391">
        <ele>473.5</ele>
        <time>2022-07-17T09:45:48Z</time>
      </trkpt>
      <trkpt lat="44.30799" lon="5.18391">
        <ele>473.5</ele>
        <time>2022-07-17T09:45:49Z</time>
      </trkpt>
      <trkpt lat="44.308" lon="5.18391">
        <ele>473.4</ele>
        <time>2022-07-17T09:45:50Z</time>
      </trkpt>
      <trkpt lat="44.30801" lon="5.18391">
        <ele>473.4</ele>
        <time>2022-07-17T09:45:51Z</time>
      </trkpt>
      <trkpt lat="44.30802" lon="5.18392">
        <ele>473.4</ele>
        <time>2022-07-17T09:45:52Z</time>
      </trkpt>
      <trkpt lat="44.30803" lon="5.18393">
        <ele>473.3</ele>
        <time>2022-07-17T09:45:53Z</time>
      </trkpt>
      <trkpt lat="44.30804" lon="5.18395">
        <ele>473.3</ele>
        <time>2022-07-17T09:45:54Z</time>
      </trkpt>
      <trkpt lat="44.30806" lon="5.18396">
        <ele>473.3</ele>
        <time>2022-07-17T09:45:55Z</time>
      </trkpt>
      <trkpt lat="44.30807" lon="5.18396">
        <ele>473.2</ele>
        <time>2022-07-17T09:45:56Z</time>
      </trkpt>
      <trkpt lat="44.30808" lon="5.18397">
        <ele>473.2</ele>
        <time>2022-07-17T09:45:57Z</time>
      </trkpt>
      <trkpt lat="44.30809" lon="5.18397">
        <ele>473.2</ele>
        <time>2022-07-17T09:45:58Z</time>
      </trkpt>
      <trkpt lat="44.3081" lon="5.18398">
        <ele>473.2</ele>
        <time>2022-07-17T09:45:59Z</time>
      </trkpt>
      <trkpt lat="44.3081" lon="5.18399">
        <ele>473.1</ele>
        <time>2022-07-17T09:46:00Z</time>
      </trkpt>
      <trkpt lat="44.30811" lon="5.184">
        <ele>473.1</ele>
        <time>2022-07-17T09:46:01Z</time>
      </trkpt>
      <trkpt lat="44.30811" lon="5.184">
        <ele>473.1</ele>
        <time>2022-07-17T09:46:02Z</time>
      </trkpt>
      <trkpt lat="44.30811" lon="5.184">
        <ele>473.1</ele>
        <time>2022-07-17T09:46:03Z</time>
      </trkpt>
      <trkpt lat="44.30811" lon="5.184">
        <ele>473.1</ele>
        <time>2022-07-17T09:46:04Z</time>
      </trkpt>
      <trkpt lat="44.30811" lon="5.184">
        <ele>473.1</ele>
        <time>2022-07-17T09:46:05Z</time>
      </trkpt>
      <trkpt lat="44.30811" lon="5.184">
        <ele>473.1</ele>
        <time>2022-07-17T09:46:06Z</time>
      </trkpt>
      <trkpt lat="44.30811" lon="5.184">
        <ele>473.1</ele>
        <time>2022-07-17T09:46:07Z</time>
      </trkpt>
      <trkpt lat="44.30811" lon="5.184">
        <ele>473.1</ele>
        <time>2022-07-17T09:46:08Z</time>
      </trkpt>
      <trkpt lat="44.30811" lon="5.18399">
        <ele>473.1</ele>
        <time>2022-07-17T09:46:09Z</time>
      </trkpt>
      <trkpt lat="44.3081" lon="5.18398">
        <ele>473.1</ele>
        <time>2022-07-17T09:46:10Z</time>
      </trkpt>
      <trkpt lat="44.3081" lon="5.18397">
        <ele>473</ele>
        <time>2022-07-17T09:46:11Z</time>
      </trkpt>
      <trkpt lat="44.30809" lon="5.18396">
        <ele>473</ele>
        <time>2022-07-17T09:46:12Z</time>
      </trkpt>
      <trkpt lat="44.30808" lon="5.18397">
        <ele>473</ele>
        <time>2022-07-17T09:46:13Z</time>
      </trkpt>
      <trkpt lat="44.30807" lon="5.18397">
        <ele>472.9</ele>
        <time>2022-07-17T09:46:14Z</time>
      </trkpt>
      <trkpt lat="44.30806" lon="5.18398">
        <ele>472.9</ele>
        <time>2022-07-17T09:46:15Z</time>
      </trkpt>
      <trkpt lat="44.30806" lon="5.18398">
        <ele>472.9</ele>
        <time>2022-07-17T09:46:16Z</time>
      </trkpt>
      <trkpt lat="44.30806" lon="5.18398">
        <ele>472.9</ele>
        <time>2022-07-17T09:46:17Z</time>
      </trkpt>
      <trkpt lat="44.30806" lon="5.18398">
        <ele>472.9</ele>
        <time>2022-07-17T09:46:18Z</time>
      </trkpt>
      <trkpt lat="44.30806" lon="5.18398">
        <ele>472.9</ele>
        <time>2022-07-17T09:46:19Z</time>
      </trkpt>
      <trkpt lat="44.30806" lon="5.18398">
        <ele>472.9</ele>
        <time>2022-07-17T09:46:20Z</time>
      </trkpt>
      <trkpt lat="44.30806" lon="5.18398">
        <ele>472.9</ele>
        <time>2022-07-17T09:46:21Z</time>
      </trkpt>
      <trkpt lat="44.30806" lon="5.18398">
        <ele>472.9</ele>
        <time>2022-07-17T09:46:22Z</time>
      </trkpt>
      <trkpt lat="44.30806" lon="5.18398">
        <ele>472.9</ele>
        <time>2022-07-17T09:46:23Z</time>
      </trkpt>
      <trkpt lat="44.30806" lon="5.18398">
        <ele>472.9</ele>
        <time>2022-07-17T09:46:24Z</time>
      </trkpt>
      <trkpt lat="44.30806" lon="5.18398">
        <ele>472.9</ele>
        <time>2022-07-17T09:46:25Z</time>
      </trkpt>
    </trkseg>
  </trk>
</gpx>